# Wetter Temperatur Luftdruck Luftfeuchtigkeit Sichtweite Windgeschwindigkeit Windrichtung Zeit
1 Clouds 10 1019 29 10000 5.1 50 10:18 08.04.2020
2 Clouds 9 1019 31 10000 6.7 60 09:42 08.04.2020
3 Clouds 7 1020 30 10000 8.2 60 09:21 08.04.2020
4 Clouds 7 1020 33 10000 8.2 60 08:59 08.04.2020
5 Clouds 7 1020 33 10000 8.2 60 08:41 08.04.2020
6 Clouds 7 1020 36 10000 5.7 70 08:21 08.04.2020
7 Clouds 6 1020 48 10000 4.1 30 07:43 08.04.2020
8 Clouds 5 1020 52 10000 5.1 20 07:23 08.04.2020
9 Clouds 5 1020 60 10000 3.1 30 06:48 08.04.2020
10 Clouds 3 1019 59 10000 8.2 30 05:49 08.04.2020
11 Clouds 4 1020 60 10000 5.1 30 03:34 08.04.2020
12 Clouds 5 1020 60 10000 5.7 10 02:41 08.04.2020
13 Clouds 5 1021 56 10000 5.1 10 02:19 08.04.2020
14 Clouds 6 1021 60 10000 7.2 10 01:30 08.04.2020
15 Clouds 6 1021 56 10000 5.1 10 00:57 08.04.2020
16 Clouds 6 1021 56 10000 5.1 10 00:39 08.04.2020
17 Clouds 6 1021 56 10000 5.1 30 00:19 08.04.2020
18 Clouds 6 1020 56 10000 11.3 50 23:39 07.04.2020
19 Clouds 6 1020 52 10000 12.9 50 23:20 07.04.2020
20 Clouds 7 1019 52 10000 13.4 50 22:56 07.04.2020
21 Clouds 7 1019 52 10000 13.4 50 22:38 07.04.2020
22 Clouds 7 1020 52 10000 7.7 50 22:19 07.04.2020
23 Clouds 8 1021 45 10000 8.2 50 21:54 07.04.2020
24 Clouds 8 1020 45 10000 10.3 50 21:36 07.04.2020
25 Clouds 10 1019 37 10000 6.2 60 21:18 07.04.2020
26 Clouds 11 1019 37 10000 6.2 60 20:41 07.04.2020
27 Clouds 10 1019 37 10000 6.2 60 20:21 07.04.2020
28 Clouds 11 1019 37 10000 7.2 60 19:59 07.04.2020
29 Clouds 10 1019 39 10000 10.3 50 19:38 07.04.2020
30 Clouds 10 1019 39 10000 10.3 50 19:38 07.04.2020
31 Clouds 10 1019 39 10000 10.3 50 19:20 07.04.2020
32 Clouds 10 1019 37 10000 8.2 50 18:59 07.04.2020
33 Clouds 12 1019 34 10000 9.3 50 18:41 07.04.2020
34 Clouds 13 1019 33 10000 9.3 60 18:21 07.04.2020
35 Clouds 13 1019 33 10000 9.3 60 17:55 07.04.2020
36 Clouds 13 1019 33 10000 9.3 60 17:37 07.04.2020
37 Clouds 14 1019 30 10000 9.3 50 17:19 07.04.2020
38 Clouds 14 1019 30 10000 9.3 50 16:43 07.04.2020
39 Clouds 14 1019 24 10000 9.3 50 16:25 07.04.2020
40 Clouds 14 1019 24 10000 9.3 50 15:44 07.04.2020
41 Clouds 15 1019 24 10000 9.3 50 15:26 07.04.2020
42 Clouds 14 1019 26 10000 10.8 60 14:56 07.04.2020
43 Clouds 14 1019 26 10000 10.8 60 14:38 07.04.2020
44 Clouds 13 1020 30 10000 9.3 60 14:19 07.04.2020
45 Clouds 13 1020 30 10000 9.3 60 13:42 07.04.2020
46 Clouds 13 1020 30 10000 9.3 60 13:42 07.04.2020
47 Clouds 13 1020 30 10000 9.3 60 13:19 07.04.2020
48 Clouds 12 1020 37 10000 8.2 50 12:57 07.04.2020
49 Clouds 12 1020 37 10000 8.2 50 12:38 07.04.2020
50 Clouds 12 1020 37 10000 8.2 50 12:20 07.04.2020
51 Clouds 11 1020 32 10000 8.2 50 11:57 07.04.2020
52 Clouds 11 1020 32 10000 8.2 50 11:39 07.04.2020
53 Clouds 11 1020 32 10000 8.2 50 11:19 07.04.2020
54 Clouds 9 1020 29 10000 7.7 60 10:39 07.04.2020
55 Clouds 9 1021 36 10000 7.7 50 10:20 07.04.2020
56 Clouds 9 1021 36 10000 7.7 50 10:20 07.04.2020
57 Clouds 8 1021 36 10000 7.7 50 09:56 07.04.2020
58 Clouds 8 1021 36 10000 7.7 50 09:37 07.04.2020
59 Clouds 7 1021 38 10000 7.7 70 09:18 07.04.2020
60 Clouds 7 1021 38 10000 7.7 70 08:40 07.04.2020
61 Clouds 6 1021 38 10000 7.7 70 08:20 07.04.2020
62 Clouds 5 1020 41 10000 5.1 70 07:46 07.04.2020
63 Clouds 4 1020 41 10000 5.1 70 07:26 07.04.2020
64 Clouds 3 1020 51 10000 4.1 80 06:53 07.04.2020
65 Clouds 2 1020 51 10000 4.1 80 06:26 07.04.2020
66 Clouds 2 1020 48 10000 3.6 70 05:56 07.04.2020
67 Clouds 2 1020 48 10000 3.6 70 05:26 07.04.2020
68 Clouds 3 1020 48 10000 2.1 0 04:18 07.04.2020
69 Clouds 4 1020 48 10000 1.5 50 03:21 07.04.2020
70 Clouds 4 1020 48 10000 4.1 70 02:45 07.04.2020
71 Clouds 5 1021 48 10000 6.2 70 01:38 07.04.2020
72 Clouds 5 1021 48 10000 6.2 70 01:20 07.04.2020
73 Clear 5 1021 48 10000 6.2 70 00:25 07.04.2020
74 Clear 6 1020 52 10000 7.7 70 23:42 06.04.2020
75 Clear 6 1020 49 10000 6.2 70 23:21 06.04.2020
76 Clear 7 1020 49 10000 6.2 70 22:54 06.04.2020
77 Clouds 6 1021 56 10000 6.7 30 22:36 06.04.2020
78 Clear 7 1020 61 10000 10.3 60 22:18 06.04.2020
79 Clear 7 1020 61 10000 10.3 60 21:43 06.04.2020
80 Clouds 7 1020 57 10000 8.2 60 21:20 06.04.2020
81 Clouds 8 1020 57 10000 8.2 60 20:57 06.04.2020
82 Clouds 8 1020 57 10000 8.2 60 20:39 06.04.2020
83 Clouds 8 1020 57 10000 8.2 60 20:21 06.04.2020
84 Clouds 9 1020 57 10000 9.8 60 19:58 06.04.2020
85 Clouds 9 1020 57 10000 9.8 60 19:38 06.04.2020
86 Clouds 9 1020 57 10000 9.8 60 19:20 06.04.2020
87 Clouds 10 1019 57 10000 8.7 50 18:43 06.04.2020
88 Clouds 10 1019 57 10000 8.7 50 18:24 06.04.2020
89 Clouds 11 1019 54 10000 8.2 40 17:58 06.04.2020
90 Clouds 11 1019 54 10000 8.2 40 17:39 06.04.2020
91 Clouds 12 1019 50 10000 8.7 40 17:18 06.04.2020
92 Clouds 12 1019 50 10000 8.7 40 16:49 06.04.2020
93 Clouds 12 1019 50 10000 8.7 40 16:30 06.04.2020
94 Clouds 12 1018 54 10000 8.7 40 14:58 06.04.2020
95 Clouds 12 1018 54 10000 8.7 40 14:58 06.04.2020
96 Clouds 12 1018 54 10000 8.7 40 14:58 06.04.2020
97 Clouds 12 1018 54 10000 8.7 40 14:58 06.04.2020
98 Clouds 12 1018 54 10000 8.7 40 14:58 06.04.2020
99 Clouds 12 1019 58 10000 7.2 50 13:45 06.04.2020
100 Clouds 12 1019 58 10000 7.2 50 13:22 06.04.2020
101 Clouds 12 1019 62 10000 9.3 60 12:46 06.04.2020
102 Clouds 12 1019 62 10000 9.3 60 12:20 06.04.2020
103 Clouds 12 1019 62 10000 9.3 60 12:20 06.04.2020
104 Clouds 11 1018 62 10000 6.7 50 11:42 06.04.2020
105 Clouds 11 1018 62 10000 6.7 50 11:24 06.04.2020
106 Clouds 11 1018 62 10000 6.7 50 11:24 06.04.2020
107 Clouds 11 1018 62 10000 6.7 50 11:24 06.04.2020
108 Clouds 11 1018 62 10000 6.7 50 11:24 06.04.2020
109 Clouds 11 1018 62 10000 6.7 50 11:23 06.04.2020
110 Clouds 11 1018 66 10000 8.2 50 10:42 06.04.2020
111 Clouds 11 1018 66 10000 8.2 50 10:42 06.04.2020
112 Clouds 11 1018 66 10000 8.2 50 10:42 06.04.2020
113 Clouds 11 1018 66 10000 8.2 50 10:42 06.04.2020
114 Clouds 11 1018 66 10000 8.2 50 10:42 06.04.2020
115 Clouds 11 1018 66 10000 8.2 50 10:21 06.04.2020
116 Clouds 11 1018 66 10000 8.2 50 10:21 06.04.2020
117 Clouds 11 1018 66 10000 8.2 50 10:21 06.04.2020
118 Clouds 11 1018 66 10000 8.2 50 10:20 06.04.2020
119 Clouds 11 1018 62 10000 6.7 50 09:40 06.04.2020
120 Clouds 11 1018 62 10000 6.7 50 09:40 06.04.2020
121 Clouds 11 1018 62 10000 6.7 50 09:20 06.04.2020
122 Clouds 11 1018 62 10000 6.7 50 09:20 06.04.2020
123 Clouds 10 1017 71 10000 6.2 60 08:47 06.04.2020
124 Clouds 10 1017 71 10000 6.2 60 08:28 06.04.2020
125 Clouds 10 1017 71 10000 6.2 60 08:28 06.04.2020
126 Clouds 10 1017 71 10000 6.2 60 08:28 06.04.2020
127 Clouds 10 1017 71 10000 6.2 60 08:28 06.04.2020
128 Clouds 10 1017 71 10000 6.2 60 08:27 06.04.2020
129 Clouds 10 1016 71 10000 5.7 60 07:23 06.04.2020
130 Clouds 10 1016 71 10000 5.7 60 07:23 06.04.2020
131 Clouds 10 1016 71 10000 5.7 60 07:23 06.04.2020
132 Clouds 10 1016 71 10000 5.7 60 07:23 06.04.2020
133 Clouds 9 1015 76 10000 3.38 73 06:27 06.04.2020
134 Clouds 8 1014 76 10000 2.1 40 05:54 06.04.2020
135 Clouds 9 1014 71 10000 2.1 110 03:57 06.04.2020
136 Clouds 10 1013 71 10000 1 0 02:54 06.04.2020
137 Clouds 11 1013 71 10000 1 0 01:56 06.04.2020
138 Clouds 10 1013 71 10000 1 0 01:56 06.04.2020
139 Rain 11 1013 66 10000 1 0 00:58 06.04.2020
140 Rain 11 1013 66 10000 1 0 00:28 06.04.2020
141 Rain 11 1013 66 10000 1 0 00:28 06.04.2020
142 Rain 11 1013 66 10000 1 0 00:28 06.04.2020
143 Clouds 11 1012 66 10000 4.1 80 23:55 05.04.2020
144 Clouds 11 1012 66 10000 4.1 80 23:37 05.04.2020
145 Clouds 11 1012 66 10000 4.1 80 23:19 05.04.2020
146 Clouds 12 1011 66 10000 4.6 80 22:54 05.04.2020
147 Clouds 12 1011 66 10000 4.6 80 22:36 05.04.2020
148 Clouds 12 1011 66 10000 4.6 80 22:18 05.04.2020
149 Clouds 12 1011 71 10000 4.1 80 21:41 05.04.2020
150 Clouds 12 1011 71 10000 4.1 80 21:23 05.04.2020
151 Clouds 12 1011 66 10000 5.7 70 20:24 05.04.2020
152 Clouds 12 1011 66 10000 5.7 70 20:24 05.04.2020
153 Clouds 13 1010 66 10000 6.7 40 19:43 05.04.2020
154 Rain 13 1011 66 10000 5.1 30 19:23 05.04.2020
155 Rain 13 1011 54 10000 1.5 0 18:48 05.04.2020
156 Rain 13 1011 54 10000 1.5 0 18:48 05.04.2020
157 Rain 14 1011 54 10000 1.5 0 18:18 05.04.2020
158 Clouds 14 1010 58 10000 5.7 60 17:46 05.04.2020
159 Clouds 14 1010 58 10000 5.7 60 17:46 05.04.2020
160 Clouds 14 1010 58 10000 5.7 60 17:46 05.04.2020
161 Clouds 14 1010 58 10000 5.7 60 17:46 05.04.2020
162 Clouds 14 1010 58 10000 5.7 60 17:46 05.04.2020
163 Clouds 14 1010 58 10000 7.7 60 17:22 05.04.2020
164 Clouds 15 1010 58 10000 7.7 60 16:47 05.04.2020
165 Clouds 15 1011 48 10000 9.3 70 16:19 05.04.2020
166 Clouds 15 1011 48 10000 9.3 70 15:45 05.04.2020
167 Clouds 15 1011 48 10000 9.3 70 15:45 05.04.2020
168 Clouds 15 1011 48 10000 9.3 70 15:45 05.04.2020
169 Clouds 15 1011 51 10000 10.3 60 15:25 05.04.2020
170 Clouds 15 1011 51 10000 10.3 60 14:48 05.04.2020
171 Clouds 15 1011 51 10000 10.3 60 14:48 05.04.2020
172 Clouds 15 1011 51 10000 10.3 60 14:48 05.04.2020
173 Clouds 15 1011 51 10000 10.3 60 14:48 05.04.2020
174 Clouds 15 1011 51 10000 10.3 60 14:48 05.04.2020
175 Clouds 15 1013 51 10000 10.3 70 13:59 05.04.2020
176 Clouds 15 1013 51 10000 10.3 70 13:40 05.04.2020
177 Clouds 15 1013 51 10000 10.3 70 13:40 05.04.2020
178 Clouds 15 1013 51 10000 10.3 70 13:40 05.04.2020
179 Clouds 15 1013 51 10000 10.3 70 13:40 05.04.2020
180 Clouds 15 1013 51 10000 10.3 70 13:40 05.04.2020
181 Clouds 13 1014 58 10000 6.2 70 12:20 05.04.2020
182 Clouds 13 1014 58 10000 6.2 70 12:20 05.04.2020
183 Clouds 13 1014 58 10000 6.2 70 12:20 05.04.2020
184 Clouds 12 1015 66 10000 5.7 90 11:39 05.04.2020
185 Clouds 12 1015 66 10000 5.7 90 11:19 05.04.2020
186 Clouds 12 1016 62 10000 4.6 90 10:47 05.04.2020
187 Clouds 11 1016 62 10000 4.6 80 10:22 05.04.2020
188 Clouds 11 1016 62 10000 4.6 80 10:22 05.04.2020
189 Clouds 11 1016 62 10000 4.6 80 09:53 05.04.2020
190 Clouds 11 1016 62 10000 4.6 80 09:26 05.04.2020
191 Clouds 11 1016 62 10000 4.6 80 09:26 05.04.2020
192 Clouds 11 1016 62 10000 4.6 80 09:26 05.04.2020
193 Clouds 11 1016 62 10000 4.6 80 09:26 05.04.2020
194 Clouds 11 1016 62 10000 4.6 80 09:26 05.04.2020
195 Rain 11 1017 66 10000 1 0 08:18 05.04.2020
196 Clouds 9 1016 71 10000 2.1 60 05:45 05.04.2020
197 Clouds 10 1016 62 10000 1.5 0 04:29 05.04.2020
198 Clouds 10 1016 62 10000 1.5 0 04:29 05.04.2020
199 Clouds 9 1016 81 10000 2.1 330 03:27 05.04.2020
200 Clouds 9 1017 71 10000 1 0 02:18 05.04.2020
201 Clouds 9 1017 71 10000 2.6 100 01:42 05.04.2020
202 Clouds 9 1017 71 10000 2.6 100 01:18 05.04.2020
203 Clouds 9 1017 71 10000 2.6 100 01:18 05.04.2020
204 Clouds 9 1018 71 10000 1 0 00:37 05.04.2020
205 Clouds 9 1018 71 10000 1 0 00:18 05.04.2020
206 Clouds 9 1019 71 10000 2.1 110 23:41 04.04.2020
207 Clouds 9 1019 71 10000 0.5 0 23:21 04.04.2020
208 Clouds 9 1019 71 10000 0.5 0 22:57 04.04.2020
209 Clouds 9 1019 71 10000 0.5 0 22:39 04.04.2020
210 Clouds 9 1019 71 10000 0.5 0 22:19 04.04.2020
211 Clouds 10 1019 71 10000 0.5 0 21:57 04.04.2020
212 Clouds 10 1019 66 10000 2.1 110 21:38 04.04.2020
213 Clouds 10 1019 66 10000 2.1 110 21:19 04.04.2020
214 Clouds 10 1019 62 10000 3.1 70 20:54 04.04.2020
215 Clouds 10 1019 62 10000 3.1 70 20:36 04.04.2020
216 Clouds 10 1019 62 10000 3.1 70 20:18 04.04.2020
217 Clouds 11 1019 62 10000 1.35 81 19:41 04.04.2020
218 Clouds 11 1019 62 10000 1.35 81 19:20 04.04.2020
219 Clouds 11 1019 62 10000 2.1 60 18:59 04.04.2020
220 Clouds 11 1019 62 10000 2.1 60 18:59 04.04.2020
221 Clouds 11 1019 62 10000 2.1 60 18:39 04.04.2020
222 Clouds 11 1019 62 10000 2.1 60 18:21 04.04.2020
223 Clouds 12 1019 54 10000 2.1 50 17:58 04.04.2020
224 Clouds 12 1019 54 10000 2.1 50 17:39 04.04.2020
225 Clouds 12 1019 50 10000 0.5 50 17:19 04.04.2020
226 Clouds 12 1019 50 10000 0.5 50 16:45 04.04.2020
227 Clouds 12 1019 50 10000 0.5 50 16:27 04.04.2020
228 Clouds 12 1019 50 10000 0.5 50 15:59 04.04.2020
229 Clouds 12 1019 50 10000 0.5 50 15:59 04.04.2020
230 Rain 12 1019 47 10000 2.1 50 15:39 04.04.2020
231 Rain 12 1019 47 10000 2.1 50 15:19 04.04.2020
232 Clouds 12 1020 47 10000 2.1 230 14:54 04.04.2020
233 Clouds 13 1020 47 10000 2.1 230 14:36 04.04.2020
234 Clouds 13 1020 47 10000 2.1 230 14:18 04.04.2020
235 Clouds 13 1020 47 10000 2.6 170 13:42 04.04.2020
236 Clouds 13 1020 47 10000 2.6 170 13:21 04.04.2020
237 Clouds 13 1020 47 10000 2.6 170 13:21 04.04.2020
238 Clouds 13 1020 47 10000 2.6 170 12:58 04.04.2020
239 Clouds 12 1020 47 10000 4.1 180 12:40 04.04.2020
240 Clouds 12 1020 47 10000 4.1 180 12:20 04.04.2020
241 Clouds 12 1020 54 10000 0.5 0 11:42 04.04.2020
242 Clouds 12 1020 54 10000 0.5 0 11:42 04.04.2020
243 Clouds 11 1020 57 10000 1.5 0 11:23 04.04.2020
244 Clouds 11 1020 57 10000 1.5 0 10:59 04.04.2020
245 Clouds 11 1020 57 10000 1.5 0 10:41 04.04.2020
246 Clouds 10 1020 57 10000 1.5 0 10:23 04.04.2020
247 Clouds 10 1020 57 10000 1.5 0 09:57 04.04.2020
248 Clouds 9 1020 57 10000 2.6 70 09:39 04.04.2020
249 -273 0 0 0 0 0 09:20 04.04.2020
250 Clouds 6 1020 80 10000 1.37 125 08:44 04.04.2020
251 Clouds 5 1021 86 10000 1 230 08:23 04.04.2020
252 Clouds 4 1020 93 10000 1.37 125 07:59 04.04.2020
253 Clouds 3 1020 93 10000 1.37 125 07:39 04.04.2020
254 Clouds 2 1019 40 10000 1.37 125 07:21 04.04.2020
255 Clouds 1 1019 40 10000 1.37 125 06:38 04.04.2020
256 Clouds 0 1019 54 10000 0.5 0 05:52 04.04.2020
257 Clouds 0 1019 54 10000 0.5 0 05:52 04.04.2020
258 Clouds 0 1019 54 10000 0.5 0 05:33 04.04.2020
259 Clouds 0 1019 54 10000 0.9 138 04:34 04.04.2020
260 Clouds 1 1019 54 10000 1 220 03:57 04.04.2020
261 Clouds 1 1019 54 10000 1 220 03:36 04.04.2020
262 Clear 1 1019 54 10000 0.5 230 02:46 04.04.2020
263 Clear 1 1019 55 10000 0.5 230 02:25 04.04.2020
264 Clear 2 1019 93 10000 1 50 01:31 04.04.2020
265 Clear 2 1019 93 10000 1 50 00:59 04.04.2020
266 Clear 3 1019 86 10000 1 40 00:35 04.04.2020
267 Clear 3 1018 86 10000 2.1 250 23:59 03.04.2020
268 Clear 3 1018 86 10000 2.1 250 23:38 03.04.2020
269 Clear 3 1018 86 10000 2.1 250 23:19 03.04.2020
270 Clear 4 1018 80 10000 2.1 230 22:41 03.04.2020
271 Clear 5 1018 80 10000 2.1 230 22:19 03.04.2020
272 Clear 5 1018 80 10000 2.1 230 21:57 03.04.2020
273 Clouds 6 1018 75 10000 0.5 0 21:38 03.04.2020
274 Clouds 6 1018 75 10000 0.5 0 21:20 03.04.2020
275 Clouds 6 1017 75 10000 1.5 250 20:55 03.04.2020
276 Clouds 6 1017 75 10000 1.5 250 20:36 03.04.2020
277 Clouds 7 1017 75 10000 1.5 250 20:18 03.04.2020
278 Clouds 7 1016 70 10000 1 0 19:55 03.04.2020
279 Clouds 7 1016 70 10000 1 0 19:36 03.04.2020
280 Clouds 7 1016 70 10000 1 0 19:18 03.04.2020
281 Clouds 7 1015 70 10000 0.5 0 18:57 03.04.2020
282 Clouds 7 1015 70 10000 0.5 0 18:39 03.04.2020
283 Clouds 7 1015 70 10000 0.5 0 18:39 03.04.2020
284 Clouds 7 1015 70 10000 0.5 0 18:21 03.04.2020
285 Clouds 8 1014 65 10000 3.1 250 17:41 03.04.2020
286 Clouds 8 1014 66 10000 3.1 260 17:19 03.04.2020
287 Clouds 8 1014 66 10000 3.1 260 16:55 03.04.2020
288 Clouds 8 1014 66 10000 3.1 260 16:36 03.04.2020
289 Clouds 8 1014 66 10000 3.1 260 16:36 03.04.2020
290 Clouds 8 1014 66 10000 3.1 260 16:18 03.04.2020
291 Clouds 8 1014 66 10000 2.1 0 15:55 03.04.2020
292 Clouds 8 1014 66 10000 2.1 0 15:36 03.04.2020
293 Clouds 8 1014 66 10000 2.1 0 15:18 03.04.2020
294 Clouds 8 1013 61 10000 6.2 290 14:40 03.04.2020
295 Rain 7 1013 81 10000 2.6 360 14:22 03.04.2020
296 Rain 7 1013 81 10000 2.6 360 13:47 03.04.2020
297 Rain 7 1013 81 10000 2.6 360 13:27 03.04.2020
298 Rain 7 1013 75 10000 2.1 0 12:58 03.04.2020
299 Rain 7 1013 75 10000 2.1 0 12:40 03.04.2020
300 Rain 7 1013 75 10000 2.1 0 12:18 03.04.2020
301 Rain 6 1013 75 10000 5.7 240 11:55 03.04.2020
302 Rain 6 1013 75 10000 5.7 240 11:37 03.04.2020
303 Clouds 6 1012 75 10000 5.1 250 11:18 03.04.2020
304 Clouds 6 1012 75 10000 5.1 250 10:57 03.04.2020
305 Clouds 6 1012 75 10000 5.1 250 10:57 03.04.2020
306 Clouds 6 1012 75 10000 5.1 250 10:38 03.04.2020
307 Clouds 5 1012 75 10000 5.1 250 10:19 03.04.2020
308 Clouds 5 1012 75 10000 5.1 250 09:56 03.04.2020
309 Clouds 5 1012 75 10000 5.1 250 09:37 03.04.2020
310 Clouds 5 1012 75 10000 5.1 250 09:37 03.04.2020
311 Clouds 5 1012 75 10000 5.1 250 09:19 03.04.2020
312 Clouds 5 1011 80 10000 5.1 250 08:44 03.04.2020
313 Clouds 4 1011 80 10000 5.1 250 08:25 03.04.2020
314 Clouds 4 1011 86 10000 2.1 240 07:57 03.04.2020
315 Clouds 4 1011 86 10000 2.1 240 07:39 03.04.2020
316 Clouds 3 1011 86 10000 2.1 240 07:20 03.04.2020
317 Rain 3 1010 93 10000 1.5 160 06:28 03.04.2020
318 Rain 3 1010 80 10000 2.1 220 05:43 03.04.2020
319 Clouds 4 1010 80 10000 4.1 230 04:27 03.04.2020
320 Rain 4 1009 86 10000 3.1 250 03:33 03.04.2020
321 Rain 5 1009 81 10000 3.1 220 02:39 03.04.2020
322 Rain 6 1009 93 10000 1 150 01:25 03.04.2020
323 Rain 6 1009 87 10000 3.34 238 00:47 03.04.2020
324 Rain 6 1009 87 10000 3.34 238 00:29 03.04.2020
325 Rain 6 1009 87 10000 2.6 180 23:54 02.04.2020
326 Rain 6 1009 87 10000 2.6 180 23:36 02.04.2020
327 Rain 6 1009 87 10000 2.6 180 23:18 02.04.2020
328 Rain 6 1009 87 10000 1 0 22:41 02.04.2020
329 Thunderstorm 7 1009 93 10000 8.2 290 22:22 02.04.2020
330 Thunderstorm 7 1009 93 10000 8.2 290 22:22 02.04.2020
331 Thunderstorm 7 1009 93 10000 8.2 290 21:57 02.04.2020
332 Thunderstorm 7 1009 93 10000 8.2 290 21:37 02.04.2020
333 Rain 7 1008 81 10000 3.1 230 21:18 02.04.2020
334 Rain 9 1007 76 10000 2.6 220 20:44 02.04.2020
335 Clouds 9 1007 76 10000 2.6 0 20:24 02.04.2020
336 Clouds 9 1007 76 10000 2.6 0 19:57 02.04.2020
337 Clouds 9 1007 76 10000 2.6 0 19:38 02.04.2020
338 Clouds 10 1007 76 10000 2.1 90 19:19 02.04.2020
339 Clouds 10 1007 76 10000 2.1 90 18:42 02.04.2020
340 Thunderstorm 10 1007 58 10000 5.1 150 18:21 02.04.2020
341 Thunderstorm 12 1006 47 10000 2.6 130 17:59 02.04.2020
342 Thunderstorm 12 1006 47 10000 2.6 130 17:40 02.04.2020
343 Rain 12 1006 44 10000 4.1 120 17:22 02.04.2020
344 Clouds 13 1007 41 10000 4.6 140 16:57 02.04.2020
345 Clouds 13 1007 41 10000 4.6 140 16:39 02.04.2020
346 Clouds 14 1007 41 10000 4.6 140 16:21 02.04.2020
347 Clouds 13 1007 41 10000 4.6 140 15:56 02.04.2020
348 Clouds 12 1008 58 10000 2.1 0 15:38 02.04.2020
349 Clouds 12 1008 58 10000 2.1 0 15:38 02.04.2020
350 Clouds 13 1008 44 10000 3.1 120 15:18 02.04.2020
351 Clouds 13 1008 44 10000 3.1 120 15:18 02.04.2020
352 Clouds 14 1008 44 10000 3.1 120 14:55 02.04.2020
353 Clouds 14 1008 44 10000 3.1 120 14:37 02.04.2020
354 Clouds 14 1008 44 10000 3.1 120 14:18 02.04.2020
355 Clouds 13 1009 47 10000 2.1 0 13:40 02.04.2020
356 Clouds 13 1009 47 10000 2.1 0 13:21 02.04.2020
357 Clouds 13 1010 47 10000 2.1 340 12:59 02.04.2020
358 Clouds 13 1010 47 10000 2.1 340 12:41 02.04.2020
359 Clouds 13 1010 47 10000 2.1 340 12:19 02.04.2020
360 Clouds 13 1010 47 10000 2.1 340 12:19 02.04.2020
361 Clouds 13 1010 47 10000 2.1 340 12:19 02.04.2020
362 Clouds 13 1010 47 10000 2.1 340 12:19 02.04.2020
363 Clouds 13 1010 47 10000 2.1 340 12:19 02.04.2020
364 Clouds 12 1011 53 10000 2.1 0 11:57 02.04.2020
365 Clouds 12 1011 53 10000 2.1 0 11:38 02.04.2020
366 Clouds 12 1011 53 10000 2.1 0 11:19 02.04.2020
367 Clouds 12 1011 53 10000 2.1 0 11:19 02.04.2020
368 Clouds 12 1011 53 10000 2.1 0 11:19 02.04.2020
369 Clouds 11 1011 53 10000 3.6 40 10:55 02.04.2020
370 Clouds 11 1011 53 10000 3.6 40 10:37 02.04.2020
371 Clouds 11 1011 53 10000 3.6 40 10:19 02.04.2020
372 Clouds 10 1011 53 10000 3.6 40 09:55 02.04.2020
373 Clouds 9 1012 61 10000 3.6 50 09:37 02.04.2020
374 Clouds 8 1012 61 10000 3.6 50 09:18 02.04.2020
375 Clouds 7 1012 65 10000 4.1 70 08:45 02.04.2020
376 Clouds 7 1012 65 10000 4.1 70 08:26 02.04.2020
377 Clouds 6 1012 75 10000 3.6 80 07:45 02.04.2020
378 Clouds 6 1012 75 10000 3.6 80 07:20 02.04.2020
379 Clouds 5 1012 70 10000 3.1 80 06:58 02.04.2020
380 Clouds 5 1012 70 10000 3.1 80 06:21 02.04.2020
381 Clouds 5 1012 75 10000 3.1 70 05:45 02.04.2020
382 Clouds 6 1011 75 10000 3.1 60 04:35 02.04.2020
383 Clouds 6 1012 70 10000 3.1 60 01:52 02.04.2020
384 Rain 7 1012 65 10000 3.6 70 00:50 02.04.2020
385 Rain 7 1012 65 10000 3.6 70 00:50 02.04.2020
386 Rain 7 1012 65 10000 3.6 70 00:28 02.04.2020
387 Clouds 7 1012 65 10000 4.6 70 23:57 01.04.2020
388 Clouds 7 1012 65 10000 4.6 70 23:37 01.04.2020
389 Clouds 7 1012 65 10000 4.6 70 23:37 01.04.2020
390 Clouds 7 1012 70 10000 5.7 60 23:18 01.04.2020
391 Clouds 7 1012 70 10000 5.7 60 23:18 01.04.2020
392 Clouds 7 1012 70 10000 5.7 60 22:41 01.04.2020
393 Clouds 8 1012 70 10000 4.1 70 22:22 01.04.2020
394 Clouds 8 1012 70 10000 4.1 70 21:57 01.04.2020
395 Clouds 8 1012 70 10000 4.1 70 21:38 01.04.2020
396 Clouds 8 1011 70 10000 3.6 60 21:18 01.04.2020
397 Clouds 8 1011 70 10000 3.6 60 21:18 01.04.2020
398 Clouds 8 1011 70 10000 3.6 60 20:54 01.04.2020
399 Clouds 8 1011 70 10000 3.6 60 20:36 01.04.2020
400 Clouds 8 1011 70 10000 3.6 60 20:18 01.04.2020
401 Clouds 9 1011 76 10000 2.1 40 19:42 01.04.2020
402 Clouds 9 1011 76 10000 2.1 40 19:22 01.04.2020
403 Rain 9 1011 76 10000 3.1 360 18:56 01.04.2020
404 Rain 9 1011 76 10000 3.1 360 18:56 01.04.2020
405 Rain 9 1011 76 10000 3.1 360 18:38 01.04.2020
406 Rain 9 1011 76 10000 3.1 360 18:19 01.04.2020
407 Rain 11 1010 57 10000 3.6 90 17:55 01.04.2020
408 Rain 11 1010 57 10000 3.6 90 17:36 01.04.2020
409 Rain 11 1010 57 10000 3.6 90 17:18 01.04.2020
410 Rain 12 1010 54 10000 3.1 80 16:42 01.04.2020
411 Rain 11 1010 54 10000 3.1 80 16:24 01.04.2020
412 Rain 12 1010 54 10000 3.1 80 15:58 01.04.2020
413 Clouds 12 1010 43 10000 3.1 90 15:40 01.04.2020
414 Clouds 12 1010 43 10000 3.1 90 15:21 01.04.2020
415 Rain 12 1010 47 10000 2.6 80 14:57 01.04.2020
416 Rain 12 1010 47 10000 2.6 80 14:57 01.04.2020
417 Rain 12 1010 47 10000 2.6 80 14:38 01.04.2020
418 Rain 12 1010 47 10000 2.6 80 14:19 01.04.2020
419 Rain 12 1010 47 10000 2.6 80 13:58 01.04.2020
420 Clouds 12 1010 50 10000 2.1 70 13:37 01.04.2020
421 Rain 13 1011 54 10000 3.1 0 13:19 01.04.2020
422 Clouds 13 1011 43 10000 1 0 12:54 01.04.2020
423 Clouds 12 1011 43 10000 1 0 12:36 01.04.2020
424 Clouds 12 1011 43 10000 1 0 12:18 01.04.2020
425 Clouds 12 1011 47 10000 2.6 10 11:42 01.04.2020
426 Clouds 12 1011 47 10000 2.6 10 11:23 01.04.2020
427 Clouds 12 1011 47 10000 2.6 10 10:58 01.04.2020
428 Clouds 11 1011 53 10000 4.1 30 10:37 01.04.2020
429 Clouds 10 1011 53 10000 5.7 50 10:18 01.04.2020
430 Clouds 10 1011 53 10000 5.7 50 09:55 01.04.2020
431 Clouds 10 1011 53 10000 5.7 50 09:37 01.04.2020
432 Clouds 9 1011 53 10000 5.7 50 09:18 01.04.2020
433 Clouds 9 1011 70 10000 2.1 260 08:40 01.04.2020
434 Clouds 9 1011 70 10000 2.1 260 08:18 01.04.2020
435 Clouds 8 1011 81 10000 1.5 240 07:43 01.04.2020
436 Clouds 7 1011 81 10000 1.5 240 07:21 01.04.2020
437 Clouds 4 1010 80 10000 1.5 230 06:48 01.04.2020
438 Clouds 4 1010 80 10000 1.5 230 06:24 01.04.2020
439 Clouds 5 1010 80 10000 2.41 47 05:56 01.04.2020
440 Clouds 6 1010 75 10000 2.1 220 04:30 01.04.2020
441 Clouds 6 1010 75 10000 1.5 230 03:28 01.04.2020
442 Clouds 6 1010 75 10000 2.6 220 02:49 01.04.2020
443 Clouds 6 1010 75 10000 0.5 0 01:57 01.04.2020
444 Clouds 6 1010 75 10000 0.5 0 01:37 01.04.2020
445 Clouds 6 1010 75 10000 0.5 0 01:18 01.04.2020
446 Clouds 7 1010 75 10000 2.1 230 00:43 01.04.2020
447 Clouds 7 1010 75 10000 2.1 230 00:18 01.04.2020
448 Clouds 7 1010 70 10000 2.1 230 23:42 31.03.2020
449 Clouds 7 1010 70 10000 2.1 230 23:23 31.03.2020
450 Clouds 8 1010 57 10000 1 0 22:57 31.03.2020
451 Clouds 8 1010 57 10000 1 0 22:36 31.03.2020
452 Clouds 8 1010 50 10000 1 240 22:18 31.03.2020
453 Clouds 9 1010 50 10000 1 240 21:55 31.03.2020
454 Clouds 9 1010 50 10000 1 240 21:55 31.03.2020
455 Clouds 9 1010 50 10000 1 240 21:55 31.03.2020
456 Clouds 9 1010 50 10000 1 240 21:37 31.03.2020
457 Clouds 9 1010 50 10000 1 240 21:19 31.03.2020
458 Clouds 10 1010 46 10000 1 60 20:54 31.03.2020
459 Clouds 10 1010 46 10000 1 60 20:36 31.03.2020
460 Clouds 10 1010 46 10000 1 60 20:18 31.03.2020
461 Clouds 11 1009 41 10000 1.5 30 19:41 31.03.2020
462 Clouds 11 1009 41 10000 1.5 30 19:22 31.03.2020
463 Clouds 13 1009 35 10000 3.6 70 18:55 31.03.2020
464 Clouds 13 1009 35 10000 3.6 70 18:37 31.03.2020
465 Clouds 13 1009 35 10000 3.6 70 18:18 31.03.2020
466 Clouds 13 1009 31 10000 4.6 70 17:54 31.03.2020
467 Clouds 14 1009 31 10000 4.6 70 17:36 31.03.2020
468 Clouds 14 1009 38 10000 3.6 60 17:18 31.03.2020
469 Clouds 14 1009 38 10000 3.6 60 16:38 31.03.2020
470 Clouds 14 1009 31 10000 3.6 50 16:19 31.03.2020
471 Clouds 14 1009 31 10000 3.6 50 15:57 31.03.2020
472 Clouds 14 1009 31 10000 3.6 50 15:38 31.03.2020
473 Clouds 15 1010 30 10000 3.6 70 15:19 31.03.2020
474 Clouds 14 1010 30 10000 3.6 70 14:56 31.03.2020
475 Clouds 14 1010 30 10000 3.6 70 14:56 31.03.2020
476 Clouds 14 1010 30 10000 3.6 70 14:38 31.03.2020
477 Clouds 14 1011 35 10000 3.1 130 14:18 31.03.2020
478 Clouds 14 1011 35 10000 3.1 130 13:42 31.03.2020
479 Clouds 14 1011 35 10000 3.1 130 13:19 31.03.2020
480 Clouds 12 1011 29 10000 2.6 60 12:55 31.03.2020
481 Clouds 12 1011 29 10000 2.6 60 12:37 31.03.2020
482 Clouds 12 1011 34 10000 2.6 60 12:18 31.03.2020
483 Clouds 13 1012 41 10000 4.1 130 11:38 31.03.2020
484 Clouds 12 1013 50 10000 3.6 80 11:19 31.03.2020
485 Clouds 12 1013 50 10000 3.6 80 10:57 31.03.2020
486 Clouds 12 1013 50 10000 3.6 80 10:57 31.03.2020
487 Clouds 12 1013 50 10000 3.6 80 10:39 31.03.2020
488 Clouds 12 1013 62 10000 2.6 60 10:21 31.03.2020
489 Clouds 11 1013 62 10000 2.6 60 09:56 31.03.2020
490 Clouds 11 1013 62 10000 2.6 60 09:37 31.03.2020
491 Clouds 11 1013 62 10000 2.6 60 09:37 31.03.2020
492 Clouds 9 1013 70 10000 2.42 102 09:19 31.03.2020
493 Clouds 9 1013 70 10000 2.42 102 08:55 31.03.2020
494 Clouds 9 1013 70 10000 2.42 102 08:37 31.03.2020
495 Clouds 7 1013 86 10000 2.42 102 08:18 31.03.2020
496 Clouds 6 1013 86 10000 2.42 102 07:44 31.03.2020
497 Clouds 6 1013 86 10000 2.42 102 07:44 31.03.2020
498 Clouds 6 1013 86 10000 2.42 102 07:25 31.03.2020
499 Clouds 4 1014 93 10000 2.42 102 06:59 31.03.2020
500 Clouds 4 1014 93 10000 2.42 102 06:41 31.03.2020
501 Clouds 5 1013 93 10000 1.42 76 05:44 31.03.2020
502 Clouds 5 1013 93 10000 1.42 76 05:24 31.03.2020
503 Clouds 4 1013 86 10000 0.5 0 02:56 31.03.2020
504 Clouds 6 1013 87 10000 0.5 230 01:47 31.03.2020
505 Clouds 6 1013 87 10000 0.5 230 01:22 31.03.2020
506 Clouds 6 1013 87 10000 0.26 138 00:43 31.03.2020
507 Clouds 7 1013 87 10000 0.23 260 00:23 31.03.2020
508 Clouds 7 1013 81 10000 0.23 260 23:40 30.03.2020
509 Clouds 7 1013 81 10000 0.23 260 23:20 30.03.2020
510 Clouds 7 1013 81 10000 0.23 260 22:58 30.03.2020
511 Clouds 8 1013 81 10000 0.23 260 22:38 30.03.2020
512 Clouds 8 1013 66 10000 0.5 240 22:19 30.03.2020
513 Clouds 8 1013 66 10000 0.5 240 21:57 30.03.2020
514 Clouds 8 1013 66 10000 0.5 240 21:38 30.03.2020
515 Clouds 8 1013 66 10000 0.5 240 21:20 30.03.2020
516 Clouds 8 1013 66 10000 0.5 240 20:58 30.03.2020
517 Clouds 9 1013 61 10000 0.5 290 20:38 30.03.2020
518 Clouds 9 1013 61 10000 0.5 290 20:19 30.03.2020
519 Clouds 9 1012 61 10000 2.1 230 19:54 30.03.2020
520 Clouds 9 1012 61 10000 2.1 230 19:36 30.03.2020
521 Clouds 9 1012 61 10000 2.1 230 19:18 30.03.2020
522 Clouds 9 1012 61 10000 2.6 240 18:41 30.03.2020
523 Clouds 9 1012 61 10000 2.6 240 18:23 30.03.2020
524 Clouds 10 1012 53 10000 3.6 250 17:57 30.03.2020
525 Clouds 10 1012 53 10000 3.6 250 17:39 30.03.2020
526 Clouds 10 1012 53 10000 3.6 250 17:19 30.03.2020
527 Clouds 10 1011 57 10000 0.5 0 16:57 30.03.2020
528 Clouds 10 1011 57 10000 0.5 0 16:39 30.03.2020
529 Clouds 10 1011 57 10000 0.5 0 16:20 30.03.2020
530 Clouds 11 1011 53 10000 2.1 210 15:55 30.03.2020
531 Clouds 11 1011 53 10000 2.1 210 15:37 30.03.2020
532 Clouds 11 1011 53 10000 2.1 210 15:19 30.03.2020
533 Clouds 10 1012 57 10000 2.6 220 14:55 30.03.2020
534 Clouds 10 1012 57 10000 2.6 220 14:37 30.03.2020
535 Clouds 10 1012 57 10000 2.6 220 14:18 30.03.2020
536 Clouds 10 1012 53 10000 2.6 0 13:54 30.03.2020
537 Clouds 10 1012 53 10000 2.6 0 13:36 30.03.2020
538 Clouds 10 1012 53 10000 2.6 0 13:18 30.03.2020
539 Clouds 9 1012 66 10000 2.1 0 12:41 30.03.2020
540 Clouds 9 1012 66 10000 2.1 0 12:20 30.03.2020
541 Clouds 8 1012 70 10000 3.6 260 11:57 30.03.2020
542 Clouds 8 1012 70 10000 3.6 260 11:39 30.03.2020
543 Clouds 7 1011 70 10000 4.1 250 11:21 30.03.2020
544 Clouds 7 1011 70 10000 4.1 250 10:41 30.03.2020
545 Clouds 7 1012 75 10000 4.1 260 10:22 30.03.2020
546 Clouds 7 1011 75 10000 2.1 250 09:58 30.03.2020
547 Clouds 7 1011 75 10000 2.1 250 09:39 30.03.2020
548 Clouds 6 1011 75 10000 2.1 250 09:19 30.03.2020
549 Clouds 5 1011 80 10000 2.6 220 08:42 30.03.2020
550 Clouds 5 1011 80 10000 2.6 220 08:23 30.03.2020
551 Clouds 4 1010 86 10000 2.1 240 07:53 30.03.2020
552 Clouds 4 1010 86 10000 2.1 240 07:34 30.03.2020
553 Clouds 4 1010 86 10000 2.1 240 06:57 30.03.2020
554 Clouds 4 1010 86 10000 3.1 250 06:33 30.03.2020
555 Clouds 4 1009 86 10000 3.6 240 05:55 30.03.2020
556 Clouds 4 1009 86 10000 3.6 240 05:33 30.03.2020
557 Clouds 4 1009 86 10000 3.1 240 04:24 30.03.2020
558 Clouds 4 1009 86 10000 3.1 240 03:44 30.03.2020
559 Clouds 4 1008 80 10000 3.1 240 02:42 30.03.2020
560 Clouds 5 1008 80 10000 4.1 240 01:44 30.03.2020
561 Clouds 5 1008 80 10000 3.1 240 00:50 30.03.2020
562 Clouds 5 1007 86 10000 3.1 240 00:23 30.03.2020
563 Clouds 5 1007 86 10000 3.1 240 23:42 29.03.2020
564 Clouds 5 1007 80 10000 2.6 220 23:24 29.03.2020
565 Clouds 5 1007 81 10000 4.1 240 22:58 29.03.2020
566 Clouds 5 1007 81 10000 4.1 240 22:38 29.03.2020
567 Clouds 5 1007 81 10000 4.1 240 22:19 29.03.2020
568 Clouds 5 1007 81 10000 4.1 240 21:57 29.03.2020
569 Clouds 5 1007 81 10000 3.6 240 21:36 29.03.2020
570 Clouds 5 1007 81 10000 3.6 240 21:18 29.03.2020
571 Clouds 5 1007 81 10000 3.6 240 21:18 29.03.2020
572 Clouds 5 1007 81 10000 3.6 240 20:55 29.03.2020
573 Clouds 5 1007 81 10000 3.6 240 20:36 29.03.2020
574 Clouds 6 1007 81 10000 3.6 240 20:18 29.03.2020
575 Clouds 6 1006 81 10000 3.1 230 19:42 29.03.2020
576 Clouds 6 1006 81 10000 3.1 230 19:42 29.03.2020
577 Clouds 6 1006 81 10000 3.1 230 19:24 29.03.2020
578 Clouds 6 1006 75 10000 4.1 240 18:58 29.03.2020
579 Clouds 6 1006 75 10000 4.1 240 18:40 29.03.2020
580 Clouds 6 1006 75 10000 4.1 240 18:20 29.03.2020
581 Clouds 6 1006 75 10000 4.1 240 18:20 29.03.2020
582 Clouds 7 1006 75 10000 5.7 230 17:58 29.03.2020
583 Clouds 7 1006 75 10000 5.7 230 17:40 29.03.2020
584 Rain 7 1006 75 10000 5.1 230 17:22 29.03.2020
585 Rain 7 1006 75 10000 5.1 230 16:58 29.03.2020
586 Rain 7 1006 75 10000 6.2 230 16:39 29.03.2020
587 Rain 7 1006 75 10000 6.2 230 16:20 29.03.2020
588 Rain 7 1006 75 10000 6.2 230 15:56 29.03.2020
589 Rain 8 1005 70 10000 5.7 250 15:37 29.03.2020
590 Rain 9 1005 70 10000 5.7 250 15:19 29.03.2020
591 Clouds 9 1005 66 10000 6.2 260 14:55 29.03.2020
592 Clouds 9 1005 66 10000 6.2 260 14:36 29.03.2020
593 Clouds 9 1005 66 10000 6.2 260 14:18 29.03.2020
594 Clouds 8 1006 70 10000 5.7 220 13:41 29.03.2020
595 Clouds 8 1006 70 10000 5.7 220 13:22 29.03.2020
596 Clouds 7 1006 75 10000 6.2 230 12:58 29.03.2020
597 Clouds 8 1006 75 10000 6.2 230 12:39 29.03.2020
598 Clouds 8 1006 75 10000 6.2 230 12:19 29.03.2020
599 Clouds 7 1006 81 10000 3.6 260 11:57 29.03.2020
600 Clouds 7 1006 81 10000 3.6 260 11:57 29.03.2020
601 Clouds 7 1006 81 10000 3.6 260 11:37 29.03.2020
602 Clouds 7 1006 81 10000 3.6 260 11:19 29.03.2020
603 Clouds 7 1006 75 10000 5.1 240 10:39 29.03.2020
604 Clouds 7 1006 81 10000 5.7 250 10:19 29.03.2020
605 Clouds 7 1006 81 10000 5.7 250 09:54 29.03.2020
606 Clouds 7 1006 81 10000 5.7 250 09:36 29.03.2020
607 Clouds 6 1006 87 10000 3.1 260 09:18 29.03.2020
608 Clouds 6 1006 87 10000 3.1 260 08:41 29.03.2020
609 Clouds 6 1006 87 10000 3.1 260 08:22 29.03.2020
610 Clouds 6 1006 87 10000 2.1 260 07:45 29.03.2020
611 Clouds 5 1006 87 10000 2.1 260 07:22 29.03.2020
612 Clouds 5 1007 86 10000 3.1 250 05:59 29.03.2020
613 Clouds 5 1007 86 10000 2.6 250 04:56 29.03.2020
614 Clouds 5 1007 86 10000 2.6 250 03:37 29.03.2020
615 Clouds 5 1007 86 10000 2.6 250 01:57 29.03.2020
616 Clouds 5 1007 86 10000 5.1 240 01:37 29.03.2020
617 Clouds 5 1007 86 10000 5.1 240 01:19 29.03.2020
618 Clouds 5 1007 81 10000 4.1 240 00:39 29.03.2020
619 Clouds 5 1007 81 10000 4.1 240 00:18 29.03.2020
620 Rain 5 1008 87 10000 3.1 250 23:40 28.03.2020
621 Rain 6 1008 87 10000 3.1 250 23:22 28.03.2020
622 Rain 6 1008 87 10000 4.1 250 22:43 28.03.2020
623 Rain 6 1008 87 10000 4.1 250 22:22 28.03.2020
624 Rain 6 1008 87 10000 4.1 250 21:57 28.03.2020
625 Rain 6 1007 87 10000 3.1 250 21:39 28.03.2020
626 Rain 7 1007 87 10000 3.1 250 21:19 28.03.2020
627 Clouds 7 1007 87 8000 3.1 250 20:56 28.03.2020
628 Clouds 7 1007 87 8000 3.1 250 20:37 28.03.2020
629 Rain 7 1007 93 8000 3.1 250 20:18 28.03.2020
630 Rain 7 1007 93 8000 3.1 250 19:55 28.03.2020
631 Rain 7 1007 93 8000 3.1 250 19:36 28.03.2020
632 Rain 7 1007 93 8000 3.1 250 19:18 28.03.2020
633 Clouds 8 1006 93 8000 3.6 240 18:39 28.03.2020
634 Clouds 8 1006 93 8000 3.6 240 18:39 28.03.2020
635 Rain 8 1006 93 8000 3.6 240 18:20 28.03.2020
636 Rain 8 1006 87 8000 4.1 230 17:42 28.03.2020
637 Rain 8 1007 93 8000 3.6 240 17:22 28.03.2020
638 Rain 9 1006 87 8000 4.1 240 16:59 28.03.2020
639 Rain 9 1006 87 8000 4.1 240 16:39 28.03.2020
640 Rain 9 1006 87 8000 4.1 240 16:18 28.03.2020
641 Rain 9 1006 87 7000 5.7 240 15:40 28.03.2020
642 Rain 9 1007 81 8000 5.1 240 15:20 28.03.2020
643 Rain 9 1007 81 8000 5.1 240 14:59 28.03.2020
644 Rain 9 1007 81 8000 5.1 240 14:40 28.03.2020
645 Rain 9 1007 81 8000 5.1 240 14:21 28.03.2020
646 Rain 10 1007 87 8000 4.1 240 13:43 28.03.2020
647 Rain 10 1007 87 8000 4.1 240 13:23 28.03.2020
648 Rain 10 1007 87 8000 4.6 250 12:41 28.03.2020
649 Rain 10 1007 87 8000 4.6 250 12:23 28.03.2020
650 Rain 10 1007 81 8000 2.6 250 11:55 28.03.2020
651 Rain 10 1007 81 8000 2.6 250 11:37 28.03.2020
652 Rain 10 1007 81 8000 2.6 250 11:18 28.03.2020
653 Rain 10 1007 87 6000 2.1 40 10:39 28.03.2020
654 Rain 10 1007 87 6000 2.1 310 10:20 28.03.2020
655 Rain 10 1007 87 6000 2.1 310 09:43 28.03.2020
656 Rain 10 1007 87 6000 2.1 310 09:24 28.03.2020
657 Rain 10 1007 87 6000 2.1 310 08:58 28.03.2020
658 Rain 10 1007 93 6000 1.5 270 08:40 28.03.2020
659 Rain 9 1007 100 6000 0.5 0 08:21 28.03.2020
660 Rain 9 1007 100 6000 0.5 0 07:44 28.03.2020
661 Rain 9 1007 100 6000 0.5 0 07:26 28.03.2020
662 Rain 9 1007 93 7000 1 0 06:36 28.03.2020
663 Rain 8 1008 93 7000 0.5 270 05:54 28.03.2020
664 Rain 9 1008 93 7000 0.5 270 05:21 28.03.2020
665 Rain 9 1008 93 10000 1 260 04:41 28.03.2020
666 Rain 9 1008 87 10000 1 0 03:54 28.03.2020
667 Clouds 10 1008 87 10000 2.1 270 02:25 28.03.2020
668 Clouds 10 1009 87 10000 1.5 220 01:41 28.03.2020
669 Clouds 10 1009 87 10000 1.5 220 01:18 28.03.2020
670 Clouds 10 1009 87 10000 2.24 42 00:37 28.03.2020
671 Rain 10 1009 76 10000 1.5 300 23:57 27.03.2020
672 Rain 10 1009 76 10000 1.5 300 23:39 27.03.2020
673 Rain 10 1009 76 10000 1.5 300 23:21 27.03.2020
674 Rain 11 1009 66 10000 3.1 250 22:56 27.03.2020
675 Rain 11 1009 66 10000 3.1 250 22:37 27.03.2020
676 Clouds 11 1009 62 10000 1.5 240 22:19 27.03.2020
677 Clouds 12 1009 62 10000 1.5 240 21:45 27.03.2020
678 Clouds 12 1009 62 10000 1.5 240 21:25 27.03.2020
679 Clouds 12 1009 62 10000 1.5 240 20:59 27.03.2020
680 Clouds 13 1009 54 10000 1 0 20:41 27.03.2020
681 Clouds 13 1009 54 10000 5.1 80 20:21 27.03.2020
682 Clouds 13 1009 54 10000 5.1 80 19:58 27.03.2020
683 Clouds 13 1009 54 10000 5.1 80 19:40 27.03.2020
684 Clouds 13 1009 54 10000 5.1 80 19:21 27.03.2020
685 Clouds 14 1008 47 10000 1 70 18:45 27.03.2020
686 Clouds 14 1008 47 10000 1 70 18:25 27.03.2020
687 Clouds 15 1008 39 10000 2.1 100 17:59 27.03.2020
688 Clouds 16 1008 39 10000 2.1 100 17:40 27.03.2020
689 Clouds 16 1008 39 10000 2.1 100 17:20 27.03.2020
690 Clouds 16 1008 33 10000 3.1 100 16:44 27.03.2020
691 Clouds 16 1008 33 10000 3.1 100 16:26 27.03.2020
692 Clouds 17 1008 33 10000 3.1 100 15:57 27.03.2020
693 Clouds 17 1008 36 10000 5.1 80 15:39 27.03.2020
694 Clouds 16 1008 36 10000 5.1 80 15:21 27.03.2020
695 Clouds 17 1008 36 10000 1.5 0 14:45 27.03.2020
696 Rain 16 1006 45 0 2.24 117 14:24 27.03.2020
697 Clouds 16 1009 39 10000 1.5 0 13:56 27.03.2020
698 Clouds 17 1009 39 10000 1.5 0 13:37 27.03.2020
699 Clouds 17 1009 39 10000 1.5 0 13:18 27.03.2020
700 Clouds 17 1010 33 10000 1.5 140 12:45 27.03.2020
701 Clouds 17 1010 33 10000 1.5 140 12:20 27.03.2020
702 Clouds 17 1010 36 10000 2.1 100 11:59 27.03.2020
703 Clouds 17 1010 36 10000 2.1 100 11:41 27.03.2020
704 Clouds 17 1010 36 10000 2.1 100 11:41 27.03.2020
705 Clouds 16 1010 36 10000 2.1 100 11:22 27.03.2020
706 Clouds 16 1011 44 10000 2.1 0 10:54 27.03.2020
707 Clouds 16 1011 44 10000 2.1 0 10:54 27.03.2020
708 Clouds 16 1011 44 10000 2.1 0 10:36 27.03.2020
709 Clouds 15 1011 44 10000 2.1 0 10:18 27.03.2020
710 Clouds 14 1011 47 10000 1.5 0 09:55 27.03.2020
711 Clouds 14 1011 47 10000 1.5 0 09:36 27.03.2020
712 Clouds 13 1011 47 10000 1.5 0 09:18 27.03.2020
713 Clouds 11 1012 57 10000 0.5 0 08:54 27.03.2020
714 Clouds 11 1012 57 10000 0.5 0 08:36 27.03.2020
715 Clouds 11 1012 57 10000 0.5 0 08:18 27.03.2020
716 Clouds 9 1012 70 10000 1 0 07:43 27.03.2020
717 Clouds 7 1012 70 10000 1 0 07:21 27.03.2020
718 Clouds 6 1011 80 10000 1 240 06:45 27.03.2020
719 Clouds 6 1011 80 10000 1 240 06:26 27.03.2020
720 Clouds 5 1011 57 10000 0.5 0 03:42 27.03.2020
721 Clouds 6 1012 86 10000 0.5 0 02:25 27.03.2020
722 Clouds 6 1012 52 10000 2.62 63 01:21 27.03.2020
723 Clouds 7 1012 52 10000 1 230 00:45 27.03.2020
724 Clouds 7 1012 52 10000 1 230 00:23 27.03.2020
725 Clouds 7 1012 52 10000 1 0 23:42 26.03.2020
726 Clouds 7 1012 47 10000 1 0 23:19 26.03.2020
727 Clouds 8 1012 47 10000 2.31 60 22:58 26.03.2020
728 Clouds 8 1012 47 10000 2.31 60 22:58 26.03.2020
729 Clouds 8 1012 47 10000 2.31 60 22:37 26.03.2020
730 Clouds 8 1012 47 10000 2.31 60 22:18 26.03.2020
731 Clouds 9 1012 49 10000 1.5 50 21:40 26.03.2020
732 Clouds 9 1012 49 10000 1.5 50 21:22 26.03.2020
733 Clouds 10 1012 49 10000 1.5 50 20:59 26.03.2020
734 Clouds 9 1012 47 0 2.31 60 20:40 26.03.2020
735 Clouds 9 1012 47 0 2.69 59 20:22 26.03.2020
736 Clouds 13 1012 35 10000 0.5 0 19:58 26.03.2020
737 Clouds 13 1012 35 10000 0.5 0 19:40 26.03.2020
738 Clouds 13 1012 35 10000 0.5 0 19:21 26.03.2020
739 Clouds 14 1012 28 10000 3.1 70 18:58 26.03.2020
740 Clouds 15 1012 28 10000 3.1 70 18:40 26.03.2020
741 Clouds 14 1012 28 10000 3.1 70 18:22 26.03.2020
742 Clouds 16 1012 29 10000 4.1 40 17:45 26.03.2020
743 Clouds 15 1012 29 10000 4.1 40 17:20 26.03.2020
744 Clouds 16 1012 27 10000 4.1 50 16:57 26.03.2020
745 Clouds 16 1012 27 10000 4.1 50 16:38 26.03.2020
746 Clouds 17 1012 27 10000 4.1 50 16:20 26.03.2020
747 Clouds 17 1012 25 10000 3.6 70 15:56 26.03.2020
748 Clouds 17 1012 25 10000 3.6 70 15:38 26.03.2020
749 Clouds 17 1013 27 10000 3.6 70 15:18 26.03.2020
750 Clouds 17 1013 27 10000 3.6 70 14:43 26.03.2020
751 Clouds 16 1010 33 0 2.68 50 14:24 26.03.2020
752 Clouds 17 1014 27 10000 4.6 90 13:56 26.03.2020
753 Clouds 17 1014 27 10000 4.6 90 13:56 26.03.2020
754 Clouds 17 1014 27 10000 4.6 90 13:38 26.03.2020
755 Clouds 17 1014 27 10000 4.6 90 13:19 26.03.2020
756 Clear 17 1014 25 10000 4.6 90 12:39 26.03.2020
757 Clear 17 1014 25 10000 4.6 90 12:20 26.03.2020
758 Clear 17 1014 25 10000 4.6 90 12:20 26.03.2020
759 Clear 16 1015 29 10000 5.7 90 11:46 26.03.2020
760 Clear 16 1015 29 10000 5.7 90 11:24 26.03.2020
761 Clear 16 1015 31 10000 5.1 80 10:59 26.03.2020
762 Clear 15 1015 31 10000 5.1 80 10:41 26.03.2020
763 Clear 15 1015 31 10000 5.1 80 10:20 26.03.2020
764 Clear 14 1016 41 10000 4.6 70 09:45 26.03.2020
765 Clear 14 1016 41 10000 4.6 70 09:21 26.03.2020
766 Clear 12 1017 50 10000 4.1 70 08:57 26.03.2020
767 Clear 12 1017 50 10000 4.1 70 08:38 26.03.2020
768 Clear 12 1017 50 10000 4.1 70 08:19 26.03.2020
769 Clear 10 1017 53 10000 3.6 90 07:45 26.03.2020
770 Clear 10 1017 53 10000 3.6 90 07:23 26.03.2020
771 Clear 10 1017 53 10000 3.6 90 06:57 26.03.2020
772 Clear 8 1014 64 0 0.45 295 06:32 26.03.2020
773 Clear 6 1017 65 10000 0.5 0 05:29 26.03.2020
774 Clear 5 1017 80 10000 0.5 0 03:45 26.03.2020
775 Clear 7 1017 75 10000 2.42 59 02:56 26.03.2020
776 Clear 7 1018 70 10000 1 0 01:51 26.03.2020
777 Clear 7 1018 70 10000 3.26 44 00:56 26.03.2020
778 Clear 7 1018 70 10000 3.26 44 00:22 26.03.2020
779 Clear 8 1019 66 10000 3.26 44 23:41 25.03.2020
780 Clear 8 1019 66 10000 1.68 51 23:22 25.03.2020
781 Clear 8 1019 57 10000 1.68 51 22:42 25.03.2020
782 Clear 9 1019 57 10000 1.68 51 22:22 25.03.2020
783 Clear 9 1019 57 10000 1.68 51 21:57 25.03.2020
784 Clear 8 1019 65 10000 1 220 21:38 25.03.2020
785 Clear 9 1018 53 10000 0.5 0 21:20 25.03.2020
786 Clear 9 1018 53 10000 0.5 0 20:56 25.03.2020
787 Clear 10 1018 53 10000 0.5 0 20:37 25.03.2020
788 Clouds 12 1017 47 10000 1 0 20:18 25.03.2020
789 Clouds 12 1017 47 10000 1 0 19:43 25.03.2020
790 Clouds 12 1017 47 10000 1 0 19:43 25.03.2020
791 Clouds 12 1017 47 10000 1 0 19:23 25.03.2020
792 Clouds 13 1016 41 10000 4.1 70 18:58 25.03.2020
793 Clouds 14 1016 41 10000 4.1 70 18:40 25.03.2020
794 Clouds 13 1016 41 10000 4.1 70 18:21 25.03.2020
795 Clouds 14 1015 38 10000 4.6 60 17:55 25.03.2020
796 Clouds 14 1015 38 10000 4.6 60 17:55 25.03.2020
797 Clouds 16 1015 38 10000 4.6 60 17:37 25.03.2020
798 Clouds 14 1015 38 10000 4.6 60 17:19 25.03.2020
799 Clouds 16 1015 33 10000 4.1 360 16:43 25.03.2020
800 Clouds 16 1015 33 10000 4.1 360 16:24 25.03.2020
801 Clouds 16 1015 33 10000 4.1 360 15:59 25.03.2020
802 Clouds 16 1016 37 10000 3.1 30 15:40 25.03.2020
803 Clouds 16 1016 37 10000 3.1 30 15:19 25.03.2020
804 Clouds 18 1015 31 10000 1 0 14:42 25.03.2020
805 Clouds 17 1015 31 10000 1 0 14:22 25.03.2020
806 Clouds 18 1015 31 10000 1 0 13:56 25.03.2020
807 Clouds 16 1016 33 10000 1.5 0 13:38 25.03.2020
808 Clouds 16 1016 33 10000 1.5 0 13:19 25.03.2020
809 Clouds 16 1016 39 10000 2.6 80 12:37 25.03.2020
810 Clouds 16 1016 39 10000 2.6 80 12:19 25.03.2020
811 Clouds 15 1016 47 10000 2.1 110 11:55 25.03.2020
812 Clouds 15 1016 47 10000 2.1 110 11:36 25.03.2020
813 Clouds 15 1016 47 10000 2.1 110 11:36 25.03.2020
814 Clouds 15 1016 47 10000 2.1 110 11:18 25.03.2020
815 Clouds 14 1017 50 10000 1.5 0 10:55 25.03.2020
816 Clouds 14 1017 50 10000 1.5 0 10:36 25.03.2020
817 Clouds 14 1017 50 10000 1.5 0 10:18 25.03.2020
818 Clouds 13 1017 58 10000 1.5 70 09:42 25.03.2020
819 Clouds 13 1017 58 10000 1.5 70 09:22 25.03.2020
820 Clouds 11 1017 66 10000 0.5 0 08:56 25.03.2020
821 Clouds 10 1017 66 10000 0.5 0 08:38 25.03.2020
822 Clouds 10 1017 66 10000 0.5 0 08:38 25.03.2020
823 Clouds 10 1017 66 10000 0.5 0 08:19 25.03.2020
824 Clouds 8 1016 87 10000 1 0 07:39 25.03.2020
825 Clouds 8 1016 87 10000 1 0 07:20 25.03.2020
826 Clouds 5 1016 93 6000 2.11 54 06:47 25.03.2020
827 Clouds 5 1016 93 6000 2.11 54 06:26 25.03.2020
828 Fog 5 1015 93 1500 2.11 54 05:53 25.03.2020
829 Clouds 4 1014 93 6000 1.72 43 04:59 25.03.2020
830 Clouds 4 1014 93 6000 1.72 43 04:39 25.03.2020
831 Clouds 5 1014 93 10000 1.72 43 03:36 25.03.2020
832 Clouds 6 1014 93 10000 0.5 0 01:58 25.03.2020
833 Clouds 6 1014 93 10000 1.79 45 01:21 25.03.2020
834 Clouds 8 1014 87 10000 1 220 00:48 25.03.2020
835 Clouds 8 1014 87 10000 1 220 00:19 25.03.2020
836 Clouds 8 1014 87 10000 2.1 220 23:45 24.03.2020
837 Clouds 8 1014 87 10000 2.1 220 23:25 24.03.2020
838 Clouds 9 1014 87 10000 2.1 230 22:56 24.03.2020
839 Clouds 9 1014 87 10000 2.1 230 22:37 24.03.2020
840 Rain 9 1014 87 10000 1.5 240 22:19 24.03.2020
841 Rain 9 1014 87 10000 2.63 36 21:55 24.03.2020
842 Rain 9 1014 87 10000 1.5 240 21:55 24.03.2020
843 Rain 9 1014 87 10000 2.63 36 21:37 24.03.2020
844 Rain 9 1014 87 10000 2.63 36 21:18 24.03.2020
845 Rain 10 1013 76 10000 1 0 20:43 24.03.2020
846 Clouds 10 1013 66 10000 0.5 0 20:24 24.03.2020
847 Clouds 10 1013 66 10000 0.5 0 19:59 24.03.2020
848 Clouds 9 1013 70 10000 0.5 0 19:41 24.03.2020
849 Clouds 9 1013 70 10000 0.5 0 19:19 24.03.2020
850 Clouds 10 1012 57 10000 2.1 230 18:55 24.03.2020
851 Clouds 10 1012 57 10000 2.1 230 18:36 24.03.2020
852 Clouds 10 1012 57 10000 2.1 230 18:18 24.03.2020
853 Clouds 11 1012 62 10000 2.1 130 17:42 24.03.2020
854 Clouds 11 1012 62 10000 2.1 130 17:23 24.03.2020
855 Clouds 11 1012 81 10000 6.7 320 16:58 24.03.2020
856 Clouds 11 1012 81 10000 6.7 320 16:40 24.03.2020
857 Clouds 11 1011 62 10000 2.6 30 16:22 24.03.2020
858 Clouds 11 1011 62 10000 4.6 280 15:58 24.03.2020
859 Clouds 11 1011 62 10000 4.6 280 15:38 24.03.2020
860 Rain 12 1011 50 10000 3.1 270 15:20 24.03.2020
861 Rain 15 1010 41 10000 4.1 240 14:43 24.03.2020
862 Clouds 15 1010 41 10000 3.6 150 14:20 24.03.2020
863 Clouds 15 1010 36 10000 6.2 140 13:44 24.03.2020
864 Clouds 15 1010 36 10000 6.2 140 13:24 24.03.2020
865 Clouds 16 1010 39 10000 1 0 12:57 24.03.2020
866 Rain 16 1010 39 10000 1 0 12:37 24.03.2020
867 Rain 15 1010 39 10000 1 0 12:19 24.03.2020
868 Clouds 15 1011 38 10000 1.5 0 11:40 24.03.2020
869 Clouds 16 1011 38 10000 1.5 0 11:20 24.03.2020
870 Clouds 15 1011 41 10000 5.1 30 10:43 24.03.2020
871 Clouds 15 1011 41 10000 1 0 10:20 24.03.2020
872 Clouds 15 1011 41 10000 1 0 10:20 24.03.2020
873 Clouds 15 1011 41 10000 1 0 09:59 24.03.2020
874 Clouds 14 1011 44 10000 4.6 40 09:41 24.03.2020
875 Clouds 14 1011 44 10000 4.6 40 09:41 24.03.2020
876 Clouds 13 1011 50 10000 5.1 360 09:22 24.03.2020
877 Clouds 12 1012 53 10000 5.1 20 08:39 24.03.2020
878 Clouds 12 1012 46 10000 3.1 100 08:21 24.03.2020
879 Clouds 11 1012 57 10000 5.7 20 07:50 24.03.2020
880 Clouds 10 1011 57 10000 1.92 80 07:25 24.03.2020
881 Clouds 8 1011 61 10000 5.1 20 06:58 24.03.2020
882 Clouds 8 1011 61 10000 5.1 20 06:32 24.03.2020
883 Clouds 6 1011 81 10000 1.5 210 05:27 24.03.2020
884 Clouds 7 1011 70 10000 5.7 30 04:41 24.03.2020
885 Clouds 7 1011 70 10000 1.8 76 03:19 24.03.2020
886 Clouds 7 1011 70 10000 2.6 360 01:50 24.03.2020
887 Clouds 8 1011 70 10000 3.1 20 00:51 24.03.2020
888 Clouds 8 1011 66 10000 0.5 0 00:26 24.03.2020
889 Clouds 9 1011 70 10000 3.6 360 23:49 23.03.2020
890 Clouds 9 1011 57 10000 1 220 23:27 23.03.2020
891 Clouds 10 1011 57 10000 5.1 40 22:58 23.03.2020
892 Clouds 10 1011 57 10000 5.1 40 22:39 23.03.2020
893 Clouds 10 1012 53 10000 2.6 300 22:21 23.03.2020
894 Clouds 11 1011 71 10000 3.6 340 21:44 23.03.2020
895 Clouds 11 1011 54 10000 2.1 230 21:21 23.03.2020
896 Clouds 11 1011 54 10000 2.1 230 20:58 23.03.2020
897 Clouds 12 1012 57 10000 3.1 170 20:40 23.03.2020
898 Clouds 12 1011 50 10000 2.1 130 20:22 23.03.2020
899 Rain 12 1012 50 10000 1 0 19:54 23.03.2020
900 Rain 12 1012 50 10000 1 0 19:36 23.03.2020
901 Clouds 13 1011 41 10000 0.5 210 19:18 23.03.2020
902 Clouds 13 1011 51 10000 0.5 0 18:42 23.03.2020
903 Clouds 14 1011 38 10000 5.1 250 18:23 23.03.2020
904 Clouds 15 1010 35 10000 3.1 30 17:56 23.03.2020
905 Clouds 15 1010 35 10000 3.1 30 17:56 23.03.2020
906 Clouds 15 1010 35 10000 3.1 30 17:38 23.03.2020
907 Clouds 15 1010 38 10000 0.5 220 17:18 23.03.2020
908 Clouds 16 1010 28 10000 1.5 200 16:43 23.03.2020
909 Clouds 16 1010 26 10000 2.1 240 16:25 23.03.2020
910 Clouds 16 1010 26 10000 1.5 230 15:43 23.03.2020
911 Clouds 16 1010 38 10000 1 0 15:21 23.03.2020
912 Clouds 17 1011 27 10000 1 0 14:57 23.03.2020
913 Clouds 17 1011 27 10000 1 0 14:37 23.03.2020
914 Clouds 17 1010 33 10000 2.1 190 14:18 23.03.2020
915 Clouds 16 1011 29 10000 1 0 13:41 23.03.2020
916 Clouds 17 1011 29 10000 2.1 190 13:22 23.03.2020
917 Clouds 16 1011 29 10000 2.1 190 12:58 23.03.2020
918 Clouds 16 1011 30 10000 2.1 0 12:58 23.03.2020
919 Clouds 16 1011 30 10000 2.1 0 12:40 23.03.2020
920 Clouds 16 1011 29 10000 2.6 170 12:21 23.03.2020
921 Clouds 16 1012 33 10000 3.1 170 11:42 23.03.2020
922 Clouds 16 1012 29 10000 2.1 160 11:21 23.03.2020
923 Clouds 15 1013 30 10000 3.6 130 10:58 23.03.2020
924 Clouds 15 1013 30 10000 3.6 130 10:39 23.03.2020
925 Clouds 15 1013 41 10000 2.1 40 10:21 23.03.2020
926 Clouds 13 1013 40 10000 0.5 0 09:57 23.03.2020
927 Clouds 13 1013 40 10000 0.5 0 09:39 23.03.2020
928 Clouds 13 1014 40 10000 1.5 40 09:18 23.03.2020
929 Clouds 11 1014 53 10000 1.5 50 08:38 23.03.2020
930 Clouds 10 1014 51 10000 3.1 70 08:19 23.03.2020
931 Clouds 8 1014 51 10000 1 0 07:50 23.03.2020
932 Clouds 8 1014 51 10000 1 0 07:32 23.03.2020
933 Clouds 5 1014 80 10000 1 0 06:54 23.03.2020
934 Clouds 5 1014 80 10000 0.5 0 06:32 23.03.2020
935 Clouds 3 1014 51 10000 1.5 150 05:42 23.03.2020
936 Clouds 4 1014 64 10000 0.5 60 03:45 23.03.2020
937 Clouds 5 1014 64 10000 1 0 02:43 23.03.2020
938 Clouds 5 1014 64 10000 0.5 20 01:39 23.03.2020
939 Clouds 6 1014 69 10000 1 0 00:45 23.03.2020
940 Clouds 6 1015 64 10000 1.23 122 23:58 22.03.2020
941 Clouds 6 1015 64 10000 1.23 122 23:40 22.03.2020
942 Clouds 6 1015 65 10000 1.34 128 23:22 22.03.2020
943 Clouds 7 1015 59 10000 0.5 0 22:40 22.03.2020
944 Clouds 7 1015 59 10000 1.34 128 22:20 22.03.2020
945 Clouds 7 1015 65 10000 2.1 30 21:40 22.03.2020
946 Clouds 7 1015 59 10000 0.5 0 21:21 22.03.2020
947 Clouds 7 1015 59 10000 0.5 0 20:58 22.03.2020
948 Clouds 6 1015 59 10000 0.5 0 20:40 22.03.2020
949 Clouds 7 1015 57 10000 0.5 0 20:21 22.03.2020
950 Clouds 8 1015 57 10000 0.5 0 19:56 22.03.2020
951 Clouds 8 1015 57 10000 2.1 150 19:38 22.03.2020
952 Clouds 9 1015 46 10000 1.07 59 19:19 22.03.2020
953 Clouds 10 1015 46 10000 1.07 59 18:57 22.03.2020
954 Clouds 10 1015 46 10000 1.07 59 18:39 22.03.2020
955 Clouds 10 1014 43 10000 0.5 240 18:18 22.03.2020
956 Clouds 13 1014 40 10000 1.5 270 17:56 22.03.2020
957 Clouds 13 1014 40 10000 1.5 270 17:37 22.03.2020
958 Clouds 13 1014 37 10000 2.1 270 17:19 22.03.2020
959 Clouds 14 1014 30 10000 1.5 250 16:55 22.03.2020
960 Clouds 14 1014 30 10000 1.5 250 16:37 22.03.2020
961 Clouds 15 1014 30 10000 3.6 240 16:19 22.03.2020
962 Clouds 15 1014 26 10000 2.6 220 15:39 22.03.2020
963 Clouds 16 1014 25 10000 2.6 200 15:19 22.03.2020
964 Clouds 16 1014 26 10000 1.5 0 14:46 22.03.2020
965 Clouds 16 1014 25 10000 1 0 14:18 22.03.2020
966 Clouds 15 1015 33 10000 3.6 230 13:42 22.03.2020
967 Clouds 15 1015 28 10000 3.6 270 13:20 22.03.2020
968 Clouds 15 1015 33 10000 3.6 210 12:47 22.03.2020
969 Clouds 15 1015 30 10000 2.6 280 12:23 22.03.2020
970 Clouds 15 1015 30 10000 2.6 280 12:23 22.03.2020
971 Clouds 14 1016 30 10000 4.6 190 11:59 22.03.2020
972 Clouds 13 1016 30 10000 4.6 190 11:41 22.03.2020
973 Clear 13 1016 32 10000 2.1 0 11:23 22.03.2020
974 Clouds 12 1016 28 10000 5.1 200 10:57 22.03.2020
975 Clouds 12 1016 28 10000 5.1 200 10:39 22.03.2020
976 Clear 11 1017 54 10000 1.5 0 10:20 22.03.2020
977 Clouds 10 1016 43 10000 3.6 180 09:42 22.03.2020
978 Clear 9 1017 43 10000 1.5 350 09:22 22.03.2020
979 Clear 8 1017 61 10000 1.5 180 08:44 22.03.2020
980 Clear 7 1017 61 10000 1.5 0 08:24 22.03.2020
981 Clear 4 1017 57 6000 0.5 0 07:52 22.03.2020
982 Clear 4 1017 57 6000 0.5 0 07:28 22.03.2020
983 Mist 1 1017 80 4600 0.99 214 06:40 22.03.2020
984 Clear -2 1017 92 6000 1 20 05:35 22.03.2020
985 Clear -1 1016 92 8000 0.69 222 03:46 22.03.2020
986 Clear 0 1016 78 7000 1 30 01:35 22.03.2020
987 Clear 0 1016 79 7000 1.07 233 00:48 22.03.2020
988 Clear 0 1017 80 10000 1.07 233 00:29 22.03.2020
989 Clear 0 1017 80 7000 1 30 23:44 21.03.2020
990 Clear 0 1016 80 10000 1.5 10 23:19 21.03.2020
991 Clear 1 1016 86 10000 1 0 22:58 21.03.2020
992 Clear 1 1016 86 10000 1 0 22:37 21.03.2020
993 Clear 1 1016 74 10000 1.5 10 22:18 21.03.2020
994 Clear 1 1016 73 10000 1 0 21:56 21.03.2020
995 Clear 1 1016 73 10000 1 0 21:37 21.03.2020
996 Clear 2 1016 73 10000 1 0 21:18 21.03.2020
997 Clear 4 1016 73 10000 0.5 0 20:41 21.03.2020
998 Clouds 4 1016 71 10000 2.1 100 20:20 21.03.2020
999 Clouds 5 1016 71 10000 0.5 0 19:44 21.03.2020
1000 Clouds 5 1017 71 10000 1.09 240 19:25 21.03.2020
1001 Clouds 7 1016 71 10000 2.1 170 18:59 21.03.2020
1002 Clouds 7 1016 71 10000 2.1 170 18:39 21.03.2020
1003 Clouds 7 1016 71 10000 1.5 240 18:20 21.03.2020
1004 Clouds 9 1016 52 10000 3.1 220 17:57 21.03.2020
1005 Clouds 9 1016 52 10000 3.1 220 17:39 21.03.2020
1006 Clouds 10 1016 57 10000 3.1 250 17:20 21.03.2020
1007 Clouds 11 1016 40 10000 1 0 16:41 21.03.2020
1008 Clouds 11 1016 43 10000 2.1 290 16:22 21.03.2020
1009 Clouds 11 1016 43 10000 2.1 290 15:57 21.03.2020
1010 Clouds 12 1016 56 10000 1 0 15:39 21.03.2020
1011 Clouds 11 1016 43 10000 2.1 170 15:20 21.03.2020
1012 Clouds 11 1016 56 10000 1.5 0 14:55 21.03.2020
1013 Clouds 11 1016 56 10000 1.5 0 14:36 21.03.2020
1014 Clouds 11 1016 53 10000 1.5 0 14:18 21.03.2020
1015 Clouds 11 1016 53 10000 1.5 0 13:57 21.03.2020
1016 Clouds 11 1016 53 10000 1.5 0 13:38 21.03.2020
1017 Clouds 11 1017 53 10000 2.1 0 13:19 21.03.2020
1018 Clouds 9 1017 53 10000 2.1 200 12:40 21.03.2020
1019 Clouds 9 1018 49 10000 1.5 0 12:20 21.03.2020
1020 Clouds 8 1018 53 10000 2.1 360 11:59 21.03.2020
1021 Clouds 8 1018 53 10000 2.1 360 11:39 21.03.2020
1022 Clouds 8 1018 53 10000 2.1 360 11:39 21.03.2020
1023 Clouds 8 1018 49 10000 2.1 0 11:20 21.03.2020
1024 Clouds 7 1018 60 10000 2.1 10 10:58 21.03.2020
1025 Clouds 7 1018 60 10000 2.1 10 10:39 21.03.2020
1026 Clouds 6 1018 60 10000 2.6 30 10:21 21.03.2020
1027 Clouds 5 1018 60 10000 2.6 30 09:59 21.03.2020
1028 Clouds 5 1018 65 10000 2.6 30 09:39 21.03.2020
1029 Clouds 5 1019 60 10000 2.1 120 09:20 21.03.2020
1030 Clouds 5 1018 65 10000 4.1 50 08:55 21.03.2020
1031 Clouds 5 1018 65 10000 4.1 50 08:37 21.03.2020
1032 Clouds 4 1019 60 10000 1 0 08:18 21.03.2020
1033 Clouds 4 1018 69 10000 5.1 30 07:37 21.03.2020
1034 Clouds 4 1018 60 10000 3.6 80 07:18 21.03.2020
1035 Clouds 2 1018 69 10000 4.1 50 06:42 21.03.2020
1036 Clouds 2 1018 72 10000 0.36 93 06:23 21.03.2020
1037 Clouds 2 1018 74 10000 2.6 20 05:39 21.03.2020
1038 Clouds 1 1017 74 10000 3.6 30 03:39 21.03.2020
1039 Clouds 2 1017 74 10000 3.1 30 02:36 21.03.2020
1040 Clouds 2 1017 80 10000 2.1 360 01:44 21.03.2020
1041 Clouds 2 1017 74 10000 2.1 40 01:23 21.03.2020
1042 Clouds 3 1017 74 10000 2.1 350 00:39 21.03.2020
1043 Clouds 3 1018 69 10000 3.6 30 00:21 21.03.2020
1044 Clouds 3 1018 74 10000 1.5 90 23:42 20.03.2020
1045 Clouds 4 1018 60 10000 2.6 30 23:22 20.03.2020
1046 Clouds 3 1018 69 10000 3.6 40 22:44 20.03.2020
1047 Clouds 3 1018 69 10000 4.1 50 22:25 20.03.2020
1048 Clouds 3 1018 69 10000 5.1 50 21:58 20.03.2020
1049 Clouds 3 1018 69 10000 5.1 50 21:40 20.03.2020
1050 Clouds 3 1018 69 10000 3.1 30 21:20 20.03.2020
1051 Clouds 3 1018 69 10000 3.1 30 20:58 20.03.2020
1052 Clouds 3 1017 69 10000 4.1 10 20:40 20.03.2020
1053 Clouds 3 1017 69 10000 3.6 10 20:19 20.03.2020
1054 Clouds 3 1017 69 10000 4.1 10 19:47 20.03.2020
1055 Rain 3 1017 69 10000 4.1 20 19:20 20.03.2020
1056 Rain 4 1017 60 10000 5.1 10 18:57 20.03.2020
1057 Rain 4 1017 60 10000 5.1 10 18:38 20.03.2020
1058 Clouds 4 1016 64 10000 4.1 10 18:19 20.03.2020
1059 Clouds 4 1016 64 10000 5.7 10 17:56 20.03.2020
1060 Clouds 4 1016 64 10000 5.7 10 17:37 20.03.2020
1061 Clouds 5 1016 64 10000 5.7 10 17:18 20.03.2020
1062 Clouds 4 1016 64 10000 5.7 360 16:41 20.03.2020
1063 Clouds 4 1016 64 10000 5.7 360 16:41 20.03.2020
1064 Clouds 5 1015 64 10000 6.7 360 16:20 20.03.2020
1065 Rain 6 1015 60 10000 6.7 10 15:44 20.03.2020
1066 Rain 5 1015 56 10000 6.7 360 15:23 20.03.2020
1067 Clouds 6 1015 56 10000 6.2 10 14:58 20.03.2020
1068 Rain 6 1015 56 10000 6.2 10 14:40 20.03.2020
1069 Rain 6 1015 56 10000 5.1 350 14:20 20.03.2020
1070 Rain 6 1015 52 10000 3.1 20 13:48 20.03.2020
1071 Rain 6 1016 48 10000 4.1 50 13:22 20.03.2020
1072 Rain 6 1015 52 10000 4.1 10 12:58 20.03.2020
1073 Clouds 6 1015 52 10000 4.1 10 12:38 20.03.2020
1074 Rain 6 1016 48 10000 4.1 60 12:19 20.03.2020
1075 Rain 5 1016 52 10000 5.7 50 11:39 20.03.2020
1076 Rain 5 1016 48 10000 3.1 20 11:20 20.03.2020
1077 Rain 5 1016 52 10000 5.7 50 10:55 20.03.2020
1078 Rain 5 1016 52 10000 5.7 50 10:37 20.03.2020
1079 Rain 5 1016 52 10000 4.1 30 10:18 20.03.2020
1080 Rain 4 1016 55 10000 5.1 40 09:44 20.03.2020
1081 Rain 4 1017 55 10000 3.6 10 09:20 20.03.2020
1082 Clouds 3 1016 55 10000 5.7 30 08:57 20.03.2020
1083 Clouds 3 1016 55 10000 5.7 30 08:38 20.03.2020
1084 Clouds 3 1016 59 10000 5.1 10 08:18 20.03.2020
1085 Clouds 2 1016 64 10000 4.1 10 07:39 20.03.2020
1086 Clouds 2 1017 64 10000 1.5 160 07:21 20.03.2020
1087 Clouds 0 1016 74 10000 2.6 320 06:42 20.03.2020
1088 Clouds 0 1016 80 10000 1.96 358 06:18 20.03.2020
1089 Clouds -1 1015 74 10000 5.7 30 04:38 20.03.2020
1090 Clouds 0 1014 74 10000 4.1 30 02:50 20.03.2020
1091 Clouds 0 1015 74 10000 3.6 10 01:50 20.03.2020
1092 Clouds 1 1015 86 10000 3.1 360 00:45 20.03.2020
1093 Clouds 2 1016 69 10000 1.5 0 00:23 20.03.2020
1094 Clouds 1 1015 69 10000 1.5 10 23:42 19.03.2020
1095 Clouds 2 1016 69 10000 1.5 350 23:23 19.03.2020
1096 Clouds 1 1015 69 10000 1 0 22:41 19.03.2020
1097 Clouds 1 1016 69 10000 1 0 22:22 19.03.2020
1098 Clouds 2 1016 69 10000 1 0 21:58 19.03.2020
1099 Clouds 2 1015 69 10000 2.1 60 21:38 19.03.2020
1100 Clouds 2 1016 64 10000 1.5 0 21:19 19.03.2020
1101 Clouds 2 1016 64 10000 1.5 0 21:19 19.03.2020
1102 Clouds 2 1015 69 10000 4.1 30 20:44 19.03.2020
1103 Clouds 2 1016 64 10000 1.5 310 20:25 19.03.2020
1104 Clouds 2 1016 64 10000 1.5 310 19:59 19.03.2020
1105 Clouds 2 1015 69 10000 4.1 40 19:39 19.03.2020
1106 Clouds 2 1015 64 10000 1.5 10 19:20 19.03.2020
1107 Clouds 2 1015 69 10000 5.1 30 18:58 19.03.2020
1108 Clouds 2 1015 69 10000 5.1 30 18:40 19.03.2020
1109 Clouds 2 1015 59 10000 2.6 10 18:21 19.03.2020
1110 Clouds 2 1015 59 10000 2.6 10 18:21 19.03.2020
1111 Rain 3 1014 64 10000 5.1 20 17:44 19.03.2020
1112 Rain 3 1015 64 10000 4.1 20 17:20 19.03.2020
1113 Rain 3 1014 64 10000 5.7 20 16:58 19.03.2020
1114 Rain 3 1014 64 10000 5.7 20 16:39 19.03.2020
1115 Rain 3 1015 64 10000 3.1 20 16:21 19.03.2020
1116 Rain 3 1014 64 10000 3.6 330 15:42 19.03.2020
1117 Rain 4 1014 60 10000 3.6 20 15:23 19.03.2020
1118 Rain 4 1014 60 10000 3.6 20 15:23 19.03.2020
1119 Clouds 3 1014 55 10000 5.7 10 14:43 19.03.2020
1120 Rain 3 1014 64 6000 3.6 30 14:23 19.03.2020
1121 Rain 3 1014 64 6000 3.6 30 13:57 19.03.2020
1122 Rain 3 1014 64 6000 3.6 30 13:57 19.03.2020
1123 Clouds 3 1014 59 10000 4.1 10 13:37 19.03.2020
1124 Snow 3 1015 74 4000 2.1 30 13:18 19.03.2020
1125 Snow 2 1014 64 10000 3.6 40 12:41 19.03.2020
1126 Snow 2 1015 86 3500 1 0 12:22 19.03.2020
1127 Snow 1 1014 80 8000 2.6 340 11:57 19.03.2020
1128 Snow 1 1014 80 8000 2.6 340 11:57 19.03.2020
1129 Snow 1 1014 80 8000 2.6 340 11:38 19.03.2020
1130 Snow 1 1015 86 4000 1.5 180 11:20 19.03.2020
1131 Snow 1 1014 69 10000 3.6 30 10:41 19.03.2020
1132 Snow 1 1015 86 4000 1 200 10:20 19.03.2020
1133 Snow 0 1014 88 8000 3.1 70 09:57 19.03.2020
1134 Snow 0 1014 88 8000 3.1 70 09:37 19.03.2020
1135 Snow 0 1015 88 4000 1.5 230 09:18 19.03.2020
1136 Snow 0 1014 88 10000 1.5 340 08:42 19.03.2020
1137 Snow 0 1015 91 4500 2.6 250 08:21 19.03.2020
1138 Snow -1 1014 92 4800 1.5 340 07:46 19.03.2020
1139 Snow -1 1014 92 4800 1.5 340 07:28 19.03.2020
1140 Snow -1 1013 100 4800 1 320 06:48 19.03.2020
1141 Snow -1 1014 92 2000 0.5 0 05:52 19.03.2020
1142 Snow -1 1014 92 2800 2.1 329 04:59 19.03.2020
1143 Snow -1 1014 92 2800 2.1 329 04:40 19.03.2020
1144 Snow -2 1014 92 2700 1 270 02:50 19.03.2020
1145 Snow -2 1015 92 3500 2.1 270 01:25 19.03.2020
1146 Snow -2 1016 92 3300 2.1 240 00:32 19.03.2020
1147 Snow -1 1015 92 2800 1.5 270 23:57 18.03.2020
1148 Snow -1 1016 92 3500 2.1 260 23:30 18.03.2020
1149 Snow -2 1015 92 2800 1.5 290 22:58 18.03.2020
1150 Snow -2 1015 92 2800 1.5 290 22:39 18.03.2020
1151 Snow -2 1016 92 3200 1.5 270 22:21 18.03.2020
1152 Snow -1 1016 92 4000 0.5 0 21:42 18.03.2020
1153 Snow -1 1017 92 3200 0.5 0 21:22 18.03.2020
1154 Snow -1 1017 92 3200 0.5 0 20:59 18.03.2020
1155 Snow -1 1016 92 2700 1 0 20:40 18.03.2020
1156 Snow -1 1016 92 2700 1 0 20:40 18.03.2020
1157 Snow -1 1017 92 3500 1 0 20:20 18.03.2020
1158 Snow -1 1017 92 3500 1 0 19:58 18.03.2020
1159 Snow -1 1016 92 6000 2.1 30 19:39 18.03.2020
1160 Snow -1 1017 65 10000 3.1 350 19:20 18.03.2020
1161 Snow 0 1017 65 10000 4.1 20 18:42 18.03.2020
1162 Clouds 1 1017 51 10000 4.1 30 18:21 18.03.2020
1163 Clouds 1 1017 51 10000 4.1 30 18:21 18.03.2020
1164 Clouds 1 1016 65 10000 5.7 10 17:59 18.03.2020
1165 Clouds 1 1016 65 10000 5.7 10 17:41 18.03.2020
1166 Clouds 1 1016 47 10000 4.1 20 17:22 18.03.2020
1167 Clouds 2 1016 50 10000 8.7 10 16:58 18.03.2020
1168 Clouds 2 1016 50 10000 8.7 10 16:40 18.03.2020
1169 Clouds 2 1016 55 10000 7.2 350 16:20 18.03.2020
1170 Clouds 3 1015 43 10000 9.3 360 15:45 18.03.2020
1171 Clouds 3 1016 32 10000 5.1 360 15:23 18.03.2020
1172 Clouds 4 1015 34 10000 10.3 10 14:56 18.03.2020
1173 Clouds 4 1015 34 10000 10.3 10 14:38 18.03.2020
1174 Clouds 4 1016 41 10000 5.1 10 14:19 18.03.2020
1175 Clouds 4 1015 40 10000 10.3 360 13:38 18.03.2020
1176 Clouds 4 1016 35 10000 5.7 360 13:19 18.03.2020
1177 Clouds 3 1016 40 10000 8.7 10 12:42 18.03.2020
1178 Clouds 3 1017 38 10000 5.7 40 12:20 18.03.2020
1179 Clouds 3 1016 40 10000 7.7 360 11:41 18.03.2020
1180 Clouds 3 1018 38 10000 5.1 30 11:22 18.03.2020
1181 Clouds 2 1017 40 10000 5.1 30 10:58 18.03.2020
1182 Clouds 2 1017 40 10000 5.1 30 10:39 18.03.2020
1183 Clouds 2 1019 37 10000 4.6 50 10:20 18.03.2020
1184 Clouds 2 1019 37 10000 4.6 50 10:20 18.03.2020
1185 Clouds 2 1019 37 10000 4.6 50 09:59 18.03.2020
1186 Clouds 2 1018 40 10000 6.2 20 09:39 18.03.2020
1187 Clouds 2 1019 37 10000 5.1 40 09:21 18.03.2020
1188 Clouds 0 1018 38 10000 3.1 10 08:40 18.03.2020
1189 Clear -1 1020 45 10000 1.5 0 08:21 18.03.2020
1190 Clouds -2 1019 58 10000 1 0 07:49 18.03.2020
1191 Clear -2 1020 54 10000 2.1 220 07:31 18.03.2020
1192 Clouds -4 1019 62 10000 0.5 0 06:50 18.03.2020
1193 Clear -5 1020 58 10000 2.1 30 06:31 18.03.2020
1194 Clear -7 1019 78 10000 2.6 310 05:36 18.03.2020
1195 Clear -7 1020 73 10000 2.6 40 04:29 18.03.2020
1196 Clear -6 1020 58 10000 0.5 0 03:21 18.03.2020
1197 Clear -7 1020 62 10000 2.6 80 02:32 18.03.2020
1198 Clear -6 1020 58 10000 1 0 01:31 18.03.2020
1199 Clear -5 1020 67 10000 3.1 60 00:42 18.03.2020
1200 Clear -5 1021 63 10000 1.5 60 00:21 18.03.2020
1201 Clear -4 1021 58 10000 1.5 40 23:40 17.03.2020
1202 Clear -4 1021 58 10000 1.5 40 23:19 17.03.2020
1203 Clear -3 1021 67 10000 2.1 330 22:42 17.03.2020
1204 Clear -3 1022 54 10000 3.6 70 22:24 17.03.2020
1205 Clear -2 1021 68 10000 1 10 21:43 17.03.2020
1206 Clear -2 1022 67 10000 4.1 70 21:23 17.03.2020
1207 Clear -1 1021 63 10000 5.1 70 20:56 17.03.2020
1208 Clear -1 1021 63 10000 5.1 70 20:37 17.03.2020
1209 Clear -1 1022 58 10000 5.1 60 20:19 17.03.2020
1210 Clouds 0 1021 58 10000 4.6 80 19:41 17.03.2020
1211 Clear 0 1022 47 10000 4.6 60 19:18 17.03.2020
1212 Clouds 1 1021 60 10000 6.7 40 18:57 17.03.2020
1213 Clouds 1 1021 60 10000 6.7 40 18:39 17.03.2020
1214 Clouds 1 1021 37 10000 5.1 30 18:21 17.03.2020
1215 Clouds 2 1020 47 10000 5.1 20 17:55 17.03.2020
1216 Clouds 2 1020 47 10000 5.1 20 17:36 17.03.2020
1217 Clouds 3 1021 32 10000 4.6 20 17:18 17.03.2020
1218 Clouds 4 1020 32 10000 6.7 40 16:41 17.03.2020
1219 Clouds 4 1021 30 10000 4.6 30 16:19 17.03.2020
1220 Clouds 4 1020 32 10000 7.7 30 15:44 17.03.2020
1221 Clouds 5 1021 32 10000 5.7 20 15:22 17.03.2020
1222 Clouds 5 1020 32 10000 6.2 40 14:44 17.03.2020
1223 Clouds 4 1021 32 10000 5.7 30 14:24 17.03.2020
1224 Clouds 4 1021 32 10000 5.7 30 13:57 17.03.2020
1225 Clouds 4 1021 32 10000 7.7 50 13:39 17.03.2020
1226 Clouds 4 1021 32 10000 6.2 40 13:20 17.03.2020
1227 Clouds 4 1021 32 10000 9.3 40 12:43 17.03.2020
1228 Clouds 4 1022 32 10000 7.7 50 12:24 17.03.2020
1229 Clouds 3 1022 40 10000 7.7 30 11:48 17.03.2020
1230 Clouds 3 1023 34 10000 8.2 70 11:29 17.03.2020
1231 Clouds 2 1023 37 10000 8.2 50 10:58 17.03.2020
1232 Clouds 2 1023 37 10000 8.2 50 10:40 17.03.2020
1233 Clouds 2 1024 37 10000 9.3 50 10:22 17.03.2020
1234 Clouds 0 1023 37 10000 11.3 60 09:59 17.03.2020
1235 Clouds 0 1023 37 10000 11.3 60 09:40 17.03.2020
1236 Clouds 0 1025 38 10000 7.7 40 09:19 17.03.2020
1237 Clear -1 1024 46 10000 8.7 40 08:48 17.03.2020
1238 Clouds -1 1025 50 10000 7.7 40 08:23 17.03.2020
1239 Clear -2 1024 53 10000 9.3 30 07:56 17.03.2020
1240 Clear -2 1024 53 10000 9.3 30 07:38 17.03.2020
1241 Clouds -2 1025 54 10000 7.2 60 07:19 17.03.2020
1242 Clear -4 1024 58 10000 6.7 30 06:38 17.03.2020
1243 Clouds -5 1024 67 10000 4.6 10 05:58 17.03.2020
1244 Clouds -5 1023 67 10000 4.1 20 03:58 17.03.2020
1245 Clouds -4 1023 67 10000 4.1 10 02:54 17.03.2020
1246 Clouds -3 1023 68 10000 4.1 10 01:49 17.03.2020
1247 Clouds -3 1024 74 10000 4.6 40 01:25 17.03.2020
1248 Clouds -2 1023 63 10000 6.7 20 00:46 17.03.2020
1249 Snow -2 1023 74 10000 6.7 60 23:48 16.03.2020
1250 Clouds -2 1023 58 10000 5.1 20 23:30 16.03.2020
1251 Snow -1 1023 68 10000 6.2 10 22:41 16.03.2020
1252 Clouds -1 1023 85 10000 6.2 40 22:23 16.03.2020
1253 Clouds -1 1023 85 10000 6.2 40 21:58 16.03.2020
1254 Snow 0 1023 74 10000 6.7 20 21:40 16.03.2020
1255 Clouds 0 1023 64 10000 5.1 30 21:21 16.03.2020
1256 Snow 1 1023 85 10000 7.2 30 20:56 16.03.2020
1257 Snow 1 1023 85 10000 7.2 30 20:37 16.03.2020
1258 Clouds 1 1024 64 10000 4.6 50 20:19 16.03.2020
1259 Clouds 1 1022 76 10000 5.1 40 19:41 16.03.2020
1260 Clouds 1 1023 64 10000 6.2 50 19:20 16.03.2020
1261 Clouds 2 1022 74 10000 5.7 50 18:43 16.03.2020
1262 Clouds 2 1022 51 10000 6.2 40 18:21 16.03.2020
1263 Clouds 2 1022 74 10000 6.7 40 17:56 16.03.2020
1264 Clouds 2 1022 74 10000 6.7 40 17:56 16.03.2020
1265 Clouds 3 1022 74 10000 6.7 40 17:37 16.03.2020
1266 Clouds 3 1022 51 10000 5.1 40 17:18 16.03.2020
1267 Clouds 3 1021 69 10000 6.7 40 16:44 16.03.2020
1268 Clouds 3 1021 60 10000 6.2 40 16:24 16.03.2020
1269 Clouds 3 1021 64 10000 4.1 80 15:45 16.03.2020
1270 Rain 3 1021 64 10000 5.7 70 15:27 16.03.2020
1271 Snow 3 1020 74 10000 7.7 40 14:49 16.03.2020
1272 Snow 3 1020 74 10000 7.7 40 14:27 16.03.2020
1273 Rain 3 1021 64 10000 6.7 50 13:58 16.03.2020
1274 Clouds 3 1020 80 10000 7.2 40 13:40 16.03.2020
1275 Clouds 4 1021 64 10000 6.2 40 13:21 16.03.2020
1276 Snow 4 1021 60 6000 6.7 30 12:44 16.03.2020
1277 Clouds 4 1021 60 10000 6.7 60 12:23 16.03.2020
1278 Clouds 4 1021 69 10000 6.7 50 11:46 16.03.2020
1279 Clouds 5 1021 60 10000 7.7 50 11:27 16.03.2020
1280 Clouds 5 1021 60 10000 7.7 50 11:27 16.03.2020
1281 Clouds 5 1021 64 10000 7.2 50 10:56 16.03.2020
1282 Clouds 5 1021 64 10000 7.2 50 10:37 16.03.2020
1283 Clouds 5 1021 60 10000 8.2 40 10:18 16.03.2020
1284 Clouds 4 1021 69 10000 7.7 60 09:42 16.03.2020
1285 Clouds 4 1021 65 10000 6.7 50 09:21 16.03.2020
1286 Clouds 4 1021 69 10000 7.7 50 08:49 16.03.2020
1287 Clouds 4 1021 69 10000 5.1 30 08:25 16.03.2020
1288 Clouds 3 1021 69 10000 5.7 30 07:45 16.03.2020
1289 Rain 3 1020 69 10000 5.7 30 07:21 16.03.2020
1290 Rain 3 1020 80 10000 7.2 30 06:51 16.03.2020
1291 Rain 3 1020 64 10000 4.6 20 06:23 16.03.2020
1292 Rain 3 1018 80 10000 7.2 40 04:54 16.03.2020
1293 Clouds 3 1018 74 10000 5.7 40 02:40 16.03.2020
1294 Rain 5 1017 81 10000 5.7 50 00:49 16.03.2020
1295 Rain 5 1017 81 10000 5.7 50 00:30 16.03.2020
1296 Rain 5 1016 80 10000 4.6 30 23:42 15.03.2020
1297 Clouds 5 1016 67 10000 2.1 250 23:20 15.03.2020
1298 Clouds 6 1016 81 10000 4.6 30 22:42 15.03.2020
1299 Clouds 6 1017 67 10000 4.1 300 22:22 15.03.2020
1300 Clouds 6 1016 81 10000 6.2 40 21:55 15.03.2020
1301 Rain 6 1016 81 10000 6.2 40 21:37 15.03.2020
1302 Rain 6 1016 70 10000 3.6 240 21:18 15.03.2020
1303 Rain 7 1015 87 10000 5.1 20 20:42 15.03.2020
1304 Rain 7 1015 61 10000 2.1 0 20:20 15.03.2020
1305 Rain 8 1015 61 10000 2.1 0 19:56 15.03.2020
1306 Rain 9 1014 81 10000 4.1 300 19:38 15.03.2020
1307 Rain 9 1014 61 10000 5.7 290 19:19 15.03.2020
1308 Rain 10 1013 61 10000 3.6 320 18:55 15.03.2020
1309 Rain 10 1013 61 10000 3.6 320 18:36 15.03.2020
1310 Clouds 11 1012 50 10000 1.5 0 18:18 15.03.2020
1311 Clouds 13 1012 50 10000 3.6 320 17:40 15.03.2020
1312 Clouds 13 1011 41 10000 1.5 0 17:20 15.03.2020
1313 Clouds 15 1011 41 10000 5.1 310 16:56 15.03.2020
1314 Clouds 15 1011 41 10000 5.1 310 16:38 15.03.2020
1315 Clouds 16 1010 33 10000 3.6 240 16:19 15.03.2020
1316 Clouds 16 1011 36 10000 6.7 250 15:43 15.03.2020
1317 Clouds 17 1011 36 10000 6.7 250 15:25 15.03.2020
1318 Clouds 18 1010 46 10000 5.7 260 14:55 15.03.2020
1319 Clouds 18 1010 46 10000 5.7 260 14:37 15.03.2020
1320 Clouds 18 1010 29 10000 7.7 250 14:18 15.03.2020
1321 Clouds 18 1010 31 10000 7.7 230 13:40 15.03.2020
1322 Clouds 18 1010 36 10000 7.2 230 13:21 15.03.2020
1323 Clouds 17 1011 33 10000 6.7 240 12:58 15.03.2020
1324 Clouds 17 1011 33 10000 6.7 240 12:38 15.03.2020
1325 Clouds 17 1011 39 10000 7.2 260 12:20 15.03.2020
1326 Clouds 15 1012 38 10000 6.7 220 11:42 15.03.2020
1327 Clouds 15 1012 41 10000 1.5 0 11:22 15.03.2020
1328 Clouds 14 1012 41 10000 5.7 210 10:57 15.03.2020
1329 Clouds 14 1012 41 10000 5.7 210 10:38 15.03.2020
1330 Clouds 14 1013 43 10000 2.6 270 10:20 15.03.2020
1331 Clouds 13 1012 47 10000 5.86 244 09:42 15.03.2020
1332 Clouds 13 1013 50 10000 1 0 09:22 15.03.2020
1333 Clouds 11 1013 57 10000 1 0 08:58 15.03.2020
1334 Clouds 10 1013 57 10000 1 0 08:39 15.03.2020
1335 Clouds 10 1013 53 10000 0.5 0 08:18 15.03.2020
1336 Clouds 8 1013 65 10000 2.16 112 07:44 15.03.2020
1337 Clouds 5 1013 66 10000 0.5 0 06:55 15.03.2020
1338 Clouds 5 1013 66 10000 0.5 0 06:34 15.03.2020
1339 Clouds 4 1013 69 10000 0.5 0 05:46 15.03.2020
1340 Clouds 4 1013 74 10000 0.5 0 04:49 15.03.2020
1341 Clouds 4 1013 74 10000 0.5 0 04:29 15.03.2020
1342 Clouds 4 1013 69 10000 1.83 108 03:55 15.03.2020
1343 Clouds 5 1013 64 10000 0.5 0 02:48 15.03.2020
1344 Clear 5 1014 74 10000 0.5 0 01:50 15.03.2020
1345 Clouds 6 1014 60 10000 1.5 140 00:51 15.03.2020
1346 Clouds 6 1014 60 10000 1.5 140 00:51 15.03.2020
1347 Clouds 6 1014 60 10000 1.74 101 00:28 15.03.2020
1348 Clouds 7 1014 60 10000 1.5 10 23:58 14.03.2020
1349 Clouds 7 1014 60 10000 1.5 10 23:37 14.03.2020
1350 Clear 7 1014 56 10000 1.56 64 23:18 14.03.2020
1351 Clear 8 1014 60 10000 0.5 260 22:44 14.03.2020
1352 Clear 8 1014 60 10000 0.5 260 22:26 14.03.2020
1353 Clear 10 1015 52 10000 1 0 21:57 14.03.2020
1354 Clear 9 1015 52 10000 1 0 21:37 14.03.2020
1355 Clear 10 1014 37 10000 2.1 200 21:18 14.03.2020
1356 Clear 9 1014 37 10000 2.1 200 20:59 14.03.2020
1357 Clear 10 1014 45 10000 1.5 60 20:40 14.03.2020
1358 Clear 10 1014 46 10000 1.5 240 20:19 14.03.2020
1359 Clear 12 1014 40 10000 1 0 19:56 14.03.2020
1360 Clear 12 1014 40 10000 1 0 19:38 14.03.2020
1361 Clear 13 1014 37 10000 1 0 19:19 14.03.2020
1362 Clear 14 1014 32 10000 0.5 0 18:37 14.03.2020
1363 Clear 14 1013 31 10000 2.1 240 18:19 14.03.2020
1364 Clear 17 1013 33 10000 2.1 250 17:39 14.03.2020
1365 Clear 17 1012 33 10000 3.1 250 17:20 14.03.2020
1366 Clear 19 1012 27 10000 4.1 260 16:41 14.03.2020
1367 Clear 19 1012 24 10000 4.1 260 16:23 14.03.2020
1368 Clear 19 1012 24 10000 4.1 260 16:23 14.03.2020
1369 Clear 19 1012 24 10000 4.1 260 15:59 14.03.2020
1370 Clear 20 1012 19 10000 3.6 250 15:27 14.03.2020
1371 Clouds 20 1012 15 10000 3.1 260 14:59 14.03.2020
1372 Clouds 20 1012 15 10000 3.1 260 14:37 14.03.2020
1373 Clear 20 1012 28 10000 2.6 0 14:19 14.03.2020
1374 Clouds 20 1012 19 10000 3.1 250 13:54 14.03.2020
1375 Clouds 20 1012 19 10000 3.1 250 13:36 14.03.2020
1376 Clouds 19 1012 24 10000 2.1 0 13:18 14.03.2020
1377 Clouds 19 1012 30 10000 3.1 330 12:42 14.03.2020
1378 Clear 19 1013 37 10000 3.1 0 12:23 14.03.2020
1379 Clouds 18 1012 30 10000 2.1 210 11:43 14.03.2020
1380 Clouds 18 1013 30 10000 2.1 250 11:24 14.03.2020
1381 Clouds 17 1012 31 10000 3.6 250 10:47 14.03.2020
1382 Rain 17 1013 48 10000 3.6 270 10:28 14.03.2020
1383 Rain 17 1013 48 10000 3.6 270 09:59 14.03.2020
1384 Clouds 16 1012 39 10000 4.6 280 09:40 14.03.2020
1385 Clouds 16 1012 55 10000 3.1 190 09:20 14.03.2020
1386 Clouds 16 1012 55 10000 2.6 190 08:46 14.03.2020
1387 Clouds 16 1012 55 10000 2.6 190 08:26 14.03.2020
1388 Clouds 12 1012 66 10000 0.5 0 07:40 14.03.2020
1389 Clouds 12 1012 71 10000 1.5 270 07:21 14.03.2020
1390 Clouds 9 1012 76 10000 1.5 70 06:45 14.03.2020
1391 Clouds 9 1012 76 10000 1.5 70 06:45 14.03.2020
1392 Clouds 8 1012 87 10000 0.5 0 06:26 14.03.2020
1393 Clouds 11 1011 76 10000 1 160 04:53 14.03.2020
1394 Clouds 11 1011 81 10000 1.5 220 03:34 14.03.2020
1395 Clouds 11 1011 81 10000 1.5 220 03:34 14.03.2020
1396 Clouds 12 1010 76 10000 0.5 0 02:48 14.03.2020
1397 Clouds 13 1010 71 10000 0.5 0 01:42 14.03.2020
1398 Clouds 13 1010 62 10000 0.5 0 00:23 14.03.2020
1399 Clouds 14 1010 71 10000 1.5 10 23:42 13.03.2020
1400 Clouds 14 1010 58 10000 3.1 70 23:22 13.03.2020
1401 Clouds 14 1010 66 10000 2.1 20 22:41 13.03.2020
1402 Clouds 14 1010 54 10000 2.1 70 22:22 13.03.2020
1403 Clouds 14 1010 66 10000 3.1 30 21:40 13.03.2020
1404 Clouds 14 1009 58 10000 3.6 60 21:19 13.03.2020
1405 Clouds 15 1010 62 10000 5.1 70 20:42 13.03.2020
1406 Clouds 15 1009 51 10000 4.6 70 20:22 13.03.2020
1407 Clouds 16 1010 62 10000 4.1 50 19:57 13.03.2020
1408 Clouds 16 1010 62 10000 4.1 50 19:39 13.03.2020
1409 Clouds 16 1008 48 10000 4.1 70 19:18 13.03.2020
1410 Clouds 16 1009 54 10000 4.6 50 18:40 13.03.2020
1411 Clouds 16 1008 48 10000 5.7 60 18:22 13.03.2020
1412 Clouds 17 1008 48 10000 4.1 40 17:42 13.03.2020
1413 Clouds 17 1007 42 10000 4.6 60 17:21 13.03.2020
1414 Clouds 17 1008 48 10000 4.6 80 16:56 13.03.2020
1415 Clouds 17 1008 48 10000 4.6 80 16:38 13.03.2020
1416 Clouds 18 1007 45 10000 5.1 60 16:20 13.03.2020
1417 Clouds 18 1008 45 10000 6.2 60 15:43 13.03.2020
1418 Clouds 18 1007 42 10000 5.1 50 15:22 13.03.2020
1419 Clouds 18 1007 42 10000 5.1 50 14:57 13.03.2020
1420 Clouds 18 1008 42 10000 5.7 80 14:38 13.03.2020
1421 Clouds 19 1009 42 10000 6.7 80 14:18 13.03.2020
1422 Clouds 19 1009 39 10000 7.2 80 13:42 13.03.2020
1423 Clouds 19 1008 37 10000 5.1 90 13:22 13.03.2020
1424 Clouds 20 1009 37 10000 6.2 70 12:58 13.03.2020
1425 Clouds 20 1009 37 10000 6.2 70 12:38 13.03.2020
1426 Clouds 19 1009 37 10000 5.1 90 12:19 13.03.2020
1427 Clouds 19 1010 39 10000 6.2 70 11:55 13.03.2020
1428 Clouds 19 1010 39 10000 6.2 70 11:36 13.03.2020
1429 Clouds 19 1009 39 10000 6.7 70 11:36 13.03.2020
1430 Clouds 18 1009 39 10000 6.7 70 11:18 13.03.2020
1431 Clouds 18 1011 42 10000 7.2 70 10:42 13.03.2020
1432 Clouds 18 1010 39 10000 5.1 50 10:24 13.03.2020
1433 Clouds 17 1011 41 10000 6.7 60 09:46 13.03.2020
1434 Clouds 17 1011 41 10000 6.7 60 09:27 13.03.2020
1435 Clouds 14 1012 47 10000 7.7 20 08:56 13.03.2020
1436 Clouds 14 1012 47 10000 7.7 20 08:37 13.03.2020
1437 Clouds 12 1012 47 10000 8.2 20 08:18 13.03.2020
1438 Clouds 12 1012 50 10000 7.2 30 07:43 13.03.2020
1439 Clouds 11 1012 46 10000 2.6 70 07:22 13.03.2020
1440 Clouds 8 1013 61 10000 3.1 360 06:46 13.03.2020
1441 Clouds 7 1012 70 10000 0.5 0 06:20 13.03.2020
1442 Clouds 7 1013 70 10000 3.6 30 05:43 13.03.2020
1443 Clouds 8 1013 75 10000 6.2 30 04:39 13.03.2020
1444 Clouds 8 1013 70 10000 4.1 10 03:50 13.03.2020
1445 Clouds 9 1014 65 10000 5.7 30 01:49 13.03.2020
1446 Clouds 9 1013 53 10000 3.1 90 01:19 13.03.2020
1447 Clouds 10 1015 65 10000 3.1 360 00:56 13.03.2020
1448 Clouds 10 1015 65 10000 3.1 360 00:38 13.03.2020
1449 Clouds 10 1014 50 10000 5.1 80 00:18 13.03.2020
1450 Clouds 10 1014 50 10000 4.1 80 23:29 12.03.2020
1451 Clouds 10 1015 61 10000 5.7 30 22:59 12.03.2020
1452 Clouds 10 1015 61 10000 5.7 30 22:41 12.03.2020
1453 Clouds 10 1014 50 10000 2.1 70 22:23 12.03.2020
1454 Clouds 11 1015 57 10000 5.7 20 21:54 12.03.2020
1455 Clouds 11 1015 57 10000 5.7 20 21:36 12.03.2020
1456 Clouds 11 1015 46 10000 3.67 56 21:18 12.03.2020
1457 Clouds 12 1015 53 10000 4.6 20 20:41 12.03.2020
1458 Clouds 12 1015 53 10000 4.6 20 20:41 12.03.2020
1459 Clouds 12 1015 46 10000 0.5 40 20:19 12.03.2020
1460 Clouds 12 1016 46 10000 3.6 360 19:42 12.03.2020
1461 Clouds 13 1016 43 10000 3.1 20 19:21 12.03.2020
1462 Clouds 13 1016 43 10000 3.1 20 19:21 12.03.2020
1463 Clouds 14 1016 46 10000 3.6 20 18:45 12.03.2020
1464 Clouds 14 1015 46 10000 3.6 70 18:25 12.03.2020
1465 Clouds 16 1016 33 10000 3.6 80 17:57 12.03.2020
1466 Clouds 16 1016 33 10000 3.6 80 17:39 12.03.2020
1467 Clouds 16 1015 39 10000 5.1 70 17:21 12.03.2020
1468 Clouds 18 1015 29 10000 5.7 60 16:58 12.03.2020
1469 Clouds 18 1015 29 10000 5.7 60 16:38 12.03.2020
1470 Clouds 18 1015 25 10000 5.7 40 16:19 12.03.2020
1471 Clouds 19 1016 27 10000 5.1 40 15:45 12.03.2020
1472 Clouds 19 1016 24 10000 4.6 30 15:27 12.03.2020
1473 Clouds 19 1016 25 10000 4.1 30 14:42 12.03.2020
1474 Clouds 18 1017 25 10000 4.6 30 14:24 12.03.2020
1475 Clouds 18 1017 23 10000 5.1 20 13:57 12.03.2020
1476 Clouds 18 1017 23 10000 5.1 20 13:37 12.03.2020
1477 Clouds 18 1017 25 10000 5.1 20 13:19 12.03.2020
1478 Clouds 18 1017 33 10000 4.1 40 12:41 12.03.2020
1479 Clouds 18 1018 27 10000 5.7 10 12:22 12.03.2020
1480 Clouds 17 1018 33 10000 4.6 20 11:57 12.03.2020
1481 Clouds 17 1018 33 10000 4.6 20 11:39 12.03.2020
1482 Clear 17 1019 35 10000 5.1 30 11:20 12.03.2020
1483 Clear 16 1019 35 10000 4.1 40 10:59 12.03.2020
1484 Clear 16 1019 35 10000 4.1 40 10:40 12.03.2020
1485 Clear 16 1019 35 10000 4.1 40 10:40 12.03.2020
1486 Clear 14 1019 36 10000 3.1 30 10:22 12.03.2020
1487 Clear 13 1019 38 10000 2.6 20 09:47 12.03.2020
1488 Clear 13 1019 38 10000 2.6 20 09:28 12.03.2020
1489 Clear 11 1019 53 10000 1 0 08:46 12.03.2020
1490 Clouds 10 1019 57 10000 0.5 0 08:21 12.03.2020
1491 Clouds 10 1019 57 10000 0.5 0 07:59 12.03.2020
1492 Clouds 7 1019 70 10000 1.5 100 07:41 12.03.2020
1493 Clouds 7 1019 80 10000 1 0 07:21 12.03.2020
1494 Clouds 7 1019 80 10000 1 0 07:21 12.03.2020
1495 Clouds 3 1019 54 10000 1.64 49 05:55 12.03.2020
1496 Clouds 2 1019 54 10000 1.64 49 05:26 12.03.2020
1497 Clouds 4 1018 74 10000 0.5 10 02:43 12.03.2020
1498 Clouds 6 1018 74 10000 0.5 0 01:38 12.03.2020
1499 Clouds 6 1018 66 10000 1.5 50 01:20 12.03.2020
1500 Clouds 6 1018 68 10000 1.5 10 00:41 12.03.2020
1501 Clouds 7 1018 75 10000 1.5 70 23:56 11.03.2020
1502 Clouds 7 1018 68 10000 0.8 38 23:26 11.03.2020
1503 Clouds 8 1018 70 10000 1.59 27 22:55 11.03.2020
1504 Clouds 8 1018 70 10000 1.59 27 22:37 11.03.2020
1505 Clouds 8 1018 70 10000 1.59 27 22:18 11.03.2020
1506 Clouds 9 1018 61 10000 0.5 0 21:41 11.03.2020
1507 Clouds 10 1018 61 10000 1.5 60 21:23 11.03.2020
1508 Clouds 10 1018 61 10000 1.5 60 21:23 11.03.2020
1509 Clouds 9 1018 61 10000 1.5 60 20:59 11.03.2020
1510 Clouds 10 1018 57 10000 1 0 20:40 11.03.2020
1511 Clouds 10 1017 53 10000 3.1 260 20:20 11.03.2020
1512 Clouds 10 1017 53 10000 1.5 50 19:58 11.03.2020
1513 Clouds 10 1017 53 10000 1.5 50 19:39 11.03.2020
1514 Clouds 11 1017 50 10000 1 0 19:21 11.03.2020
1515 Clouds 11 1017 56 10000 1.5 0 18:44 11.03.2020
1516 Clouds 12 1017 56 10000 0.5 0 18:25 11.03.2020
1517 Clouds 12 1017 56 10000 2.6 340 17:59 11.03.2020
1518 Clouds 12 1017 56 10000 2.6 340 17:40 11.03.2020
1519 Clouds 14 1016 40 10000 2.6 320 17:21 11.03.2020
1520 Clouds 14 1016 40 10000 2.6 310 16:55 11.03.2020
1521 Clouds 14 1016 40 10000 2.6 310 16:37 11.03.2020
1522 Clouds 15 1016 33 10000 2.1 280 16:19 11.03.2020
1523 Clouds 15 1016 33 10000 2.6 250 15:42 11.03.2020
1524 Clouds 16 1016 31 10000 2.6 230 15:22 11.03.2020
1525 Clouds 16 1016 40 10000 2.1 310 14:44 11.03.2020
1526 Clouds 16 1016 40 10000 3.1 220 14:23 11.03.2020
1527 Clouds 16 1016 38 10000 3.1 220 13:57 11.03.2020
1528 Clouds 16 1016 36 10000 1.5 0 13:38 11.03.2020
1529 Clouds 14 1016 38 10000 2.1 80 13:20 11.03.2020
1530 Clouds 14 1017 41 10000 2.1 270 12:40 11.03.2020
1531 Clouds 14 1017 41 10000 3.6 220 12:21 11.03.2020
1532 Clouds 14 1017 44 10000 3.1 10 11:57 11.03.2020
1533 Clouds 14 1017 44 10000 3.1 10 11:57 11.03.2020
1534 Clouds 14 1017 44 10000 3.1 10 11:38 11.03.2020
1535 Clouds 14 1019 50 10000 1.5 290 11:19 11.03.2020
1536 Clouds 14 1018 44 10000 2.6 300 10:43 11.03.2020
1537 Clouds 12 1018 50 10000 2.1 320 10:19 11.03.2020
1538 Clouds 12 1018 54 10000 1 0 09:43 11.03.2020
1539 Clouds 11 1018 62 10000 1 0 09:25 11.03.2020
1540 Clouds 11 1018 62 10000 1 0 08:58 11.03.2020
1541 Clouds 9 1019 61 10000 1 0 08:40 11.03.2020
1542 Clouds 9 1019 70 10000 1 0 08:19 11.03.2020
1543 Clouds 7 1019 75 10000 1 0 07:44 11.03.2020
1544 Clouds 7 1019 81 10000 1.5 200 07:19 11.03.2020
1545 Clouds 4 1018 86 10000 0.5 0 06:46 11.03.2020
1546 Clouds 2 1018 93 10000 1 0 05:41 11.03.2020
1547 Clouds 3 1018 89 10000 2.1 350 04:50 11.03.2020
1548 Clouds 4 1017 80 10000 0.5 0 02:30 11.03.2020
1549 Clouds 5 1016 86 10000 2.1 270 01:30 11.03.2020
1550 Clouds 7 1017 75 10000 0.5 0 00:47 11.03.2020
1551 Clouds 7 1017 75 10000 0.5 30 00:18 11.03.2020
1552 Clouds 7 1016 75 10000 1 0 23:40 10.03.2020
1553 Clouds 7 1016 81 10000 1.5 220 23:21 10.03.2020
1554 Clouds 8 1016 70 10000 3.1 150 22:40 10.03.2020
1555 Clouds 8 1016 70 10000 3.54 227 22:20 10.03.2020
1556 Clouds 8 1016 70 10000 1 160 21:57 10.03.2020
1557 Clouds 8 1016 70 10000 1 160 21:39 10.03.2020
1558 Clouds 8 1016 70 10000 1 160 21:39 10.03.2020
1559 Clouds 8 1016 66 10000 3.54 227 21:20 10.03.2020
1560 Clouds 9 1016 66 10000 3.54 227 20:59 10.03.2020
1561 Clouds 9 1015 66 10000 1 0 20:41 10.03.2020
1562 Clouds 9 1015 70 10000 2.1 220 20:18 10.03.2020
1563 Clouds 9 1015 66 10000 1 0 19:57 10.03.2020
1564 Clouds 9 1015 66 10000 1 0 19:38 10.03.2020
1565 Clouds 9 1015 66 10000 1 0 19:38 10.03.2020
1566 Clouds 10 1015 61 10000 2.6 250 19:20 10.03.2020
1567 Clouds 11 1014 57 10000 1 0 18:45 10.03.2020
1568 Clouds 11 1014 54 10000 2.6 260 18:26 10.03.2020
1569 Clouds 12 1013 53 10000 4.6 250 17:58 10.03.2020
1570 Clouds 12 1013 53 10000 4.6 250 17:40 10.03.2020
1571 Clouds 12 1013 50 10000 5.1 240 17:21 10.03.2020
1572 Clouds 12 1013 46 10000 7.2 220 16:40 10.03.2020
1573 Clouds 13 1012 47 10000 6.7 240 16:20 10.03.2020
1574 Clouds 13 1012 47 10000 6.7 240 15:57 10.03.2020
1575 Clouds 13 1012 46 10000 10.3 230 15:39 10.03.2020
1576 Clouds 13 1012 41 10000 8.2 240 15:19 10.03.2020
1577 Clouds 13 1011 47 10000 12.3 230 14:41 10.03.2020
1578 Clouds 13 1012 50 10000 8.7 230 14:20 10.03.2020
1579 Clouds 13 1012 50 10000 8.7 230 13:59 10.03.2020
1580 Clouds 13 1011 54 10000 9.8 230 13:41 10.03.2020
1581 Clouds 13 1011 47 10000 9.8 230 13:22 10.03.2020
1582 Clouds 13 1011 50 10000 9.8 230 12:42 10.03.2020
1583 Clouds 13 1011 50 10000 8.7 220 12:21 10.03.2020
1584 Clouds 12 1010 50 10000 12.3 220 11:59 10.03.2020
1585 Clouds 12 1010 50 10000 12.3 220 11:41 10.03.2020
1586 Rain 12 1010 47 10000 8.7 210 11:22 10.03.2020
1587 Rain 12 1010 47 10000 8.7 200 10:43 10.03.2020
1588 Rain 12 1010 47 10000 8.7 200 10:43 10.03.2020
1589 Clouds 11 1010 50 10000 5.1 200 10:23 10.03.2020
1590 Clouds 11 1010 50 10000 5.1 200 09:59 10.03.2020
1591 Clouds 11 1009 50 10000 9.8 200 09:41 10.03.2020
1592 Clouds 10 1010 57 10000 8.2 180 09:19 10.03.2020
1593 Clouds 10 1009 53 10000 10.3 190 08:51 10.03.2020
1594 Clouds 10 1009 53 10000 10.3 190 08:32 10.03.2020
1595 Clouds 10 1009 53 10000 10.3 190 08:32 10.03.2020
1596 Clouds 9 1009 57 10000 8.2 190 07:51 10.03.2020
1597 -273 0 0 0 0 0 07:51 10.03.2020
1598 Clouds 9 1009 57 10000 8.2 190 07:32 10.03.2020
1599 Clouds 9 1008 46 10000 7.7 190 06:48 10.03.2020
1600 Clouds 9 1008 57 10000 6.2 180 06:30 10.03.2020
1601 Clouds 8 1007 61 10000 5.7 170 05:42 10.03.2020
1602 Clouds 9 1007 70 10000 4.1 140 04:49 10.03.2020
1603 Rain 9 1007 76 10000 3.1 100 04:20 10.03.2020
1604 Rain 12 1006 41 10000 8.7 170 02:41 10.03.2020
1605 Clouds 12 1006 53 10000 2.6 50 01:30 10.03.2020
1606 Clouds 11 1007 53 10000 2.1 40 00:44 10.03.2020
1607 Clouds 11 1007 53 10000 2.6 60 00:26 10.03.2020
1608 Clouds 11 1008 53 10000 2.6 30 23:41 09.03.2020
1609 Clouds 12 1008 37 10000 2.1 20 23:21 09.03.2020
1610 Clouds 13 1009 51 10000 1.5 0 22:43 09.03.2020
1611 Clouds 14 1009 51 10000 2.1 60 22:23 09.03.2020
1612 Clouds 14 1009 51 10000 2.1 60 21:59 09.03.2020
1613 Clouds 15 1009 51 10000 2.1 0 21:40 09.03.2020
1614 Clouds 14 1009 31 10000 3.6 80 21:21 09.03.2020
1615 Clouds 13 1010 61 10000 1 0 20:56 09.03.2020
1616 Clouds 13 1010 61 10000 1 0 20:38 09.03.2020
1617 Clouds 14 1010 38 10000 2.6 90 20:20 09.03.2020
1618 Clouds 14 1010 50 10000 1 0 19:45 09.03.2020
1619 Clouds 14 1010 50 10000 1 0 19:45 09.03.2020
1620 Clouds 14 1009 36 10000 2.1 110 19:25 09.03.2020
1621 Clouds 14 1009 36 10000 2.1 110 19:25 09.03.2020
1622 Clouds 16 1010 41 10000 0.5 0 18:58 09.03.2020
1623 Clouds 16 1010 41 10000 0.5 0 18:58 09.03.2020
1624 Clouds 16 1010 41 10000 0.5 0 18:38 09.03.2020
1625 Clouds 16 1009 36 10000 2.71 123 18:20 09.03.2020
1626 Clouds 17 1010 41 10000 2.1 50 17:58 09.03.2020
1627 Clouds 17 1010 41 10000 2.1 50 17:38 09.03.2020
1628 Clouds 18 1009 30 10000 3.6 90 17:20 09.03.2020
1629 Clouds 19 1010 31 10000 3.6 80 16:58 09.03.2020
1630 Clouds 19 1010 31 10000 3.6 80 16:40 09.03.2020
1631 Clouds 20 1010 39 10000 4.6 140 16:22 09.03.2020
1632 Clouds 20 1010 39 10000 4.6 140 15:58 09.03.2020
1633 Clouds 20 1010 39 10000 4.6 140 15:58 09.03.2020
1634 Clouds 21 1010 39 10000 5.7 130 15:38 09.03.2020
1635 Clouds 21 1010 39 10000 5.7 130 15:20 09.03.2020
1636 Clouds 21 1011 24 10000 5.1 140 14:55 09.03.2020
1637 Clouds 21 1011 39 10000 5.7 160 14:37 09.03.2020
1638 Clouds 21 1011 31 10000 5.7 160 14:18 09.03.2020
1639 Clouds 22 1012 22 10000 4.6 160 13:55 09.03.2020
1640 Clouds 22 1012 21 10000 5.7 180 13:36 09.03.2020
1641 Clouds 22 1012 21 10000 5.7 180 13:18 09.03.2020
1642 Clouds 21 1013 21 10000 6.2 160 12:41 09.03.2020
1643 Clouds 21 1013 19 10000 4.6 170 12:22 09.03.2020
1644 Clouds 20 1014 21 10000 4.6 130 11:41 09.03.2020
1645 Clouds 20 1014 21 10000 4.6 130 11:22 09.03.2020
1646 Clouds 19 1015 35 10000 1 0 10:59 09.03.2020
1647 Clouds 19 1015 35 10000 1 0 10:40 09.03.2020
1648 Clouds 18 1015 31 10000 2.1 50 10:40 09.03.2020
1649 Clouds 18 1015 31 10000 2.1 50 10:20 09.03.2020
1650 Clouds 17 1016 36 10000 1.5 0 09:57 09.03.2020
1651 Clouds 16 1016 35 10000 2.1 90 09:37 09.03.2020
1652 Clouds 16 1016 35 10000 2.1 90 09:19 09.03.2020
1653 Clouds 14 1017 47 10000 1.5 360 08:42 09.03.2020
1654 Clouds 13 1017 50 10000 0.5 0 08:23 09.03.2020
1655 Clouds 9 1018 66 10000 0.5 0 07:41 09.03.2020
1656 Clouds 8 1017 75 10000 3.05 94 07:21 09.03.2020
1657 Clouds 6 1018 52 10000 1.5 180 06:44 09.03.2020
1658 Clouds 5 1017 75 10000 3.05 94 06:25 09.03.2020
1659 Clouds 5 1018 52 10000 0.5 260 05:47 09.03.2020
1660 Clouds 3 1017 55 10000 3.01 89 05:22 09.03.2020
1661 Clouds 4 1018 55 10000 2.1 70 04:43 09.03.2020
1662 Clouds 5 1017 55 10000 1 0 04:22 09.03.2020
1663 Clouds 4 1018 55 10000 0.5 0 02:59 09.03.2020
1664 Clouds 5 1018 53 10000 1 0 01:41 09.03.2020
1665 Clouds 6 1019 65 10000 0.5 0 00:38 09.03.2020
1666 Clouds 6 1018 61 10000 0.5 0 00:20 09.03.2020
1667 Clouds 7 1019 70 10000 0.5 0 23:48 08.03.2020
1668 Clouds 8 1018 57 10000 2.83 85 23:22 08.03.2020
1669 Clouds 8 1020 65 10000 1 0 22:56 08.03.2020
1670 Clouds 8 1019 53 10000 2.78 86 22:38 08.03.2020
1671 Clouds 8 1019 53 10000 2.78 86 22:18 08.03.2020
1672 Clouds 10 1020 61 10000 0.5 0 21:54 08.03.2020
1673 Clouds 10 1020 61 10000 0.5 0 21:54 08.03.2020
1674 Clouds 10 1020 43 10000 1 0 21:36 08.03.2020
1675 Clouds 10 1020 43 10000 1 0 21:18 08.03.2020
1676 Clouds 11 1020 53 10000 1 0 20:39 08.03.2020
1677 Clouds 12 1020 51 10000 1 0 20:21 08.03.2020
1678 Clouds 12 1021 57 10000 3.1 30 19:54 08.03.2020
1679 Clouds 12 1021 57 10000 3.1 30 19:36 08.03.2020
1680 Clouds 12 1020 36 10000 1.5 30 19:18 08.03.2020
1681 Clouds 14 1020 51 10000 1.5 30 18:40 08.03.2020
1682 Clouds 14 1020 51 10000 1.5 30 18:22 08.03.2020
1683 Clouds 17 1020 29 10000 2.1 70 17:56 08.03.2020
1684 Clouds 18 1020 27 10000 3.1 140 17:37 08.03.2020
1685 Clouds 19 1020 27 10000 3.1 140 17:18 08.03.2020
1686 Clouds 20 1020 27 10000 3.1 140 16:43 08.03.2020
1687 Clouds 20 1020 22 10000 3.1 140 16:25 08.03.2020
1688 Clouds 20 1020 24 10000 3.1 110 15:56 08.03.2020
1689 Clouds 20 1020 21 10000 3.1 130 15:37 08.03.2020
1690 Clouds 21 1020 21 10000 3.1 130 15:18 08.03.2020
1691 Clouds 21 1020 43 10000 3.1 90 14:40 08.03.2020
1692 Clouds 21 1020 43 10000 3.1 90 14:21 08.03.2020
1693 Clouds 21 1021 24 10000 2.6 140 13:56 08.03.2020
1694 Clouds 21 1021 24 10000 2.6 140 13:56 08.03.2020
1695 Clouds 20 1021 33 10000 4.1 140 13:37 08.03.2020
1696 Clouds 21 1021 22 10000 2.1 0 13:18 08.03.2020
1697 Clouds 20 1021 24 10000 4.1 140 12:38 08.03.2020
1698 Clouds 19 1022 32 10000 1 0 12:19 08.03.2020
1699 Clouds 19 1022 29 10000 2.1 60 11:44 08.03.2020
1700 Clouds 19 1022 29 10000 2.1 60 11:25 08.03.2020
1701 Clouds 17 1023 33 10000 0.5 0 10:59 08.03.2020
1702 Clouds 17 1023 33 10000 0.5 0 10:40 08.03.2020
1703 Clouds 17 1023 33 10000 0.5 0 10:22 08.03.2020
1704 Clouds 14 1023 37 10000 1.5 0 09:40 08.03.2020
1705 Clouds 14 1023 37 10000 1.5 0 09:22 08.03.2020
1706 Clouds 11 1023 53 10000 1 340 08:49 08.03.2020
1707 Clouds 11 1023 37 10000 1 0 08:25 08.03.2020
1708 Clouds 7 1023 49 10000 1 0 07:50 08.03.2020
1709 Clouds 6 1023 70 10000 0.5 0 07:28 08.03.2020
1710 Clouds 4 1023 74 10000 0.5 0 06:54 08.03.2020
1711 Clouds 3 1023 49 10000 0.5 0 06:35 08.03.2020
1712 Clouds 2 1023 86 10000 1.5 80 05:58 08.03.2020
1713 Clouds 2 1022 55 10000 1.27 105 04:50 08.03.2020
1714 Clouds 2 1022 80 10000 1.27 105 03:27 08.03.2020
1715 Clouds 3 1022 55 10000 1.27 105 02:27 08.03.2020
1716 Clouds 5 1022 74 10000 1 0 01:21 08.03.2020
1717 Clouds 4 1022 74 10000 1 0 00:42 08.03.2020
1718 Clouds 5 1022 69 10000 0.5 0 00:24 08.03.2020
1719 Clouds 5 1022 69 10000 0.5 0 23:43 07.03.2020
1720 Clouds 5 1021 55 10000 1.19 124 23:22 07.03.2020
1721 Clear 6 1021 52 10000 1.51 123 22:40 07.03.2020
1722 Clear 5 1021 52 10000 1.51 123 22:21 07.03.2020
1723 Clear 6 1021 65 10000 2.6 40 21:48 07.03.2020
1724 Clear 6 1020 56 10000 1.51 123 21:25 07.03.2020
1725 Clear 7 1020 56 10000 1.5 30 20:42 07.03.2020
1726 Clear 7 1020 52 10000 1 0 20:23 07.03.2020
1727 Clear 7 1020 52 10000 1 0 20:23 07.03.2020
1728 Clear 8 1020 52 10000 0.5 0 19:58 07.03.2020
1729 Clear 8 1020 52 10000 0.5 0 19:40 07.03.2020
1730 Clear 9 1019 46 10000 0.68 193 19:20 07.03.2020
1731 Clear 11 1019 40 10000 1.5 280 18:41 07.03.2020
1732 Clear 11 1019 40 10000 2.1 220 18:22 07.03.2020
1733 Clear 13 1018 37 10000 1.5 250 17:54 07.03.2020
1734 Clear 14 1018 33 10000 2.1 260 17:36 07.03.2020
1735 Clear 14 1018 33 10000 2.1 260 17:18 07.03.2020
1736 Clear 16 1018 30 10000 3.6 260 16:42 07.03.2020
1737 Clear 16 1017 25 10000 4.1 260 16:23 07.03.2020
1738 Clouds 17 1017 26 10000 4.6 240 15:57 07.03.2020
1739 Clouds 17 1017 25 10000 4.1 260 15:39 07.03.2020
1740 Clouds 17 1017 25 10000 4.1 260 15:20 07.03.2020
1741 Clouds 17 1017 29 10000 4.1 250 14:56 07.03.2020
1742 Clouds 17 1016 23 10000 3.6 220 14:37 07.03.2020
1743 Clouds 17 1016 23 10000 3.6 220 14:18 07.03.2020
1744 Clouds 17 1017 36 10000 3.6 230 13:39 07.03.2020
1745 Clouds 17 1016 33 10000 4.1 240 13:20 07.03.2020
1746 Clouds 15 1017 38 10000 4.1 240 12:42 07.03.2020
1747 Clouds 16 1017 41 10000 2.6 0 12:20 07.03.2020
1748 Clouds 15 1017 35 10000 4.1 210 11:58 07.03.2020
1749 Clouds 15 1017 35 10000 4.1 210 11:58 07.03.2020
1750 Clouds 15 1017 35 10000 4.1 210 11:39 07.03.2020
1751 Clouds 14 1017 44 10000 2.6 0 11:21 07.03.2020
1752 Clouds 13 1018 43 10000 2.6 0 10:41 07.03.2020
1753 Clouds 13 1018 47 10000 1 180 10:21 07.03.2020
1754 Clouds 11 1018 53 10000 2.6 200 09:57 07.03.2020
1755 Clouds 10 1018 53 10000 1 0 09:38 07.03.2020
1756 Clouds 10 1018 53 10000 1 0 09:18 07.03.2020
1757 Clouds 10 1018 53 10000 1 0 09:18 07.03.2020
1758 Clear 8 1018 70 10000 1 0 08:44 07.03.2020
1759 Clouds 6 1018 70 10000 1 0 08:21 07.03.2020
1760 Clouds 4 1018 80 10000 0.5 0 07:51 07.03.2020
1761 Clouds 4 1018 86 10000 2.6 290 07:23 07.03.2020
1762 Clouds 9 1016 64 0 1.6 138 06:57 07.03.2020
1763 Clouds 7 1015 70 0 1.6 138 06:33 07.03.2020
1764 Clouds 6 1015 75 0 0.89 149 05:53 07.03.2020
1765 Clear 0 1016 79 10000 1.5 50 04:47 07.03.2020
1766 Clear 1 1015 92 10000 1 0 02:57 07.03.2020
1767 Clear 1 1015 92 10000 1 0 02:33 07.03.2020
1768 Clear 1 1016 71 10000 1.2 149 01:26 07.03.2020
1769 Clear 2 1015 72 10000 1 230 00:39 07.03.2020
1770 Clear 2 1015 72 10000 1 230 00:20 07.03.2020
1771 Clear 3 1015 86 10000 2.6 30 23:45 06.03.2020
1772 Clear 3 1015 72 10000 0.5 20 23:26 06.03.2020
1773 Clear 4 1015 68 10000 1.8 182 22:48 06.03.2020
1774 Clear 4 1015 80 10000 0.5 0 22:22 06.03.2020
1775 Clear 5 1015 75 10000 0.5 0 21:56 06.03.2020
1776 Clear 4 1015 75 10000 1.8 182 21:38 06.03.2020
1777 Clear 4 1015 75 10000 1.8 182 21:18 06.03.2020
1778 Clear 4 1015 75 10000 1.8 182 21:18 06.03.2020
1779 Clear 6 1014 65 10000 1.8 182 20:38 06.03.2020
1780 Clouds 6 1014 65 10000 1.1 231 20:20 06.03.2020
1781 Clouds 7 1014 65 10000 1 0 19:47 06.03.2020
1782 Clouds 7 1014 57 10000 2.6 230 19:28 06.03.2020
1783 Clouds 8 1013 70 10000 0.5 0 18:57 06.03.2020
1784 Clouds 8 1013 70 10000 0.5 0 18:38 06.03.2020
1785 Clouds 9 1013 57 10000 4.6 250 18:19 06.03.2020
1786 Clouds 10 1013 61 10000 3.1 240 17:42 06.03.2020
1787 Clouds 10 1013 61 10000 3.1 240 17:42 06.03.2020
1788 Clouds 10 1012 50 10000 4.1 260 17:23 06.03.2020
1789 Clouds 12 1012 46 10000 4.6 250 16:59 06.03.2020
1790 Clouds 12 1012 46 10000 4.6 250 16:40 06.03.2020
1791 Clouds 12 1012 46 10000 4.6 250 16:20 06.03.2020
1792 Clouds 13 1011 57 10000 4.1 240 15:44 06.03.2020
1793 Clouds 13 1011 43 10000 4.1 250 15:24 06.03.2020
1794 Clouds 14 1011 37 10000 5.1 230 14:47 06.03.2020
1795 Clouds 14 1011 41 10000 5.1 250 14:25 06.03.2020
1796 Clouds 13 1011 55 10000 5.1 230 13:59 06.03.2020
1797 Clouds 13 1011 41 10000 6.2 220 13:41 06.03.2020
1798 Clouds 13 1011 41 10000 6.2 220 13:21 06.03.2020
1799 Clouds 13 1011 46 10000 5.7 230 12:56 06.03.2020
1800 Clouds 13 1011 44 10000 4.1 260 12:37 06.03.2020
1801 Clouds 13 1011 44 10000 4.1 260 12:18 06.03.2020
1802 Clouds 13 1011 46 10000 5.1 240 11:56 06.03.2020
1803 Clouds 13 1011 43 10000 5.7 220 11:37 06.03.2020
1804 Clouds 13 1011 43 10000 5.7 220 11:19 06.03.2020
1805 Clouds 11 1011 50 10000 4.1 220 10:37 06.03.2020
1806 Clouds 11 1011 50 10000 4.1 220 10:19 06.03.2020
1807 Clouds 11 1011 50 10000 6.2 230 09:43 06.03.2020
1808 Clouds 11 1011 50 10000 5.1 230 09:24 06.03.2020
1809 Clouds 10 1011 57 10000 4.1 220 08:58 06.03.2020
1810 Clouds 10 1011 57 10000 4.1 220 08:40 06.03.2020
1811 Clouds 10 1011 57 10000 3.1 190 08:22 06.03.2020
1812 Clouds 8 1011 75 10000 3.6 170 07:47 06.03.2020
1813 Clouds 8 1010 70 10000 3.23 229 07:26 06.03.2020
1814 Clouds 5 1010 86 10000 2.1 210 06:51 06.03.2020
1815 Clouds 5 1010 86 10000 1 0 06:32 06.03.2020
1816 Clouds 5 1009 93 10000 1.5 230 05:39 06.03.2020
1817 Clouds 5 1009 75 10000 0.5 0 05:20 06.03.2020
1818 Clouds 6 1009 81 10000 1 160 04:44 06.03.2020
1819 Clouds 7 1008 81 10000 0.5 0 01:45 06.03.2020
1820 Clouds 7 1009 66 10000 5.7 180 01:26 06.03.2020
1821 Clouds 7 1009 81 10000 2.1 170 00:59 06.03.2020
1822 Clouds 7 1009 81 10000 2.1 160 00:31 06.03.2020
1823 Clouds 7 1010 81 10000 2.1 120 23:44 05.03.2020
1824 Clouds 7 1009 81 10000 2.6 170 23:25 05.03.2020
1825 Clouds 7 1010 81 10000 2.6 100 22:56 05.03.2020
1826 Rain 7 1010 81 10000 3.6 180 22:37 05.03.2020
1827 Rain 7 1010 81 10000 3.6 180 22:18 05.03.2020
1828 Rain 9 1010 62 10000 8.2 190 21:56 05.03.2020
1829 Rain 10 1009 54 10000 3.1 170 21:37 05.03.2020
1830 Rain 11 1009 54 10000 3.1 170 21:19 05.03.2020
1831 Rain 12 1010 57 10000 12.3 210 20:43 05.03.2020
1832 Rain 12 1009 41 10000 5.1 160 20:21 05.03.2020
1833 Clouds 14 1008 51 10000 2.6 210 19:59 05.03.2020
1834 Clouds 14 1008 51 10000 2.6 210 19:40 05.03.2020
1835 Clouds 14 1008 33 10000 3.1 160 19:22 05.03.2020
1836 Clouds 13 1008 51 10000 2.1 150 18:59 05.03.2020
1837 Clouds 14 1007 33 10000 3.1 90 18:38 05.03.2020
1838 Clouds 14 1007 33 10000 3.1 90 18:19 05.03.2020
1839 Clouds 14 1007 37 10000 4.1 90 17:57 05.03.2020
1840 Clouds 14 1007 33 10000 4.1 70 17:39 05.03.2020
1841 Clouds 13 1007 33 10000 4.1 70 17:21 05.03.2020
1842 Clouds 14 1008 35 10000 3.6 40 16:42 05.03.2020
1843 Clouds 14 1007 30 10000 4.6 80 16:24 05.03.2020
1844 Clouds 15 1008 33 10000 3.6 70 15:58 05.03.2020
1845 Clouds 15 1008 33 10000 3.6 70 15:38 05.03.2020
1846 Clouds 14 1008 33 10000 3.6 70 15:20 05.03.2020
1847 Clouds 15 1009 30 10000 2.6 160 14:43 05.03.2020
1848 Clouds 15 1008 29 10000 3.6 130 14:23 05.03.2020
1849 Clouds 15 1009 28 10000 4.1 130 13:59 05.03.2020
1850 Clouds 16 1009 28 10000 4.1 130 13:40 05.03.2020
1851 Clouds 16 1009 29 10000 4.1 130 13:21 05.03.2020
1852 Clouds 16 1010 26 10000 4.6 150 12:56 05.03.2020
1853 Clouds 16 1010 26 10000 4.6 150 12:38 05.03.2020
1854 Clouds 16 1010 26 10000 4.6 150 12:38 05.03.2020
1855 Clouds 16 1010 31 10000 4.1 130 12:18 05.03.2020
1856 Clouds 16 1011 33 10000 2.1 240 11:56 05.03.2020
1857 Clouds 16 1011 29 10000 2.1 60 11:37 05.03.2020
1858 Clouds 16 1011 29 10000 2.1 60 11:18 05.03.2020
1859 Clouds 15 1011 30 10000 2.1 0 10:55 05.03.2020
1860 Clouds 14 1011 35 10000 3.1 90 10:37 05.03.2020
1861 Clouds 14 1011 35 10000 3.1 90 10:19 05.03.2020
1862 Clouds 12 1012 37 10000 1 0 09:41 05.03.2020
1863 Clouds 12 1012 37 10000 1 0 09:23 05.03.2020
1864 Clouds 10 1013 39 10000 2.1 350 08:43 05.03.2020
1865 Clouds 9 1012 53 10000 1.5 60 08:25 05.03.2020
1866 Clouds 6 1013 69 10000 1 0 07:46 05.03.2020
1867 Clouds 6 1013 70 10000 1 230 07:22 05.03.2020
1868 Clouds 5 1013 80 10000 1 0 06:48 05.03.2020
1869 Clouds 4 1013 86 10000 1.5 170 06:22 05.03.2020
1870 Clouds 4 1013 86 10000 1.5 170 06:22 05.03.2020
1871 Clouds 5 1012 47 10000 0.5 330 05:39 05.03.2020
1872 Clouds 4 1013 50 10000 1 0 04:45 05.03.2020
1873 Clouds 4 1012 50 10000 0.5 0 04:22 05.03.2020
1874 Clouds 4 1012 69 10000 0.5 0 03:34 05.03.2020
1875 Clouds 5 1012 74 10000 0.5 0 01:55 05.03.2020
1876 Clouds 5 1012 52 10000 2.21 112 01:20 05.03.2020
1877 Clouds 6 1013 54 10000 2.1 40 00:26 05.03.2020
1878 Clouds 6 1013 69 10000 0.5 0 23:42 04.03.2020
1879 Clouds 7 1013 53 10000 1 0 23:23 04.03.2020
1880 Clouds 7 1014 69 10000 0.5 0 22:58 04.03.2020
1881 Clouds 6 1013 52 10000 1 250 22:39 04.03.2020
1882 Clouds 6 1013 52 10000 1 250 22:19 04.03.2020
1883 Clouds 6 1013 52 10000 1 250 22:19 04.03.2020
1884 Clouds 7 1014 56 10000 1.5 350 21:57 04.03.2020
1885 Clouds 7 1013 53 10000 1.5 110 21:39 04.03.2020
1886 Clouds 7 1013 53 10000 1.5 110 21:20 04.03.2020
1887 Clouds 7 1014 52 10000 3.1 40 20:54 04.03.2020
1888 Clouds 8 1014 53 10000 0.5 90 20:36 04.03.2020
1889 Clouds 9 1014 53 10000 0.5 90 20:18 04.03.2020
1890 Clouds 11 1014 37 10000 2.1 160 19:42 04.03.2020
1891 Clouds 9 1014 53 10000 1 0 19:23 04.03.2020
1892 Clouds 12 1014 40 10000 2.1 0 18:55 04.03.2020
1893 Clouds 12 1014 53 10000 2.1 210 18:36 04.03.2020
1894 Clouds 13 1014 53 10000 2.1 210 18:18 04.03.2020
1895 Clouds 14 1014 35 10000 3.6 140 17:54 04.03.2020
1896 Clouds 14 1014 33 10000 1.5 80 17:36 04.03.2020
1897 Clouds 14 1014 33 10000 1.5 80 17:18 04.03.2020
1898 Clouds 16 1014 30 10000 3.6 180 16:42 04.03.2020
1899 Clouds 16 1014 27 10000 3.1 180 16:23 04.03.2020
1900 Clouds 17 1014 29 10000 3.6 160 15:57 04.03.2020
1901 Clouds 17 1014 25 10000 4.1 160 15:38 04.03.2020
1902 Clouds 17 1014 25 10000 4.1 160 15:19 04.03.2020
1903 Clouds 17 1014 25 10000 4.1 160 15:19 04.03.2020
1904 Clouds 18 1015 25 10000 4.1 170 14:41 04.03.2020
1905 Clouds 18 1014 25 10000 5.7 170 14:22 04.03.2020
1906 Clouds 18 1015 22 10000 5.7 180 13:59 04.03.2020
1907 Clouds 18 1015 27 10000 5.7 150 13:40 04.03.2020
1908 Clouds 18 1015 27 10000 5.7 150 13:21 04.03.2020
1909 Clouds 18 1015 22 10000 5.7 180 12:59 04.03.2020
1910 Clouds 18 1015 22 10000 5.7 180 12:41 04.03.2020
1911 Clouds 18 1015 25 10000 4.6 170 12:23 04.03.2020
1912 Clouds 18 1016 17 10000 5.7 170 11:55 04.03.2020
1913 Clouds 18 1016 23 10000 4.6 170 11:37 04.03.2020
1914 Clouds 17 1016 23 10000 4.6 170 11:19 04.03.2020
1915 Clouds 17 1017 25 10000 3.6 150 10:42 04.03.2020
1916 Clouds 16 1017 35 10000 2.6 90 10:23 04.03.2020
1917 Clouds 15 1018 41 10000 1.5 50 09:55 04.03.2020
1918 Clouds 14 1018 50 10000 1.5 350 09:37 04.03.2020
1919 Clouds 12 1018 50 10000 1.5 350 09:18 04.03.2020
1920 Clouds 10 1018 61 10000 0.5 0 08:41 04.03.2020
1921 Clouds 9 1018 61 10000 1 0 08:23 04.03.2020
1922 Clouds 6 1019 54 10000 1 0 07:47 04.03.2020
1923 Clouds 6 1019 75 10000 2.1 230 07:28 04.03.2020
1924 Clouds 3 1019 80 10000 0.5 0 06:51 04.03.2020
1925 Clouds 5 1019 54 10000 2.91 92 06:26 04.03.2020
1926 Clouds 2 1019 86 10000 2.91 92 05:57 04.03.2020
1927 Clouds 3 1019 92 10000 1 330 05:00 04.03.2020
1928 Clouds 3 1019 92 10000 1 330 04:59 04.03.2020
1929 Clouds 2 1019 59 10000 2.7 96 03:50 04.03.2020
1930 Clouds 2 1019 59 10000 2.7 96 03:31 04.03.2020
1931 Clouds 3 1019 59 10000 1.5 20 02:58 04.03.2020
1932 Clouds 5 1020 59 10000 2.7 96 02:25 04.03.2020
1933 Clouds 4 1020 80 10000 1.91 100 01:56 04.03.2020
1934 Clouds 5 1020 80 10000 0.5 0 01:31 04.03.2020
1935 Clouds 4 1020 74 10000 2.12 97 00:41 04.03.2020
1936 Clouds 4 1020 58 10000 2.12 97 00:19 04.03.2020
1937 Clouds 3 1020 80 10000 1 300 23:41 03.03.2020
1938 Clouds 5 1020 55 10000 1 0 23:22 03.03.2020
1939 Clouds 7 1020 69 10000 1 0 22:42 03.03.2020
1940 Clouds 6 1020 57 10000 1 0 22:20 03.03.2020
1941 Clouds 7 1020 65 10000 1.5 10 21:59 03.03.2020
1942 Clouds 7 1020 65 10000 1.5 10 21:59 03.03.2020
1943 Clouds 7 1020 65 10000 1.5 10 21:40 03.03.2020
1944 Clouds 7 1020 57 10000 0.5 120 21:21 03.03.2020
1945 Clouds 7 1020 65 10000 2.08 117 20:58 03.03.2020
1946 Clouds 7 1020 65 10000 2.08 117 20:39 03.03.2020
1947 Clouds 7 1020 54 10000 2.1 130 20:18 03.03.2020
1948 Clouds 9 1020 52 10000 1.5 20 19:56 03.03.2020
1949 Clouds 9 1020 52 10000 1.5 20 19:56 03.03.2020
1950 Clear 9 1020 57 10000 0.5 0 19:37 03.03.2020
1951 Clear 9 1020 57 10000 0.5 0 19:18 03.03.2020
1952 Clouds 11 1020 46 10000 4.1 70 18:56 03.03.2020
1953 Clear 10 1019 50 10000 1.47 127 18:38 03.03.2020
1954 Clear 10 1019 50 10000 1.47 127 18:18 03.03.2020
1955 Clear 14 1019 52 10000 1 0 17:41 03.03.2020
1956 Clouds 14 1019 54 10000 1 0 17:41 03.03.2020
1957 Clear 14 1019 44 10000 1.45 219 17:22 03.03.2020
1958 Clear 17 1019 31 10000 2.6 250 16:59 03.03.2020
1959 Clear 18 1019 46 10000 2.6 260 16:38 03.03.2020
1960 Clear 18 1019 46 10000 2.6 260 16:20 03.03.2020
1961 Clear 18 1019 25 10000 3.1 250 15:58 03.03.2020
1962 Clear 18 1019 25 10000 3.1 250 15:58 03.03.2020
1963 Clear 18 1019 25 10000 2.1 0 15:40 03.03.2020
1964 Clear 18 1019 25 10000 2.1 0 15:20 03.03.2020
1965 Clear 18 1019 27 10000 4.6 240 14:43 03.03.2020
1966 Clear 18 1019 25 10000 2.1 260 14:20 03.03.2020
1967 Clear 18 1020 27 10000 4.6 250 13:58 03.03.2020
1968 Clear 17 1020 32 10000 2.1 0 13:40 03.03.2020
1969 Clear 17 1020 32 10000 2.1 0 13:21 03.03.2020
1970 Clear 17 1020 31 10000 5.7 240 12:48 03.03.2020
1971 Clear 16 1021 33 10000 2.1 0 12:27 03.03.2020
1972 Clear 15 1021 32 10000 4.6 240 11:59 03.03.2020
1973 Clear 15 1022 38 10000 2.1 200 11:38 03.03.2020
1974 Clear 15 1022 38 10000 2.1 200 11:19 03.03.2020
1975 Clear 13 1022 38 10000 2.6 170 10:56 03.03.2020
1976 Clear 13 1022 38 10000 2.6 170 10:56 03.03.2020
1977 Clear 13 1022 38 10000 2.6 170 10:56 03.03.2020
1978 Clear 13 1022 43 10000 1.5 0 10:38 03.03.2020
1979 Clear 13 1022 43 10000 1.5 0 10:19 03.03.2020
1980 Clear 11 1022 46 10000 1 0 09:44 03.03.2020
1981 Clear 10 1022 50 10000 1 0 09:23 03.03.2020
1982 Clear 8 1022 38 10000 1.5 320 08:58 03.03.2020
1983 Clear 8 1022 38 10000 1.5 320 08:39 03.03.2020
1984 Clear 7 1022 61 10000 0.5 0 08:20 03.03.2020
1985 Clear 4 1022 55 10000 1.5 0 07:44 03.03.2020
1986 Clear 3 1022 55 10000 1.5 230 07:20 03.03.2020
1987 Clear 0 1022 55 10000 0.5 0 06:49 03.03.2020
1988 Clear 0 1022 55 10000 0.5 0 06:49 03.03.2020
1989 Clear -1 1021 86 10000 0.5 70 06:23 03.03.2020
1990 Clear 0 1021 86 10000 1 0 05:47 03.03.2020
1991 Clear -1 1021 86 10000 2.1 230 05:19 03.03.2020
1992 Clear 0 1020 92 10000 1.62 173 04:25 03.03.2020
1993 Clouds 1 1020 92 10000 1.7 213 01:40 03.03.2020
1994 Clouds 2 1020 80 10000 1 0 00:49 03.03.2020
1995 Clouds 1 1020 80 10000 1.64 207 00:27 03.03.2020
1996 Clouds 1 1019 66 10000 1 0 23:57 02.03.2020
1997 Clouds 1 1019 80 10000 0.5 0 23:38 02.03.2020
1998 Clouds 3 1019 80 10000 0.5 0 23:20 02.03.2020
1999 Clouds 4 1019 86 10000 1.67 159 22:55 02.03.2020
2000 Clouds 4 1019 60 10000 1.67 159 22:37 02.03.2020
2001 Clouds 4 1019 60 10000 1.67 159 22:18 02.03.2020
2002 Clouds 4 1019 69 10000 1 0 21:42 02.03.2020
2003 Clouds 4 1019 60 10000 1.67 159 21:23 02.03.2020
2004 Clouds 5 1019 69 10000 2.1 340 20:58 02.03.2020
2005 Clouds 5 1019 69 10000 2.1 340 20:39 02.03.2020
2006 Clouds 5 1018 60 10000 0.5 0 20:20 02.03.2020
2007 Clouds 6 1018 65 10000 2.1 10 19:56 02.03.2020
2008 Clouds 6 1018 65 10000 2.1 10 19:56 02.03.2020
2009 Clouds 6 1018 65 10000 2.1 10 19:37 02.03.2020
2010 Clouds 7 1017 56 10000 0.5 0 19:19 02.03.2020
2011 Clouds 8 1018 52 10000 2.6 60 18:45 02.03.2020
2012 Clouds 8 1017 64 10000 1.5 230 18:20 02.03.2020
2013 Clouds 10 1017 49 10000 1 0 17:59 02.03.2020
2014 Clouds 11 1017 64 10000 1.5 290 17:41 02.03.2020
2015 Clouds 11 1017 49 10000 1.5 290 17:21 02.03.2020
2016 Clouds 11 1017 49 10000 1.5 290 17:21 02.03.2020
2017 Clouds 11 1017 49 10000 1.5 290 17:21 02.03.2020
2018 Clouds 13 1017 37 10000 4.6 220 16:56 02.03.2020
2019 Clouds 14 1016 35 10000 3.1 260 16:38 02.03.2020
2020 Clouds 14 1016 35 10000 3.1 260 16:20 02.03.2020
2021 Clouds 15 1016 35 10000 5.1 250 15:44 02.03.2020
2022 Clouds 15 1016 49 10000 4.1 260 15:20 02.03.2020
2023 Clouds 14 1016 35 10000 5.1 230 14:56 02.03.2020
2024 Clouds 14 1016 49 10000 2.6 260 14:36 02.03.2020
2025 Clear 14 1016 42 10000 2.6 260 14:18 02.03.2020
2026 Clear 13 1017 44 10000 2.6 0 13:40 02.03.2020
2027 Clear 13 1017 44 10000 2.6 0 13:19 02.03.2020
2028 Clouds 13 1017 37 10000 4.1 230 12:54 02.03.2020
2029 Clear 13 1017 37 10000 3.6 230 12:36 02.03.2020
2030 Clear 13 1017 37 10000 3.6 230 12:18 02.03.2020
2031 Clear 11 1018 43 10000 3.1 200 11:38 02.03.2020
2032 Clear 11 1018 43 10000 3.1 200 11:19 02.03.2020
2033 Clear 10 1018 45 10000 3.6 220 10:55 02.03.2020
2034 Clear 9 1019 46 10000 3.6 210 10:36 02.03.2020
2035 Clear 9 1019 46 10000 3.6 210 10:18 02.03.2020
2036 Clear 7 1019 52 10000 1.5 0 09:42 02.03.2020
2037 Clear 7 1020 56 10000 1.5 300 09:24 02.03.2020
2038 Clear 5 1019 69 10000 1.5 290 08:47 02.03.2020
2039 Clear 4 1020 65 10000 1 0 08:22 02.03.2020
2040 Clear 1 1019 60 10000 0.5 0 07:43 02.03.2020
2041 Clear 1 1020 60 10000 1.06 170 07:20 02.03.2020
2042 Clear -2 1019 92 10000 1.06 170 06:47 02.03.2020
2043 Clear -3 1019 92 10000 1 0 05:55 02.03.2020
2044 Clear -3 1019 92 10000 0.5 220 04:26 02.03.2020
2045 Clear -2 1019 92 10000 1.18 152 03:23 02.03.2020
2046 Clear -2 1018 92 10000 0.5 0 02:48 02.03.2020
2047 Clear -1 1018 92 10000 0.5 0 01:49 02.03.2020
2048 Clear -1 1019 86 10000 0.8 147 01:30 02.03.2020
2049 Clear 0 1019 75 10000 1 220 00:23 02.03.2020
2050 Clear 0 1018 80 10000 1 30 23:58 01.03.2020
2051 Clear 0 1019 75 10000 1 220 23:40 01.03.2020
2052 Clear 0 1019 72 10000 1 220 23:20 01.03.2020
2053 Clear 2 1019 74 10000 0.5 0 22:43 01.03.2020
2054 Clear 2 1019 80 10000 0.5 0 22:20 01.03.2020
2055 Clear 1 1019 74 10000 2.1 20 21:56 01.03.2020
2056 Clear 1 1019 74 10000 1.5 230 21:38 01.03.2020
2057 Clear 1 1019 74 10000 1.5 230 21:19 01.03.2020
2058 Clear 2 1019 69 10000 1 0 20:43 01.03.2020
2059 Clear 2 1019 64 10000 0.75 167 20:25 01.03.2020
2060 Clear 3 1018 64 10000 2.1 90 19:55 01.03.2020
2061 Clear 4 1018 64 10000 0.66 159 19:37 01.03.2020
2062 Clear 4 1018 64 10000 0.66 159 19:18 01.03.2020
2063 Clear 5 1018 52 10000 1.5 210 18:40 01.03.2020
2064 Clear 5 1018 52 10000 1.5 210 18:20 01.03.2020
2065 Clear 7 1018 48 10000 1.5 230 17:58 01.03.2020
2066 Clear 7 1018 48 10000 1.5 230 17:40 01.03.2020
2067 Clear 7 1018 48 10000 2.1 250 17:21 01.03.2020
2068 Clouds 9 1017 36 10000 2.1 180 16:57 01.03.2020
2069 Clouds 8 1018 36 10000 2.6 230 16:39 01.03.2020
2070 Clouds 9 1018 36 10000 2.6 230 16:18 01.03.2020
2071 Clouds 9 1018 36 10000 2.6 230 16:18 01.03.2020
2072 Clouds 10 1017 34 10000 2.1 190 15:57 01.03.2020
2073 Clouds 10 1017 37 10000 2.6 220 15:38 01.03.2020
2074 Clouds 10 1017 37 10000 2.6 220 15:20 01.03.2020
2075 Clouds 10 1017 36 10000 2.1 0 14:57 01.03.2020
2076 Clouds 10 1017 36 10000 2.1 0 14:57 01.03.2020
2077 Clouds 10 1017 39 10000 2.6 0 14:38 01.03.2020
2078 Clouds 10 1017 39 10000 2.6 0 14:20 01.03.2020
2079 Clouds 9 1017 39 10000 2.6 0 13:56 01.03.2020
2080 Clouds 10 1017 39 10000 2.1 0 13:37 01.03.2020
2081 Clouds 10 1017 39 10000 2.1 0 13:37 01.03.2020
2082 Clouds 9 1017 39 10000 2.1 0 13:18 01.03.2020
2083 Clouds 8 1017 42 10000 2.1 0 12:42 01.03.2020
2084 Clouds 9 1017 42 10000 3.1 0 12:21 01.03.2020
2085 Clouds 8 1017 45 10000 2.1 10 11:44 01.03.2020
2086 Clouds 8 1018 42 10000 2.6 150 11:26 01.03.2020
2087 Clouds 7 1018 45 10000 1.5 0 10:58 01.03.2020
2088 Clouds 7 1018 45 10000 1.5 0 10:38 01.03.2020
2089 Clouds 7 1019 52 10000 2.1 140 10:20 01.03.2020
2090 Clouds 7 1019 52 10000 2.1 140 10:20 01.03.2020
2091 Clouds 6 1018 52 10000 2.1 350 09:59 01.03.2020
2092 Clouds 6 1019 56 10000 1.5 160 09:41 01.03.2020
2093 Clouds 6 1019 56 10000 1.5 160 09:21 01.03.2020
2094 Clouds 5 1018 69 10000 1.5 250 08:43 01.03.2020
2095 Clouds 4 1019 64 10000 1 0 08:25 01.03.2020
2096 Clear 3 1018 69 10000 0.5 0 07:43 01.03.2020
2097 Clear 2 1019 74 10000 1 0 07:24 01.03.2020
2098 Clear 0 1018 71 10000 0.5 0 06:58 01.03.2020
2099 Clear 0 1018 86 10000 1.5 230 06:40 01.03.2020
2100 Clear -1 1017 92 10000 0.5 0 04:39 01.03.2020
2101 Clear 1 1016 84 10000 1 0 02:58 01.03.2020
2102 Clear 1 1016 80 10000 1 0 02:18 01.03.2020
2103 Clear 2 1016 74 10000 2.6 290 01:36 01.03.2020
2104 Clouds 3 1015 74 10000 2.6 40 00:48 01.03.2020
2105 Clouds 3 1015 74 10000 2.1 240 00:25 01.03.2020
2106 Clouds 3 1014 74 10000 1.5 20 23:54 29.02.2020
2107 Clouds 3 1015 74 10000 1 0 23:35 29.02.2020
2108 Clouds 3 1014 74 10000 2.6 40 22:46 29.02.2020
2109 Clouds 3 1014 74 10000 1 0 22:26 29.02.2020
2110 Clouds 3 1013 69 10000 2.6 360 21:57 29.02.2020
2111 Clouds 3 1013 64 10000 1.5 260 21:38 29.02.2020
2112 Clouds 3 1013 64 10000 1.5 260 21:19 29.02.2020
2113 Clouds 4 1012 69 10000 4.1 20 20:41 29.02.2020
2114 Clouds 4 1012 65 10000 2.6 20 20:20 29.02.2020
2115 Clouds 4 1011 64 10000 8.2 10 19:54 29.02.2020
2116 Clouds 5 1011 65 10000 3.1 360 19:36 29.02.2020
2117 Clouds 5 1011 65 10000 3.1 360 19:18 29.02.2020
2118 Clouds 5 1010 60 10000 2.6 350 18:39 29.02.2020
2119 Clouds 6 1010 60 10000 2.6 350 18:19 29.02.2020
2120 Clouds 6 1010 65 10000 5.7 40 17:55 29.02.2020
2121 Clouds 7 1009 52 10000 5.1 360 17:37 29.02.2020
2122 Clouds 7 1009 52 10000 5.1 360 17:19 29.02.2020
2123 Clouds 8 1008 56 10000 8.2 10 16:43 29.02.2020
2124 Clouds 8 1008 49 10000 3.6 20 16:19 29.02.2020
2125 Clouds 9 1007 49 10000 9.3 10 15:56 29.02.2020
2126 Clouds 9 1007 57 10000 4.6 20 15:36 29.02.2020
2127 Clouds 9 1007 57 10000 4.6 20 15:18 29.02.2020
2128 Clouds 9 1006 57 10000 5.1 360 14:39 29.02.2020
2129 Clouds 9 1006 57 10000 5.1 360 14:21 29.02.2020
2130 Clouds 10 1005 44 10000 6.2 10 13:45 29.02.2020
2131 Clouds 10 1005 53 10000 5.7 40 13:26 29.02.2020
2132 Clouds 9 1005 57 10000 5.1 20 12:56 29.02.2020
2133 Clouds 9 1005 61 10000 5.1 40 12:37 29.02.2020
2134 Clouds 9 1005 61 10000 5.1 40 12:19 29.02.2020
2135 Clouds 8 1005 70 10000 5.7 20 11:44 29.02.2020
2136 Clouds 8 1006 65 10000 3.6 30 11:26 29.02.2020
2137 Clouds 8 1006 75 10000 5.7 360 10:51 29.02.2020
2138 Clouds 8 1006 70 10000 2.6 30 10:30 29.02.2020
2139 Clouds 7 1005 75 10000 2.6 60 09:52 29.02.2020
2140 Clouds 7 1005 75 10000 2.6 60 09:28 29.02.2020
2141 Rain 6 1006 81 10000 2.6 60 08:58 29.02.2020
2142 Rain 6 1006 87 10000 1.5 120 08:39 29.02.2020
2143 Rain 6 1006 87 10000 1.5 120 08:20 29.02.2020
2144 Clouds 5 1006 86 10000 2.6 10 07:47 29.02.2020
2145 Clouds 5 1006 93 10000 1 0 07:22 29.02.2020
2146 Rain 5 1006 100 10000 0.5 0 06:54 29.02.2020
2147 Clouds 5 1005 93 10000 0.5 0 06:28 29.02.2020
2148 Rain 4 1005 86 10000 1 0 05:49 29.02.2020
2149 Rain 4 1006 93 10000 2.1 60 05:30 29.02.2020
2150 Rain 5 1006 93 10000 2.1 170 03:53 29.02.2020
2151 Rain 5 1007 93 10000 3.1 0 03:23 29.02.2020
2152 Rain 4 1006 93 10000 3.1 210 02:51 29.02.2020
2153 Rain 5 1006 93 10000 3.1 80 01:49 29.02.2020
2154 Rain 5 1007 86 10000 2.6 80 00:46 29.02.2020
2155 Rain 5 1007 87 10000 2.1 0 00:26 29.02.2020
2156 Rain 5 1007 80 10000 1 0 23:39 28.02.2020
2157 Rain 5 1008 86 10000 2.6 270 23:20 28.02.2020
2158 Clouds 6 1008 75 10000 2.1 330 22:42 28.02.2020
2159 Clouds 6 1008 75 10000 2.1 240 22:22 28.02.2020
2160 Clouds 6 1009 81 10000 2.1 260 21:42 28.02.2020
2161 Clouds 6 1009 81 10000 2.1 260 21:22 28.02.2020
2162 Clouds 6 1009 81 10000 2.1 260 21:21 28.02.2020
2163 Rain 6 1009 86 10000 2.1 340 20:57 28.02.2020
2164 Clouds 6 1009 70 10000 1.5 0 20:38 28.02.2020
2165 Clouds 6 1009 70 10000 1.5 0 20:20 28.02.2020
2166 Clouds 6 1009 80 10000 1.5 330 19:56 28.02.2020
2167 Clouds 6 1009 61 10000 0.5 0 19:38 28.02.2020
2168 Clouds 6 1009 61 10000 0.5 0 19:19 28.02.2020
2169 Clouds 7 1010 70 10000 3.6 20 18:46 28.02.2020
2170 Clouds 8 1010 57 10000 1 0 18:24 28.02.2020
2171 Clouds 8 1010 70 10000 2.6 360 17:56 28.02.2020
2172 Clouds 8 1010 53 10000 1 0 17:36 28.02.2020
2173 Clouds 8 1010 53 10000 1 0 17:18 28.02.2020
2174 Clouds 9 1010 53 10000 1 0 16:38 28.02.2020
2175 Clouds 9 1010 53 10000 1 0 16:38 28.02.2020
2176 Clouds 9 1010 53 10000 1 0 16:19 28.02.2020
2177 Clouds 9 1010 53 10000 1 0 16:19 28.02.2020
2178 Clouds 9 1011 49 10000 1 0 15:56 28.02.2020
2179 Clouds 9 1011 76 10000 1 0 15:37 28.02.2020
2180 Clouds 10 1011 76 10000 1 0 15:18 28.02.2020
2181 Clouds 9 1011 49 10000 3.6 240 14:45 28.02.2020
2182 Clouds 9 1012 62 10000 0.5 0 14:19 28.02.2020
2183 Clouds 9 1012 49 10000 3.1 190 13:58 28.02.2020
2184 Clouds 9 1012 49 10000 3.1 190 13:40 28.02.2020
2185 Clouds 9 1012 49 10000 2.1 220 13:19 28.02.2020
2186 Clouds 9 1013 52 10000 3.1 190 12:44 28.02.2020
2187 Clouds 8 1014 49 10000 2.1 160 12:26 28.02.2020
2188 Clouds 8 1013 62 10000 3.1 160 11:56 28.02.2020
2189 Clouds 8 1014 61 10000 2.1 0 11:37 28.02.2020
2190 Clouds 8 1014 61 10000 2.1 0 11:19 28.02.2020
2191 Clouds 7 1014 58 10000 1.5 210 10:43 28.02.2020
2192 Clouds 7 1015 58 10000 2.6 170 10:23 28.02.2020
2193 Clouds 6 1014 65 10000 2.6 230 09:47 28.02.2020
2194 Rain 5 1015 58 10000 3.1 240 09:22 28.02.2020
2195 Rain 4 1015 58 10000 3.6 230 08:58 28.02.2020
2196 Rain 4 1015 58 10000 2.6 260 08:40 28.02.2020
2197 Rain 4 1014 88 10000 3.6 230 08:20 28.02.2020
2198 Rain 3 1015 80 10000 0.5 0 07:42 28.02.2020
2199 Rain 3 1015 80 10000 0.5 0 07:24 28.02.2020
2200 Rain 2 1013 88 10000 4.6 190 06:47 28.02.2020
2201 Clouds 2 1014 88 10000 1.5 240 06:28 28.02.2020
2202 Snow 2 1014 93 10000 3.1 160 04:50 28.02.2020
2203 Rain 3 1013 86 10000 2.6 180 04:20 28.02.2020
2204 Rain 3 1010 86 8000 11.8 280 02:47 28.02.2020
2205 Rain 4 1010 86 10000 8.2 280 02:28 28.02.2020
2206 Rain 9 1009 70 10000 9.8 250 01:33 28.02.2020
2207 Clouds 9 1008 61 10000 9.3 180 00:30 28.02.2020
2208 Clouds 9 1008 61 10000 9.3 200 23:42 27.02.2020
2209 Clouds 9 1009 61 10000 9.3 180 23:21 27.02.2020
2210 Clouds 10 1008 57 10000 10.3 190 22:46 27.02.2020
2211 Clouds 9 1009 57 10000 9.3 200 22:27 27.02.2020
2212 Clouds 10 1009 57 10000 8.7 180 21:59 27.02.2020
2213 Clouds 10 1009 57 10000 8.7 180 21:41 27.02.2020
2214 Clouds 10 1010 57 10000 6.7 160 21:19 27.02.2020
2215 Clouds 11 1010 57 10000 7.7 190 20:58 27.02.2020
2216 Clouds 11 1010 50 10000 7.2 200 20:39 27.02.2020
2217 Clouds 11 1010 50 10000 7.2 200 20:21 27.02.2020
2218 Clouds 11 1010 53 10000 8.2 200 19:56 27.02.2020
2219 Clouds 11 1011 54 10000 7.7 190 19:37 27.02.2020
2220 Clouds 11 1011 54 10000 7.7 190 19:19 27.02.2020
2221 Clouds 11 1011 57 10000 7.7 200 18:42 27.02.2020
2222 Clouds 11 1011 54 10000 7.2 180 18:24 27.02.2020
2223 Clouds 11 1011 61 10000 5.7 190 17:58 27.02.2020
2224 Clouds 11 1011 54 10000 7.7 180 17:40 27.02.2020
2225 Clouds 11 1011 54 10000 7.7 180 17:19 27.02.2020
2226 Rain 10 1012 66 10000 3.6 170 16:57 27.02.2020
2227 Rain 10 1012 66 10000 3.1 170 16:38 27.02.2020
2228 Rain 11 1012 66 10000 3.1 170 16:18 27.02.2020
2229 Clouds 11 1012 53 10000 3.6 130 15:56 27.02.2020
2230 Clouds 11 1012 50 10000 6.7 170 15:37 27.02.2020
2231 Clouds 11 1012 50 10000 6.7 170 15:18 27.02.2020
2232 Clouds 11 1012 53 10000 2.6 140 14:43 27.02.2020
2233 Clouds 11 1012 53 10000 1 90 14:24 27.02.2020
2234 Clouds 10 1013 53 10000 2.6 170 13:58 27.02.2020
2235 Clouds 10 1013 53 10000 2.6 170 13:40 27.02.2020
2236 Clouds 10 1013 53 10000 2.1 160 13:20 27.02.2020
2237 Clouds 10 1014 53 10000 3.6 110 12:46 27.02.2020
2238 Clouds 11 1014 50 10000 2.1 140 12:25 27.02.2020
2239 Clouds 10 1014 55 10000 3.1 180 11:58 27.02.2020
2240 Clouds 10 1015 55 10000 2.1 150 11:38 27.02.2020
2241 Clouds 10 1015 53 10000 2.1 150 11:20 27.02.2020
2242 Clouds 10 1014 3 10000 2.6 220 10:43 27.02.2020
2243 Clouds 10 1015 53 10000 1 140 10:22 27.02.2020
2244 Clouds 9 1015 52 10000 1 0 09:47 27.02.2020
2245 Clouds 9 1015 53 10000 4.1 180 09:29 27.02.2020
2246 Clouds 8 1015 60 10000 0.5 0 08:56 27.02.2020
2247 Clouds 8 1015 53 10000 1.5 190 08:38 27.02.2020
2248 Clouds 8 1015 59 10000 1.5 190 08:18 27.02.2020
2249 Clouds 7 1014 69 10000 2.1 40 07:43 27.02.2020
2250 Clouds 7 1014 52 10000 1.5 70 07:24 27.02.2020
2251 Clouds 6 1014 60 10000 1 0 06:31 27.02.2020
2252 Clouds 5 1013 65 10000 1.5 350 05:24 27.02.2020
2253 Clouds 4 1013 60 10000 1.5 10 03:33 27.02.2020
2254 Clouds 5 1013 65 10000 2.19 141 02:19 27.02.2020
2255 Clouds 5 1014 64 10000 0.5 0 00:43 27.02.2020
2256 Clouds 5 1014 52 10000 1.5 0 00:22 27.02.2020
2257 Clouds 6 1013 52 10000 0.5 0 23:38 26.02.2020
2258 Clear 6 1013 52 10000 0.5 0 23:18 26.02.2020
2259 Clear 5 1013 64 10000 3.1 40 22:56 26.02.2020
2260 Clear 5 1013 52 10000 1.5 60 22:38 26.02.2020
2261 Clear 5 1013 52 10000 1.5 60 22:19 26.02.2020
2262 Clear 5 1013 49 10000 0.5 0 21:40 26.02.2020
2263 Clear 5 1013 49 10000 0.5 0 21:21 26.02.2020
2264 Clear 7 1013 60 10000 1.5 230 20:57 26.02.2020
2265 Clear 7 1013 60 10000 1.5 230 20:38 26.02.2020
2266 Clear 7 1013 60 10000 1.5 230 20:38 26.02.2020
2267 Clouds 7 1013 34 10000 1 0 20:19 26.02.2020
2268 Clouds 10 1013 52 10000 1 0 19:57 26.02.2020
2269 Clouds 10 1013 32 10000 3.6 190 19:38 26.02.2020
2270 Clouds 10 1013 32 10000 3.6 190 19:19 26.02.2020
2271 Clouds 11 1013 42 10000 3.6 190 18:57 26.02.2020
2272 Clouds 12 1012 35 10000 1 0 18:38 26.02.2020
2273 Clouds 12 1012 35 10000 1 0 18:19 26.02.2020
2274 Clouds 13 1013 34 10000 4.6 160 17:41 26.02.2020
2275 Clouds 14 1012 32 10000 5.1 160 17:20 26.02.2020
2276 Clouds 14 1012 28 10000 4.6 160 16:57 26.02.2020
2277 Clouds 15 1012 26 10000 3.6 150 16:38 26.02.2020
2278 Clouds 15 1012 26 10000 3.6 150 16:20 26.02.2020
2279 Clouds 16 1012 21 10000 6.2 180 15:45 26.02.2020
2280 Clouds 16 1013 23 10000 1 0 15:27 26.02.2020
2281 Clouds 16 1013 21 10000 4.6 200 14:55 26.02.2020
2282 Clouds 17 1013 21 10000 4.6 160 14:37 26.02.2020
2283 Clear 16 1013 21 10000 4.6 160 14:18 26.02.2020
2284 Clouds 15 1013 19 10000 4.1 180 13:41 26.02.2020
2285 Clear 15 1014 24 10000 4.1 180 13:19 26.02.2020
2286 Clear 14 1014 26 10000 3.6 170 12:39 26.02.2020
2287 Clear 14 1014 26 10000 3.6 170 12:19 26.02.2020
2288 Clouds 12 1015 22 10000 4.6 250 11:56 26.02.2020
2289 Clear 11 1015 27 10000 1 240 11:37 26.02.2020
2290 Clear 11 1015 27 10000 1 240 11:19 26.02.2020
2291 Clouds 10 1016 29 10000 2.6 0 10:41 26.02.2020
2292 Clear 9 1016 34 10000 1 360 10:22 26.02.2020
2293 Clear 7 1016 33 10000 1.5 0 09:56 26.02.2020
2294 Clear 6 1017 41 10000 0.5 0 09:38 26.02.2020
2295 Clear 6 1017 41 10000 0.5 0 09:18 26.02.2020
2296 Clear 3 1018 55 10000 1 0 08:38 26.02.2020
2297 Clear 3 1018 55 10000 1 0 08:19 26.02.2020
2298 Clear 0 1017 74 10000 1 0 07:50 26.02.2020
2299 Clear 0 1018 86 10000 1.45 138 07:29 26.02.2020
2300 Clear -3 1017 85 10000 0.5 0 06:54 26.02.2020
2301 Clear -3 1017 79 10000 1.45 138 06:36 26.02.2020
2302 Clear -3 1017 79 10000 1.45 138 06:18 26.02.2020
2303 Clear -4 1017 79 10000 0.5 310 05:43 26.02.2020
2304 Clouds -4 1017 79 10000 1.06 176 04:49 26.02.2020
2305 Clouds -2 1016 79 10000 1.06 176 02:51 26.02.2020
2306 Clear -2 1017 73 10000 0.5 0 01:50 26.02.2020
2307 Clear -2 1017 73 10000 1 20 00:51 26.02.2020
2308 Clear -2 1017 79 10000 1 210 00:27 26.02.2020
2309 Clear -1 1017 63 10000 1.5 40 23:59 25.02.2020
2310 Clear -1 1017 74 10000 1 0 23:38 25.02.2020
2311 Clear -1 1017 74 10000 1 0 23:20 25.02.2020
2312 Clear -1 1017 74 10000 0.5 20 22:43 25.02.2020
2313 Clear -1 1018 53 10000 0.5 0 22:20 25.02.2020
2314 Clear 0 1018 53 10000 1 0 21:58 25.02.2020
2315 Clear -1 1018 68 10000 0.5 0 21:37 25.02.2020
2316 Clear 0 1018 68 10000 0.5 0 21:18 25.02.2020
2317 Clear 0 1018 53 10000 0.5 0 20:55 25.02.2020
2318 Clear 0 1018 51 10000 1 0 20:36 25.02.2020
2319 Clear 1 1018 51 10000 1 0 20:18 25.02.2020
2320 Clear 2 1018 40 10000 1 90 19:42 25.02.2020
2321 Clear 2 1018 51 10000 0.5 0 19:22 25.02.2020
2322 Clear 4 1018 40 10000 1 0 18:58 25.02.2020
2323 Clear 3 1018 38 10000 2.1 240 18:38 25.02.2020
2324 Clear 5 1018 38 10000 2.1 240 18:19 25.02.2020
2325 Clear 6 1018 35 10000 2.1 260 17:54 25.02.2020
2326 Clear 6 1018 33 10000 3.1 240 17:36 25.02.2020
2327 Clear 6 1018 33 10000 3.1 240 17:18 25.02.2020
2328 Clear 8 1017 28 10000 2.6 250 16:42 25.02.2020
2329 Clear 8 1018 24 10000 2.6 270 16:22 25.02.2020
2330 Clear 9 1017 13 10000 2.1 210 15:59 25.02.2020
2331 Clear 9 1017 13 10000 2.1 210 15:41 25.02.2020
2332 Clear 9 1018 24 10000 2.1 220 15:20 25.02.2020
2333 Clear 9 1017 17 10000 2.1 170 14:58 25.02.2020
2334 Clear 9 1018 25 10000 2.6 350 14:38 25.02.2020
2335 Clear 9 1018 25 10000 2.6 350 14:18 25.02.2020
2336 Clear 9 1017 20 10000 2.1 0 13:56 25.02.2020
2337 Clear 9 1018 25 10000 2.1 0 13:38 25.02.2020
2338 Clear 9 1018 25 10000 2.1 0 13:19 25.02.2020
2339 Clear 8 1018 20 10000 2.1 0 12:42 25.02.2020
2340 Clear 8 1019 31 10000 1.5 0 12:22 25.02.2020
2341 Clouds 7 1019 28 10000 2.1 350 11:58 25.02.2020
2342 Clouds 7 1019 28 10000 2.1 350 11:39 25.02.2020
2343 Clear 7 1020 33 10000 2.1 280 11:19 25.02.2020
2344 Clouds 5 1019 30 10000 2.1 0 10:59 25.02.2020
2345 Clouds 6 1020 41 10000 1.5 220 10:40 25.02.2020
2346 Clouds 6 1020 41 10000 1.5 220 10:21 25.02.2020
2347 Clouds 5 1020 41 10000 2.1 200 09:42 25.02.2020
2348 Clouds 5 1020 41 10000 2.1 200 09:22 25.02.2020
2349 Clouds 3 1020 47 10000 1.5 0 08:54 25.02.2020
2350 Clear 3 1020 47 10000 2.6 0 08:36 25.02.2020
2351 Clear 3 1020 47 10000 2.6 0 08:18 25.02.2020
2352 Clouds 2 1020 59 10000 3.1 240 07:39 25.02.2020
2353 Clouds 2 1020 59 10000 3.1 240 07:19 25.02.2020
2354 Clouds 1 1019 59 10000 1 0 06:32 25.02.2020
2355 Clear 1 1018 55 10000 1.5 0 05:27 25.02.2020
2356 Clouds 2 1018 51 10000 2.6 0 03:30 25.02.2020
2357 Clouds 3 1017 51 10000 2.6 0 01:32 25.02.2020
2358 Clouds 4 1016 51 10000 5.7 290 00:43 25.02.2020
2359 Clouds 4 1017 52 10000 5.7 10 00:25 25.02.2020
2360 Clouds 5 1015 55 10000 5.7 300 23:42 24.02.2020
2361 Clouds 5 1016 56 10000 4.6 0 23:20 24.02.2020
2362 Clouds 6 1014 85 10000 1.5 200 22:41 24.02.2020
2363 Clouds 7 1014 85 10000 1.5 200 22:20 24.02.2020
2364 Clouds 7 1013 60 10000 4.1 310 21:57 24.02.2020
2365 Clouds 7 1013 85 10000 5.1 250 21:39 24.02.2020
2366 Clouds 7 1013 85 10000 5.1 250 21:19 24.02.2020
2367 Clouds 7 1012 60 10000 2.1 280 20:58 24.02.2020
2368 Clouds 7 1012 60 10000 2.1 280 20:39 24.02.2020
2369 Clouds 8 1012 76 10000 5.1 250 20:19 24.02.2020
2370 Clouds 8 1011 56 10000 2.6 230 19:56 24.02.2020
2371 Clouds 8 1011 61 10000 4.1 250 19:38 24.02.2020
2372 Clouds 8 1011 61 10000 4.1 250 19:19 24.02.2020
2373 Clouds 8 1011 76 10000 4.1 210 18:42 24.02.2020
2374 Clouds 8 1011 76 10000 4.1 210 18:42 24.02.2020
2375 Clouds 9 1012 53 10000 4.1 250 18:24 24.02.2020
2376 Clouds 9 1011 76 10000 4.6 210 17:58 24.02.2020
2377 Clouds 9 1012 57 10000 2.1 240 17:39 24.02.2020
2378 Clouds 9 1012 57 10000 2.1 240 17:20 24.02.2020
2379 Clouds 10 1012 59 10000 5.1 230 16:57 24.02.2020
2380 Clouds 10 1012 53 10000 5.1 260 16:38 24.02.2020
2381 Clouds 10 1012 53 10000 5.1 260 16:20 24.02.2020
2382 Clouds 10 1012 59 10000 6.2 230 15:57 24.02.2020
2383 Clouds 10 1012 57 10000 6.7 230 15:38 24.02.2020
2384 Clouds 10 1012 57 10000 6.7 230 15:20 24.02.2020
2385 Clouds 10 1012 59 10000 6.7 240 14:55 24.02.2020
2386 Clouds 11 1013 50 10000 6.2 240 14:36 24.02.2020
2387 Clouds 11 1013 50 10000 6.2 240 14:18 24.02.2020
2388 Clouds 11 1013 50 10000 6.7 230 13:41 24.02.2020
2389 Clouds 11 1013 50 10000 6.7 230 13:23 24.02.2020
2390 Clouds 10 1013 53 10000 6.7 230 12:59 24.02.2020
2391 Clouds 10 1013 53 10000 6.7 230 12:41 24.02.2020
2392 Clouds 10 1014 57 10000 5.7 240 12:23 24.02.2020
2393 Clouds 9 1014 52 10000 6.2 230 11:50 24.02.2020
2394 Clouds 9 1015 57 10000 6.2 210 11:31 24.02.2020
2395 Clouds 8 1015 58 10000 6.7 230 10:54 24.02.2020
2396 Clouds 8 1016 61 10000 5.1 240 10:36 24.02.2020
2397 Clouds 8 1016 61 10000 5.1 240 10:18 24.02.2020
2398 Clouds 7 1016 58 10000 5.7 230 09:40 24.02.2020
2399 Clouds 7 1016 58 10000 5.7 230 09:19 24.02.2020
2400 Clouds 6 1016 58 10000 5.1 230 08:48 24.02.2020
2401 Clouds 5 1017 70 10000 2.6 240 08:29 24.02.2020
2402 Clouds 5 1016 65 10000 4.1 210 07:54 24.02.2020
2403 Clouds 4 1017 79 10000 1 0 07:32 24.02.2020
2404 Clouds 3 1016 79 10000 2.1 210 06:49 24.02.2020
2405 Clouds 2 1017 86 10000 1 0 06:22 24.02.2020
2406 Clouds 3 1017 79 10000 1.87 207 05:42 24.02.2020
2407 Clouds 3 1017 79 10000 1.87 207 05:23 24.02.2020
2408 Clouds 4 1017 69 10000 4.1 230 02:57 24.02.2020
2409 Clouds 4 1018 74 10000 3.1 230 01:53 24.02.2020
2410 Clouds 5 1020 89 10000 2.1 240 01:28 24.02.2020
2411 Clouds 5 1020 87 10000 3.1 240 00:38 24.02.2020
2412 Clouds 5 1020 87 10000 3.1 240 00:19 24.02.2020
2413 Clouds 4 1019 87 10000 1 210 23:42 23.02.2020
2414 Clouds 4 1020 84 10000 2.1 220 23:22 23.02.2020
2415 Clouds 4 1020 84 10000 1 140 22:58 23.02.2020
2416 Clouds 4 1020 84 10000 1 140 22:40 23.02.2020
2417 Clouds 4 1020 75 10000 0.5 0 22:20 23.02.2020
2418 Clouds 4 1020 75 10000 1.44 218 21:46 23.02.2020
2419 Clouds 4 1020 75 10000 1.44 218 21:20 23.02.2020
2420 Clouds 4 1020 74 10000 1.5 150 20:57 23.02.2020
2421 Clouds 4 1021 84 10000 0.5 90 20:39 23.02.2020
2422 Clouds 4 1021 82 10000 0.5 90 20:21 23.02.2020
2423 Clouds 5 1021 82 10000 0.5 0 19:59 23.02.2020
2424 Clouds 5 1021 82 10000 0.5 0 19:40 23.02.2020
2425 Clouds 5 1021 82 10000 0.5 0 19:19 23.02.2020
2426 Clouds 5 1021 74 10000 3.1 120 18:58 23.02.2020
2427 Clouds 5 1021 82 10000 0.5 0 18:37 23.02.2020
2428 Clouds 5 1021 82 10000 0.5 0 18:19 23.02.2020
2429 Clouds 5 1021 74 10000 2.1 120 17:57 23.02.2020
2430 Clouds 5 1021 74 10000 2.1 120 17:39 23.02.2020
2431 Clouds 5 1020 69 10000 2.1 260 17:20 23.02.2020
2432 Clouds 6 1020 69 10000 1.5 130 16:46 23.02.2020
2433 Clouds 6 1020 56 10000 1.5 220 16:28 23.02.2020
2434 Clouds 7 1020 65 10000 2.1 350 15:59 23.02.2020
2435 Clouds 7 1020 65 10000 2.1 350 15:39 23.02.2020
2436 Clouds 7 1020 69 10000 0.5 160 15:21 23.02.2020
2437 Clouds 6 1020 65 10000 2.1 120 14:59 23.02.2020
2438 Clouds 6 1020 56 10000 1.5 0 14:40 23.02.2020
2439 Clouds 6 1020 56 10000 1.5 0 14:21 23.02.2020
2440 Clouds 6 1020 56 10000 1.5 0 14:21 23.02.2020
2441 Clouds 6 1020 65 10000 1.5 0 13:57 23.02.2020
2442 Clouds 6 1020 65 10000 1.5 0 13:38 23.02.2020
2443 Clouds 6 1021 56 10000 1.5 140 13:20 23.02.2020
2444 Clouds 6 1021 65 10000 3.1 70 12:42 23.02.2020
2445 Clouds 6 1021 60 10000 2.6 40 12:22 23.02.2020
2446 Clouds 5 1021 64 10000 5.7 20 11:56 23.02.2020
2447 Clouds 6 1022 60 10000 2.6 60 11:37 23.02.2020
2448 Clouds 5 1022 60 10000 2.6 60 11:18 23.02.2020
2449 Clouds 5 1022 60 10000 2.6 60 11:18 23.02.2020
2450 Clouds 5 1022 65 10000 3.1 30 10:42 23.02.2020
2451 Rain 5 1022 65 10000 3.1 30 10:24 23.02.2020
2452 Rain 4 1021 69 10000 4.6 50 10:00 23.02.2020
2453 Rain 4 1022 65 10000 3.1 90 09:39 23.02.2020
2454 Clouds 5 1022 65 10000 3.1 90 09:21 23.02.2020
2455 Clouds 3 1021 69 10000 3.6 70 08:51 23.02.2020
2456 Clouds 3 1021 86 10000 3.1 70 08:30 23.02.2020
2457 Clouds 2 1021 80 10000 4.6 30 07:58 23.02.2020
2458 Clouds 2 1021 69 10000 2.36 72 07:39 23.02.2020
2459 Clouds 1 1020 89 10000 5.7 20 06:39 23.02.2020
2460 Clouds 1 1020 86 10000 6.2 10 05:48 23.02.2020
2461 Clouds 1 1020 93 10000 4.1 40 04:42 23.02.2020
2462 Clouds 1 1021 80 10000 3.6 20 03:21 23.02.2020
2463 Clouds 1 1020 86 10000 1.5 290 02:26 23.02.2020
2464 Clouds 1 1020 74 10000 0.5 0 01:24 23.02.2020
2465 Clouds 1 1020 74 10000 4.6 60 00:47 23.02.2020
2466 Clouds 1 1021 74 10000 1.5 320 00:25 23.02.2020
2467 Clouds 1 1020 74 9000 5.7 70 23:45 22.02.2020
2468 Clouds 1 1021 74 10000 2.1 350 23:27 22.02.2020
2469 Snow 1 1020 74 9000 4.6 50 22:57 22.02.2020
2470 Clouds 1 1021 74 10000 2.1 10 22:38 22.02.2020
2471 Clouds 1 1021 74 10000 2.1 10 22:18 22.02.2020
2472 Clouds 1 1021 74 10000 1 0 21:40 22.02.2020
2473 Clouds 1 1021 74 10000 1.5 270 21:22 22.02.2020
2474 Clouds 1 1021 74 10000 2.1 300 20:46 22.02.2020
2475 Snow 1 1021 80 10000 2.6 310 20:24 22.02.2020
2476 Clouds 1 1020 80 10000 3.6 360 19:56 22.02.2020
2477 Rain 1 1020 80 10000 1 0 19:37 22.02.2020
2478 Rain 1 1020 80 10000 1 0 19:18 22.02.2020
2479 Rain 1 1020 80 10000 1 0 18:39 22.02.2020
2480 Rain 1 1020 80 10000 1 0 18:21 22.02.2020
2481 Clouds 1 1019 86 10000 3.1 60 17:57 22.02.2020
2482 Rain 2 1019 96 10000 1.5 360 17:39 22.02.2020
2483 Rain 2 1019 96 10000 1.5 360 17:21 22.02.2020
2484 Clouds 2 1018 74 10000 4.6 10 16:57 22.02.2020
2485 Clouds 2 1018 74 10000 4.6 10 16:38 22.02.2020
2486 Rain 2 1018 96 10000 1.5 0 16:19 22.02.2020
2487 Clouds 3 1017 80 10000 4.1 360 15:43 22.02.2020
2488 Rain 3 1018 69 10000 2.1 20 15:24 22.02.2020
2489 Clouds 3 1017 96 10000 7.7 330 14:44 22.02.2020
2490 Rain 3 1017 91 10000 3.6 30 14:24 22.02.2020
2491 Rain 3 1017 91 10000 4.6 10 13:58 22.02.2020
2492 Rain 3 1017 80 10000 3.1 20 13:40 22.02.2020
2493 Rain 3 1017 80 10000 3.1 20 13:18 22.02.2020
2494 Rain 3 1017 93 6000 3.1 350 12:44 22.02.2020
2495 Rain 3 1017 86 10000 0.5 0 12:24 22.02.2020
2496 Rain 3 1016 93 10000 5.7 40 11:48 22.02.2020
2497 Rain 3 1017 93 10000 2.6 40 11:29 22.02.2020
2498 Rain 3 1016 74 10000 5.7 40 10:58 22.02.2020
2499 Rain 3 1017 80 10000 2.1 30 10:40 22.02.2020
2500 Rain 4 1017 80 10000 2.1 30 10:20 22.02.2020
2501 Rain 3 1016 74 10000 4.1 360 09:57 22.02.2020
2502 Rain 3 1016 85 10000 2.6 20 09:38 22.02.2020
2503 Rain 3 1016 85 10000 2.6 20 09:20 22.02.2020
2504 Rain 3 1016 85 10000 2.1 310 08:47 22.02.2020
2505 Rain 3 1016 95 10000 1.5 40 08:27 22.02.2020
2506 Rain 3 1015 96 10000 3.1 360 07:48 22.02.2020
2507 Rain 3 1015 96 10000 3.1 360 07:48 22.02.2020
2508 Rain 2 1016 96 10000 4.27 7 07:19 22.02.2020
2509 Rain 2 1015 96 10000 1.5 40 06:47 22.02.2020
2510 Rain 2 1015 86 10000 1.5 20 06:28 22.02.2020
2511 Rain 3 1014 86 10000 1 0 04:33 22.02.2020
2512 Clouds 3 1013 96 10000 3.1 360 03:21 22.02.2020
2513 Rain 3 1013 86 10000 1.5 240 02:28 22.02.2020
2514 Rain 3 1013 95 10000 2.6 290 01:43 22.02.2020
2515 Rain 3 1013 80 10000 2.1 10 01:24 22.02.2020
2516 Rain 3 1012 93 10000 2.1 300 00:43 22.02.2020
2517 Clouds 4 1013 97 10000 1 0 00:24 22.02.2020
2518 Rain 4 1013 97 10000 5.1 360 23:45 21.02.2020
2519 Rain 4 1013 97 10000 5.1 360 23:45 21.02.2020
2520 Rain 4 1013 80 10000 2.1 30 23:21 21.02.2020
2521 Rain 4 1012 86 10000 3.1 40 22:45 21.02.2020
2522 Rain 4 1012 97 10000 2.6 40 22:27 21.02.2020
2523 Rain 4 1013 75 10000 3.1 350 21:59 21.02.2020
2524 Rain 4 1012 97 10000 1.5 10 21:40 21.02.2020
2525 Rain 4 1012 97 10000 1.5 10 21:22 21.02.2020
2526 Rain 4 1012 80 10000 1.5 320 20:48 21.02.2020
2527 Rain 4 1012 80 10000 1.5 320 20:48 21.02.2020
2528 Rain 4 1012 80 10000 1 0 20:29 21.02.2020
2529 Clouds 4 1011 80 10000 2.1 350 19:42 21.02.2020
2530 Clouds 4 1012 80 8000 0.5 0 19:24 21.02.2020
2531 Clouds 4 1011 86 10000 2.6 350 18:56 21.02.2020
2532 Clouds 4 1011 86 10000 1.5 330 18:38 21.02.2020
2533 Clouds 4 1011 86 10000 1.5 330 18:19 21.02.2020
2534 Clouds 4 1011 86 8000 3.1 10 17:40 21.02.2020
2535 Clouds 4 1011 86 8000 3.1 10 17:21 21.02.2020
2536 Clouds 4 1011 86 8000 3.1 10 17:21 21.02.2020
2537 Rain 4 1010 86 8000 3.6 360 16:57 21.02.2020
2538 Rain 4 1010 86 8000 3.6 360 16:39 21.02.2020
2539 Rain 4 1010 86 8000 3.1 20 16:20 21.02.2020
2540 Rain 5 1010 80 8000 4.1 30 15:46 21.02.2020
2541 Rain 4 1011 86 10000 2.99 36 15:19 21.02.2020
2542 Rain 4 1011 86 10000 2.99 36 15:19 21.02.2020
2543 Rain 5 1011 86 10000 2.99 36 15:19 21.02.2020
2544 Rain 4 1010 86 8000 4.6 20 14:59 21.02.2020
2545 Rain 4 1010 80 10000 1 100 14:41 21.02.2020
2546 Rain 4 1010 86 8000 3.1 10 14:19 21.02.2020
2547 Rain 4 1010 86 8000 3.1 10 13:42 21.02.2020
2548 Rain 4 1010 86 10000 2.6 100 13:24 21.02.2020
2549 Rain 4 1010 93 7000 3.1 350 12:54 21.02.2020
2550 Rain 4 1010 86 7000 2.1 80 12:36 21.02.2020
2551 Rain 4 1010 86 7000 2.1 80 12:18 21.02.2020
2552 Rain 4 1010 86 6000 2.6 350 11:40 21.02.2020
2553 Rain 4 1011 80 7000 2.49 84 11:21 21.02.2020
2554 Rain 4 1010 86 4800 3.1 350 10:56 21.02.2020
2555 Rain 4 1011 80 6000 1 0 10:38 21.02.2020
2556 Rain 4 1011 80 6000 1 0 10:19 21.02.2020
2557 Rain 4 1010 86 6000 3.1 10 09:56 21.02.2020
2558 Rain 4 1010 86 6000 2.49 84 09:37 21.02.2020
2559 Rain 4 1010 86 6000 2.49 84 09:18 21.02.2020
2560 Rain 4 1010 86 4700 4.1 360 08:41 21.02.2020
2561 Rain 4 1010 86 6000 0.5 0 08:22 21.02.2020
2562 Rain 4 1010 86 4800 2.6 360 07:58 21.02.2020
2563 Rain 4 1010 86 4800 2.6 360 07:40 21.02.2020
2564 Rain 4 1010 86 6000 1 0 07:18 21.02.2020
2565 Rain 4 1011 86 7000 2.6 120 06:46 21.02.2020
2566 Rain 4 1010 93 7000 1.78 72 06:28 21.02.2020
2567 Rain 4 1010 97 8000 2.1 10 05:42 21.02.2020
2568 Rain 4 1010 75 10000 1 0 04:32 21.02.2020
2569 Rain 3 1009 80 10000 1 0 03:57 21.02.2020
2570 Rain 4 1009 97 10000 1 0 03:22 21.02.2020
2571 Clouds 4 1009 74 10000 2.1 20 01:51 21.02.2020
2572 Clouds 4 1009 65 10000 0.5 0 01:23 21.02.2020
2573 Clouds 5 1010 94 10000 1.16 95 00:41 21.02.2020
2574 Clouds 5 1010 56 10000 1.16 95 00:22 21.02.2020
2575 Rain 6 1010 94 10000 4.1 30 23:43 20.02.2020
2576 Rain 6 1010 94 10000 4.1 30 23:43 20.02.2020
2577 Clouds 6 1010 83 10000 1.5 40 23:22 20.02.2020
2578 Clouds 6 1010 94 10000 1.5 40 23:22 20.02.2020
2579 Rain 7 1011 83 10000 2.1 150 22:56 20.02.2020
2580 Clouds 7 1010 83 10000 1 0 22:37 20.02.2020
2581 Clouds 7 1010 83 10000 1 0 22:18 20.02.2020
2582 Clouds 6 1010 69 10000 4.1 30 21:55 20.02.2020
2583 Clouds 7 1010 52 10000 4.1 70 21:36 20.02.2020
2584 Clouds 7 1010 52 10000 4.1 70 21:18 20.02.2020
2585 Rain 7 1010 83 10000 4.6 20 20:54 20.02.2020
2586 Rain 7 1010 83 10000 4.6 20 20:54 20.02.2020
2587 Clouds 7 1010 52 10000 2.6 80 20:36 20.02.2020
2588 Clouds 7 1010 52 10000 2.6 80 20:18 20.02.2020
2589 Clouds 7 1010 52 10000 2.6 80 20:18 20.02.2020
2590 Clouds 7 1011 60 10000 4.1 10 19:42 20.02.2020
2591 Clouds 7 1010 49 10000 2.6 70 19:24 20.02.2020
2592 Clouds 7 1011 56 10000 2.6 10 18:59 20.02.2020
2593 Clouds 7 1011 49 10000 4.1 70 18:38 20.02.2020
2594 Clouds 7 1011 49 10000 4.1 70 18:19 20.02.2020
2595 Clouds 7 1011 49 10000 4.1 70 18:19 20.02.2020
2596 Clouds 8 1011 46 10000 0.5 0 17:40 20.02.2020
2597 Clouds 8 1011 46 10000 0.5 0 17:22 20.02.2020
2598 Clouds 9 1011 49 10000 2.6 120 16:58 20.02.2020
2599 Clouds 10 1010 43 10000 2.1 130 16:39 20.02.2020
2600 Clouds 10 1010 43 10000 2.1 130 16:20 20.02.2020
2601 Clouds 11 1010 39 10000 3.6 100 15:58 20.02.2020
2602 Clouds 11 1010 40 10000 2.6 160 15:39 20.02.2020
2603 Clouds 11 1010 40 10000 2.6 160 15:20 20.02.2020
2604 Clouds 11 1011 43 10000 2.6 150 14:54 20.02.2020
2605 Clouds 10 1011 43 10000 3.1 170 14:36 20.02.2020
2606 Clouds 11 1011 43 10000 3.1 170 14:18 20.02.2020
2607 Clouds 11 1011 37 10000 1.5 0 13:43 20.02.2020
2608 Clouds 10 1011 43 10000 2.1 90 13:19 20.02.2020
2609 Clouds 10 1012 39 10000 1 0 12:43 20.02.2020
2610 Clouds 10 1012 46 10000 1 0 12:22 20.02.2020
2611 Clouds 9 1012 42 10000 2.1 60 11:59 20.02.2020
2612 Clouds 9 1013 49 8000 3.1 80 11:41 20.02.2020
2613 Clouds 9 1012 42 10000 2.1 60 11:41 20.02.2020
2614 Clouds 9 1013 49 8000 3.1 80 11:22 20.02.2020
2615 Clouds 6 1014 52 10000 1 0 10:57 20.02.2020
2616 Clouds 6 1014 60 7000 1 0 10:38 20.02.2020
2617 Clouds 6 1014 60 7000 1 0 10:20 20.02.2020
2618 Clouds 5 1014 60 10000 1 0 09:44 20.02.2020
2619 Clouds 5 1014 65 6000 1 0 09:24 20.02.2020
2620 Clouds 5 1014 65 6000 1 0 09:24 20.02.2020
2621 Clouds 5 1014 64 10000 1 0 08:57 20.02.2020
2622 Clouds 5 1014 64 10000 1 0 08:57 20.02.2020
2623 Clouds 5 1015 69 6000 0.5 0 08:37 20.02.2020
2624 Clouds 5 1015 69 6000 0.5 0 08:19 20.02.2020
2625 Clouds 2 1015 74 6000 1 0 07:44 20.02.2020
2626 Clouds 2 1015 74 6000 1 0 07:44 20.02.2020
2627 Clouds 2 1015 80 10000 1.46 121 07:20 20.02.2020
2628 Clouds 1 1014 67 10000 0.5 0 06:44 20.02.2020
2629 Clouds 0 1014 92 10000 1.46 121 06:25 20.02.2020
2630 Clouds 0 1014 86 10000 0.5 0 05:44 20.02.2020
2631 Clouds 0 1014 92 10000 2.1 320 04:50 20.02.2020
2632 Clouds 1 1014 71 10000 1 0 03:57 20.02.2020
2633 Clouds 1 1015 80 10000 0.87 142 03:20 20.02.2020
2634 Clouds 1 1015 86 10000 0.64 194 01:52 20.02.2020
2635 Clouds 0 1015 86 10000 1 0 00:58 20.02.2020
2636 Clouds 0 1015 86 10000 1.5 240 00:30 20.02.2020
2637 Clouds 0 1015 80 10000 1.5 360 23:49 19.02.2020
2638 Clouds 0 1015 74 10000 0.48 176 23:22 19.02.2020
2639 Clouds 2 1015 69 10000 1.5 110 22:44 19.02.2020
2640 Clouds 1 1016 69 10000 0.48 176 22:26 19.02.2020
2641 Clouds 2 1016 69 10000 1 0 21:59 19.02.2020
2642 Clouds 2 1016 69 10000 1 0 21:40 19.02.2020
2643 Clouds 1 1016 74 10000 0.48 176 21:19 19.02.2020
2644 Clouds 2 1016 69 10000 1 0 20:58 19.02.2020
2645 Clouds 2 1016 64 10000 0.48 176 20:39 19.02.2020
2646 Clouds 3 1016 64 10000 0.4 74 20:20 19.02.2020
2647 Clouds 5 1016 60 10000 2.1 80 19:58 19.02.2020
2648 Clouds 5 1016 56 10000 0.4 74 19:38 19.02.2020
2649 Clouds 5 1016 56 10000 0.4 74 19:38 19.02.2020
2650 Clouds 5 1016 56 10000 0.4 74 19:20 19.02.2020
2651 Clouds 6 1016 52 10000 1.5 50 18:58 19.02.2020
2652 Clouds 5 1016 52 10000 1.5 50 18:40 19.02.2020
2653 Clouds 5 1016 56 10000 1 230 18:21 19.02.2020
2654 Clouds 6 1015 52 10000 2.1 230 17:56 19.02.2020
2655 Clouds 7 1016 42 10000 1 0 17:38 19.02.2020
2656 Clear 7 1016 42 10000 1 0 17:18 19.02.2020
2657 Clouds 9 1015 39 10000 1.5 230 16:42 19.02.2020
2658 Clear 10 1015 37 10000 2.6 240 16:19 19.02.2020
2659 Clouds 10 1015 34 10000 3.6 270 15:56 19.02.2020
2660 Clear 11 1016 32 10000 2.6 250 15:37 19.02.2020
2661 Clear 11 1016 32 10000 2.6 250 15:19 19.02.2020
2662 Clouds 10 1015 31 10000 1 0 14:41 19.02.2020
2663 Clear 10 1016 34 10000 1.5 20 14:22 19.02.2020
2664 Clouds 11 1016 30 10000 1 130 13:43 19.02.2020
2665 Clear 10 1016 37 10000 2.6 0 13:23 19.02.2020
2666 Clouds 10 1016 34 10000 1 0 12:58 19.02.2020
2667 Clear 10 1017 39 10000 2.6 0 12:37 19.02.2020
2668 Clear 10 1017 39 10000 2.6 0 12:18 19.02.2020
2669 Clear 9 1017 36 10000 1.5 0 11:39 19.02.2020
2670 Clear 9 1018 42 10000 1 0 11:20 19.02.2020
2671 Clear 7 1018 39 10000 1 0 10:59 19.02.2020
2672 Clear 7 1019 48 8000 1.5 0 10:39 19.02.2020
2673 Clear 7 1019 48 8000 1.5 0 10:21 19.02.2020
2674 Clear 5 1019 48 10000 1 0 09:59 19.02.2020
2675 Clear 4 1020 52 8000 1.5 0 09:41 19.02.2020
2676 Clear 4 1020 52 8000 1.5 0 09:41 19.02.2020
2677 Clear 4 1020 52 8000 1.5 0 09:20 19.02.2020
2678 Clear 2 1019 64 10000 1 0 08:48 19.02.2020
2679 Clear 2 1020 74 10000 1 0 08:24 19.02.2020
2680 Clear -1 1019 74 10000 1.15 129 07:57 19.02.2020
2681 Clear -1 1020 86 10000 1.15 129 07:38 19.02.2020
2682 Clear -1 1020 86 10000 1.15 129 07:18 19.02.2020
2683 Clear -1 1020 86 10000 1.15 129 07:18 19.02.2020
2684 Clear -4 1019 85 10000 0.5 0 06:42 19.02.2020
2685 Clear -4 1020 85 10000 1.15 129 05:26 19.02.2020
2686 Clear -4 1019 85 10000 0.5 0 03:52 19.02.2020
2687 Clear -3 1020 92 10000 0.5 220 02:36 19.02.2020
2688 Clear -3 1019 79 10000 0.5 0 01:41 19.02.2020
2689 Clear -3 1020 86 10000 0.5 260 01:22 19.02.2020
2690 Clear -2 1020 79 10000 1.5 20 00:39 19.02.2020
2691 Clear -2 1020 86 10000 0.53 114 00:19 19.02.2020
2692 Clear -2 1020 79 10000 1 0 23:39 18.02.2020
2693 Clear -2 1020 86 10000 0.5 0 23:19 18.02.2020
2694 Clear -1 1020 79 10000 0.5 0 22:55 18.02.2020
2695 Clear -1 1020 80 10000 0.92 137 22:36 18.02.2020
2696 Clear 0 1020 80 10000 0.92 137 22:18 18.02.2020
2697 Clear 0 1020 68 10000 1 300 21:54 18.02.2020
2698 Clear 1 1020 67 10000 0.92 137 21:36 18.02.2020
2699 Clear 1 1020 67 10000 0.92 137 21:36 18.02.2020
2700 Clear 0 1020 67 10000 0.92 137 21:18 18.02.2020
2701 Clear 1 1020 69 10000 0.5 0 20:40 18.02.2020
2702 Clear 1 1020 69 10000 0.5 0 20:22 18.02.2020
2703 Clear 2 1020 59 10000 2.1 10 19:58 18.02.2020
2704 Clear 2 1020 59 10000 2.1 10 19:40 18.02.2020
2705 Clear 2 1020 59 10000 0.5 0 19:19 18.02.2020
2706 Clear 4 1019 51 10000 2.6 20 18:55 18.02.2020
2707 Clear 4 1020 52 10000 1.5 220 18:37 18.02.2020
2708 Clear 5 1020 52 10000 1.5 220 18:18 18.02.2020
2709 Clear 6 1019 44 10000 2.6 80 17:40 18.02.2020
2710 Clear 6 1019 39 10000 1 0 17:19 18.02.2020
2711 Clear 8 1019 33 10000 3.6 140 16:40 18.02.2020
2712 Clear 9 1019 34 10000 2.6 260 16:22 18.02.2020
2713 Clear 10 1019 25 10000 1 0 15:55 18.02.2020
2714 Clear 10 1019 25 10000 1 0 15:37 18.02.2020
2715 Clear 10 1019 25 10000 1 0 15:18 18.02.2020
2716 Clear 10 1019 26 10000 1.5 0 14:55 18.02.2020
2717 Clear 10 1019 23 10000 1 0 14:37 18.02.2020
2718 Clear 10 1019 23 10000 1 0 14:18 18.02.2020
2719 Clear 9 1019 27 10000 1 30 13:41 18.02.2020
2720 Clear 9 1019 27 10000 1 30 13:41 18.02.2020
2721 Clear 9 1019 27 10000 1 30 13:21 18.02.2020
2722 Clear 9 1020 26 10000 2.6 90 12:50 18.02.2020
2723 Clear 9 1020 26 10000 2.1 40 12:31 18.02.2020
2724 Clear 8 1020 26 10000 1.5 130 11:59 18.02.2020
2725 Clear 8 1020 26 10000 1.5 130 11:59 18.02.2020
2726 Clear 8 1020 26 10000 1.5 130 11:41 18.02.2020
2727 Clear 8 1021 28 10000 2.6 50 11:23 18.02.2020
2728 Clear 6 1021 28 10000 1.5 0 10:46 18.02.2020
2729 Clear 6 1022 30 10000 1.5 0 10:25 18.02.2020
2730 Clear 5 1022 32 10000 1 0 09:58 18.02.2020
2731 Clear 5 1022 32 10000 1 0 09:58 18.02.2020
2732 Clear 4 1022 32 10000 1 0 09:58 18.02.2020
2733 Clear 4 1023 48 10000 1 0 09:39 18.02.2020
2734 Clear 4 1023 48 10000 1 0 09:20 18.02.2020
2735 Clear 2 1022 51 10000 0.5 0 08:59 18.02.2020
2736 Clear 1 1023 64 10000 1 0 08:40 18.02.2020
2737 Clear 1 1023 64 10000 1 0 08:20 18.02.2020
2738 Clear -1 1022 74 10000 0.5 350 07:55 18.02.2020
2739 Clear -1 1022 74 10000 0.5 350 07:55 18.02.2020
2740 Clear -2 1023 79 10000 1.42 100 07:29 18.02.2020
2741 Clear -4 1022 79 10000 2.6 350 06:55 18.02.2020
2742 Clear -5 1023 85 10000 1 230 06:32 18.02.2020
2743 Clear -4 1022 79 10000 1 0 05:56 18.02.2020
2744 Clear -5 1022 79 10000 0.5 40 05:23 18.02.2020
2745 Clear -4 1022 79 10000 0.5 0 03:57 18.02.2020
2746 Clear -3 1022 79 10000 0.5 0 02:58 18.02.2020
2747 Clear -3 1022 79 10000 1 0 01:45 18.02.2020
2748 Clear -3 1023 79 10000 1 0 00:45 18.02.2020
2749 Clear -3 1024 73 10000 1 0 00:19 18.02.2020
2750 Clear -2 1023 74 10000 1.5 110 23:44 17.02.2020
2751 Clear -2 1024 73 10000 1.5 240 23:25 17.02.2020
2752 Clear 0 1023 74 10000 1 0 22:59 17.02.2020
2753 Clear 0 1024 63 10000 0.5 0 22:40 17.02.2020
2754 Clear 0 1024 63 10000 0.5 0 22:20 17.02.2020
2755 Clear 0 1024 63 10000 2.1 350 21:40 17.02.2020
2756 Clear 0 1024 63 10000 0.5 0 21:19 17.02.2020
2757 Clear 1 1024 63 10000 2.6 40 20:57 17.02.2020
2758 Clear 1 1024 44 10000 0.5 0 20:38 17.02.2020
2759 Clear 1 1024 44 10000 0.5 0 20:20 17.02.2020
2760 Clear 2 1023 50 10000 1.5 100 19:55 17.02.2020
2761 Clear 2 1023 44 10000 1 0 19:36 17.02.2020
2762 Clear 2 1023 44 10000 1 0 19:18 17.02.2020
2763 Clear 4 1023 38 10000 0.5 0 18:37 17.02.2020
2764 Clear 4 1023 38 10000 0.5 0 18:37 17.02.2020
2765 Clear 5 1023 38 10000 0.5 0 18:19 17.02.2020
2766 Clear 6 1023 38 10000 4.1 50 17:55 17.02.2020
2767 Clear 7 1023 26 10000 2.1 50 17:36 17.02.2020
2768 Clear 7 1023 26 10000 2.1 50 17:18 17.02.2020
2769 Clear 8 1022 26 10000 2.1 90 16:43 17.02.2020
2770 Clear 9 1023 24 10000 4.1 70 16:23 17.02.2020
2771 Clear 9 1022 24 10000 4.1 90 15:58 17.02.2020
2772 Clear 9 1022 24 10000 4.1 90 15:40 17.02.2020
2773 Clear 10 1023 23 10000 3.6 50 15:21 17.02.2020
2774 Clear 10 1023 21 10000 4.6 80 14:45 17.02.2020
2775 Clear 10 1023 23 10000 3.6 60 14:26 17.02.2020
2776 Clear 10 1023 18 10000 4.6 90 13:59 17.02.2020
2777 Clear 10 1023 25 10000 3.6 70 13:39 17.02.2020
2778 Clear 10 1023 25 10000 3.6 70 13:19 17.02.2020
2779 Clear 9 1023 22 10000 5.7 80 12:47 17.02.2020
2780 Clear 9 1023 22 10000 5.7 80 12:47 17.02.2020
2781 Clear 10 1024 23 10000 4.1 50 12:26 17.02.2020
2782 Clear 9 1024 20 10000 5.7 40 11:59 17.02.2020
2783 Clear 9 1024 20 10000 5.7 40 11:41 17.02.2020
2784 Clear 9 1025 26 10000 4.1 40 11:22 17.02.2020
2785 Clear 8 1025 26 10000 5.7 40 10:56 17.02.2020
2786 Clear 8 1025 36 10000 3.1 40 10:37 17.02.2020
2787 Clear 8 1025 36 10000 3.1 40 10:19 17.02.2020
2788 Clear 6 1026 35 10000 5.7 40 09:42 17.02.2020
2789 Clear 5 1026 56 10000 1.5 40 09:23 17.02.2020
2790 Clear 3 1026 51 10000 3.6 40 08:59 17.02.2020
2791 Clear 3 1026 51 10000 3.6 40 08:41 17.02.2020
2792 Clear 3 1027 69 10000 0.5 0 08:21 17.02.2020
2793 Clear 0 1026 74 10000 1.5 0 07:54 17.02.2020
2794 Clear -1 1027 92 10000 1.21 24 07:26 17.02.2020
2795 Clear -2 1026 86 10000 2.1 20 06:53 17.02.2020
2796 Clear -3 1026 92 10000 1.21 24 06:33 17.02.2020
2797 Clear -2 1025 86 10000 1 0 05:59 17.02.2020
2798 Clear -3 1025 92 10000 1 0 05:38 17.02.2020
2799 Clear -2 1025 86 10000 1.32 355 03:24 17.02.2020
2800 Clear -1 1025 86 10000 0.5 0 01:59 17.02.2020
2801 Clear 0 1025 86 10000 2.1 360 00:51 17.02.2020
2802 Clouds 0 1026 80 10000 0.5 0 00:23 17.02.2020
2803 Clear 1 1026 88 10000 1.5 30 23:54 16.02.2020
2804 Clouds 1 1026 74 10000 1.5 310 23:33 16.02.2020
2805 Clouds 3 1026 74 10000 2.6 40 22:58 16.02.2020
2806 Clouds 3 1026 64 10000 1.5 40 22:39 16.02.2020
2807 Clouds 3 1026 64 10000 1.5 40 22:21 16.02.2020
2808 Clouds 4 1026 69 10000 4.1 30 21:59 16.02.2020
2809 Clouds 4 1026 69 10000 4.1 30 21:41 16.02.2020
2810 Clouds 4 1027 65 10000 4.1 50 21:22 16.02.2020
2811 Clouds 5 1026 64 10000 4.6 60 20:58 16.02.2020
2812 Clouds 5 1026 64 10000 4.6 60 20:40 16.02.2020
2813 Clouds 5 1027 60 10000 5.1 30 20:22 16.02.2020
2814 Clouds 5 1026 64 10000 4.6 50 19:58 16.02.2020
2815 Clouds 5 1026 60 10000 4.6 50 19:39 16.02.2020
2816 Clouds 5 1026 60 10000 4.6 50 19:19 16.02.2020
2817 Clouds 5 1026 64 10000 3.6 10 18:45 16.02.2020
2818 Clouds 5 1025 56 10000 2.6 30 18:27 16.02.2020
2819 Clouds 5 1025 64 10000 5.1 20 17:59 16.02.2020
2820 Clouds 6 1024 52 10000 4.1 30 17:40 16.02.2020
2821 Clouds 6 1024 52 10000 4.1 30 17:20 16.02.2020
2822 Clouds 6 1024 60 10000 5.1 20 16:56 16.02.2020
2823 Clouds 6 1024 52 10000 4.1 20 16:38 16.02.2020
2824 Clouds 6 1024 52 10000 4.1 20 16:19 16.02.2020
2825 Clouds 7 1024 60 10000 7.2 10 15:42 16.02.2020
2826 Clouds 7 1024 52 10000 5.1 30 15:23 16.02.2020
2827 Clouds 7 1024 52 10000 5.1 30 15:23 16.02.2020
2828 Clouds 7 1024 52 10000 6.7 10 14:59 16.02.2020
2829 Clouds 8 1024 49 10000 5.1 30 14:38 16.02.2020
2830 Clouds 8 1024 49 10000 5.1 30 14:19 16.02.2020
2831 Clouds 7 1023 48 10000 6.2 10 13:45 16.02.2020
2832 Clouds 7 1024 49 10000 4.1 30 13:24 16.02.2020
2833 Clouds 8 1023 48 10000 5.1 20 12:54 16.02.2020
2834 Clouds 7 1024 48 10000 4.1 40 12:36 16.02.2020
2835 Clouds 7 1024 48 10000 4.1 40 12:18 16.02.2020
2836 Clouds 7 1024 52 10000 4.1 40 11:38 16.02.2020
2837 Clouds 7 1024 52 10000 4.1 40 11:18 16.02.2020
2838 Clouds 6 1024 52 10000 4.6 60 10:56 16.02.2020
2839 Clouds 6 1024 56 10000 4.1 50 10:37 16.02.2020
2840 Clouds 6 1024 56 10000 4.1 50 10:19 16.02.2020
2841 Clouds 6 1024 56 10000 6.7 40 09:54 16.02.2020
2842 Clouds 6 1024 60 10000 5.1 40 09:36 16.02.2020
2843 Clouds 6 1024 60 10000 5.1 40 09:18 16.02.2020
2844 Clouds 5 1024 64 10000 6.2 50 08:41 16.02.2020
2845 Clouds 5 1024 65 10000 3.1 30 08:20 16.02.2020
2846 Clouds 4 1024 64 10000 5.1 50 07:49 16.02.2020
2847 Clouds 4 1024 90 10000 0.5 0 07:26 16.02.2020
2848 Clouds 3 1023 80 10000 1 0 06:33 16.02.2020
2849 Clouds 3 1022 69 10000 2.53 21 04:42 16.02.2020
2850 Clouds 3 1022 69 10000 2.53 21 03:25 16.02.2020
2851 Clouds 3 1022 69 10000 2.53 21 02:31 16.02.2020
2852 Clouds 3 1021 74 10000 2.15 9 01:42 16.02.2020
2853 Clouds 3 1021 69 10000 0.5 0 01:22 16.02.2020
2854 Clouds 3 1021 64 10000 2.09 15 00:52 16.02.2020
2855 Clouds 3 1021 64 10000 2.09 15 00:31 16.02.2020
2856 Clouds 3 1021 69 10000 0.5 0 23:46 15.02.2020
2857 Clouds 3 1021 64 10000 2.09 15 23:26 15.02.2020
2858 Clouds 4 1021 59 10000 1.5 80 22:59 15.02.2020
2859 Clouds 4 1021 59 10000 1.5 80 22:41 15.02.2020
2860 Clouds 4 1021 60 10000 0.5 230 22:21 15.02.2020
2861 Clouds 4 1021 64 10000 1.5 100 21:58 15.02.2020
2862 Clouds 4 1021 60 10000 1 240 21:39 15.02.2020
2863 Clouds 4 1021 60 10000 1 240 21:21 15.02.2020
2864 Clouds 4 1021 52 10000 1.27 44 20:40 15.02.2020
2865 Clouds 5 1021 52 10000 1.47 62 20:21 15.02.2020
2866 Clouds 5 1020 64 10000 3.1 20 19:44 15.02.2020
2867 Clouds 5 1020 48 10000 0.5 220 19:22 15.02.2020
2868 Clouds 6 1020 60 10000 3.1 360 18:45 15.02.2020
2869 Clouds 6 1020 52 10000 1.47 62 18:25 15.02.2020
2870 Clouds 6 1019 56 10000 1.5 10 17:59 15.02.2020
2871 Clouds 6 1019 56 10000 1.5 10 17:41 15.02.2020
2872 Clouds 6 1019 45 10000 3.1 80 17:22 15.02.2020
2873 Clouds 7 1018 48 10000 1 0 16:55 15.02.2020
2874 Clouds 7 1018 45 10000 3.1 80 16:37 15.02.2020
2875 Clouds 7 1018 45 10000 3.1 80 16:18 15.02.2020
2876 Clouds 8 1018 45 10000 3.6 40 15:41 15.02.2020
2877 Clouds 8 1018 42 10000 2.1 110 15:23 15.02.2020
2878 Clouds 9 1018 42 10000 3.6 20 14:45 15.02.2020
2879 Clouds 9 1017 39 10000 1.5 90 14:21 15.02.2020
2880 Clouds 8 1018 42 10000 2.1 70 13:56 15.02.2020
2881 Clouds 8 1018 42 10000 2.6 70 13:38 15.02.2020
2882 Clouds 8 1018 42 10000 2.1 70 13:38 15.02.2020
2883 Clouds 8 1018 42 10000 2.6 70 13:20 15.02.2020
2884 Clouds 7 1018 41 10000 2.6 0 12:42 15.02.2020
2885 Clouds 7 1018 42 10000 1.5 0 12:24 15.02.2020
2886 Clouds 7 1018 44 10000 2.6 80 11:52 15.02.2020
2887 Clouds 6 1019 42 10000 2.1 0 11:33 15.02.2020
2888 Clouds 6 1019 44 10000 2.6 50 10:58 15.02.2020
2889 Clouds 5 1019 44 10000 2.1 90 10:39 15.02.2020
2890 Clouds 5 1019 44 10000 2.1 90 10:20 15.02.2020
2891 Clouds 4 1019 51 10000 2.6 60 09:44 15.02.2020
2892 Clouds 4 1019 48 10000 3.1 100 09:25 15.02.2020
2893 Clouds 3 1019 59 10000 2.1 40 08:46 15.02.2020
2894 Clouds 3 1020 59 10000 2.6 110 08:26 15.02.2020
2895 Clouds 1 1019 69 10000 1.5 50 07:59 15.02.2020
2896 Clouds 1 1019 69 10000 1.5 50 07:39 15.02.2020
2897 Clouds 1 1020 64 10000 2.6 90 07:21 15.02.2020
2898 Clouds 0 1019 64 10000 2.1 110 06:38 15.02.2020
2899 Clouds 0 1019 80 10000 2.1 20 05:56 15.02.2020
2900 Clouds 0 1019 80 10000 2.6 30 04:49 15.02.2020
2901 Clouds 0 1019 64 10000 2.1 100 04:24 15.02.2020
2902 Clouds 0 1019 64 10000 2.1 100 04:24 15.02.2020
2903 Clouds 1 1019 64 10000 2.6 20 02:58 15.02.2020
2904 Clouds 1 1020 64 10000 3.1 90 02:26 15.02.2020
2905 Clouds 1 1020 65 10000 2.1 20 01:50 15.02.2020
2906 Clouds 1 1020 64 10000 2.6 90 01:31 15.02.2020
2907 Clouds 1 1021 64 10000 2.1 90 00:28 15.02.2020
2908 Clouds 1 1021 65 10000 3.6 20 23:47 14.02.2020
2909 Clouds 1 1021 64 10000 1 0 23:21 14.02.2020
2910 Clouds 1 1022 62 10000 3.1 10 22:56 14.02.2020
2911 Clouds 1 1022 62 10000 3.1 10 22:56 14.02.2020
2912 Clouds 1 1022 64 10000 1 0 22:37 14.02.2020
2913 Clouds 1 1022 64 10000 1 0 22:19 14.02.2020
2914 Clouds 1 1022 69 10000 2.6 20 21:49 14.02.2020
2915 Clouds 1 1023 80 10000 1.5 230 21:30 14.02.2020
2916 Clouds 1 1022 62 10000 2.6 30 20:45 14.02.2020
2917 Clouds 1 1023 74 10000 0.5 30 20:20 14.02.2020
2918 Clouds 1 1023 63 10000 2.1 290 19:59 14.02.2020
2919 Clouds 1 1023 63 10000 2.1 290 19:40 14.02.2020
2920 Clouds 2 1023 74 10000 1.5 220 19:22 14.02.2020
2921 Clouds 2 1023 69 10000 1.5 300 18:56 14.02.2020
2922 Clouds 2 1023 74 10000 1 240 18:38 14.02.2020
2923 Clouds 2 1023 74 10000 1 240 18:19 14.02.2020
2924 Clouds 2 1023 59 10000 3.1 60 17:43 14.02.2020
2925 Clouds 2 1023 64 10000 1 240 17:21 14.02.2020
2926 Clouds 4 1023 51 10000 2.1 110 16:58 14.02.2020
2927 Clouds 4 1023 51 10000 2.1 110 16:39 14.02.2020
2928 Clouds 4 1023 52 10000 1.5 180 16:21 14.02.2020
2929 Clouds 4 1023 41 10000 3.1 140 15:56 14.02.2020
2930 Clouds 5 1023 48 10000 1 0 15:37 14.02.2020
2931 Clouds 5 1023 48 10000 1 0 15:37 14.02.2020
2932 Clouds 5 1023 48 10000 1 0 15:37 14.02.2020
2933 Clouds 5 1023 48 10000 1 0 15:37 14.02.2020
2934 Clouds 5 1023 48 10000 1 0 15:37 14.02.2020
2935 Clouds 5 1023 48 10000 1 0 15:19 14.02.2020
2936 Clouds 5 1023 41 10000 3.1 140 14:58 14.02.2020
2937 Clouds 5 1024 45 10000 2.6 200 14:39 14.02.2020
2938 Clouds 5 1024 45 10000 2.6 200 14:21 14.02.2020
2939 Clouds 5 1024 48 10000 2.6 180 13:40 14.02.2020
2940 Clouds 5 1024 48 10000 2.6 180 13:21 14.02.2020
2941 Clouds 4 1025 51 10000 3.6 160 12:58 14.02.2020
2942 Clouds 4 1025 51 10000 3.6 160 12:40 14.02.2020
2943 Clouds 5 1025 48 10000 3.1 210 12:21 14.02.2020
2944 Clouds 4 1025 51 10000 2.6 160 11:59 14.02.2020
2945 Clouds 4 1026 51 10000 2.1 140 11:41 14.02.2020
2946 Clouds 4 1026 51 10000 2.1 140 11:20 14.02.2020
2947 Clouds 3 1026 51 10000 1.5 0 10:56 14.02.2020
2948 Clouds 2 1027 64 10000 1 0 10:37 14.02.2020
2949 Clouds 2 1027 64 10000 1 0 10:19 14.02.2020
2950 Clouds 1 1027 50 10000 0.5 0 09:42 14.02.2020
2951 Clouds 1 1028 64 10000 1 0 09:21 14.02.2020
2952 Clouds -1 1027 63 10000 0.5 0 08:44 14.02.2020
2953 Clouds -2 1028 74 10000 2.48 129 08:25 14.02.2020
2954 Clear -3 1028 73 10000 0.5 0 07:57 14.02.2020
2955 Clouds -4 1028 92 10000 1 240 07:38 14.02.2020
2956 Clouds -4 1028 92 10000 1 240 07:19 14.02.2020
2957 Clear -6 1028 92 10000 1.5 260 06:29 14.02.2020
2958 Clear -6 1027 79 10000 2.1 340 05:47 14.02.2020
2959 Clear -6 1027 79 10000 1.5 50 04:46 14.02.2020
2960 Clear -6 1027 92 10000 0.66 181 03:29 14.02.2020
2961 Clear -5 1027 92 10000 0.5 0 02:29 14.02.2020
2962 Clear -4 1027 85 10000 0.5 0 01:27 14.02.2020
2963 Clear -4 1027 73 10000 2.6 40 00:43 14.02.2020
2964 Clear -4 1027 85 10000 0.5 0 00:23 14.02.2020
2965 Clear -3 1027 79 10000 3.1 30 23:43 13.02.2020
2966 Clear -3 1027 79 10000 1.5 30 23:21 13.02.2020
2967 Clear -2 1026 73 10000 1 0 22:44 13.02.2020
2968 Clear -2 1027 79 10000 1.41 204 22:20 13.02.2020
2969 Clear -2 1027 74 10000 1.5 180 21:59 13.02.2020
2970 Clear -2 1027 74 10000 1.5 180 21:40 13.02.2020
2971 Clear -2 1027 86 10000 2.1 240 21:22 13.02.2020
2972 Clear -2 1026 74 10000 0.5 0 20:56 13.02.2020
2973 Clear -2 1026 74 10000 0.5 0 20:38 13.02.2020
2974 Clouds -1 1027 74 10000 0.5 0 20:20 13.02.2020
2975 Clouds 0 1026 74 10000 1 0 19:55 13.02.2020
2976 Clouds 0 1026 72 10000 1.5 220 19:36 13.02.2020
2977 Clouds 0 1026 72 10000 1.5 220 19:18 13.02.2020
2978 Clouds 1 1025 72 10000 1.5 0 18:42 13.02.2020
2979 Clouds 1 1026 55 10000 2.1 240 18:23 13.02.2020
2980 Clouds 2 1025 72 10000 2.1 310 17:59 13.02.2020
2981 Clouds 2 1025 44 10000 0.5 150 17:40 13.02.2020
2982 Clouds 2 1025 44 10000 0.5 150 17:40 13.02.2020
2983 Clouds 2 1025 44 10000 0.5 150 17:20 13.02.2020
2984 Clouds 4 1024 37 10000 2.1 320 16:58 13.02.2020
2985 Clouds 4 1024 35 10000 1.5 0 16:37 13.02.2020
2986 Clouds 4 1024 35 10000 1.5 0 16:19 13.02.2020
2987 Clouds 4 1024 35 10000 1.5 0 16:19 13.02.2020
2988 Clouds 5 1024 38 10000 4.1 320 15:56 13.02.2020
2989 Clouds 5 1024 38 10000 4.1 0 15:37 13.02.2020
2990 Clouds 5 1024 38 10000 4.1 0 15:19 13.02.2020
2991 Clouds 6 1023 48 10000 3.6 250 14:55 13.02.2020
2992 Clouds 6 1024 35 10000 4.1 0 14:37 13.02.2020
2993 Clouds 6 1024 35 10000 4.1 0 14:19 13.02.2020
2994 Clouds 6 1023 44 10000 5.7 250 13:44 13.02.2020
2995 Clouds 6 1023 45 10000 5.7 250 13:18 13.02.2020
2996 Clouds 5 1022 48 10000 5.1 270 12:55 13.02.2020
2997 Clouds 5 1022 48 10000 5.1 270 12:55 13.02.2020
2998 Clouds 6 1023 52 10000 6.7 260 12:37 13.02.2020
2999 Clouds 6 1023 52 10000 6.7 260 12:18 13.02.2020
3000 Clouds 5 1023 60 10000 5.7 290 11:43 13.02.2020
3001 Clouds 5 1023 60 10000 5.7 290 11:43 13.02.2020
3002 Clouds 5 1023 60 10000 5.7 290 11:43 13.02.2020
3003 Clouds 5 1023 60 10000 5.7 290 11:43 13.02.2020
3004 Clouds 5 1023 56 10000 4.1 250 11:20 13.02.2020
3005 Rain 4 1022 60 10000 4.1 260 10:46 13.02.2020
3006 Rain 4 1023 65 10000 5.1 260 10:27 13.02.2020
3007 Rain 3 1022 64 10000 5.1 270 09:55 13.02.2020
3008 Rain 3 1022 74 10000 4.6 260 09:36 13.02.2020
3009 Rain 3 1022 74 10000 4.6 260 09:18 13.02.2020
3010 Rain 3 1022 75 10000 2.1 240 08:37 13.02.2020
3011 Rain 3 1022 92 10000 2.1 240 08:19 13.02.2020
3012 Clouds 1 1021 92 8000 1 0 07:39 13.02.2020
3013 Clouds 1 1021 92 8000 1 0 07:21 13.02.2020
3014 Clouds 1 1020 86 10000 2.1 130 06:44 13.02.2020
3015 Clouds 1 1021 92 6000 2.1 240 06:20 13.02.2020
3016 Clouds 1 1019 92 10000 1.5 270 05:33 13.02.2020
3017 Snow 1 1019 93 10000 4.1 280 04:26 13.02.2020
3018 Snow 1 1018 93 10000 2.6 260 03:52 13.02.2020
3019 Clouds 1 1018 93 10000 1.5 290 03:24 13.02.2020
3020 Clouds 1 1017 93 10000 2.1 240 02:50 13.02.2020
3021 Clouds 1 1018 93 10000 1.5 250 02:19 13.02.2020
3022 Rain 1 1018 93 10000 0.5 0 01:35 13.02.2020
3023 Rain 1 1019 100 10000 0.5 0 00:39 13.02.2020
3024 Rain 1 1019 100 10000 0.5 0 00:21 13.02.2020
3025 Clouds 1 1019 92 10000 1.5 310 23:40 12.02.2020
3026 Clouds 1 1018 86 10000 4.1 210 23:40 12.02.2020
3027 Clouds 1 1019 97 10000 1.5 310 23:21 12.02.2020
3028 Clouds 1 1019 93 10000 2.6 290 22:45 12.02.2020
3029 Rain 1 1018 93 10000 1.5 330 22:26 12.02.2020
3030 Clouds 1 1017 86 10000 3.1 180 21:58 12.02.2020
3031 Rain 1 1019 97 10000 1.5 300 21:40 12.02.2020
3032 Rain 1 1019 97 10000 1.5 300 21:19 12.02.2020
3033 Clouds 1 1017 86 10000 1 120 20:57 12.02.2020
3034 Rain 1 1018 97 10000 3.1 230 20:39 12.02.2020
3035 Rain 1 1018 97 10000 3.1 230 20:19 12.02.2020
3036 Clouds 1 1017 97 10000 2.1 230 19:55 12.02.2020
3037 Clouds 1 1017 97 10000 1 0 19:36 12.02.2020
3038 Clouds 1 1017 97 10000 1 0 19:36 12.02.2020
3039 Clouds 1 1017 97 10000 1 0 19:18 12.02.2020
3040 Clouds 1 1017 86 10000 1.5 160 18:45 12.02.2020
3041 Clouds 2 1018 98 10000 0.5 0 18:18 12.02.2020
3042 Clouds 2 1017 80 10000 1.5 150 17:43 12.02.2020
3043 Rain 2 1018 98 10000 1.5 280 17:21 12.02.2020
3044 Rain 2 1017 80 10000 1.5 200 16:59 12.02.2020
3045 Rain 3 1018 98 10000 3.6 260 16:39 12.02.2020
3046 Rain 3 1018 98 10000 3.6 260 16:39 12.02.2020
3047 Rain 3 1018 98 10000 3.6 260 16:19 12.02.2020
3048 Rain 3 1017 98 10000 2.6 240 15:41 12.02.2020
3049 Rain 3 1017 69 10000 2.1 270 15:23 12.02.2020
3050 Rain 3 1016 98 10000 2.1 210 14:57 12.02.2020
3051 Rain 3 1016 94 10000 2.1 250 14:39 12.02.2020
3052 Rain 3 1016 98 10000 2.1 250 14:39 12.02.2020
3053 Rain 3 1016 72 10000 2.1 250 14:19 12.02.2020
3054 Rain 3 1017 80 10000 3.6 200 13:56 12.02.2020
3055 Rain 3 1017 80 10000 3.6 200 13:56 12.02.2020
3056 Rain 3 1017 72 10000 3.6 230 13:37 12.02.2020
3057 Rain 3 1017 80 10000 3.6 230 13:19 12.02.2020
3058 Rain 3 1016 80 6000 3.1 210 12:56 12.02.2020
3059 Rain 3 1017 80 10000 2.1 190 12:37 12.02.2020
3060 Rain 3 1017 80 10000 2.1 190 12:18 12.02.2020
3061 Rain 3 1016 93 10000 2.1 170 11:55 12.02.2020
3062 Rain 3 1017 80 10000 1 0 11:37 12.02.2020
3063 Rain 3 1017 78 10000 1 0 11:19 12.02.2020
3064 Rain 3 1016 78 6000 2.1 210 10:54 12.02.2020
3065 Rain 2 1017 86 10000 2.1 210 10:36 12.02.2020
3066 Rain 2 1017 86 10000 2.1 210 10:18 12.02.2020
3067 Rain 2 1017 86 10000 2.1 210 10:18 12.02.2020
3068 Rain 2 1016 93 6000 2.1 180 09:40 12.02.2020
3069 Rain 2 1016 93 6000 2.1 180 09:20 12.02.2020
3070 Rain 1 1016 78 1200 1.12 160 08:57 12.02.2020
3071 Rain 1 1016 93 6000 1.12 160 08:37 12.02.2020
3072 Rain 1 1016 93 6000 0.64 39 08:19 12.02.2020
3073 Rain 1 1016 93 6000 2.32 10 08:19 12.02.2020
3074 Snow 1 1015 97 1500 0.5 0 07:43 12.02.2020
3075 Snow 1 1015 97 1500 0.5 0 07:43 12.02.2020
3076 Rain 1 1015 93 7000 1 0 07:23 12.02.2020
3077 Snow 1 1014 86 2500 2.6 120 06:52 12.02.2020
3078 Rain 1 1014 93 10000 1 0 06:20 12.02.2020
3079 Rain 2 1012 97 10000 1 20 05:36 12.02.2020
3080 Clouds 2 1011 98 10000 2.1 10 04:56 12.02.2020
3081 Clouds 2 1011 74 10000 3.1 150 04:38 12.02.2020
3082 Clouds 2 1011 98 10000 4.17 274 03:31 12.02.2020
3083 Clouds 1 1011 80 8000 4.1 170 02:58 12.02.2020
3084 Clouds 1 1011 80 8000 5.1 190 02:28 12.02.2020
3085 Rain 1 1011 80 10000 4.6 190 01:49 12.02.2020
3086 Clouds 0 1012 86 10000 3.6 180 00:45 12.02.2020
3087 Clouds 0 1013 92 10000 2.1 230 00:25 12.02.2020
3088 Clouds 0 1012 74 10000 2.1 0 23:55 11.02.2020
3089 Clouds 0 1012 74 10000 2.1 0 23:55 11.02.2020
3090 Clouds 0 1013 89 10000 1.5 230 23:37 11.02.2020
3091 Clouds 0 1013 91 10000 1.5 230 23:18 11.02.2020
3092 Rain 1 1012 80 10000 1.5 160 22:42 11.02.2020
3093 Clouds 0 1013 91 10000 2.55 218 22:21 11.02.2020
3094 Clouds 0 1013 80 10000 3.1 180 21:58 11.02.2020
3095 Clouds 0 1014 91 10000 1 240 21:39 11.02.2020
3096 Clouds 0 1014 91 10000 1 240 21:19 11.02.2020
3097 Clouds 0 1013 91 10000 1 0 20:59 11.02.2020
3098 Clouds 0 1014 91 10000 0.5 0 20:39 11.02.2020
3099 Clouds 0 1014 97 10000 0.5 0 20:20 11.02.2020
3100 Clouds 0 1013 99 10000 1 0 19:59 11.02.2020
3101 Clouds 0 1014 99 10000 0.5 0 19:41 11.02.2020
3102 Clouds 0 1014 99 10000 0.5 0 19:23 11.02.2020
3103 Clouds 0 1013 86 10000 1.5 280 18:55 11.02.2020
3104 Clouds 0 1014 99 10000 1.36 238 18:37 11.02.2020
3105 Clouds 0 1014 99 10000 1.36 238 18:18 11.02.2020
3106 Clouds 0 1013 86 10000 1 0 17:40 11.02.2020
3107 Clouds 0 1013 99 10000 0.5 0 17:21 11.02.2020
3108 Clouds 0 1013 99 10000 0.5 0 17:21 11.02.2020
3109 Clouds 0 1013 86 10000 1 190 16:59 11.02.2020
3110 Clouds 0 1014 99 10000 1 0 16:40 11.02.2020
3111 Clouds 0 1014 99 10000 1 0 16:22 11.02.2020
3112 Clouds -1 1013 80 10000 2.1 180 15:59 11.02.2020
3113 Clouds -1 1013 80 10000 2.1 180 15:41 11.02.2020
3114 Clouds -1 1014 80 10000 0.5 0 15:21 11.02.2020
3115 Clouds -1 1014 80 10000 1.92 247 14:43 11.02.2020
3116 Clouds -1 1014 80 10000 4.41 245 14:19 11.02.2020
3117 Clouds -1 1013 79 10000 2.1 170 13:58 11.02.2020
3118 Clouds -1 1013 79 10000 2.1 170 13:39 11.02.2020
3119 Clouds -1 1014 80 7000 1 0 13:20 11.02.2020
3120 Clouds -1 1014 80 7000 1 0 13:20 11.02.2020
3121 Clouds -2 1014 80 7000 1 20 12:55 11.02.2020
3122 Clouds -2 1015 86 10000 2.1 300 12:36 11.02.2020
3123 Clouds -2 1015 86 10000 2.1 300 12:18 11.02.2020
3124 Snow -2 1013 86 6000 2.6 210 11:41 11.02.2020
3125 Snow -2 1015 79 6000 0.5 0 11:20 11.02.2020
3126 Snow -3 1015 79 6000 1 0 10:55 11.02.2020
3127 Snow -3 1016 86 2500 0.5 0 10:36 11.02.2020
3128 Snow -3 1016 86 2500 0.5 0 10:18 11.02.2020
3129 Snow -3 1016 86 2500 0.5 0 10:18 11.02.2020
3130 Snow -4 1016 85 1600 3.83 219 09:44 11.02.2020
3131 Snow -4 1016 68 4000 0.5 0 09:22 11.02.2020
3132 Snow -4 1015 85 1200 0.5 0 08:57 11.02.2020
3133 Clouds -4 1016 63 10000 1 0 08:39 11.02.2020
3134 Clouds -4 1016 63 10000 1 0 08:20 11.02.2020
3135 Snow -4 1017 68 10000 1 0 07:45 11.02.2020
3136 Clouds -4 1016 73 10000 0.5 0 07:24 11.02.2020
3137 Clouds -5 1015 79 10000 1 0 06:43 11.02.2020
3138 Clouds -5 1016 79 10000 1 0 06:21 11.02.2020
3139 Clouds -5 1015 79 10000 0.84 142 05:47 11.02.2020
3140 Clouds -5 1017 73 10000 1 0 05:22 11.02.2020
3141 Clouds -5 1016 73 10000 0.5 180 04:37 11.02.2020
3142 Clouds -5 1016 73 10000 2.1 160 02:44 11.02.2020
3143 Clouds -5 1018 68 10000 2.6 180 02:23 11.02.2020
3144 Clouds -5 1018 73 10000 1 0 01:35 11.02.2020
3145 Clouds -5 1020 68 10000 2.1 180 00:40 11.02.2020
3146 Clouds -5 1019 73 10000 2.6 150 23:57 10.02.2020
3147 Clouds -5 1020 73 10000 3.6 180 23:38 10.02.2020
3148 Clouds -5 1019 73 10000 3.1 160 22:58 10.02.2020
3149 Clouds -5 1019 73 10000 3.1 160 22:40 10.02.2020
3150 Clear -5 1021 73 10000 3.6 180 22:20 10.02.2020
3151 Clouds -5 1020 79 10000 2.6 150 21:45 10.02.2020
3152 Clear -4 1021 68 10000 4.1 170 21:25 10.02.2020
3153 Clouds -4 1020 73 10000 2.6 160 20:58 10.02.2020
3154 Clouds -4 1020 73 10000 2.6 160 20:58 10.02.2020
3155 Clouds -4 1020 73 10000 2.6 160 20:39 10.02.2020
3156 Clear -4 1022 58 10000 2.6 210 20:20 10.02.2020
3157 Clouds -3 1021 73 10000 1 170 19:58 10.02.2020
3158 Clear -3 1022 68 10000 1 0 19:38 10.02.2020
3159 Clear -3 1022 68 10000 1 0 19:19 10.02.2020
3160 Clouds -4 1021 73 10000 2.1 170 18:59 10.02.2020
3161 Clouds -4 1021 73 10000 2.1 170 18:40 10.02.2020
3162 Clouds -3 1021 68 10000 3.6 140 18:21 10.02.2020
3163 Clouds -3 1022 68 10000 3.1 150 17:57 10.02.2020
3164 Clouds -3 1021 68 10000 3.1 150 17:37 10.02.2020
3165 Clouds -3 1021 68 10000 3.1 150 17:37 10.02.2020
3166 Clouds -2 1021 68 10000 3.1 150 17:19 10.02.2020
3167 Clouds -1 1021 58 10000 2.1 160 16:58 10.02.2020
3168 Clouds -1 1021 58 10000 2.1 160 16:39 10.02.2020
3169 Clouds -1 1021 58 10000 2.1 160 16:39 10.02.2020
3170 Clouds -1 1022 62 10000 2.6 210 16:19 10.02.2020
3171 Clouds 0 1022 50 10000 2.1 230 15:56 10.02.2020
3172 Clouds 0 1023 47 10000 2.6 210 15:38 10.02.2020
3173 Clouds 0 1023 47 10000 2.6 210 15:20 10.02.2020
3174 Clouds 0 1022 50 10000 2.6 240 14:55 10.02.2020
3175 Clouds 0 1023 43 10000 2.6 230 14:36 10.02.2020
3176 Clouds 1 1023 43 10000 2.6 230 14:18 10.02.2020
3177 Clouds 1 1023 43 10000 2.6 230 14:18 10.02.2020
3178 Clouds 0 1022 50 10000 3.6 240 13:42 10.02.2020
3179 Clouds 0 1023 56 10000 1.5 0 13:23 10.02.2020
3180 Clouds -1 1023 50 10000 2.6 210 12:48 10.02.2020
3181 Clouds -1 1024 58 10000 1.5 0 12:26 10.02.2020
3182 Clouds -1 1023 54 10000 2.1 230 11:56 10.02.2020
3183 Clouds -1 1025 58 10000 2.1 210 11:38 10.02.2020
3184 Clouds -1 1025 58 10000 2.1 210 11:38 10.02.2020
3185 Clouds -1 1025 58 10000 2.1 210 11:19 10.02.2020
3186 Clouds -2 1024 54 10000 1 0 10:46 10.02.2020
3187 Clouds -2 1026 58 10000 1.5 220 10:27 10.02.2020
3188 Clouds -2 1025 63 10000 2.6 270 09:47 10.02.2020
3189 Clouds -2 1025 63 10000 2.6 270 09:47 10.02.2020
3190 Clouds -3 1026 68 10000 3.1 260 09:26 10.02.2020
3191 Clouds -3 1026 68 10000 3.1 260 09:26 10.02.2020
3192 Clouds -3 1026 68 10000 3.1 260 09:26 10.02.2020
3193 Clouds -3 1025 68 10000 1.5 250 08:57 10.02.2020
3194 Clouds -3 1026 68 10000 2.6 0 08:37 10.02.2020
3195 Clouds -3 1026 68 10000 2.6 0 08:18 10.02.2020
3196 Clouds -5 1025 73 10000 2.1 230 07:49 10.02.2020
3197 Clouds -5 1026 73 10000 3.1 230 07:27 10.02.2020
3198 Clouds -5 1025 73 10000 3.1 250 06:20 10.02.2020
3199 Clouds -5 1025 73 10000 3.1 240 04:28 10.02.2020
3200 Clouds -5 1025 73 10000 2.6 250 03:34 10.02.2020
3201 Clouds -5 1024 79 10000 2.6 240 02:54 10.02.2020
3202 Clouds -5 1024 79 10000 3.6 210 01:55 10.02.2020
3203 Clouds -5 1024 73 10000 4.1 250 00:49 10.02.2020
3204 Clouds -5 1026 73 10000 2.1 240 00:31 10.02.2020
3205 Clouds -5 1026 73 10000 2.1 240 00:31 10.02.2020
3206 Clouds -5 1026 79 10000 3.6 240 23:56 09.02.2020
3207 Snow -5 1026 73 10000 3.6 240 23:38 09.02.2020
3208 Snow -4 1026 73 10000 3.6 240 23:19 09.02.2020
3209 Snow -5 1025 73 10000 5.1 250 22:39 09.02.2020
3210 Snow -4 1025 79 10000 5.1 250 22:21 09.02.2020
3211 Clouds -5 1027 73 10000 4.6 270 21:43 09.02.2020
3212 Clouds -5 1027 73 10000 3.6 260 21:24 09.02.2020
3213 Clouds -4 1025 67 10000 4.6 280 20:48 09.02.2020
3214 Clouds -4 1027 73 10000 3.6 250 20:28 09.02.2020
3215 Clouds -4 1025 73 10000 4.6 260 19:58 09.02.2020
3216 Clouds -4 1025 73 10000 4.6 260 19:39 09.02.2020
3217 Clouds -4 1025 73 10000 4.6 260 19:39 09.02.2020
3218 Clouds -4 1027 68 10000 3.6 240 19:21 09.02.2020
3219 Snow -4 1026 73 10000 3.1 280 18:56 09.02.2020
3220 Clouds -4 1026 63 10000 3.1 240 18:36 09.02.2020
3221 Clouds -4 1026 63 10000 3.1 240 18:18 09.02.2020
3222 Snow -4 1025 79 6000 4.6 280 17:42 09.02.2020
3223 Clouds -4 1026 73 10000 3.1 230 17:22 09.02.2020
3224 Clouds -4 1027 73 10000 5.7 270 16:44 09.02.2020
3225 Clouds -4 1026 73 10000 3.6 260 16:25 09.02.2020
3226 Clouds -4 1026 73 10000 3.6 260 16:25 09.02.2020
3227 Clouds -3 1027 73 10000 5.1 270 15:59 09.02.2020
3228 Clouds -3 1027 73 10000 5.1 270 15:41 09.02.2020
3229 Snow -3 1026 79 10000 3.6 240 15:22 09.02.2020
3230 Clouds -3 1024 85 10000 4.6 270 14:57 09.02.2020
3231 Snow -4 1024 92 6000 4.1 260 14:39 09.02.2020
3232 Snow -3 1024 92 6000 4.1 260 14:20 09.02.2020
3233 Snow -4 1024 85 8000 4.1 230 13:44 09.02.2020
3234 Snow -4 1024 79 10000 5.1 250 13:26 09.02.2020
3235 Snow -4 1024 73 10000 5.7 250 12:56 09.02.2020
3236 Snow -4 1024 68 10000 5.1 250 12:38 09.02.2020
3237 Snow -4 1024 68 10000 5.1 250 12:18 09.02.2020
3238 Clouds -4 1025 62 10000 5.7 250 11:41 09.02.2020
3239 Clouds -4 1025 62 10000 5.7 260 11:22 09.02.2020
3240 Clouds -5 1025 67 10000 5.7 260 10:59 09.02.2020
3241 Clouds -5 1025 62 10000 5.1 250 10:40 09.02.2020
3242 Clouds -5 1025 62 10000 5.1 250 10:21 09.02.2020
3243 Clouds -5 1025 62 10000 5.1 250 10:21 09.02.2020
3244 Clouds -5 1025 62 10000 4.6 250 09:45 09.02.2020
3245 Clouds -6 1025 67 10000 3.1 240 09:25 09.02.2020
3246 Clouds -6 1025 67 10000 4.6 270 08:45 09.02.2020
3247 Clouds -6 1025 67 10000 4.6 270 08:45 09.02.2020
3248 Clouds -6 1025 67 10000 4.6 260 08:27 09.02.2020
3249 Clouds -7 1025 73 10000 3.1 240 07:58 09.02.2020
3250 Clouds -7 1025 73 10000 3.1 240 07:39 09.02.2020
3251 Snow -7 1026 79 10000 3.6 260 06:47 09.02.2020
3252 Clouds -7 1025 79 10000 1.5 220 06:26 09.02.2020
3253 Clouds -7 1025 79 10000 2.1 260 05:38 09.02.2020
3254 Clouds -7 1025 79 10000 2.1 260 05:18 09.02.2020
3255 Clouds -8 1023 72 10000 2.6 260 03:52 09.02.2020
3256 Clouds -8 1023 72 10000 3.1 270 02:44 09.02.2020
3257 Clouds -8 1024 79 10000 3.1 260 02:25 09.02.2020
3258 Clouds -8 1024 78 10000 3.1 250 01:35 09.02.2020
3259 Clouds -8 1024 85 10000 2.6 250 00:42 09.02.2020
3260 Clouds -8 1024 85 10000 2.6 250 00:23 09.02.2020
3261 Clouds -7 1022 67 10000 3.1 280 23:42 08.02.2020
3262 Clouds -7 1024 79 10000 3.1 230 23:20 08.02.2020
3263 Clouds -7 1024 73 10000 3.1 230 22:42 08.02.2020
3264 Snow -7 1024 73 10000 4.1 250 22:22 08.02.2020
3265 Clouds -6 1024 67 10000 3.6 270 21:58 08.02.2020
3266 Snow -6 1024 67 10000 3.6 270 21:40 08.02.2020
3267 Snow -6 1024 67 10000 3.6 270 21:20 08.02.2020
3268 Snow -6 1023 73 10000 2.1 250 20:56 08.02.2020
3269 Snow -6 1023 73 10000 2.1 250 20:56 08.02.2020
3270 Clouds -7 1023 62 10000 2.1 260 20:38 08.02.2020
3271 Clouds -7 1023 62 10000 2.1 260 20:19 08.02.2020
3272 Clouds -6 1021 62 10000 1.5 250 19:54 08.02.2020
3273 Clouds -6 1023 53 10000 1.5 180 19:36 08.02.2020
3274 Clouds -6 1023 53 10000 1.5 180 19:18 08.02.2020
3275 Clouds -6 1021 57 10000 4.6 300 18:42 08.02.2020
3276 Clouds -6 1021 57 10000 4.6 300 18:42 08.02.2020
3277 Clouds -6 1022 57 10000 1.5 0 18:23 08.02.2020
3278 Clouds -5 1020 62 10000 5.1 310 17:43 08.02.2020
3279 Clouds -5 1021 57 10000 2.6 350 17:21 08.02.2020
3280 Clouds -5 1021 53 10000 4.1 310 16:58 08.02.2020
3281 Clouds -5 1020 67 10000 3.6 10 16:39 08.02.2020
3282 Clouds -5 1020 67 10000 3.6 10 16:20 08.02.2020
3283 Snow -4 1021 62 8000 8.7 310 15:42 08.02.2020
3284 Clouds -4 1019 42 10000 4.6 20 15:19 08.02.2020
3285 Clouds -4 1018 79 10000 5.1 310 14:59 08.02.2020
3286 Snow -4 1017 67 2000 7.2 350 14:39 08.02.2020
3287 Snow -4 1017 67 2000 7.2 350 14:19 08.02.2020
3288 Clouds -3 1017 79 10000 5.1 320 13:43 08.02.2020
3289 Snow -3 1017 73 2500 9.8 330 13:23 08.02.2020
3290 Clouds -2 1016 49 10000 8.2 310 12:57 08.02.2020
3291 Clouds -2 1017 42 10000 3.6 240 12:37 08.02.2020
3292 Clouds -2 1017 42 10000 3.6 240 12:37 08.02.2020
3293 Clouds -2 1017 42 10000 3.6 240 12:19 08.02.2020
3294 Clouds -2 1017 50 10000 3.1 120 11:41 08.02.2020
3295 Clouds -3 1017 50 10000 3.1 120 11:21 08.02.2020
3296 Snow -3 1016 58 10000 9.3 320 10:43 08.02.2020
3297 Clouds -3 1017 45 10000 3.6 0 10:25 08.02.2020
3298 Clouds -4 1015 53 10000 8.2 310 09:55 08.02.2020
3299 Clouds -4 1016 58 10000 3.1 20 09:36 08.02.2020
3300 Clouds -4 1016 58 10000 3.1 20 09:18 08.02.2020
3301 Clouds -4 1016 62 10000 6.2 360 08:40 08.02.2020
3302 Clouds -4 1016 62 10000 6.2 360 08:22 08.02.2020
3303 Clouds -4 1014 62 10000 7.2 300 07:50 08.02.2020
3304 Clouds -4 1015 62 10000 2.1 0 07:32 08.02.2020
3305 Clouds -5 1013 73 10000 1 0 06:41 08.02.2020
3306 Clouds -5 1014 62 10000 1 0 06:18 08.02.2020
3307 Clouds -5 1013 58 10000 1 0 05:33 08.02.2020
3308 Clouds -5 1012 73 10000 1.5 290 04:53 08.02.2020
3309 Clouds -4 1013 63 10000 1.5 0 04:18 08.02.2020
3310 Clouds -4 1012 67 10000 2.6 240 03:20 08.02.2020
3311 Clouds -4 1012 58 10000 1 0 02:28 08.02.2020
3312 Clouds -3 1012 54 10000 1.5 0 01:29 08.02.2020
3313 Clouds -3 1011 62 10000 5.1 300 00:46 08.02.2020
3314 Clouds -3 1012 58 10000 2.1 0 00:25 08.02.2020
3315 Clouds -2 1010 58 10000 4.1 290 23:57 07.02.2020
3316 Clouds -2 1011 54 10000 1 0 23:38 07.02.2020
3317 Clouds -2 1011 54 10000 1 0 23:19 07.02.2020
3318 Clouds -2 1010 63 10000 2.6 280 22:41 07.02.2020
3319 Clouds -2 1011 54 10000 3.6 360 22:19 07.02.2020
3320 Clouds -2 1011 54 10000 3.6 360 22:19 07.02.2020
3321 Clouds -2 1009 68 10000 4.6 300 21:57 07.02.2020
3322 Clouds -2 1010 63 10000 2.6 230 21:39 07.02.2020
3323 Clouds -2 1010 63 10000 2.6 230 21:19 07.02.2020
3324 Clouds -2 1010 63 10000 2.1 260 20:39 07.02.2020
3325 Clouds -2 1010 63 10000 2.1 260 20:19 07.02.2020
3326 Clouds -2 1008 63 10000 4.6 300 19:54 07.02.2020
3327 Clouds -2 1010 63 10000 1 0 19:36 07.02.2020
3328 Clouds -2 1010 63 10000 1 0 19:18 07.02.2020
3329 Clouds -2 1008 58 10000 4.1 280 18:43 07.02.2020
3330 Clouds -2 1009 63 10000 1 0 18:24 07.02.2020
3331 Clouds -1 1008 63 10000 6.2 300 17:44 07.02.2020
3332 Clouds -1 1009 65 10000 2.6 40 17:22 07.02.2020
3333 Clouds 0 1008 63 10000 7.7 300 16:59 07.02.2020
3334 Clouds 0 1008 59 10000 5.1 360 16:41 07.02.2020
3335 Clouds 0 1008 59 10000 5.1 360 16:22 07.02.2020
3336 Clouds 1 1008 65 10000 5.7 300 15:53 07.02.2020
3337 Clouds 1 1008 55 10000 5.1 360 15:28 07.02.2020
3338 Clouds 1 1008 59 10000 6.7 350 14:55 07.02.2020
3339 Clouds 1 1008 59 10000 4.1 0 14:37 07.02.2020
3340 Clouds 2 1008 59 10000 4.1 0 14:19 07.02.2020
3341 Clouds 2 1007 59 10000 6.2 10 13:56 07.02.2020
3342 Clouds 3 1008 51 10000 4.6 350 13:37 07.02.2020
3343 Clouds 2 1008 51 10000 4.6 350 13:18 07.02.2020
3344 Clouds 3 1008 59 10000 4.6 360 12:41 07.02.2020
3345 Clouds 3 1008 51 10000 4.6 360 12:22 07.02.2020
3346 Snow 3 1008 55 10000 3.6 350 11:45 07.02.2020
3347 Clouds 3 1009 51 10000 4.6 10 11:22 07.02.2020
3348 Clouds 3 1009 59 10000 3.1 340 10:57 07.02.2020
3349 Clouds 2 1010 55 10000 3.6 10 10:38 07.02.2020
3350 Clouds 2 1010 55 10000 3.6 10 10:19 07.02.2020
3351 Clouds 2 1010 59 10000 4.1 20 09:40 07.02.2020
3352 Clouds 2 1010 59 10000 4.1 20 09:22 07.02.2020
3353 Clouds 2 1009 80 10000 2.1 10 08:44 07.02.2020
3354 Clouds 2 1010 59 10000 4.1 30 08:21 07.02.2020
3355 Clouds 2 1010 59 10000 4.1 30 08:21 07.02.2020
3356 Clouds 1 1009 94 10000 1 20 07:53 07.02.2020
3357 Clouds 1 1010 74 10000 1 0 07:32 07.02.2020
3358 Clouds 1 1009 94 10000 0.89 289 06:57 07.02.2020
3359 Clouds 1 1009 80 10000 1.5 0 06:38 07.02.2020
3360 Clouds 1 1009 80 10000 1.5 0 06:18 07.02.2020
3361 Clouds 1 1009 86 10000 2.1 220 05:37 07.02.2020
3362 Clouds 1 1008 95 10000 1.08 265 03:43 07.02.2020
3363 Clouds 1 1010 97 10000 2.6 280 01:57 07.02.2020
3364 Rain 1 1010 99 10000 2.6 270 00:59 07.02.2020
3365 Clouds 1 1009 99 10000 1.5 230 00:27 07.02.2020
3366 Clouds 1 1009 93 10000 1.5 220 23:38 06.02.2020
3367 Clouds 1 1009 93 10000 1.5 220 23:19 06.02.2020
3368 Clouds 1 1009 80 10000 3.1 50 22:47 06.02.2020
3369 Clouds 1 1009 98 10000 2.1 0 22:27 06.02.2020
3370 Clouds 1 1009 98 10000 3.1 220 21:58 06.02.2020
3371 Rain 1 1008 98 2400 3.1 290 21:36 06.02.2020
3372 Rain 1 1008 98 2400 3.1 290 21:18 06.02.2020
3373 Rain 2 1007 98 7000 1 0 20:55 06.02.2020
3374 Rain 2 1008 86 10000 1 230 20:36 06.02.2020
3375 Rain 2 1008 86 10000 1 230 20:18 06.02.2020
3376 Rain 2 1007 91 8000 1.5 220 19:56 06.02.2020
3377 Rain 2 1007 93 10000 1 320 19:37 06.02.2020
3378 Rain 2 1007 93 10000 1 320 19:19 06.02.2020
3379 Rain 2 1007 86 10000 0.5 0 18:42 06.02.2020
3380 Rain 2 1007 86 10000 0.5 0 18:24 06.02.2020
3381 Rain 2 1006 91 10000 3.1 140 17:57 06.02.2020
3382 Rain 2 1006 91 10000 3.1 140 17:57 06.02.2020
3383 Rain 2 1006 86 10000 1.5 90 17:39 06.02.2020
3384 Rain 2 1006 86 10000 1.5 90 17:20 06.02.2020
3385 Rain 2 1006 98 10000 4.1 210 16:42 06.02.2020
3386 Rain 2 1006 98 10000 4.6 190 16:24 06.02.2020
3387 Rain 2 1006 98 10000 1.5 200 15:44 06.02.2020
3388 Rain 2 1007 86 10000 4.1 240 15:23 06.02.2020
3389 Rain 3 1006 86 10000 2.6 260 14:58 06.02.2020
3390 Rain 3 1006 86 10000 2.6 260 14:58 06.02.2020
3391 Rain 3 1006 86 10000 7.2 230 14:40 06.02.2020
3392 Rain 3 1006 86 10000 7.2 230 14:22 06.02.2020
3393 Rain 4 1005 86 10000 2.1 60 13:43 06.02.2020
3394 Rain 4 1006 81 8000 0.5 0 13:25 06.02.2020
3395 Rain 4 1006 93 10000 1.5 280 12:45 06.02.2020
3396 Rain 5 1006 86 10000 3.1 260 12:20 06.02.2020
3397 Rain 5 1005 86 6000 1.5 30 11:58 06.02.2020
3398 Rain 5 1006 86 7000 3.1 310 11:40 06.02.2020
3399 Rain 5 1006 86 7000 3.1 310 11:21 06.02.2020
3400 Rain 4 1006 93 6000 1 0 10:57 06.02.2020
3401 Rain 4 1006 80 10000 1 0 10:39 06.02.2020
3402 Rain 4 1006 80 10000 1 0 10:21 06.02.2020
3403 Clouds 2 1005 100 6000 1 20 09:57 06.02.2020
3404 Rain 2 1006 86 10000 1.5 80 09:37 06.02.2020
3405 Rain 2 1006 86 10000 1.5 80 09:19 06.02.2020
3406 Rain 2 1006 93 10000 1 0 08:41 06.02.2020
3407 Rain 1 1005 99 7000 1.5 140 08:22 06.02.2020
3408 Snow 1 1005 100 3700 2.1 130 07:51 06.02.2020
3409 Snow 1 1004 100 8000 2.6 60 07:28 06.02.2020
3410 Rain 1 1005 100 6000 3.1 80 06:37 06.02.2020
3411 Rain 1 1005 100 6000 3.1 80 06:37 06.02.2020
3412 Rain 1 1005 100 6000 3.1 80 06:37 06.02.2020
3413 Rain 1 1005 100 6000 3.1 80 06:18 06.02.2020
3414 Clouds 2 1003 79 10000 2.6 280 04:54 06.02.2020
3415 Rain 5 1002 86 10000 5.1 260 03:21 06.02.2020
3416 Rain 5 1002 86 10000 5.1 260 03:21 06.02.2020
3417 Rain 5 1002 86 10000 5.1 260 03:21 06.02.2020
3418 Rain 9 1000 66 10000 10.8 180 02:44 06.02.2020
3419 Clouds 10 1001 66 10000 11.3 180 01:41 06.02.2020
3420 Clouds 9 1001 66 10000 10.8 180 00:59 06.02.2020
3421 Clouds 9 1000 66 10000 10.3 180 00:27 06.02.2020
3422 Clouds 9 1000 66 10000 11.8 190 23:48 05.02.2020
3423 Clouds 9 1000 61 10000 8.7 180 23:29 05.02.2020
3424 Clouds 9 999 61 10000 13.4 190 22:59 05.02.2020
3425 Clouds 9 1000 61 10000 7.2 160 22:40 05.02.2020
3426 Clouds 9 1000 61 10000 7.2 160 22:40 05.02.2020
3427 Clouds 9 1000 61 10000 7.2 160 22:22 05.02.2020
3428 Clouds 9 1000 57 10000 14.9 180 21:55 05.02.2020
3429 Clouds 9 1000 57 10000 14.9 180 21:55 05.02.2020
3430 Clouds 9 1001 57 10000 6.2 180 21:36 05.02.2020
3431 Clouds 9 1001 57 10000 6.2 180 21:36 05.02.2020
3432 Clouds 9 1001 57 10000 6.2 180 21:18 05.02.2020
3433 Clouds 9 1001 57 10000 6.2 180 21:18 05.02.2020
3434 Clouds 10 1001 66 10000 2.6 0 20:39 05.02.2020
3435 Clouds 10 1001 66 10000 2.6 0 20:39 05.02.2020
3436 Clouds 10 1001 66 10000 2.6 0 20:39 05.02.2020
3437 Clouds 10 1001 66 10000 2.6 0 20:20 05.02.2020
3438 Clouds 10 1000 61 10000 12.9 170 19:58 05.02.2020
3439 Clouds 10 1000 61 10000 12.9 170 19:38 05.02.2020
3440 Clouds 10 1001 62 10000 3.6 0 19:19 05.02.2020
3441 Clouds 10 1000 61 10000 13.4 170 18:55 05.02.2020
3442 Clouds 11 1001 58 10000 8.7 170 18:36 05.02.2020
3443 Clouds 11 1001 58 10000 8.7 170 18:18 05.02.2020
3444 Clouds 12 1000 54 10000 7.7 170 17:38 05.02.2020
3445 Clouds 12 1000 54 10000 7.7 170 17:18 05.02.2020
3446 Clouds 12 1000 62 10000 10.8 180 16:57 05.02.2020
3447 Clouds 12 1000 54 10000 7.7 170 16:38 05.02.2020
3448 Clouds 12 1000 54 10000 7.7 170 16:19 05.02.2020
3449 Clouds 13 1000 50 10000 10.8 180 15:42 05.02.2020
3450 Clouds 13 1000 50 10000 10.8 180 15:19 05.02.2020
3451 Clouds 13 1000 58 10000 8.2 170 14:56 05.02.2020
3452 Clouds 13 1000 50 10000 8.2 170 14:37 05.02.2020
3453 Clouds 13 1000 50 10000 8.2 170 14:19 05.02.2020
3454 Rain 13 1000 71 10000 6.2 160 13:42 05.02.2020
3455 Clouds 13 1001 54 10000 7.7 150 13:22 05.02.2020
3456 Clouds 12 1001 58 10000 8.2 170 12:44 05.02.2020
3457 Clouds 12 1001 58 10000 3.6 140 12:25 05.02.2020
3458 Clouds 12 1002 54 10000 7.2 180 11:59 05.02.2020
3459 Clouds 12 1002 54 10000 7.2 180 11:41 05.02.2020
3460 Clouds 12 1002 58 10000 9.3 170 11:22 05.02.2020
3461 Clouds 11 1003 62 10000 7.7 140 10:44 05.02.2020
3462 Clouds 11 1003 62 10000 7.7 140 10:26 05.02.2020
3463 Clouds 10 1003 61 10000 3.1 200 09:59 05.02.2020
3464 Clouds 10 1003 66 10000 5.7 0 09:38 05.02.2020
3465 Clouds 10 1003 66 10000 5.7 0 09:20 05.02.2020
3466 Clouds 9 1003 61 10000 5.7 190 08:46 05.02.2020
3467 Clouds 9 1003 66 10000 5.1 0 08:24 05.02.2020
3468 Clouds 8 1003 70 10000 5.7 210 07:55 05.02.2020
3469 Clouds 8 1003 66 10000 6.2 200 07:36 05.02.2020
3470 Clouds 8 1003 65 10000 4.1 220 06:54 05.02.2020
3471 Clouds 8 1003 66 10000 6.7 200 06:36 05.02.2020
3472 Clouds 8 1003 66 10000 6.7 200 06:18 05.02.2020
3473 Clouds 8 1003 66 10000 6.7 210 05:19 05.02.2020
3474 Clouds 7 1003 70 10000 4.6 170 04:54 05.02.2020
3475 Clouds 7 1003 70 10000 5.1 190 03:56 05.02.2020
3476 Clouds 7 1004 66 10000 2.1 360 02:28 05.02.2020
3477 Clouds 7 1004 70 10000 5.7 190 01:53 05.02.2020
3478 Clouds 6 1005 86 10000 2.1 210 00:53 05.02.2020
3479 Clouds 6 1006 86 10000 1.5 20 23:58 04.02.2020
3480 Clouds 6 1006 66 10000 2.6 200 23:39 04.02.2020
3481 Clouds 6 1006 66 10000 2.6 200 23:18 04.02.2020
3482 Clouds 7 1006 86 10000 1.5 350 22:56 04.02.2020
3483 Clouds 6 1006 70 10000 1 0 22:38 04.02.2020
3484 Clouds 6 1006 70 10000 1 0 22:19 04.02.2020
3485 Clouds 7 1007 86 10000 1.5 310 21:54 04.02.2020
3486 Clouds 7 1007 86 10000 1.5 310 21:54 04.02.2020
3487 Clouds 7 1007 76 10000 4.6 200 21:36 04.02.2020
3488 Clouds 7 1007 76 10000 4.6 200 21:18 04.02.2020
3489 Clouds 7 1008 81 10000 0.5 0 20:42 04.02.2020
3490 Clouds 7 1008 81 10000 0.5 0 20:21 04.02.2020
3491 Clouds 7 1008 87 10000 1.5 10 19:58 04.02.2020
3492 Clouds 7 1009 81 10000 1 0 19:40 04.02.2020
3493 Clouds 7 1009 81 10000 1 0 19:22 04.02.2020
3494 Clouds 7 1009 87 10000 1 0 18:56 04.02.2020
3495 Clouds 7 1009 81 10000 1.5 40 18:37 04.02.2020
3496 Clouds 7 1009 81 10000 1.5 40 18:18 04.02.2020
3497 Clouds 7 1010 87 10000 1 20 17:43 04.02.2020
3498 Clouds 7 1010 87 10000 1 20 17:21 04.02.2020
3499 Clouds 7 1010 87 10000 1 20 17:21 04.02.2020
3500 Clouds 8 1010 81 10000 0.5 0 16:56 04.02.2020
3501 Clouds 8 1010 81 10000 2.27 212 16:37 04.02.2020
3502 Clouds 8 1010 81 10000 2.27 212 16:19 04.02.2020
3503 Clouds 8 1010 70 10000 4.1 210 15:56 04.02.2020
3504 Rain 8 1010 81 10000 2.1 190 15:37 04.02.2020
3505 Rain 8 1010 81 10000 2.1 190 15:18 04.02.2020
3506 Clouds 8 1010 65 10000 5.7 230 14:42 04.02.2020
3507 Clouds 9 1011 70 10000 3.1 250 14:23 04.02.2020
3508 Clouds 9 1010 61 10000 6.2 230 13:57 04.02.2020
3509 Clouds 9 1011 70 10000 3.6 230 13:39 04.02.2020
3510 Clouds 9 1011 70 10000 3.6 230 13:19 04.02.2020
3511 Clouds 9 1011 70 10000 6.2 210 12:43 04.02.2020
3512 Clouds 9 1012 71 10000 4.1 240 12:25 04.02.2020
3513 Clouds 8 1013 81 10000 4.1 240 11:58 04.02.2020
3514 Clouds 8 1013 81 10000 4.1 240 11:39 04.02.2020
3515 Rain 8 1013 81 10000 4.1 240 11:20 04.02.2020
3516 Rain 8 1013 81 10000 4.6 260 10:50 04.02.2020
3517 Clouds 8 1013 81 10000 2.6 260 10:30 04.02.2020
3518 Clouds 7 1012 81 10000 1 0 09:58 04.02.2020
3519 Clouds 7 1014 87 10000 1.5 200 09:40 04.02.2020
3520 Clouds 6 1014 87 10000 1.5 200 09:21 04.02.2020
3521 Clouds 6 1013 80 10000 3.1 230 08:50 04.02.2020
3522 Rain 6 1013 87 10000 2.1 240 08:28 04.02.2020
3523 Rain 6 1013 81 10000 3.1 40 07:57 04.02.2020
3524 Rain 7 1013 87 10000 5.7 230 07:37 04.02.2020
3525 Rain 7 1013 87 10000 5.7 230 07:19 04.02.2020
3526 Rain 7 1012 87 10000 5.1 240 06:42 04.02.2020
3527 Rain 7 1011 81 10000 6.2 240 05:37 04.02.2020
3528 Rain 8 1010 81 10000 7.7 230 04:51 04.02.2020
3529 Clouds 7 1010 87 10000 9.3 220 03:49 04.02.2020
3530 Clouds 7 1011 81 10000 4.1 230 03:30 04.02.2020
3531 Clouds 7 1010 87 10000 9.3 230 02:49 04.02.2020
3532 Rain 7 1012 87 10000 5.7 230 02:28 04.02.2020
3533 Rain 7 1011 81 10000 7.7 230 01:47 04.02.2020
3534 Rain 7 1012 81 10000 6.2 230 01:21 04.02.2020
3535 Rain 7 1012 81 10000 5.1 230 00:25 04.02.2020
3536 Rain 7 1012 81 10000 5.1 230 00:25 04.02.2020
3537 Rain 8 1012 81 10000 5.7 210 23:56 03.02.2020
3538 Rain 8 1013 75 10000 6.2 240 23:38 03.02.2020
3539 Rain 8 1013 75 10000 6.2 240 23:18 03.02.2020
3540 Rain 8 1013 70 10000 6.2 230 22:39 03.02.2020
3541 Rain 8 1013 70 10000 6.2 230 22:20 03.02.2020
3542 Rain 9 1012 70 10000 6.2 220 21:42 03.02.2020
3543 Clouds 9 1013 66 10000 2.1 250 21:20 03.02.2020
3544 Clouds 9 1013 66 10000 2.1 250 21:20 03.02.2020
3545 Clouds 9 1012 65 10000 4.6 220 20:57 03.02.2020
3546 Clouds 9 1012 65 10000 4.6 220 20:57 03.02.2020
3547 Clouds 9 1013 61 10000 4.1 240 20:39 03.02.2020
3548 Clouds 9 1013 61 10000 4.1 240 20:18 03.02.2020
3549 Clouds 9 1012 61 10000 5.7 210 19:56 03.02.2020
3550 Clouds 9 1013 66 10000 3.6 240 19:37 03.02.2020
3551 Clouds 9 1013 66 10000 3.6 240 19:18 03.02.2020
3552 Clouds 10 1013 66 10000 4.6 210 18:41 03.02.2020
3553 Clouds 10 1013 61 10000 4.1 240 18:22 03.02.2020
3554 Clouds 10 1013 70 10000 3.6 240 17:58 03.02.2020
3555 Clouds 10 1013 70 10000 3.6 240 17:39 03.02.2020
3556 Clouds 10 1013 57 10000 4.6 240 17:19 03.02.2020
3557 Clouds 10 1013 66 10000 3.6 220 16:40 03.02.2020
3558 Clouds 11 1013 66 10000 2.6 220 16:22 03.02.2020
3559 Clouds 11 1013 61 10000 3.1 230 15:59 03.02.2020
3560 Clouds 11 1013 61 10000 3.1 230 15:39 03.02.2020
3561 Clouds 11 1014 54 10000 4.1 240 15:20 03.02.2020
3562 Clouds 11 1014 61 10000 4.6 250 14:58 03.02.2020
3563 Clouds 11 1014 61 10000 4.6 250 14:58 03.02.2020
3564 Clouds 11 1014 61 10000 4.6 250 14:58 03.02.2020
3565 Clouds 11 1014 54 10000 5.1 230 14:39 03.02.2020
3566 Clouds 11 1014 54 10000 5.1 230 14:21 03.02.2020
3567 Clouds 11 1014 57 10000 7.7 230 13:43 03.02.2020
3568 Clouds 11 1015 54 10000 5.7 240 13:21 03.02.2020
3569 Clouds 11 1015 61 10000 7.2 230 12:59 03.02.2020
3570 Clouds 11 1016 54 10000 6.7 220 12:40 03.02.2020
3571 Clouds 11 1016 54 10000 6.7 220 12:21 03.02.2020
3572 Clouds 9 1016 65 10000 5.7 230 11:56 03.02.2020
3573 Clouds 9 1017 61 10000 5.7 240 11:37 03.02.2020
3574 Clouds 9 1017 61 10000 5.7 240 11:18 03.02.2020
3575 Clouds 8 1018 66 10000 4.6 240 10:40 03.02.2020
3576 Clouds 8 1018 66 10000 4.6 240 10:22 03.02.2020
3577 Clouds 7 1018 70 10000 6.2 220 09:48 03.02.2020
3578 Clouds 7 1019 65 10000 0.5 0 09:24 03.02.2020
3579 Clouds 6 1018 70 10000 1.5 170 08:56 03.02.2020
3580 Clouds 6 1018 70 10000 1.5 170 08:56 03.02.2020
3581 Clouds 6 1019 81 10000 4.5 226 08:37 03.02.2020
3582 Clouds 5 1019 81 10000 1.5 174 08:19 03.02.2020
3583 Clouds 4 1018 75 10000 1.5 140 07:40 03.02.2020
3584 Mist 3 1019 100 3500 0.5 0 07:21 03.02.2020
3585 Clouds 3 1019 85 10000 2.1 180 06:51 03.02.2020
3586 Clouds 3 1019 93 10000 1.74 181 06:28 03.02.2020
3587 Clouds 2 1019 86 10000 0.5 220 05:37 03.02.2020
3588 Clouds 1 1019 86 10000 0.5 220 05:18 03.02.2020
3589 Clouds 2 1019 85 10000 2.1 40 03:51 03.02.2020
3590 Clouds 3 1019 80 10000 1.72 193 02:36 03.02.2020
3591 Clear 3 1020 86 10000 1.5 240 01:42 03.02.2020
3592 Clouds 2 1020 83 10000 1.5 0 00:47 03.02.2020
3593 Clear 2 1020 86 10000 0.5 0 00:25 03.02.2020
3594 Clear 3 1020 75 10000 1.14 189 23:39 02.02.2020
3595 Clear 3 1020 75 10000 1.14 169 23:21 02.02.2020
3596 Clear 3 1020 82 10000 2.6 220 22:58 02.02.2020
3597 Clear 3 1021 82 10000 0.5 0 22:38 02.02.2020
3598 Clear 3 1021 82 10000 0.5 0 22:38 02.02.2020
3599 Clear 3 1021 82 10000 0.5 0 22:19 02.02.2020
3600 Clouds 4 1020 82 10000 1 0 21:55 02.02.2020
3601 Clear 4 1021 75 10000 2.1 170 21:37 02.02.2020
3602 Clear 4 1021 75 10000 2.1 170 21:19 02.02.2020
3603 Clouds 6 1021 70 10000 1.5 260 20:55 02.02.2020
3604 Clear 6 1021 70 10000 1 0 20:37 02.02.2020
3605 Clouds 6 1021 70 10000 1 0 20:19 02.02.2020
3606 Clouds 7 1020 65 10000 1.11 155 19:55 02.02.2020
3607 Clouds 7 1020 65 10000 1.11 155 19:55 02.02.2020
3608 Clouds 7 1021 70 10000 4.1 220 19:36 02.02.2020
3609 Clouds 7 1021 70 10000 4.1 220 19:18 02.02.2020
3610 Clouds 7 1021 70 10000 4.1 220 19:18 02.02.2020
3611 Clouds 8 1020 61 10000 5.1 190 18:39 02.02.2020
3612 Clouds 8 1020 61 10000 5.1 190 18:21 02.02.2020
3613 Clouds 9 1020 65 10000 4.1 160 17:58 02.02.2020
3614 Clouds 9 1020 57 10000 2.1 230 17:38 02.02.2020
3615 Clouds 8 1020 57 10000 2.1 230 17:19 02.02.2020
3616 Clouds 10 1020 61 10000 1 140 16:58 02.02.2020
3617 Clouds 10 1020 61 10000 1 140 16:39 02.02.2020
3618 Clouds 10 1020 53 10000 3.1 180 16:19 02.02.2020
3619 Clouds 11 1020 53 10000 2.6 200 15:59 02.02.2020
3620 Clouds 11 1020 50 10000 3.6 0 15:39 02.02.2020
3621 Clouds 11 1020 50 10000 3.6 0 15:20 02.02.2020
3622 Clouds 11 1020 50 10000 3.6 0 15:20 02.02.2020
3623 Clouds 11 1020 53 10000 4.6 200 14:56 02.02.2020
3624 Clouds 11 1020 57 10000 1 0 14:38 02.02.2020
3625 Clouds 10 1020 57 10000 1 0 14:18 02.02.2020
3626 Clouds 10 1020 57 10000 3.1 230 13:54 02.02.2020
3627 Clouds 10 1020 61 10000 1 0 13:36 02.02.2020
3628 Clouds 10 1020 61 10000 1 0 13:18 02.02.2020
3629 Clouds 9 1020 61 10000 3.6 230 12:42 02.02.2020
3630 Clouds 10 1021 61 10000 1.5 0 12:22 02.02.2020
3631 Clouds 9 1021 65 10000 2.1 290 11:56 02.02.2020
3632 Clouds 8 1021 66 10000 1 0 11:37 02.02.2020
3633 Clouds 8 1021 66 10000 1 0 11:18 02.02.2020
3634 Clouds 8 1021 66 10000 1 0 11:18 02.02.2020
3635 Clouds 8 1021 65 10000 2.1 200 10:55 02.02.2020
3636 Clouds 8 1021 65 10000 2.1 200 10:55 02.02.2020
3637 Clouds 7 1022 70 10000 1 310 10:36 02.02.2020
3638 Clouds 7 1022 70 10000 1 310 10:18 02.02.2020
3639 Clouds 6 1022 75 10000 1.5 320 09:40 02.02.2020
3640 Clouds 6 1022 75 10000 1.5 320 09:21 02.02.2020
3641 Clouds 5 1021 80 10000 1 0 08:56 02.02.2020
3642 Clouds 5 1021 80 10000 1 0 08:38 02.02.2020
3643 Clouds 5 1022 86 10000 1.18 205 08:19 02.02.2020
3644 Clouds 4 1021 86 6000 0.5 0 07:44 02.02.2020
3645 Clouds 4 1021 86 6000 0.5 0 07:44 02.02.2020
3646 Clouds 3 1021 86 10000 0.5 0 07:25 02.02.2020
3647 Clouds 3 1021 86 10000 1.18 205 06:38 02.02.2020
3648 Clouds 3 1021 86 10000 1.18 205 06:19 02.02.2020
3649 Clouds 3 1020 86 10000 1 20 05:36 02.02.2020
3650 Clouds 3 1020 93 10000 1 240 04:30 02.02.2020
3651 Clouds 2 1020 96 10000 1 0 03:24 02.02.2020
3652 Clouds 3 1020 86 10000 1.13 210 02:22 02.02.2020
3653 Clouds 3 1019 86 10000 1 0 01:52 02.02.2020
3654 Clouds 3 1020 80 10000 1.23 240 01:19 02.02.2020
3655 Clouds 3 1020 86 10000 1.23 240 00:39 02.02.2020
3656 Clouds 3 1020 86 10000 1.23 240 00:18 02.02.2020
3657 Clouds 3 1020 94 10000 1 0 23:43 01.02.2020
3658 Clouds 3 1020 86 10000 1.12 262 23:21 01.02.2020
3659 Clouds 3 1019 86 10000 1 0 22:45 01.02.2020
3660 Clouds 3 1020 86 10000 1.12 262 22:19 01.02.2020
3661 Clouds 3 1020 86 10000 1.12 262 22:19 01.02.2020
3662 Clouds 2 1020 93 10000 1.5 10 21:44 01.02.2020
3663 Clouds 3 1020 86 10000 1.12 262 21:19 01.02.2020
3664 Clouds 3 1019 86 10000 2.6 170 20:57 01.02.2020
3665 Clouds 3 1020 86 10000 1.12 262 20:38 01.02.2020
3666 Clouds 3 1020 86 10000 1.61 247 20:19 01.02.2020
3667 Clouds 4 1019 91 10000 2.1 140 19:56 01.02.2020
3668 Clouds 4 1019 75 10000 2.1 220 19:37 01.02.2020
3669 Clouds 4 1019 75 10000 2.1 220 19:19 01.02.2020
3670 Clouds 5 1019 91 10000 2.1 110 18:55 01.02.2020
3671 Clouds 5 1019 75 10000 1 0 18:37 01.02.2020
3672 Clouds 5 1019 75 10000 1 0 18:19 01.02.2020
3673 Clouds 5 1019 91 10000 0.5 0 17:55 01.02.2020
3674 Clouds 5 1018 70 10000 1.5 250 17:36 01.02.2020
3675 Clouds 5 1018 70 10000 1.5 250 17:18 01.02.2020
3676 Clouds 6 1018 88 10000 3.18 276 16:41 01.02.2020
3677 Clouds 6 1018 70 10000 2.6 260 16:21 01.02.2020
3678 Clouds 6 1018 70 10000 2.6 260 16:21 01.02.2020
3679 Clouds 6 1018 88 10000 2.1 240 15:47 01.02.2020
3680 Clouds 6 1018 65 10000 3.1 260 15:29 01.02.2020
3681 Clouds 6 1017 88 10000 4.1 200 14:59 01.02.2020
3682 Clouds 6 1017 70 10000 3.1 230 14:40 01.02.2020
3683 Clouds 6 1017 70 10000 3.1 230 14:20 01.02.2020
3684 Rain 6 1016 70 10000 1 0 13:45 01.02.2020
3685 Rain 6 1016 70 10000 1 0 13:22 01.02.2020
3686 Rain 5 1016 72 10000 2.6 250 12:48 01.02.2020
3687 Rain 4 1017 75 10000 2.6 250 12:30 01.02.2020
3688 Rain 3 1016 80 10000 3.1 270 11:59 01.02.2020
3689 Clouds 3 1017 72 10000 3.1 270 11:39 01.02.2020
3690 Rain 3 1017 82 10000 3.1 270 11:20 01.02.2020
3691 Rain 3 1017 82 10000 3.1 270 11:20 01.02.2020
3692 Rain 2 1016 74 10000 2.6 250 10:57 01.02.2020
3693 Rain 2 1017 80 10000 2.6 230 10:38 01.02.2020
3694 Rain 2 1017 80 10000 2.6 230 10:20 01.02.2020
3695 Rain 2 1016 74 10000 3.1 200 09:58 01.02.2020
3696 Rain 2 1016 80 10000 4.6 250 09:39 01.02.2020
3697 Clouds 2 1016 80 10000 4.6 250 09:20 01.02.2020
3698 Clouds 1 1015 82 8000 4.1 210 08:45 01.02.2020
3699 Snow 0 1014 92 4800 4.1 220 07:49 01.02.2020
3700 Clouds 0 1015 74 10000 4.1 260 07:26 01.02.2020
3701 Clouds 0 1015 90 10000 3.1 240 06:56 01.02.2020
3702 Snow 0 1015 90 6000 2.1 250 06:32 01.02.2020
3703 Snow 0 1013 86 2100 3.6 200 05:52 01.02.2020
3704 Snow -1 1012 80 10000 2.6 190 03:53 01.02.2020
3705 Snow -1 1013 87 10000 4.26 232 03:21 01.02.2020
3706 Snow -1 1013 80 10000 1.5 230 02:45 01.02.2020
3707 Snow 0 1014 87 10000 4.26 232 02:26 01.02.2020
3708 Snow -1 1013 80 10000 2.1 210 01:52 01.02.2020
3709 Clouds -1 1014 83 10000 1.92 187 01:31 01.02.2020
3710 Clouds -1 1014 83 10000 1.92 187 00:30 01.02.2020
3711 Clouds -1 1014 74 10000 3.1 170 23:43 31.01.2020
3712 Clouds -1 1015 80 10000 2.09 215 23:20 31.01.2020
3713 Clouds -1 1014 74 10000 3.1 180 22:59 31.01.2020
3714 Clouds -1 1015 80 10000 2.09 215 22:40 31.01.2020
3715 Clouds -1 1015 80 10000 2.09 215 22:22 31.01.2020
3716 Clouds -1 1016 80 10000 2.09 215 21:56 31.01.2020
3717 Clouds -1 1016 80 10000 2.09 215 21:38 31.01.2020
3718 Clouds -1 1016 80 10000 2.09 215 21:19 31.01.2020
3719 Clouds -1 1015 68 10000 2.1 180 20:56 31.01.2020
3720 Clouds -1 1016 74 10000 0.5 0 20:37 31.01.2020
3721 Clouds -1 1016 74 10000 0.5 0 20:19 31.01.2020
3722 Clouds -1 1015 68 10000 2.1 200 19:56 31.01.2020
3723 Clouds -1 1016 78 10000 1 0 19:37 31.01.2020
3724 Clouds -1 1016 78 10000 1 0 19:18 31.01.2020
3725 Clouds 0 1016 78 10000 2.33 240 18:41 31.01.2020
3726 Clouds 0 1016 78 10000 2.33 240 18:23 31.01.2020
3727 Clouds 1 1015 74 10000 2.1 240 17:54 31.01.2020
3728 Clouds 1 1016 64 10000 3.1 230 17:36 31.01.2020
3729 Clouds 1 1016 64 10000 3.1 230 17:36 31.01.2020
3730 Clouds 1 1016 64 10000 3.1 230 17:18 31.01.2020
3731 Clouds 2 1015 55 10000 2.1 230 16:54 31.01.2020
3732 Clouds 2 1015 55 10000 2.1 230 16:54 31.01.2020
3733 Clouds 2 1016 55 10000 3.1 250 16:36 31.01.2020
3734 Clouds 2 1016 55 10000 3.1 250 16:18 31.01.2020
3735 Clouds 3 1016 47 10000 2.1 260 15:41 31.01.2020
3736 Clouds 3 1016 47 10000 2.1 260 15:20 31.01.2020
3737 Clouds 3 1015 44 10000 5.1 280 14:55 31.01.2020
3738 Clouds 3 1016 44 10000 2.1 0 14:36 31.01.2020
3739 Clouds 3 1016 44 10000 2.1 0 14:36 31.01.2020
3740 Clouds 3 1016 44 10000 2.1 0 14:18 31.01.2020
3741 Clouds 3 1015 44 10000 5.7 300 13:43 31.01.2020
3742 Clouds 3 1016 55 10000 3.6 250 13:24 31.01.2020
3743 Clouds 3 1015 43 10000 5.1 310 12:45 31.01.2020
3744 Clouds 3 1016 55 10000 4.6 250 12:24 31.01.2020
3745 Clouds 2 1015 47 10000 5.7 310 11:56 31.01.2020
3746 Clouds 2 1016 59 10000 3.6 260 11:38 31.01.2020
3747 Clouds 2 1016 59 10000 3.6 260 11:19 31.01.2020
3748 Clouds 2 1015 51 10000 5.7 300 10:55 31.01.2020
3749 Clouds 1 1017 64 10000 3.1 270 10:36 31.01.2020
3750 Clouds 1 1017 64 10000 3.1 270 10:18 31.01.2020
3751 Clouds 1 1016 69 10000 5.1 240 09:42 31.01.2020
3752 Clouds 1 1016 69 10000 4.1 260 09:21 31.01.2020
3753 Clouds 0 1015 67 10000 4.6 270 08:56 31.01.2020
3754 Clouds 0 1016 69 10000 4.1 260 08:38 31.01.2020
3755 Clouds 0 1016 69 10000 4.1 260 08:19 31.01.2020
3756 Clouds -1 1015 68 10000 5.1 290 07:46 31.01.2020
3757 Clouds -1 1016 80 10000 3.1 250 07:18 31.01.2020
3758 Clouds 0 1015 95 10000 2.1 230 06:31 31.01.2020
3759 Clouds 0 1013 63 10000 5.7 290 05:54 31.01.2020
3760 Clouds 0 1013 63 10000 5.7 290 05:54 31.01.2020
3761 Clouds 0 1014 89 10000 2.1 0 05:19 31.01.2020
3762 Clouds 0 1012 89 10000 5.7 290 03:52 31.01.2020
3763 Clouds 1 1011 84 10000 5.7 290 01:54 31.01.2020
3764 Clouds 1 1012 55 10000 2.6 0 01:29 31.01.2020
3765 Clouds 1 1011 59 10000 2.6 0 00:38 31.01.2020
3766 Clouds 1 1011 59 10000 2.6 0 00:20 31.01.2020
3767 Clouds 1 1011 64 10000 2.6 0 23:39 30.01.2020
3768 Clouds 1 1011 64 10000 2.6 0 23:20 30.01.2020
3769 Clouds 2 1011 64 10000 9.3 320 22:38 30.01.2020
3770 Clouds 2 1011 64 10000 9.3 320 22:19 30.01.2020
3771 Rain 2 1010 64 10000 3.1 290 21:58 30.01.2020
3772 Rain 2 1010 69 10000 2.1 0 21:39 30.01.2020
3773 Rain 2 1010 69 10000 2.1 0 21:18 30.01.2020
3774 Rain 2 1011 74 10000 5.7 310 20:55 30.01.2020
3775 Rain 2 1010 93 10000 2.1 60 20:37 30.01.2020
3776 Rain 2 1010 93 10000 2.1 60 20:18 30.01.2020
3777 Rain 2 1009 86 10000 3.1 250 19:42 30.01.2020
3778 Rain 2 1009 86 10000 3.1 250 19:19 30.01.2020
3779 Rain 2 1008 97 10000 2.1 10 18:43 30.01.2020
3780 Rain 2 1009 86 10000 3.6 0 18:24 30.01.2020
3781 Rain 3 1007 97 10000 5.1 260 17:59 30.01.2020
3782 Rain 3 1008 86 10000 5.1 230 17:40 30.01.2020
3783 Rain 3 1008 86 10000 5.1 230 17:19 30.01.2020
3784 Rain 4 1007 86 10000 4.1 220 16:58 30.01.2020
3785 Rain 5 1007 86 10000 4.1 230 16:39 30.01.2020
3786 Rain 5 1007 86 10000 4.1 230 16:20 30.01.2020
3787 Rain 5 1007 80 10000 2.1 200 15:44 30.01.2020
3788 Rain 5 1007 87 10000 3.1 250 15:21 30.01.2020
3789 Rain 5 1007 80 10000 5.1 230 14:54 30.01.2020
3790 Rain 6 1008 81 10000 4.6 230 14:36 30.01.2020
3791 Rain 6 1008 81 10000 4.6 230 14:18 30.01.2020
3792 Rain 6 1007 81 10000 5.7 230 13:41 30.01.2020
3793 Rain 6 1007 81 10000 5.7 230 13:22 30.01.2020
3794 Rain 6 1008 81 10000 5.1 230 12:54 30.01.2020
3795 Clouds 6 1008 81 10000 5.1 220 12:36 30.01.2020
3796 Clouds 6 1008 81 10000 5.1 220 12:18 30.01.2020
3797 Clouds 6 1008 81 10000 4.1 230 11:40 30.01.2020
3798 Clouds 6 1009 81 10000 4.6 230 11:22 30.01.2020
3799 Rain 6 1009 80 10000 4.6 250 10:58 30.01.2020
3800 Rain 6 1009 80 10000 3.6 260 10:38 30.01.2020
3801 Rain 6 1009 80 10000 3.6 260 10:19 30.01.2020
3802 Rain 6 1011 93 10000 6.2 270 09:44 30.01.2020
3803 Rain 7 1011 81 10000 4.1 210 09:24 30.01.2020
3804 Rain 6 1010 80 10000 3.1 160 08:42 30.01.2020
3805 Rain 5 1010 80 10000 3.1 160 08:22 30.01.2020
3806 Rain 5 1010 80 10000 3.6 180 07:56 30.01.2020
3807 Clouds 5 1010 81 10000 0.5 0 07:37 30.01.2020
3808 Rain 5 1010 80 10000 3.1 170 06:56 30.01.2020
3809 Clouds 5 1011 75 10000 1.5 50 06:33 30.01.2020
3810 Clouds 5 1011 93 10000 2.6 190 05:59 30.01.2020
3811 Rain 5 1011 75 10000 5.1 190 05:28 30.01.2020
3812 Rain 5 1011 86 10000 1 0 04:49 30.01.2020
3813 Rain 5 1012 86 10000 3.1 190 03:47 30.01.2020
3814 Rain 5 1013 75 10000 1 250 02:55 30.01.2020
3815 Rain 6 1013 79 10000 3.6 200 00:57 30.01.2020
3816 Clouds 6 1013 70 10000 4.1 0 00:27 30.01.2020
3817 Clouds 6 1013 79 10000 0.5 0 23:55 29.01.2020
3818 Clouds 6 1014 70 10000 1.5 0 23:37 29.01.2020
3819 Clouds 6 1014 70 10000 1.5 0 23:19 29.01.2020
3820 Clouds 6 1013 85 10000 3.1 230 22:54 29.01.2020
3821 Clouds 6 1014 65 10000 0.5 0 22:36 29.01.2020
3822 Clouds 6 1014 65 10000 0.5 0 22:18 29.01.2020
3823 Clouds 6 1013 85 10000 4.6 210 21:54 29.01.2020
3824 Clouds 6 1014 65 10000 1 0 21:36 29.01.2020
3825 Clouds 6 1014 65 10000 1 0 21:18 29.01.2020
3826 Rain 6 1015 70 10000 2.6 150 20:40 29.01.2020
3827 Clouds 6 1014 77 10000 2.78 195 20:21 29.01.2020
3828 Clouds 6 1014 77 10000 2.78 195 20:21 29.01.2020
3829 Clouds 6 1014 77 10000 2.78 195 20:21 29.01.2020
3830 Rain 6 1015 65 10000 1.5 220 19:58 29.01.2020
3831 Clouds 6 1014 77 10000 2.78 195 19:38 29.01.2020
3832 Clouds 6 1014 77 10000 2.78 195 19:20 29.01.2020
3833 Clouds 6 1014 60 10000 3.6 200 18:56 29.01.2020
3834 Clouds 6 1014 77 10000 0.5 0 18:37 29.01.2020
3835 Clouds 6 1014 77 10000 0.5 0 18:18 29.01.2020
3836 Clouds 7 1014 77 10000 1.5 220 17:40 29.01.2020
3837 Clouds 7 1014 73 10000 1.5 220 17:22 29.01.2020
3838 Clouds 7 1013 60 10000 3.1 240 16:43 29.01.2020
3839 Clouds 7 1014 73 10000 5.7 230 16:23 29.01.2020
3840 Clouds 8 1013 56 10000 3.1 240 15:59 29.01.2020
3841 Clouds 8 1014 49 10000 4.6 250 15:38 29.01.2020
3842 Clouds 8 1014 49 10000 4.6 250 15:20 29.01.2020
3843 Clouds 9 1013 73 10000 5.1 240 14:45 29.01.2020
3844 Clouds 9 1013 63 10000 5.1 240 14:22 29.01.2020
3845 Clouds 9 1013 56 10000 6.2 230 13:57 29.01.2020
3846 Clouds 9 1014 63 10000 5.1 250 13:38 29.01.2020
3847 Clouds 9 1014 62 10000 5.1 250 13:20 29.01.2020
3848 Clouds 8 1013 52 10000 6.7 230 12:56 29.01.2020
3849 Clouds 8 1014 62 10000 5.1 250 12:37 29.01.2020
3850 Clouds 8 1014 62 10000 5.1 250 12:19 29.01.2020
3851 Clouds 7 1014 56 10000 7.2 240 11:45 29.01.2020
3852 Clouds 7 1014 56 10000 6.7 230 11:22 29.01.2020
3853 Clouds 7 1015 70 10000 5.7 240 10:47 29.01.2020
3854 Clouds 7 1015 61 10000 5.1 220 10:28 29.01.2020
3855 Clouds 6 1016 70 10000 4.6 210 09:59 29.01.2020
3856 Clouds 6 1016 70 10000 4.6 210 09:40 29.01.2020
3857 Clouds 6 1016 70 10000 4.6 210 09:20 29.01.2020
3858 Clouds 4 1015 86 8000 3.1 190 08:56 29.01.2020
3859 Clouds 4 1015 86 8000 3.1 190 08:56 29.01.2020
3860 Clouds 4 1016 93 8000 2.6 240 08:38 29.01.2020
3861 Clouds 4 1016 93 8000 2.6 240 08:38 29.01.2020
3862 Clouds 4 1016 93 8000 2.6 240 08:18 29.01.2020
3863 Mist 3 1016 100 3200 0.5 0 07:43 29.01.2020
3864 Mist 2 1015 93 4800 1 0 07:23 29.01.2020
3865 Mist 2 1015 93 4800 1 0 07:23 29.01.2020
3866 Mist 2 1015 100 2000 1 0 06:38 29.01.2020
3867 Mist 2 1015 100 2000 1 0 06:20 29.01.2020
3868 Mist 2 1015 93 4000 1 0 05:54 29.01.2020
3869 Fog 2 1015 93 1100 1 0 05:35 29.01.2020
3870 Fog 2 1015 100 1200 0.5 0 04:49 29.01.2020
3871 Fog 2 1014 100 550 0.5 0 04:25 29.01.2020
3872 Fog 2 1015 100 500 0.5 0 02:41 29.01.2020
3873 Fog 3 1014 93 1200 1 210 01:44 29.01.2020
3874 Fog 3 1015 93 1400 0.5 0 00:41 29.01.2020
3875 Fog 3 1015 93 1400 0.5 0 00:23 29.01.2020
3876 Fog 3 1015 93 1200 1.18 223 23:41 28.01.2020
3877 Fog 2 1015 93 1200 1.43 233 23:21 28.01.2020
3878 Fog 3 1014 100 300 1 0 22:57 28.01.2020
3879 Fog 3 1015 100 550 1.43 233 22:39 28.01.2020
3880 Fog 2 1015 100 550 1.43 233 22:20 28.01.2020
3881 Fog 2 1015 100 550 1.43 233 22:20 28.01.2020
3882 Fog 3 1014 100 400 1 0 21:42 28.01.2020
3883 Fog 3 1015 100 550 1.43 233 21:20 28.01.2020
3884 Fog 3 1015 100 550 1.43 233 21:20 28.01.2020
3885 Fog 3 1014 100 400 0.5 170 20:46 28.01.2020
3886 Fog 3 1014 100 500 1 0 20:28 28.01.2020
3887 Mist 3 1015 100 1600 0.5 0 19:59 28.01.2020
3888 Mist 3 1015 93 2000 1.71 224 19:38 28.01.2020
3889 Mist 3 1015 93 2000 1.71 224 19:19 28.01.2020
3890 Fog 4 1014 100 350 2.6 10 18:57 28.01.2020
3891 Mist 4 1014 93 3200 1.5 230 18:38 28.01.2020
3892 Mist 4 1014 93 3200 1.5 230 18:20 28.01.2020
3893 Fog 4 1013 100 1000 0.5 0 17:55 28.01.2020
3894 Mist 4 1014 93 4000 1.71 224 17:36 28.01.2020
3895 Mist 4 1014 93 4000 1.88 173 17:18 28.01.2020
3896 Fog 5 1013 93 1100 0.5 290 16:45 28.01.2020
3897 Mist 5 1013 93 3600 1.88 173 16:27 28.01.2020
3898 Mist 5 1013 93 2300 1 0 15:59 28.01.2020
3899 Mist 5 1013 93 2300 1 0 15:40 28.01.2020
3900 Mist 5 1013 93 3500 1 220 15:18 28.01.2020
3901 Mist 4 1013 93 1800 1.5 330 14:44 28.01.2020
3902 Mist 5 1013 93 3400 1.5 260 14:20 28.01.2020
3903 Rain 5 1013 93 1900 1 0 13:43 28.01.2020
3904 Rain 5 1013 93 3300 0.5 0 13:25 28.01.2020
3905 Rain 4 1013 93 2000 1 0 12:56 28.01.2020
3906 Rain 4 1014 93 4000 1.5 0 12:38 28.01.2020
3907 Rain 4 1014 93 4000 1.5 0 12:20 28.01.2020
3908 Rain 4 1014 98 2400 1 260 11:41 28.01.2020
3909 Rain 4 1014 98 2400 1 260 11:41 28.01.2020
3910 Rain 4 1014 87 6000 4.1 310 11:22 28.01.2020
3911 Rain 4 1014 94 3300 0.5 0 10:55 28.01.2020
3912 Rain 4 1015 93 6000 2.1 60 10:36 28.01.2020
3913 Rain 3 1016 93 1500 1.5 280 10:18 28.01.2020
3914 Rain 2 1015 93 6000 1.5 50 09:42 28.01.2020
3915 Rain 2 1015 93 6000 1.5 50 09:20 28.01.2020
3916 Rain 1 1015 94 2300 1.5 50 08:46 28.01.2020
3917 Rain 1 1016 93 7000 1.38 115 08:26 28.01.2020
3918 Rain 0 1016 86 2200 1 0 07:56 28.01.2020
3919 Rain 0 1016 73 7000 0.5 0 07:35 28.01.2020
3920 Rain -1 1016 92 4000 1 0 06:48 28.01.2020
3921 Rain -1 1015 92 10000 1 0 06:48 28.01.2020
3922 Rain -1 1015 92 10000 1 0 06:25 28.01.2020
3923 Clouds -3 1015 86 7000 0.5 0 05:40 28.01.2020
3924 Clouds -3 1015 86 7000 0.5 0 05:40 28.01.2020
3925 Clouds -2 1015 86 10000 1 0 05:22 28.01.2020
3926 Clouds -1 1016 86 10000 1 150 03:50 28.01.2020
3927 Clouds 0 1016 86 10000 1 0 02:55 28.01.2020
3928 Clouds 1 1016 74 10000 1.9 106 02:25 28.01.2020
3929 Clouds 1 1017 80 10000 1 140 01:56 28.01.2020
3930 Clouds 0 1017 80 10000 1.91 98 01:22 28.01.2020
3931 Clouds 0 1017 86 10000 0.5 0 00:45 28.01.2020
3932 Clouds 0 1017 74 10000 1.91 98 00:23 28.01.2020
3933 Clouds 0 1018 80 10000 0.5 0 23:44 27.01.2020
3934 Clouds 0 1018 77 10000 0.5 0 23:20 27.01.2020
3935 Clouds 1 1018 77 10000 1.5 10 22:45 27.01.2020
3936 Clouds 0 1018 80 10000 0.5 0 22:21 27.01.2020
3937 Clouds 1 1018 69 10000 0.5 0 21:58 27.01.2020
3938 Clouds 1 1018 69 10000 0.5 0 21:39 27.01.2020
3939 Clouds 1 1019 74 10000 1.82 104 21:19 27.01.2020
3940 Clouds 2 1019 69 10000 0.5 0 20:57 27.01.2020
3941 Clouds 2 1019 69 10000 1 190 20:38 27.01.2020
3942 Clouds 2 1019 69 10000 1 190 20:20 27.01.2020
3943 Clouds 3 1019 64 10000 3.1 30 19:57 27.01.2020
3944 Clouds 3 1019 64 10000 3.1 30 19:57 27.01.2020
3945 Clouds 3 1019 69 10000 0.5 210 19:38 27.01.2020
3946 Clouds 3 1019 69 10000 0.5 210 19:20 27.01.2020
3947 Clouds 3 1019 69 10000 1 210 18:40 27.01.2020
3948 Clouds 3 1019 69 10000 1 210 18:40 27.01.2020
3949 Clouds 3 1019 69 10000 1 210 18:21 27.01.2020
3950 Clouds 5 1019 60 10000 2.1 340 17:58 27.01.2020
3951 Clouds 6 1019 48 10000 0.5 0 17:38 27.01.2020
3952 Clouds 6 1019 48 10000 0.5 0 17:19 27.01.2020
3953 Clouds 6 1019 48 10000 0.5 0 16:56 27.01.2020
3954 Clouds 6 1020 52 10000 1 230 16:37 27.01.2020
3955 Clouds 7 1020 52 10000 1 230 16:19 27.01.2020
3956 Clouds 8 1020 45 10000 1.04 116 15:41 27.01.2020
3957 Clouds 8 1020 49 10000 2.6 230 15:20 27.01.2020
3958 Clouds 8 1020 42 10000 1.5 330 14:57 27.01.2020
3959 Clouds 8 1020 42 10000 2.1 300 14:39 27.01.2020
3960 Clouds 9 1020 42 10000 2.1 300 14:20 27.01.2020
3961 Clouds 9 1020 42 10000 2.6 310 13:42 27.01.2020
3962 Clouds 8 1020 42 10000 2.1 0 13:23 27.01.2020
3963 Clouds 8 1021 45 10000 1.5 330 12:58 27.01.2020
3964 Clouds 8 1021 45 7000 1.5 20 12:39 27.01.2020
3965 Clouds 8 1021 45 7000 1.5 20 12:21 27.01.2020
3966 Clouds 6 1022 48 10000 1.5 60 11:43 27.01.2020
3967 Clouds 6 1023 52 6000 1 0 11:22 27.01.2020
3968 Clouds 4 1023 55 10000 1.5 100 10:56 27.01.2020
3969 Clouds 4 1023 55 10000 1.5 100 10:38 27.01.2020
3970 Clouds 4 1024 55 6000 1 0 10:20 27.01.2020
3971 Clouds 1 1025 69 6000 2.6 290 09:39 27.01.2020
3972 Clouds 1 1025 69 6000 2.6 290 09:19 27.01.2020
3973 Clouds 0 1024 74 10000 1 0 08:55 27.01.2020
3974 Clouds 0 1025 73 6000 0.5 0 08:37 27.01.2020
3975 Clouds -3 1025 73 6000 0.5 0 08:18 27.01.2020
3976 Clouds -3 1025 85 6000 1 0 07:45 27.01.2020
3977 Clouds -4 1025 85 6000 1 0 07:25 27.01.2020
3978 Clouds -5 1026 92 10000 0.58 156 06:37 27.01.2020
3979 Clouds -5 1025 85 8000 1 0 05:43 27.01.2020
3980 Clouds -5 1025 92 10000 1 0 04:37 27.01.2020
3981 Clouds -5 1025 85 10000 1 230 03:35 27.01.2020
3982 Clouds -4 1025 79 8000 0.63 238 01:54 27.01.2020
3983 Clouds -4 1026 85 10000 0.5 240 01:25 27.01.2020
3984 Clouds -4 1025 73 7000 1 60 00:41 27.01.2020
3985 Clouds -5 1026 92 10000 0.38 226 00:21 27.01.2020
3986 Clouds -5 1026 79 7000 1 0 23:43 26.01.2020
3987 Clouds -5 1026 85 10000 0.59 202 23:22 26.01.2020
3988 Clouds -5 1026 79 10000 0.5 0 22:58 26.01.2020
3989 Clouds -4 1026 85 10000 1 220 22:38 26.01.2020
3990 Clouds -4 1026 85 10000 1 220 22:20 26.01.2020
3991 Clouds -3 1026 68 10000 0.5 0 21:57 26.01.2020
3992 Clouds -3 1026 86 10000 0.59 202 21:39 26.01.2020
3993 Clouds -3 1026 86 10000 0.59 202 21:20 26.01.2020
3994 Clouds -3 1026 73 10000 0.5 0 20:58 26.01.2020
3995 Clouds -3 1026 79 10000 2.1 240 20:38 26.01.2020
3996 Clouds -3 1026 79 10000 2.1 240 20:38 26.01.2020
3997 Clear -3 1026 79 10000 2.1 240 20:19 26.01.2020
3998 Clear -3 1026 79 10000 2.1 240 20:19 26.01.2020
3999 Clouds -1 1025 68 10000 2.1 90 19:57 26.01.2020
4000 Clouds -1 1025 68 10000 2.1 90 19:38 26.01.2020
4001 Clouds -1 1026 65 10000 0.51 234 19:19 26.01.2020
4002 Clouds -1 1026 65 10000 0.51 234 19:19 26.01.2020
4003 Clouds -1 1025 63 10000 1 0 18:55 26.01.2020
4004 Clouds 0 1026 65 10000 1 0 18:36 26.01.2020
4005 Clouds 0 1026 65 10000 1 0 18:36 26.01.2020
4006 Clouds 0 1026 65 10000 1 0 18:18 26.01.2020
4007 Clouds 2 1025 51 10000 2.1 180 17:55 26.01.2020
4008 Clouds 2 1026 55 10000 2.1 260 17:36 26.01.2020
4009 Clouds 2 1026 55 10000 2.1 260 17:18 26.01.2020
4010 Clouds 4 1025 43 10000 2.1 230 16:55 26.01.2020
4011 Clouds 5 1025 44 10000 2.6 270 16:37 26.01.2020
4012 Clouds 5 1025 44 10000 2.6 270 16:18 26.01.2020
4013 Clouds -1 1027 62 0 0.82 279 15:42 26.01.2020
4014 Clouds -1 1027 62 0 0.82 279 15:19 26.01.2020
4015 Clouds -1 1027 62 0 0.82 279 14:55 26.01.2020
4016 Clouds -1 1027 62 0 0.82 279 14:37 26.01.2020
4017 Clouds 7 1027 44 0 0.89 289 14:18 26.01.2020
4018 Clouds 7 1027 46 0 1.95 246 13:39 26.01.2020
4019 Clouds 7 1027 44 0 1.51 246 13:18 26.01.2020
4020 Clouds 7 1027 47 0 0.89 299 12:43 26.01.2020
4021 Clouds 7 1027 47 0 0.89 284 12:43 26.01.2020
4022 Clouds 7 1027 47 0 0.89 284 12:43 26.01.2020
4023 Clouds 7 1027 43 0 1.34 267 12:25 26.01.2020
4024 Clouds 6 1027 49 0 1.34 282 11:59 26.01.2020
4025 Clouds 5 1028 51 0 0.89 291 11:40 26.01.2020
4026 Clouds 3 1028 51 10000 1 0 11:19 26.01.2020
4027 Clouds 3 1028 51 10000 1 0 10:59 26.01.2020
4028 Clouds 3 1028 51 10000 1 0 10:39 26.01.2020
4029 Clouds 3 1028 51 10000 1 0 10:21 26.01.2020
4030 Clouds 0 1027 52 10000 0.5 0 09:59 26.01.2020
4031 Clouds 0 1027 52 10000 0.5 0 09:41 26.01.2020
4032 Clouds 0 1028 74 10000 1.35 254 09:22 26.01.2020
4033 Clouds -3 1027 68 10000 1 0 08:45 26.01.2020
4034 Clouds -3 1028 85 10000 0.5 0 08:24 26.01.2020
4035 Clouds -6 1027 79 10000 0.5 0 07:59 26.01.2020
4036 Clouds -6 1027 92 10000 0.51 228 07:41 26.01.2020
4037 Clouds -7 1027 92 10000 0.51 228 07:22 26.01.2020
4038 Clouds -8 1027 92 10000 0.51 228 06:32 26.01.2020
4039 Clouds -8 1027 92 10000 0.5 230 05:35 26.01.2020
4040 Clear -7 1026 85 8000 1.5 20 04:52 26.01.2020
4041 Clear -7 1026 85 10000 1 30 02:59 26.01.2020
4042 Clear -7 1026 85 10000 1 30 02:59 26.01.2020
4043 Clear -6 1027 78 10000 0.5 10 01:59 26.01.2020
4044 Clear -6 1027 92 10000 0.77 221 01:38 26.01.2020
4045 Clear -6 1027 92 10000 0.77 221 01:19 26.01.2020
4046 Clear -6 1027 85 10000 0.74 224 00:39 26.01.2020
4047 Clear -5 1027 85 10000 0.74 224 00:20 26.01.2020
4048 Clear -5 1027 85 10000 0.74 224 00:20 26.01.2020
4049 Clear -5 1027 85 10000 0.74 224 00:20 26.01.2020
4050 Clear -3 1029 69 0 0.45 136 23:37 25.01.2020
4051 Clear -3 1029 70 0 0.77 208 23:19 25.01.2020
4052 Clear -2 1029 70 0 0.77 208 22:43 25.01.2020
4053 Clear -2 1029 70 0 0.77 208 22:43 25.01.2020
4054 Clear -2 1029 70 0 0.77 208 22:20 25.01.2020
4055 Clear -2 1029 69 0 0.77 208 21:57 25.01.2020
4056 Clear -2 1029 69 0 0.77 208 21:39 25.01.2020
4057 Clear -2 1029 69 0 0.77 208 21:21 25.01.2020
4058 Clear -2 1031 64 0 0.77 208 20:45 25.01.2020
4059 Clear -2 1030 64 0 0.81 219 20:26 25.01.2020
4060 Clear -2 1030 66 0 0.72 212 19:57 25.01.2020
4061 Clear -2 1030 66 0 0.72 212 19:38 25.01.2020
4062 Clear -2 1024 74 0 0.72 212 19:19 25.01.2020
4063 Clear -2 1024 74 0 0.72 212 19:19 25.01.2020
4064 Clear -1 1024 74 0 0.89 181 18:56 25.01.2020
4065 Clear -2 1030 66 0 0.72 212 18:37 25.01.2020
4066 Clear -1 1024 72 0 0.72 212 18:18 25.01.2020
4067 Clear 2 1024 63 0 0.72 212 17:39 25.01.2020
4068 Clear 2 1029 60 0 1.32 249 17:19 25.01.2020
4069 Clear 2 1029 57 0 0.89 285 16:56 25.01.2020
4070 Clear 2 1029 55 0 0.45 274 16:38 25.01.2020
4071 Clear 2 1024 63 0 1.32 249 16:19 25.01.2020
4072 Clear -2 1030 64 0 1.32 249 15:42 25.01.2020
4073 Clear -2 1030 64 0 1.32 249 15:24 25.01.2020
4074 Clear -2 1030 64 0 1.32 249 14:57 25.01.2020
4075 Clear -2 1030 64 0 1.32 249 14:39 25.01.2020
4076 Clear 5 1030 44 0 0.45 212 14:18 25.01.2020
4077 Clear 5 1030 43 0 0.45 196 13:40 25.01.2020
4078 Clear 4 1030 45 0 2.19 233 13:22 25.01.2020
4079 Clouds 4 1028 40 10000 2.6 200 12:43 25.01.2020
4080 Clouds 4 1028 40 10000 2.6 200 12:43 25.01.2020
4081 Clouds 2 1028 40 10000 2.6 200 12:21 25.01.2020
4082 Clouds 2 1028 40 10000 2.6 200 11:45 25.01.2020
4083 Clouds 2 1028 40 10000 2.6 200 11:45 25.01.2020
4084 Clear 2 1029 47 10000 2.1 0 11:21 25.01.2020
4085 Clear 2 1029 47 10000 2.1 0 11:21 25.01.2020
4086 Clear 1 1029 43 10000 3.6 220 10:57 25.01.2020
4087 Clear 1 1029 43 10000 3.6 220 10:39 25.01.2020
4088 Clear 1 1030 55 10000 1 0 10:20 25.01.2020
4089 Clear -1 1030 74 10000 1.5 240 09:41 25.01.2020
4090 Clear -2 1030 74 10000 1.5 240 09:22 25.01.2020
4091 Clear -3 1029 68 10000 0.5 0 08:44 25.01.2020
4092 Clear -4 1030 79 10000 1 0 08:21 25.01.2020
4093 Clear -6 1029 79 10000 0.5 0 07:43 25.01.2020
4094 Clear -8 1029 85 10000 2.1 350 06:45 25.01.2020
4095 Clear -8 1029 92 10000 0.5 240 06:27 25.01.2020
4096 Clear -8 1029 85 10000 0.5 0 05:45 25.01.2020
4097 Clear -8 1029 85 10000 0.5 230 04:26 25.01.2020
4098 Clear -8 1028 85 10000 1 0 03:50 25.01.2020
4099 Clear -8 1029 85 10000 1 260 02:53 25.01.2020
4100 Clear -7 1029 79 10000 1.5 80 01:59 25.01.2020
4101 Clear -7 1029 79 10000 1.5 80 01:59 25.01.2020
4102 Clear -8 1030 85 10000 1.11 245 01:37 25.01.2020
4103 Clear -8 1030 85 10000 1.11 245 01:37 25.01.2020
4104 Clear -7 1029 85 10000 1 10 00:42 25.01.2020
4105 Clear -7 1030 85 10000 0.5 0 00:23 25.01.2020
4106 Clear -7 1029 79 10000 2.1 30 23:57 24.01.2020
4107 Clear -7 1030 85 10000 0.5 220 23:38 24.01.2020
4108 Clear -7 1030 85 10000 0.5 220 23:20 24.01.2020
4109 Clear -6 1029 79 10000 1 0 22:42 24.01.2020
4110 Clear -6 1030 85 10000 0.98 246 22:24 24.01.2020
4111 Clear -5 1029 73 10000 1.5 80 21:42 24.01.2020
4112 Clear -5 1030 79 10000 0.98 246 21:20 24.01.2020
4113 Clear -5 1029 73 10000 1 0 20:56 24.01.2020
4114 Clear -5 1030 79 10000 0.5 0 20:37 24.01.2020
4115 Clouds -5 1030 79 10000 0.5 0 20:18 24.01.2020
4116 Clouds -4 1029 68 10000 1.5 290 19:55 24.01.2020
4117 Clouds -4 1030 73 10000 0.69 229 19:37 24.01.2020
4118 Clouds -4 1030 73 10000 0.69 229 19:19 24.01.2020
4119 Clouds -3 1029 63 10000 2.1 280 18:43 24.01.2020
4120 Clouds -3 1030 68 10000 2.1 270 18:23 24.01.2020
4121 Clouds -2 1028 68 10000 0.5 0 17:46 24.01.2020
4122 Clouds -2 1029 63 10000 1.5 210 17:23 24.01.2020
4123 Clouds 0 1028 63 10000 2.1 260 16:58 24.01.2020
4124 Clouds 0 1028 50 10000 2.6 250 16:39 24.01.2020
4125 Clouds 0 1028 50 10000 2.6 250 16:19 24.01.2020
4126 Clouds 1 1027 50 10000 2.1 250 15:42 24.01.2020
4127 Clouds 1 1028 50 10000 2.6 250 15:22 24.01.2020
4128 Clouds 1 1028 77 10000 2.6 230 14:55 24.01.2020
4129 Clouds 1 1028 47 10000 2.1 270 14:37 24.01.2020
4130 Clouds 1 1028 47 10000 2.1 270 14:19 24.01.2020
4131 Clouds 1 1028 55 10000 3.1 250 13:41 24.01.2020
4132 Clouds 2 1028 55 10000 3.1 250 13:22 24.01.2020
4133 Clouds 2 1028 55 10000 3.1 250 13:22 24.01.2020
4134 Clouds 0 1028 43 10000 2.1 270 12:44 24.01.2020
4135 Snow 0 1030 59 8000 2.1 280 12:21 24.01.2020
4136 Clouds 0 1029 59 10000 3.1 250 11:45 24.01.2020
4137 Clouds 0 1028 58 10000 2.1 220 11:19 24.01.2020
4138 Clouds 0 1028 58 10000 2.1 220 10:58 24.01.2020
4139 Clouds 0 1029 50 10000 2.6 0 10:40 24.01.2020
4140 Clouds 0 1029 50 10000 2.6 0 10:19 24.01.2020
4141 Clouds 0 1029 50 10000 2.6 0 10:19 24.01.2020
4142 Clouds -1 1028 54 10000 1.5 0 09:42 24.01.2020
4143 Clouds -1 1029 63 10000 2.6 270 09:23 24.01.2020
4144 Clouds -2 1028 58 10000 3.1 180 08:41 24.01.2020
4145 Clouds -2 1029 68 10000 1.5 250 08:21 24.01.2020
4146 Clouds -3 1027 68 10000 2.1 240 08:00 24.01.2020
4147 Clouds -3 1028 73 10000 1 230 07:41 24.01.2020
4148 Clouds -3 1028 73 10000 1 230 07:18 24.01.2020
4149 Clouds -3 1027 73 10000 1.5 250 06:42 24.01.2020
4150 Clouds -3 1027 73 10000 1.5 250 06:18 24.01.2020
4151 Clouds -4 1026 68 10000 1.5 0 05:20 24.01.2020
4152 Clouds -4 1024 73 10000 2.1 180 02:56 24.01.2020
4153 Clouds -4 1024 73 10000 2.1 180 02:38 24.01.2020
4154 Clouds -4 1025 73 10000 1 230 02:18 24.01.2020
4155 Clouds -4 1025 85 10000 2.1 230 01:37 24.01.2020
4156 Clouds -4 1025 79 10000 0.5 0 00:39 24.01.2020
4157 Clouds -3 1024 73 10000 1 0 23:58 23.01.2020
4158 Clouds -3 1024 73 10000 1 0 23:58 23.01.2020
4159 Clouds -3 1025 73 10000 1.23 263 23:40 23.01.2020
4160 Clouds -3 1025 73 10000 0.9 296 23:21 23.01.2020
4161 Clouds -4 1024 68 10000 3.1 300 22:55 23.01.2020
4162 Clouds -3 1025 68 10000 1 0 22:36 23.01.2020
4163 Clouds -3 1025 68 10000 1 0 22:18 23.01.2020
4164 Clouds -3 1024 68 10000 3.1 340 21:55 23.01.2020
4165 Clouds -3 1024 63 10000 2.1 20 21:37 23.01.2020
4166 Clouds -3 1024 63 10000 2.1 20 21:18 23.01.2020
4167 Clouds -3 1024 63 10000 0.5 0 20:40 23.01.2020
4168 Clouds -3 1024 63 10000 0.5 0 20:22 23.01.2020
4169 Clouds -2 1022 73 10000 1.5 330 19:57 23.01.2020
4170 Clouds -2 1023 58 10000 1 0 19:39 23.01.2020
4171 Clouds -2 1023 58 10000 1 0 19:20 23.01.2020
4172 Clouds -1 1021 68 10000 4.6 340 18:56 23.01.2020
4173 Clouds -1 1022 63 10000 1.5 190 18:37 23.01.2020
4174 Clouds -1 1022 63 10000 1.5 190 18:19 23.01.2020
4175 Clouds 0 1021 63 10000 5.7 320 17:44 23.01.2020
4176 Clouds -1 1021 70 10000 7.2 360 17:21 23.01.2020
4177 Clouds 0 1020 58 10000 6.2 350 16:58 23.01.2020
4178 Clouds 0 1020 50 10000 3.6 30 16:38 23.01.2020
4179 Clouds 0 1020 50 10000 3.6 30 16:19 23.01.2020
4180 Clouds 1 1019 47 10000 6.2 320 15:57 23.01.2020
4181 Clouds 1 1019 55 10000 5.7 310 15:38 23.01.2020
4182 Clouds 1 1019 55 10000 5.7 310 15:19 23.01.2020
4183 Snow 2 1018 64 8000 8.2 350 14:57 23.01.2020
4184 Snow 2 1018 64 8000 8.2 350 14:39 23.01.2020
4185 Clouds 2 1020 69 10000 7.2 290 14:21 23.01.2020
4186 Snow 3 1019 64 8000 6.7 280 13:45 23.01.2020
4187 Clouds 3 1018 55 10000 5.7 260 13:21 23.01.2020
4188 Clouds 3 1018 55 10000 5.7 260 13:21 23.01.2020
4189 Clouds 3 1017 51 10000 6.2 280 12:56 23.01.2020
4190 Clouds 3 1018 55 10000 5.7 270 12:38 23.01.2020
4191 Clouds 3 1018 55 10000 5.7 270 12:20 23.01.2020
4192 Clouds 1 1017 51 10000 5.1 270 11:43 23.01.2020
4193 Clouds 1 1019 59 10000 4.1 270 11:24 23.01.2020
4194 Clouds 0 1017 59 10000 4.6 250 10:58 23.01.2020
4195 Clouds -1 1019 63 10000 3.6 250 10:40 23.01.2020
4196 Clouds -1 1019 63 10000 3.6 250 10:18 23.01.2020
4197 Clouds -2 1018 68 10000 1.5 190 09:41 23.01.2020
4198 Clouds -2 1019 79 10000 1.5 260 09:41 23.01.2020
4199 Clouds -2 1019 79 10000 1.5 260 09:21 23.01.2020
4200 Clouds -3 1018 79 8000 3.6 190 08:56 23.01.2020
4201 Clouds -3 1019 79 8000 1 0 08:38 23.01.2020
4202 Clouds -3 1019 79 8000 1 0 08:18 23.01.2020
4203 Clouds -6 1018 85 10000 1.33 268 07:37 23.01.2020
4204 Clouds -6 1018 85 10000 1.33 268 07:18 23.01.2020
4205 Clouds -7 1017 85 10000 0.5 0 06:44 23.01.2020
4206 Clouds -7 1018 92 10000 0.5 0 06:18 23.01.2020
4207 Clouds -7 1018 85 10000 1 230 04:25 23.01.2020
4208 Clouds -6 1019 85 10000 1.47 234 03:36 23.01.2020
4209 Clouds -5 1019 85 7000 1.46 231 01:55 23.01.2020
4210 Clouds -5 1019 79 8000 1 180 00:44 23.01.2020
4211 Clouds -5 1021 92 10000 1 0 00:24 23.01.2020
4212 Clouds -4 1020 79 8000 1.5 140 23:46 22.01.2020
4213 Clouds -5 1022 92 10000 1 210 23:28 22.01.2020
4214 Clear -4 1021 85 8000 1.5 310 22:43 22.01.2020
4215 Clear -4 1022 85 10000 0.5 0 22:25 22.01.2020
4216 Clear -4 1022 79 10000 3.1 160 21:59 22.01.2020
4217 Clear -4 1023 85 10000 1.27 232 21:38 22.01.2020
4218 Clear -4 1023 85 10000 1.27 232 21:19 22.01.2020
4219 Clear -3 1023 79 10000 1 0 20:42 22.01.2020
4220 Clear -3 1023 79 10000 1 0 20:42 22.01.2020
4221 Clouds -3 1023 74 10000 1.33 241 20:23 22.01.2020
4222 Clear -3 1023 79 10000 1.5 60 19:59 22.01.2020
4223 Clear -3 1023 79 10000 1.5 60 19:41 22.01.2020
4224 Clear -2 1024 79 10000 1.23 260 19:21 22.01.2020
4225 Clouds -2 1023 74 10000 0.5 0 18:58 22.01.2020
4226 Clear -2 1024 74 10000 1.23 260 18:39 22.01.2020
4227 Clear -2 1024 74 10000 1.23 260 18:21 22.01.2020
4228 Clouds -1 1024 68 10000 1.5 270 17:57 22.01.2020
4229 Clouds -1 1024 68 10000 1.5 270 17:57 22.01.2020
4230 Clear -1 1025 82 10000 1 0 17:39 22.01.2020
4231 Clear -1 1025 75 10000 1 0 17:19 22.01.2020
4232 Clouds 1 1024 68 10000 2.6 230 16:54 22.01.2020
4233 Clear 1 1025 59 10000 2.6 260 16:36 22.01.2020
4234 Clear 1 1025 59 10000 2.6 260 16:18 22.01.2020
4235 Clouds 2 1024 55 10000 3.1 220 15:41 22.01.2020
4236 Clear 2 1025 55 10000 2.1 250 15:23 22.01.2020
4237 Clouds 3 1025 51 10000 4.1 220 14:58 22.01.2020
4238 Clear 3 1026 51 10000 3.1 260 14:37 22.01.2020
4239 Clear 3 1026 51 10000 3.1 260 14:19 22.01.2020
4240 Clouds 3 1025 47 10000 3.6 210 13:56 22.01.2020
4241 Clouds 3 1025 47 10000 3.6 210 13:56 22.01.2020
4242 Clear 3 1026 51 10000 3.1 280 13:37 22.01.2020
4243 Clear 3 1026 51 10000 3.1 280 13:19 22.01.2020
4244 Clouds 2 1025 51 10000 3.1 230 12:56 22.01.2020
4245 Clouds 2 1027 55 10000 3.1 240 12:38 22.01.2020
4246 Clouds 2 1027 55 10000 3.1 240 12:18 22.01.2020
4247 Clouds 1 1026 51 10000 1.5 0 11:56 22.01.2020
4248 Clouds 1 1028 59 10000 3.1 250 11:38 22.01.2020
4249 Clouds 1 1028 59 10000 3.1 250 11:19 22.01.2020
4250 Clouds 0 1027 66 10000 1.5 0 10:44 22.01.2020
4251 Clouds 0 1029 66 10000 1.5 0 10:21 22.01.2020
4252 Clouds -1 1028 68 10000 1.5 220 09:45 22.01.2020
4253 Clouds -1 1030 74 10000 2.1 260 09:26 22.01.2020
4254 -273 0 0 0 0 0 08:59 22.01.2020
4255 Clouds -3 1028 79 10000 1 0 08:40 22.01.2020
4256 Clouds -3 1029 79 10000 1.12 257 08:21 22.01.2020
4257 Clouds -4 1028 79 10000 1 0 07:59 22.01.2020
4258 Clear -4 1029 85 10000 1.12 257 07:40 22.01.2020
4259 Clear -4 1029 85 10000 1.12 257 07:21 22.01.2020
4260 Clear -5 1029 85 10000 1.5 230 06:31 22.01.2020
4261 Clear -5 1028 85 10000 1 210 05:42 22.01.2020
4262 Clear -7 1028 78 10000 0.5 0 04:23 22.01.2020
4263 Clear -7 1029 92 10000 0.6 273 03:26 22.01.2020
4264 Clear -7 1030 92 10000 0.5 0 02:32 22.01.2020
4265 Clear -5 1029 79 10000 0.5 0 00:46 22.01.2020
4266 Clear -5 1030 85 10000 1.08 324 00:27 22.01.2020
4267 Clear -5 1030 79 10000 1.5 360 23:55 21.01.2020
4268 Clear -5 1030 79 10000 0.5 220 23:36 21.01.2020
4269 Clear -5 1030 79 10000 0.5 220 23:18 21.01.2020
4270 Clear -4 1031 79 10000 1 230 22:39 21.01.2020
4271 Clear -4 1031 79 10000 1 230 22:20 21.01.2020
4272 Clear -4 1031 79 10000 1 230 22:20 21.01.2020
4273 Clear -4 1030 73 10000 0.5 0 21:56 21.01.2020
4274 Clear -4 1031 79 10000 2.1 230 21:38 21.01.2020
4275 Clear -4 1031 79 10000 2.1 230 21:19 21.01.2020
4276 Clear -2 1030 79 10000 0.5 0 20:56 21.01.2020
4277 Clear -2 1031 63 10000 1.5 230 20:37 21.01.2020
4278 Clear -2 1031 63 10000 1.5 230 20:18 21.01.2020
4279 Clear -2 1030 68 10000 1.5 350 19:56 21.01.2020
4280 Clear -2 1031 68 10000 1.5 230 19:37 21.01.2020
4281 Clear -2 1031 68 10000 1.5 230 19:19 21.01.2020
4282 Clear -1 1030 68 10000 2.1 30 18:55 21.01.2020
4283 Clear -1 1031 68 10000 1.98 8 18:36 21.01.2020
4284 Clear -1 1031 68 10000 1.98 8 18:18 21.01.2020
4285 Clouds 0 1030 63 10000 4.1 30 17:43 21.01.2020
4286 Clouds 0 1030 59 10000 1 0 17:20 21.01.2020
4287 Clouds 0 1029 58 10000 4.1 40 16:58 21.01.2020
4288 Clouds 1 1029 55 10000 3.1 0 16:37 21.01.2020
4289 Clouds 1 1029 55 10000 3.1 0 16:18 21.01.2020
4290 Clouds 2 1028 47 10000 5.1 360 15:41 21.01.2020
4291 Clouds 2 1029 55 10000 2.1 0 15:21 21.01.2020
4292 Clouds 3 1028 40 10000 4.6 350 14:58 21.01.2020
4293 Clouds 3 1030 48 10000 5.1 300 14:37 21.01.2020
4294 Clouds 3 1030 48 10000 5.1 300 14:19 21.01.2020
4295 Clouds 3 1029 44 10000 2.6 350 13:39 21.01.2020
4296 Clouds 3 1029 44 10000 2.6 350 13:19 21.01.2020
4297 Clouds 3 1029 37 10000 4.1 20 12:43 21.01.2020
4298 Clouds 3 1030 44 10000 2.1 0 12:25 21.01.2020
4299 Clouds 2 1029 40 10000 5.1 40 11:57 21.01.2020
4300 Clouds 2 1031 40 10000 3.1 360 11:38 21.01.2020
4301 Clouds 3 1031 40 10000 3.1 360 11:20 21.01.2020
4302 Clouds 2 1030 47 10000 2.6 150 10:44 21.01.2020
4303 Clouds 2 1031 47 10000 4.1 360 10:23 21.01.2020
4304 Clouds 2 1031 47 10000 4.1 360 10:23 21.01.2020
4305 Clouds 1 1031 47 10000 1 0 09:59 21.01.2020
4306 Clouds 1 1031 50 10000 4.6 30 09:40 21.01.2020
4307 Clouds 1 1031 50 10000 4.6 30 09:22 21.01.2020
4308 Clouds 1 1031 50 10000 4.6 30 09:22 21.01.2020
4309 Clouds 0 1030 58 10000 1 0 08:48 21.01.2020
4310 Clouds -1 1031 61 10000 1.5 0 08:28 21.01.2020
4311 Clouds -2 1030 73 10000 2.1 150 07:57 21.01.2020
4312 Clouds -3 1031 68 10000 1 70 07:38 21.01.2020
4313 Clouds -3 1031 68 10000 1 70 07:20 21.01.2020
4314 Clouds -3 1030 73 10000 0.5 0 06:45 21.01.2020
4315 Clouds -3 1031 68 10000 1.5 30 06:23 21.01.2020
4316 Clouds -3 1030 63 10000 3.1 360 05:41 21.01.2020
4317 Clouds -3 1030 68 10000 1 0 04:39 21.01.2020
4318 Clouds -1 1029 63 10000 5.1 10 02:55 21.01.2020
4319 Clouds -1 1029 63 10000 5.1 350 01:47 21.01.2020
4320 Clouds -1 1029 63 10000 5.7 350 00:54 21.01.2020
4321 Clouds -1 1029 78 10000 4.6 360 00:32 21.01.2020
4322 Clouds 0 1029 63 10000 5.7 360 23:57 20.01.2020
4323 Clouds 0 1030 55 10000 4.1 360 23:37 20.01.2020
4324 Clouds 0 1030 55 10000 4.1 360 23:18 20.01.2020
4325 Clouds 0 1029 68 10000 4.1 10 22:56 20.01.2020
4326 Clouds 0 1030 59 10000 3.6 360 22:36 20.01.2020
4327 Clouds 0 1030 59 10000 3.6 360 22:18 20.01.2020
4328 Clouds 1 1028 68 10000 3.1 360 21:55 20.01.2020
4329 Clouds 1 1029 55 10000 3.6 350 21:36 20.01.2020
4330 Clouds 1 1029 55 10000 3.6 350 21:18 20.01.2020
4331 Clouds 1 1028 79 10000 4.6 10 20:54 20.01.2020
4332 Clouds 1 1029 59 10000 3.1 350 20:36 20.01.2020
4333 Clouds 1 1029 59 10000 3.1 350 20:18 20.01.2020
4334 Clouds 1 1029 59 10000 3.1 350 20:18 20.01.2020
4335 Snow 1 1028 64 10000 4.1 20 19:54 20.01.2020
4336 Snow 1 1028 64 10000 4.1 20 19:54 20.01.2020
4337 Clouds 1 1029 74 10000 3.1 360 19:36 20.01.2020
4338 Clouds 1 1029 74 10000 3.1 360 19:18 20.01.2020
4339 Snow 1 1028 64 10000 3.1 10 18:42 20.01.2020
4340 Clouds 2 1028 69 10000 3.1 360 18:21 20.01.2020
4341 Clouds 1 1028 80 10000 1 0 17:39 20.01.2020
4342 Clouds 1 1028 80 10000 1 0 17:19 20.01.2020
4343 Clouds 1 1027 69 10000 3.1 20 16:55 20.01.2020
4344 Clouds 1 1027 80 10000 0.5 0 16:36 20.01.2020
4345 Clouds 1 1027 80 10000 0.5 0 16:18 20.01.2020
4346 Clouds 1 1026 69 10000 2.6 20 15:41 20.01.2020
4347 Snow 1 1027 74 10000 2.6 50 15:22 20.01.2020
4348 Snow 1 1026 80 10000 1.5 210 14:59 20.01.2020
4349 Snow 1 1026 92 4000 1 0 14:40 20.01.2020
4350 Snow 1 1026 92 4000 1 0 14:21 20.01.2020
4351 Snow 1 1026 87 2000 2.6 330 13:57 20.01.2020
4352 Clouds 1 1027 69 10000 1.5 0 13:38 20.01.2020
4353 Clouds 1 1027 69 10000 1.5 0 13:20 20.01.2020
4354 Snow 0 1026 85 6000 2.1 250 12:42 20.01.2020
4355 Snow 1 1026 85 6000 2.1 250 12:23 20.01.2020
4356 Snow 0 1027 69 5000 3.6 300 11:55 20.01.2020
4357 Snow 0 1027 59 10000 3.6 320 11:36 20.01.2020
4358 Snow 0 1027 59 10000 3.6 320 11:18 20.01.2020
4359 Snow 0 1026 68 6000 1 0 10:46 20.01.2020
4360 Clouds 0 1027 69 10000 1.5 0 10:20 20.01.2020
4361 Clouds -2 1027 79 10000 1 0 09:42 20.01.2020
4362 Clouds -2 1027 79 10000 1 0 09:24 20.01.2020
4363 Clouds -3 1025 79 10000 0.5 0 08:56 20.01.2020
4364 Clouds -4 1026 86 10000 1.5 220 08:34 20.01.2020
4365 Clouds -5 1025 79 10000 0.5 0 07:59 20.01.2020
4366 Clouds -5 1025 79 10000 0.5 0 07:41 20.01.2020
4367 Clouds -6 1026 92 10000 2.1 240 07:21 20.01.2020
4368 Clouds -6 1024 79 10000 1 0 06:42 20.01.2020
4369 Clouds -6 1025 92 10000 0.5 0 06:21 20.01.2020
4370 Clouds -5 1024 92 10000 1 0 05:38 20.01.2020
4371 Clouds -5 1024 92 10000 1 0 05:19 20.01.2020
4372 Clouds -5 1024 92 10000 1.5 230 04:23 20.01.2020
4373 Clouds -3 1022 79 10000 0.5 0 01:59 20.01.2020
4374 Clouds -3 1022 79 10000 0.5 0 01:40 20.01.2020
4375 Clouds -3 1023 86 10000 1 230 01:18 20.01.2020
4376 Clouds -3 1022 79 10000 1.03 337 00:42 20.01.2020
4377 Clouds -3 1023 86 10000 1.03 337 00:20 20.01.2020
4378 Clouds -2 1023 79 10000 1.03 337 23:38 19.01.2020
4379 Clouds -2 1023 79 10000 1.26 2 23:19 19.01.2020
4380 Clouds -2 1022 79 10000 1 180 22:56 19.01.2020
4381 Clouds -2 1023 79 10000 1 0 22:37 19.01.2020
4382 Clouds -2 1023 79 10000 1 0 22:19 19.01.2020
4383 Clouds -3 1021 73 10000 1.26 2 21:56 19.01.2020
4384 Clouds -3 1022 86 10000 1 0 21:38 19.01.2020
4385 Clouds -3 1022 86 10000 1 0 21:19 19.01.2020
4386 Clouds -3 1021 73 10000 0.5 0 20:56 19.01.2020
4387 Clouds -3 1022 85 10000 1.5 230 20:38 19.01.2020
4388 Clouds -3 1022 85 10000 1.5 230 20:38 19.01.2020
4389 Clouds -3 1022 85 10000 1.5 230 20:19 19.01.2020
4390 Clouds -3 1020 73 10000 2.1 250 19:55 19.01.2020
4391 Clouds -3 1021 85 10000 2.6 270 19:37 19.01.2020
4392 Clouds -3 1021 85 10000 2.6 270 19:19 19.01.2020
4393 Clouds -3 1021 85 10000 2.6 270 19:19 19.01.2020
4394 Clouds -3 1021 85 10000 2.6 270 19:19 19.01.2020
4395 Clouds -2 1020 73 10000 2.1 280 18:55 19.01.2020
4396 Clouds -2 1020 80 10000 0.5 0 18:37 19.01.2020
4397 Clouds -2 1020 80 10000 0.5 0 18:19 19.01.2020
4398 Clouds -1 1019 58 10000 1.5 210 17:57 19.01.2020
4399 Clouds -1 1019 58 10000 1.5 210 17:57 19.01.2020
4400 Clouds -1 1020 74 10000 0.5 0 17:38 19.01.2020
4401 Clouds -1 1020 74 10000 0.5 0 17:20 19.01.2020
4402 Clouds -1 1019 58 10000 1.5 100 16:57 19.01.2020
4403 Clouds 0 1019 71 10000 1.98 43 16:37 19.01.2020
4404 Clouds 0 1019 71 10000 1.98 43 16:19 19.01.2020
4405 Clouds 0 1018 71 10000 4.6 20 15:57 19.01.2020
4406 Clouds 0 1019 71 10000 2.1 130 15:37 19.01.2020
4407 Clouds 0 1019 71 10000 2.1 130 15:19 19.01.2020
4408 Clouds 1 1017 43 10000 2.1 340 14:56 19.01.2020
4409 Clouds 0 1018 71 10000 0.5 0 14:37 19.01.2020
4410 Clouds 0 1018 59 10000 0.5 0 14:18 19.01.2020
4411 Clouds 0 1017 59 10000 2.1 80 13:54 19.01.2020
4412 Clouds 0 1018 59 10000 1.5 0 13:36 19.01.2020
4413 Clouds 0 1018 61 10000 1.5 0 13:18 19.01.2020
4414 Clouds 0 1017 69 10000 3.1 250 12:42 19.01.2020
4415 Clouds 0 1017 69 10000 3.1 250 12:23 19.01.2020
4416 Clouds 0 1017 63 10000 1.5 30 11:57 19.01.2020
4417 Clouds 0 1018 61 10000 2.1 250 11:39 19.01.2020
4418 Clouds 0 1018 74 10000 2.1 250 11:19 19.01.2020
4419 Snow 0 1017 68 10000 1 360 10:55 19.01.2020
4420 Clouds 0 1019 74 10000 3.1 200 10:37 19.01.2020
4421 Clouds 0 1019 74 10000 3.1 200 10:18 19.01.2020
4422 Clouds 0 1019 92 10000 1.5 250 09:41 19.01.2020
4423 Clouds 0 1019 92 10000 1.5 250 09:23 19.01.2020
4424 Snow -1 1019 92 8000 1 250 08:57 19.01.2020
4425 Clouds -1 1018 80 7000 2.6 70 08:38 19.01.2020
4426 Clouds -1 1018 80 7000 2.6 70 08:20 19.01.2020
4427 Clouds -2 1017 79 10000 2.1 360 07:40 19.01.2020
4428 Clouds -2 1018 74 10000 0.5 0 07:21 19.01.2020
4429 Snow -2 1017 74 10000 2.6 60 06:44 19.01.2020
4430 Snow -1 1017 92 7000 0.87 345 04:41 19.01.2020
4431 Clouds -1 1017 80 10000 1 230 02:37 19.01.2020
4432 Clouds -1 1017 80 10000 1 230 02:19 19.01.2020
4433 Clouds -1 1018 80 10000 0.17 357 01:24 19.01.2020
4434 Snow -1 1017 74 10000 2.6 20 00:45 19.01.2020
4435 Clouds -1 1017 74 10000 2.1 360 00:27 19.01.2020
4436 Clouds -1 1017 74 10000 2.1 360 23:55 18.01.2020
4437 Clouds -1 1018 80 10000 0.17 357 23:36 18.01.2020
4438 Clouds -1 1018 80 10000 1.22 27 23:18 18.01.2020
4439 Clouds -1 1018 80 10000 1.22 27 23:18 18.01.2020
4440 Clouds 0 1018 77 10000 1.22 27 22:54 18.01.2020
4441 Clouds 0 1018 77 10000 1 260 22:36 18.01.2020
4442 Clouds 0 1018 77 10000 1 260 22:36 18.01.2020
4443 Clouds 0 1018 77 10000 1 260 22:18 18.01.2020
4444 Clouds 0 1018 77 10000 1.22 27 21:56 18.01.2020
4445 Clouds 0 1019 77 10000 1.5 230 21:36 18.01.2020
4446 Clouds 0 1019 77 10000 1.5 230 21:18 18.01.2020
4447 Clouds 0 1019 77 10000 2.6 240 20:41 18.01.2020
4448 Clouds 0 1019 80 10000 2.6 240 20:20 18.01.2020
4449 Clouds 0 1018 81 10000 1 0 19:55 18.01.2020
4450 Clouds 0 1020 64 10000 1.5 240 19:36 18.01.2020
4451 Clouds 0 1020 64 10000 1.5 240 19:18 18.01.2020
4452 Clouds 1 1020 64 10000 2.1 240 18:40 18.01.2020
4453 Clouds 1 1020 64 10000 2.1 240 18:21 18.01.2020
4454 Clouds 1 1019 55 10000 1 0 17:41 18.01.2020
4455 Clouds 1 1020 64 10000 2.1 250 17:21 18.01.2020
4456 Clouds 1 1019 51 10000 2.6 40 16:59 18.01.2020
4457 Clouds 1 1020 59 10000 2.6 240 16:41 18.01.2020
4458 Clouds 1 1020 59 10000 2.6 240 16:22 18.01.2020
4459 Clouds 1 1020 59 10000 2.6 240 16:22 18.01.2020
4460 Clouds 3 1019 51 10000 1.5 290 15:58 18.01.2020
4461 Clouds 3 1020 51 10000 3.1 260 15:40 18.01.2020
4462 Clouds 3 1020 51 10000 3.1 260 15:21 18.01.2020
4463 Clouds 3 1019 41 10000 2.6 70 14:44 18.01.2020
4464 Clouds 4 1020 48 7000 1.5 0 14:21 18.01.2020
4465 Clouds 4 1019 41 10000 2.1 0 13:59 18.01.2020
4466 Clouds 3 1020 48 7000 2.1 170 13:41 18.01.2020
4467 Clouds 3 1020 48 7000 2.1 170 13:20 18.01.2020
4468 Clouds 3 1019 41 10000 1.5 0 12:55 18.01.2020
4469 Clouds 2 1021 64 6000 1.5 290 12:36 18.01.2020
4470 Clouds 2 1021 64 6000 1.5 290 12:18 18.01.2020
4471 Clouds 1 1020 44 10000 2.1 0 11:43 18.01.2020
4472 Mist 0 1022 100 3100 2.1 240 11:21 18.01.2020
4473 Clouds -1 1021 59 10000 1.5 250 10:45 18.01.2020
4474 Mist -1 1023 92 3200 1 0 10:22 18.01.2020
4475 Clouds -2 1022 64 10000 1 0 09:59 18.01.2020
4476 Mist -2 1023 100 2000 0.5 0 09:41 18.01.2020
4477 Mist -2 1023 100 2000 0.5 0 09:19 18.01.2020
4478 Clouds -3 1022 79 10000 0.5 0 08:42 18.01.2020
4479 Mist -3 1023 100 2000 1.46 49 08:20 18.01.2020
4480 Mist -4 1023 92 2000 0.5 0 07:59 18.01.2020
4481 Fog -4 1023 92 400 0.5 230 07:40 18.01.2020
4482 Fog -4 1023 92 400 0.5 230 07:18 18.01.2020
4483 Clouds -5 1022 85 10000 1.5 210 06:44 18.01.2020
4484 Clouds -5 1022 85 10000 1 0 05:52 18.01.2020
4485 Fog -5 1022 92 200 1.5 170 04:25 18.01.2020
4486 Fog -4 1023 100 300 1.36 44 02:38 18.01.2020
4487 Clear -4 1022 79 10000 2.1 40 01:40 18.01.2020
4488 Fog -4 1022 92 400 1.5 280 00:39 18.01.2020
4489 Fog -4 1022 100 200 1.5 24 00:20 18.01.2020
4490 Clear -4 1021 79 10000 3.1 30 23:58 17.01.2020
4491 Fog -4 1022 100 200 1.5 24 23:39 17.01.2020
4492 Fog -4 1022 100 200 1.22 15 23:18 17.01.2020
4493 Fog -4 1023 100 400 1 0 22:42 17.01.2020
4494 Mist -4 1023 92 4000 1 0 22:20 17.01.2020
4495 Mist -4 1023 92 4000 1 0 22:20 17.01.2020
4496 Clear -4 1022 68 10000 4.1 20 21:56 17.01.2020
4497 Mist -4 1023 92 4800 1 0 21:38 17.01.2020
4498 Mist -4 1023 92 4800 1 0 21:19 17.01.2020
4499 Clear -3 1021 68 10000 3.6 20 20:43 17.01.2020
4500 Clear -3 1023 92 10000 1.53 19 20:21 17.01.2020
4501 Clear -2 1021 63 10000 4.6 30 19:58 17.01.2020
4502 Clear -2 1022 92 10000 2.1 300 19:39 17.01.2020
4503 Clear -2 1022 92 10000 2.1 300 19:20 17.01.2020
4504 Clear -2 1021 72 10000 3.1 360 18:58 17.01.2020
4505 Clear -2 1022 86 10000 1 230 18:40 17.01.2020
4506 Clear -2 1022 86 10000 1 230 18:21 17.01.2020
4507 Clear -1 1021 55 10000 2.6 60 17:40 17.01.2020
4508 Clear -1 1021 86 10000 1 250 17:22 17.01.2020
4509 Clear 0 1020 51 10000 3.1 60 16:57 17.01.2020
4510 Clear 0 1020 51 10000 3.1 60 16:39 17.01.2020
4511 Clear 1 1021 72 10000 2.6 230 16:19 17.01.2020
4512 Clear 3 1019 48 10000 3.6 50 15:45 17.01.2020
4513 Clear 2 1020 64 10000 3.6 280 15:26 17.01.2020
4514 Clear 4 1019 41 10000 5.1 70 14:46 17.01.2020
4515 Clear 4 1020 60 10000 3.6 270 14:27 17.01.2020
4516 Clouds 4 1019 38 10000 6.7 60 13:58 17.01.2020
4517 Clouds 4 1019 38 10000 6.7 60 13:58 17.01.2020
4518 Clouds 4 1019 38 10000 6.7 60 13:38 17.01.2020
4519 Clouds 3 1020 64 10000 3.1 260 13:19 17.01.2020
4520 Clouds 3 1019 38 10000 5.7 50 12:44 17.01.2020
4521 Clouds 3 1020 59 10000 3.1 270 12:22 17.01.2020
4522 Clouds 1 1019 38 10000 5.7 50 11:40 17.01.2020
4523 Clouds 1 1021 100 7000 2.1 0 11:19 17.01.2020
4524 Clouds 0 1021 92 6000 2.1 250 10:44 17.01.2020
4525 Mist -1 1022 100 4700 1.5 280 10:23 17.01.2020
4526 Mist -1 1022 92 3500 1.5 250 09:58 17.01.2020
4527 Fog -2 1022 92 1200 0.5 130 09:40 17.01.2020
4528 Fog -2 1022 92 1200 0.5 130 09:20 17.01.2020
4529 Mist -4 1023 100 4000 2.1 270 08:45 17.01.2020
4530 Mist -4 1022 92 1600 2.1 230 08:25 17.01.2020
4531 Mist -3 1022 100 1800 1 0 07:55 17.01.2020
4532 Fog -4 1022 92 800 1 0 07:32 17.01.2020
4533 Fog -4 1022 92 800 1 0 07:32 17.01.2020
4534 Clouds -5 1020 79 10000 3.1 350 06:59 17.01.2020
4535 Clouds -4 1020 79 10000 3.1 350 06:41 17.01.2020
4536 Clouds -5 1020 85 10000 3.6 30 05:56 17.01.2020
4537 Clear -3 1022 88 0 1.7 71 03:39 17.01.2020
4538 Clear -3 1022 87 0 1.7 71 02:53 17.01.2020
4539 Clear -3 1022 87 0 1.81 58 01:48 17.01.2020
4540 Clear -3 1022 87 0 0.89 291 01:29 17.01.2020
4541 Clear -2 1022 86 0 1.75 58 00:51 17.01.2020
4542 Clear -2 1022 85 0 1.75 58 00:28 17.01.2020
4543 Mist -3 1022 92 1100 2.6 260 23:46 16.01.2020
4544 Mist -3 1022 92 1100 2.6 260 23:46 16.01.2020
4545 Mist -3 1022 92 1100 2.6 260 23:26 16.01.2020
4546 Clear -3 1021 79 10000 4.6 20 22:58 16.01.2020
4547 Mist -3 1021 92 1600 2.6 260 22:40 16.01.2020
4548 Mist -3 1021 92 1600 2.6 260 22:21 16.01.2020
4549 Mist -3 1022 100 2600 3.1 290 21:55 16.01.2020
4550 Mist -3 1022 92 4000 2.6 270 21:37 16.01.2020
4551 Mist -3 1022 92 4000 2.6 270 21:18 16.01.2020
4552 Fog -3 1022 100 800 4.1 270 20:56 16.01.2020
4553 Clear -3 1022 86 10000 1.5 220 20:36 16.01.2020
4554 Clear -3 1022 86 10000 1.5 220 20:18 16.01.2020
4555 Clear -2 1021 79 10000 4.6 20 19:41 16.01.2020
4556 Clear -2 1022 86 10000 2.1 230 19:22 16.01.2020
4557 Clear 0 1021 74 10000 3.6 20 18:58 16.01.2020
4558 Clear 0 1022 64 10000 2.1 70 18:39 16.01.2020
4559 Clear 0 1022 64 10000 2.1 70 18:21 16.01.2020
4560 Clouds 1 1021 59 10000 5.1 50 17:59 16.01.2020
4561 Clouds 1 1021 59 10000 5.1 50 17:41 16.01.2020
4562 Clouds 1 1021 59 10000 5.1 50 17:41 16.01.2020
4563 Clear 1 1022 59 10000 2.1 20 17:21 16.01.2020
4564 Clouds 2 1021 64 10000 4.1 60 16:56 16.01.2020
4565 Clear 2 1022 55 10000 3.6 20 16:36 16.01.2020
4566 Clear 2 1022 55 10000 3.6 20 16:18 16.01.2020
4567 Clouds 4 1021 55 10000 4.1 40 15:42 16.01.2020
4568 Clear 4 1022 55 10000 4.1 20 15:21 16.01.2020
4569 Clouds 4 1022 55 10000 5.1 30 14:45 16.01.2020
4570 Clear 5 1022 52 10000 3.1 20 14:24 16.01.2020
4571 Clouds 5 1022 51 10000 5.1 10 13:57 16.01.2020
4572 Clouds 5 1022 51 10000 5.1 10 13:39 16.01.2020
4573 Clear 5 1023 48 10000 3.6 50 13:21 16.01.2020
4574 Clouds 5 1023 55 10000 3.6 30 12:45 16.01.2020
4575 Clear 5 1023 52 10000 3.1 90 12:27 16.01.2020
4576 Clouds 4 1023 55 10000 4.1 50 11:54 16.01.2020
4577 Clear 4 1024 56 10000 4.6 50 11:36 16.01.2020
4578 Clear 4 1024 56 10000 4.6 50 11:18 16.01.2020
4579 Clear 3 1025 60 10000 4.1 60 10:39 16.01.2020
4580 Clear 3 1025 60 10000 4.1 60 10:20 16.01.2020
4581 Clear 1 1025 80 7000 1 0 09:56 16.01.2020
4582 Fog 0 1027 100 1600 0.5 0 09:37 16.01.2020
4583 Fog 0 1027 100 1600 0.5 0 09:19 16.01.2020
4584 Fog -2 1027 92 300 0.5 0 08:49 16.01.2020
4585 Fog -2 1026 92 100 2.08 88 08:29 16.01.2020
4586 Clear -4 1025 85 10000 1 0 07:58 16.01.2020
4587 Fog -4 1027 92 100 1 0 07:37 16.01.2020
4588 Fog -4 1027 92 100 1 0 07:18 16.01.2020
4589 Clear -4 1026 85 6000 0.5 0 06:42 16.01.2020
4590 Clear -5 1026 85 10000 0.5 0 05:58 16.01.2020
4591 Clear -5 1026 85 10000 0.5 0 05:40 16.01.2020
4592 Mist -5 1026 92 1300 1.93 78 04:37 16.01.2020
4593 Mist -5 1026 92 1300 1.93 78 04:37 16.01.2020
4594 Mist -5 1026 92 1100 1.93 78 03:28 16.01.2020
4595 Clear -4 1026 85 8000 0.5 0 02:42 16.01.2020
4596 Clear -3 1026 86 6000 1.64 69 00:53 16.01.2020
4597 Mist -3 1027 92 1200 1.64 69 00:24 16.01.2020
4598 Clear -3 1027 79 10000 1.5 80 23:50 15.01.2020
4599 Mist -3 1027 100 3200 1.68 73 23:23 15.01.2020
4600 Clear -2 1027 86 10000 2.1 40 22:57 15.01.2020
4601 Clear -2 1027 86 10000 2.1 40 22:39 15.01.2020
4602 Mist -2 1028 92 3200 1.68 73 22:19 15.01.2020
4603 Clear -2 1027 79 10000 1 0 21:57 15.01.2020
4604 Mist -1 1028 92 4500 1.68 73 21:38 15.01.2020
4605 Mist -1 1028 92 4500 1.68 73 21:20 15.01.2020
4606 Clear -1 1027 69 10000 1.68 73 20:58 15.01.2020
4607 Clear -1 1027 69 10000 1.68 73 20:58 15.01.2020
4608 Clear -1 1027 69 10000 1.68 73 20:58 15.01.2020
4609 Clear -1 1027 69 10000 1.68 73 20:40 15.01.2020
4610 Mist -1 1028 92 3500 0.5 0 20:20 15.01.2020
4611 Clear 0 1027 69 10000 1 0 19:55 15.01.2020
4612 Mist 0 1027 86 4000 1.74 71 19:37 15.01.2020
4613 Mist 0 1027 86 4000 1.74 71 19:19 15.01.2020
4614 Clear 0 1027 74 10000 1.5 0 18:57 15.01.2020
4615 Mist 0 1027 69 4500 1.74 71 18:38 15.01.2020
4616 Mist 0 1027 69 4500 1.74 71 18:19 15.01.2020
4617 Clear 1 1027 74 10000 4.1 30 17:58 15.01.2020
4618 Mist 1 1027 80 4200 2.1 230 17:38 15.01.2020
4619 Mist 1 1027 80 4200 2.1 230 17:19 15.01.2020
4620 Haze 4 1026 60 4000 1 0 16:41 15.01.2020
4621 Haze 4 1026 60 4000 1 0 16:41 15.01.2020
4622 Haze 4 1026 60 4000 1 0 16:22 15.01.2020
4623 Clear 6 1026 52 10000 1.5 140 15:59 15.01.2020
4624 Haze 6 1026 56 4000 1.5 280 15:41 15.01.2020
4625 Haze 6 1026 56 4000 1.5 280 15:20 15.01.2020
4626 Clear 7 1026 48 10000 1.5 240 14:44 15.01.2020
4627 Haze 7 1026 52 4000 1.5 0 14:21 15.01.2020
4628 Clear 7 1026 48 10000 1.5 260 13:55 15.01.2020
4629 Haze 6 1026 56 4000 1.5 300 13:37 15.01.2020
4630 Haze 6 1026 56 4000 1.5 300 13:18 15.01.2020
4631 Haze 5 1027 56 4000 1 0 12:41 15.01.2020
4632 Haze 5 1027 56 4000 1 0 12:20 15.01.2020
4633 Clear 5 1026 56 10000 1 0 11:58 15.01.2020
4634 Haze 5 1027 60 3500 1.5 0 11:38 15.01.2020
4635 Haze 4 1027 60 3500 1.5 0 11:19 15.01.2020
4636 Clear 2 1027 69 6000 1.5 290 10:46 15.01.2020
4637 Haze 2 1028 64 7000 1.01 85 10:28 15.01.2020
4638 Mist 1 1027 74 4800 1.5 0 09:54 15.01.2020
4639 Clear 0 1028 59 6000 1 0 09:36 15.01.2020
4640 Clear 0 1028 59 6000 1 0 09:18 15.01.2020
4641 Mist -2 1028 92 5000 1.5 230 08:41 15.01.2020
4642 Mist -2 1028 92 5000 1.5 230 08:41 15.01.2020
4643 Mist -2 1028 92 5000 1.5 230 08:23 15.01.2020
4644 Mist -4 1027 85 3100 1.5 160 07:53 15.01.2020
4645 Mist -5 1028 92 4500 0.96 75 07:32 15.01.2020
4646 Mist -5 1027 92 3200 1 0 06:47 15.01.2020
4647 Mist -5 1027 92 4500 0.96 75 06:21 15.01.2020
4648 Mist -5 1026 92 4000 1 310 04:45 15.01.2020
4649 Clear -4 1027 92 7000 0.2 15 02:39 15.01.2020
4650 Clear -4 1027 100 7000 0.5 0 01:28 15.01.2020
4651 Clear -4 1027 100 7000 0.5 0 01:28 15.01.2020
4652 Clear -3 1026 92 6000 1 10 00:59 15.01.2020
4653 Clear -3 1026 92 6000 1 10 00:59 15.01.2020
4654 Clear -3 1026 92 6000 0.49 258 00:36 15.01.2020
4655 Clear -3 1026 92 6000 0.49 258 00:18 15.01.2020
4656 Clear -3 1026 92 7000 0.5 150 23:45 14.01.2020
4657 Clear -3 1026 92 10000 0.5 40 23:24 14.01.2020
4658 Clear -3 1026 92 6000 0.1 111 22:41 14.01.2020
4659 Clear -3 1026 92 10000 0.1 111 22:19 14.01.2020
4660 Clear -3 1025 86 6000 0.5 0 21:59 14.01.2020
4661 Clear -2 1026 92 10000 0.1 111 21:40 14.01.2020
4662 Clear -3 1026 92 10000 0.1 111 21:22 14.01.2020
4663 Clear -3 1025 79 7000 1 0 20:59 14.01.2020
4664 Clear -2 1025 86 8000 1 0 20:40 14.01.2020
4665 Clear -2 1025 86 8000 1 0 20:20 14.01.2020
4666 Clear -2 1025 86 8000 1 0 19:56 14.01.2020
4667 Clear -2 1025 86 10000 1.08 232 19:38 14.01.2020
4668 Clear -2 1025 86 10000 1.08 232 19:19 14.01.2020
4669 Clear -1 1025 74 8000 1 0 18:56 14.01.2020
4670 Clear 1 1024 74 10000 0.5 0 18:37 14.01.2020
4671 Clear 1 1024 74 10000 0.5 0 18:19 14.01.2020
4672 Clear 1 1025 69 10000 0.5 0 17:39 14.01.2020
4673 Clear 1 1025 69 10000 0.5 0 17:19 14.01.2020
4674 Clouds 3 1024 69 10000 1 0 16:55 14.01.2020
4675 Clear 3 1024 60 7000 2.1 250 16:37 14.01.2020
4676 Clear 3 1024 60 7000 2.1 250 16:19 14.01.2020
4677 Clouds 6 1023 48 10000 1 260 15:43 14.01.2020
4678 Clear 6 1024 52 8000 2.1 260 15:19 14.01.2020
4679 Clouds 6 1023 48 10000 1 250 14:57 14.01.2020
4680 Clear 6 1023 48 8000 2.1 270 14:39 14.01.2020
4681 Clouds 7 1023 48 8000 2.1 270 14:18 14.01.2020
4682 Clouds 6 1023 48 10000 2.1 250 13:42 14.01.2020
4683 Clear 6 1023 48 8000 2.6 250 13:19 14.01.2020
4684 Clouds 6 1023 48 10000 1 0 12:43 14.01.2020
4685 Clear 5 1024 52 7000 1.5 0 12:25 14.01.2020
4686 Clouds 4 1024 55 10000 1 0 11:59 14.01.2020
4687 Clear 5 1024 52 7000 1 0 11:40 14.01.2020
4688 Clear 5 1024 52 7000 1 0 11:40 14.01.2020
4689 Clear 4 1024 52 7000 1 0 11:22 14.01.2020
4690 Clouds 3 1025 55 10000 0.5 0 10:56 14.01.2020
4691 Clear 3 1025 59 8000 0.5 0 10:37 14.01.2020
4692 Clear 2 1025 59 8000 0.5 0 10:19 14.01.2020
4693 Clouds 1 1025 59 10000 0.5 0 09:43 14.01.2020
4694 Clouds 1 1025 59 10000 0.5 0 09:43 14.01.2020
4695 Clear 0 1026 69 8000 0.5 0 09:24 14.01.2020
4696 Clear -1 1025 74 10000 0.5 0 08:59 14.01.2020
4697 Clear -1 1026 92 8000 1.5 200 08:39 14.01.2020
4698 Clear -1 1026 92 8000 1.5 200 08:21 14.01.2020
4699 Clear -5 1025 85 10000 0.5 0 07:51 14.01.2020
4700 Clear -5 1025 92 6000 1.11 116 07:24 14.01.2020
4701 Clear -6 1025 92 6000 1.11 116 06:42 14.01.2020
4702 Clear -6 1024 85 8000 1 0 05:58 14.01.2020
4703 Clear -6 1024 92 6000 0.5 260 04:50 14.01.2020
4704 Clear -5 1024 92 7000 1 0 03:46 14.01.2020
4705 Clear -5 1025 100 7000 1.07 84 02:33 14.01.2020
4706 Clear -5 1025 92 7000 0.55 124 01:19 14.01.2020
4707 Clear -4 1025 85 8000 1.5 20 00:47 14.01.2020
4708 Clear -4 1025 92 10000 0.55 124 00:21 14.01.2020
4709 Clear -4 1025 85 8000 1.5 80 23:44 13.01.2020
4710 Clear -4 1026 92 10000 1.1 91 23:19 13.01.2020
4711 Clear -3 1025 86 10000 1.5 170 22:57 13.01.2020
4712 Clear -3 1026 92 10000 1.1 91 22:39 13.01.2020
4713 Clear -3 1026 92 10000 1.1 91 22:19 13.01.2020
4714 Clear -3 1025 79 10000 1 0 21:55 13.01.2020
4715 Clear -3 1025 92 10000 1.1 91 21:36 13.01.2020
4716 Clear -3 1025 92 10000 1.1 91 21:18 13.01.2020
4717 Clear -2 1025 79 10000 2.1 360 20:55 13.01.2020
4718 Clear -1 1025 92 10000 2.1 230 20:37 13.01.2020
4719 Clear -1 1025 92 10000 2.1 230 20:37 13.01.2020
4720 Clear -2 1025 92 10000 2.1 230 20:19 13.01.2020
4721 Clear -2 1025 92 10000 2.1 230 20:19 13.01.2020
4722 Clear -2 1025 79 10000 3.1 20 19:41 13.01.2020
4723 Clear -2 1025 79 10000 3.1 20 19:21 13.01.2020
4724 Clear -2 1025 80 10000 2.1 20 18:58 13.01.2020
4725 Clear -2 1025 80 10000 1.58 90 18:38 13.01.2020
4726 Clear -2 1025 80 10000 1.58 90 18:19 13.01.2020
4727 Clear 0 1025 84 10000 2.1 0 17:58 13.01.2020
4728 Clear 0 1025 69 10000 1.5 220 17:39 13.01.2020
4729 Clear 0 1025 69 10000 1.5 220 17:20 13.01.2020
4730 Clear -2 1028 84 0 0.42 74 16:42 13.01.2020
4731 Clear -2 1028 84 0 0.42 74 16:23 13.01.2020
4732 Clear -2 1028 84 0 0.42 74 15:59 13.01.2020
4733 Clear -2 1028 84 0 0.42 74 15:41 13.01.2020
4734 Clear 4 1026 65 0 0.42 74 15:21 13.01.2020
4735 Clear 4 1026 64 0 0.42 74 14:43 13.01.2020
4736 Clear 4 1026 63 0 0.89 262 14:24 13.01.2020
4737 Clear 4 1026 63 0 0.45 39 13:59 13.01.2020
4738 Clear 5 1026 63 0 0.45 254 13:40 13.01.2020
4739 Clear 4 1026 64 0 0.45 263 13:22 13.01.2020
4740 Clear 4 1026 65 0 0.89 283 12:57 13.01.2020
4741 Clouds 4 1025 51 10000 1.5 250 12:39 13.01.2020
4742 Clouds 4 1025 51 10000 1.5 250 12:21 13.01.2020
4743 Clouds 4 1026 60 10000 2.1 0 11:40 13.01.2020
4744 Clouds 4 1026 60 10000 2.1 0 11:20 13.01.2020
4745 Clouds 4 1026 60 10000 2.1 0 11:20 13.01.2020
4746 Clouds 3 1026 59 10000 1.5 240 10:58 13.01.2020
4747 Clouds 3 1027 55 10000 1.5 0 10:39 13.01.2020
4748 Clouds 3 1027 55 10000 1.5 0 10:20 13.01.2020
4749 Clouds 3 1027 55 10000 1.5 0 10:20 13.01.2020
4750 Clouds 1 1026 64 10000 1 0 09:59 13.01.2020
4751 Clouds 1 1027 69 10000 1.5 280 09:40 13.01.2020
4752 Clouds 1 1027 69 10000 1.5 280 09:21 13.01.2020
4753 Clouds -1 1027 86 10000 0.24 209 08:41 13.01.2020
4754 Clouds -1 1027 86 10000 0.36 277 08:20 13.01.2020
4755 Clouds -3 1026 79 10000 0.5 0 07:48 13.01.2020
4756 Clouds -3 1027 85 10000 0.36 277 07:27 13.01.2020
4757 Clouds -4 1026 85 10000 1 0 06:43 13.01.2020
4758 Clouds -4 1026 85 10000 0.5 0 06:22 13.01.2020
4759 Clouds -4 1026 92 10000 0.5 0 05:36 13.01.2020
4760 Clouds -2 1025 79 10000 1.5 90 03:57 13.01.2020
4761 Clouds -2 1025 92 10000 0.78 319 03:25 13.01.2020
4762 Clouds -2 1025 80 10000 2.6 100 02:47 13.01.2020
4763 Clouds -2 1026 92 10000 0.78 319 02:28 13.01.2020
4764 Clouds -1 1025 86 10000 0.58 346 01:21 13.01.2020
4765 Clouds 0 1025 85 10000 0.5 0 00:41 13.01.2020
4766 Clouds 0 1025 85 10000 0.5 0 00:23 13.01.2020
4767 Clouds 1 1024 69 10000 2.1 260 23:54 12.01.2020
4768 Clouds 1 1025 80 10000 2.1 240 23:36 12.01.2020
4769 Clouds 1 1025 80 10000 2.1 240 23:18 12.01.2020
4770 Clouds 2 1024 64 10000 1 0 22:42 12.01.2020
4771 Clouds 2 1025 74 10000 2.1 240 22:23 12.01.2020
4772 Clouds 3 1024 69 10000 1.93 14 21:57 12.01.2020
4773 Clouds 2 1025 64 10000 1.5 0 21:38 12.01.2020
4774 Clouds 2 1025 64 10000 1.5 0 21:19 12.01.2020
4775 Clouds 3 1024 80 10000 2.1 350 20:56 12.01.2020
4776 Clouds 3 1024 74 10000 2.1 230 20:38 12.01.2020
4777 Clouds 3 1024 74 10000 2.1 230 20:20 12.01.2020
4778 Clouds 3 1024 74 10000 2.6 20 19:56 12.01.2020
4779 Clouds 3 1024 74 10000 2.6 260 19:37 12.01.2020
4780 Clouds 3 1024 74 10000 2.6 260 19:18 12.01.2020
4781 Clouds 3 1023 74 10000 0.5 0 18:57 12.01.2020
4782 Clouds 3 1023 74 10000 0.5 0 18:57 12.01.2020
4783 Clouds 3 1024 74 10000 2.6 270 18:39 12.01.2020
4784 Clouds 3 1024 74 10000 2.6 270 18:21 12.01.2020
4785 Clouds 3 1023 74 10000 1.5 350 17:54 12.01.2020
4786 Clouds 3 1024 74 10000 2.6 260 17:36 12.01.2020
4787 Clouds 3 1024 74 10000 2.6 260 17:18 12.01.2020
4788 Clouds 4 1022 74 10000 2.1 170 16:54 12.01.2020
4789 Clouds 4 1023 69 10000 3.1 250 16:36 12.01.2020
4790 Clouds 4 1023 69 10000 3.1 250 16:18 12.01.2020
4791 Clouds 5 1022 64 10000 3.1 180 15:40 12.01.2020
4792 Clouds 5 1023 65 10000 2.6 260 15:21 12.01.2020
4793 Clouds 4 1022 60 10000 3.6 190 14:44 12.01.2020
4794 Clouds 4 1023 69 10000 2.6 250 14:25 12.01.2020
4795 Clouds 4 1022 60 10000 0.5 0 13:58 12.01.2020
4796 Clouds 4 1023 69 10000 2.6 260 13:40 12.01.2020
4797 Clouds 4 1023 69 10000 2.6 260 13:22 12.01.2020
4798 Clouds 3 1022 60 7000 1 0 12:58 12.01.2020
4799 Clouds 3 1023 69 10000 2.1 0 12:38 12.01.2020
4800 Clouds 3 1023 69 10000 2.1 0 12:19 12.01.2020
4801 Clouds 3 1022 64 6000 1 0 11:43 12.01.2020
4802 Clouds 3 1023 69 10000 2.1 270 11:23 12.01.2020
4803 Clouds 2 1022 64 6000 0.5 0 10:59 12.01.2020
4804 Clouds 2 1023 69 10000 2.1 290 10:40 12.01.2020
4805 Clouds 2 1023 69 10000 2.1 290 10:21 12.01.2020
4806 Clouds 1 1022 74 6000 1.5 290 09:44 12.01.2020
4807 Clouds 1 1023 74 10000 1.26 245 09:24 12.01.2020
4808 Clouds 0 1022 66 6000 0.5 0 08:57 12.01.2020
4809 Clouds -1 1023 86 10000 1.26 245 08:38 12.01.2020
4810 Clouds -1 1023 86 10000 1.21 270 08:19 12.01.2020
4811 Clouds -2 1023 86 10000 0.5 0 07:38 12.01.2020
4812 Clouds -2 1023 86 10000 0.5 0 07:19 12.01.2020
4813 Clouds -2 1022 86 6000 1 0 06:41 12.01.2020
4814 Clouds -2 1022 86 7000 1.5 260 05:58 12.01.2020
4815 Clouds -2 1022 92 10000 1 0 05:20 12.01.2020
4816 Clouds -3 1022 86 10000 1 300 03:44 12.01.2020
4817 Clouds -3 1022 79 10000 1 0 02:59 12.01.2020
4818 Clouds -3 1023 86 10000 1.5 230 02:30 12.01.2020
4819 Clouds -2 1022 86 10000 1 0 01:40 12.01.2020
4820 Clouds -2 1023 80 10000 1 240 01:21 12.01.2020
4821 Clouds -2 1023 92 10000 0.37 323 00:40 12.01.2020
4822 Clouds -2 1023 92 10000 0.37 323 00:18 12.01.2020
4823 Clouds -2 1023 86 10000 0.37 323 23:41 11.01.2020
4824 Clouds -2 1023 86 10000 0.4 242 23:19 11.01.2020
4825 Clouds -2 1023 86 10000 2.1 30 22:57 11.01.2020
4826 Clouds -2 1024 80 10000 2.1 30 22:39 11.01.2020
4827 Clouds -2 1024 80 10000 2.1 30 22:20 11.01.2020
4828 Clouds -2 1024 79 10000 1.5 170 21:54 11.01.2020
4829 Clouds -2 1025 86 10000 2.1 250 21:36 11.01.2020
4830 Clouds -2 1025 86 10000 2.1 250 21:18 11.01.2020
4831 Clouds -2 1024 86 10000 0.4 242 20:40 11.01.2020
4832 Clouds -2 1024 86 10000 0.36 154 20:20 11.01.2020
4833 Clouds -2 1023 79 10000 1 250 19:58 11.01.2020
4834 Clouds -2 1024 79 10000 0.36 154 19:38 11.01.2020
4835 Clouds -2 1024 79 10000 0.36 154 19:20 11.01.2020
4836 Clouds -1 1023 74 10000 0.5 0 18:57 11.01.2020
4837 Clouds -1 1024 64 10000 1.5 230 18:37 11.01.2020
4838 Clouds -1 1024 64 10000 1.5 230 18:19 11.01.2020
4839 Clouds 0 1023 74 10000 0.5 0 17:57 11.01.2020
4840 Clouds 1 1024 69 10000 2.6 220 17:39 11.01.2020
4841 Clouds 1 1024 69 10000 2.6 220 17:18 11.01.2020
4842 Clouds 1 1023 64 10000 2.1 280 16:44 11.01.2020
4843 Clouds 2 1023 64 10000 2.1 240 16:25 11.01.2020
4844 Clouds 3 1023 55 10000 1.5 290 15:57 11.01.2020
4845 Clouds 4 1024 52 10000 1.5 250 15:39 11.01.2020
4846 Clouds 4 1024 52 10000 1.5 250 15:20 11.01.2020
4847 Clouds 4 1023 48 10000 2.1 270 14:46 11.01.2020
4848 Rain 5 1024 45 10000 0.5 280 14:25 11.01.2020
4849 Rain 4 1023 48 10000 2.1 250 13:58 11.01.2020
4850 Rain 4 1024 51 10000 1 330 13:38 11.01.2020
4851 Clear 4 1024 51 10000 1 330 13:20 11.01.2020
4852 Clear 3 1023 48 10000 1.5 0 12:56 11.01.2020
4853 Clear 3 1024 51 10000 2.1 260 12:37 11.01.2020
4854 Clear 3 1024 51 10000 2.1 260 12:19 11.01.2020
4855 Clear 2 1025 55 10000 2.1 270 11:42 11.01.2020
4856 Clear 2 1025 55 10000 2.1 270 11:24 11.01.2020
4857 Clear 1 1025 64 10000 1.5 260 10:47 11.01.2020
4858 Clear 1 1025 64 10000 1.5 260 10:47 11.01.2020
4859 Clear 0 1026 64 10000 2.1 270 10:25 11.01.2020
4860 Clear -1 1026 74 10000 1.5 0 09:43 11.01.2020
4861 Clear -1 1027 80 10000 0.5 80 09:21 11.01.2020
4862 Clear -1 1027 80 10000 0.5 80 09:21 11.01.2020
4863 Clear -3 1026 79 10000 1 0 08:57 11.01.2020
4864 Clear -3 1027 85 10000 0.88 247 08:38 11.01.2020
4865 Clear -3 1027 85 10000 0.24 169 08:19 11.01.2020
4866 Clear -6 1026 85 10000 1.5 350 07:42 11.01.2020
4867 Clear -6 1026 92 10000 1 220 07:24 11.01.2020
4868 Clear -7 1025 92 10000 0.5 0 06:43 11.01.2020
4869 Clear -7 1025 85 10000 0.14 182 05:29 11.01.2020
4870 Clear -7 1025 85 10000 0.3 219 04:40 11.01.2020
4871 Clear -7 1025 85 10000 0.3 219 04:21 11.01.2020
4872 Clear -7 1024 92 10000 1 0 02:46 11.01.2020
4873 Clear -6 1024 85 10000 1.5 340 01:47 11.01.2020
4874 Clear -6 1025 85 10000 0.32 240 01:27 11.01.2020
4875 Clear -6 1024 85 10000 0.5 150 00:52 11.01.2020
4876 Clear -6 1025 92 10000 0.32 240 00:25 11.01.2020
4877 Clear -5 1024 85 10000 0.5 0 23:58 10.01.2020
4878 Clear -5 1025 85 10000 0.5 0 23:39 10.01.2020
4879 Clear -5 1025 85 10000 0.5 0 23:39 10.01.2020
4880 Clear -5 1025 85 10000 0.5 0 23:20 10.01.2020
4881 Clear -5 1025 85 10000 1 240 22:41 10.01.2020
4882 Clear -5 1025 85 10000 1 240 22:22 10.01.2020
4883 Clear -4 1024 79 10000 1 0 21:59 10.01.2020
4884 Clear -4 1025 92 10000 1 0 21:41 10.01.2020
4885 Clear -4 1025 92 10000 1 0 21:20 10.01.2020
4886 Clear -4 1024 73 10000 1 0 20:57 10.01.2020
4887 Clear -4 1025 85 10000 1 230 20:39 10.01.2020
4888 Clear -4 1025 85 10000 1 230 20:39 10.01.2020
4889 Clear -4 1025 85 10000 1 230 20:20 10.01.2020
4890 Clouds -3 1024 86 10000 0.38 241 19:41 10.01.2020
4891 Clouds -3 1024 86 10000 0.38 241 19:21 10.01.2020
4892 Clouds -2 1023 63 10000 1 0 18:57 10.01.2020
4893 Clouds -2 1024 74 10000 0.38 241 18:39 10.01.2020
4894 Clouds -2 1024 74 10000 0.38 241 18:18 10.01.2020
4895 Clouds -2 1023 63 10000 1.5 270 17:56 10.01.2020
4896 Clouds -2 1024 74 10000 1 240 17:38 10.01.2020
4897 Clear -2 1024 74 10000 1 240 17:19 10.01.2020
4898 Clear -2 1024 74 10000 1 240 17:19 10.01.2020
4899 Clear 0 1024 64 10000 2.6 240 16:43 10.01.2020
4900 Clear 0 1024 64 10000 2.6 240 16:22 10.01.2020
4901 Clear 1 1022 55 10000 2.1 250 15:58 10.01.2020
4902 Clear 2 1023 51 10000 3.1 250 15:39 10.01.2020
4903 Clear 2 1023 51 10000 3.1 250 15:20 10.01.2020
4904 Clear 2 1022 47 10000 2.6 270 14:59 10.01.2020
4905 Clear 2 1023 47 10000 2.6 0 14:40 10.01.2020
4906 Clear 2 1023 47 10000 2.6 0 14:19 10.01.2020
4907 Clear 2 1022 47 10000 3.1 270 13:57 10.01.2020
4908 Clear 2 1023 47 10000 2.1 0 13:38 10.01.2020
4909 Clear 2 1023 47 10000 2.1 0 13:19 10.01.2020
4910 Clear 1 1022 55 10000 2.6 270 12:56 10.01.2020
4911 Clear 1 1023 55 10000 2.1 0 12:38 10.01.2020
4912 Clear 1 1022 50 10000 1 0 12:18 10.01.2020
4913 Clear 1 1022 50 10000 1 0 11:42 10.01.2020
4914 Clear 1 1023 59 10000 0.5 0 11:22 10.01.2020
4915 Clear 0 1023 63 10000 1.5 250 10:59 10.01.2020
4916 Clouds 0 1024 64 10000 1.5 0 10:38 10.01.2020
4917 Clouds 0 1024 64 10000 1.5 0 10:20 10.01.2020
4918 Clear -2 1024 68 10000 1 0 09:48 10.01.2020
4919 Clear -2 1025 79 10000 1.14 252 09:27 10.01.2020
4920 Clear -3 1024 73 10000 0.5 0 08:59 10.01.2020
4921 Clear -4 1024 85 10000 1 0 08:39 10.01.2020
4922 Clear -4 1024 85 10000 1 0 08:20 10.01.2020
4923 Clouds -6 1023 85 10000 1 0 07:44 10.01.2020
4924 Clouds -6 1024 92 10000 1.5 220 07:22 10.01.2020
4925 Clouds -7 1023 85 10000 0.5 0 06:43 10.01.2020
4926 Clouds -7 1023 85 10000 0.5 210 06:24 10.01.2020
4927 Clouds -7 1022 85 10000 1 280 05:44 10.01.2020
4928 Clear -7 1022 92 10000 1 210 03:34 10.01.2020
4929 Clear -6 1022 85 10000 0.5 0 02:57 10.01.2020
4930 Clear -6 1022 92 10000 0.5 220 02:36 10.01.2020
4931 Clouds -5 1023 85 10000 0.8 349 01:38 10.01.2020
4932 Clouds -5 1022 79 10000 0.5 300 00:57 10.01.2020
4933 Clouds -5 1023 85 10000 1 230 00:38 10.01.2020
4934 Clouds -5 1022 79 10000 1.5 150 23:57 09.01.2020
4935 Clouds -5 1023 85 10000 1.5 230 23:38 09.01.2020
4936 Clouds -5 1023 85 10000 1.5 230 23:19 09.01.2020
4937 Clouds -4 1022 79 10000 1.5 260 22:57 09.01.2020
4938 Clouds -4 1023 85 10000 1.23 40 22:37 09.01.2020
4939 Clouds -4 1023 85 10000 1.23 40 22:18 09.01.2020
4940 Clouds -4 1022 73 10000 1 0 21:56 09.01.2020
4941 Clouds -4 1022 85 10000 1 0 21:37 09.01.2020
4942 Clouds -4 1022 85 10000 1 0 21:37 09.01.2020
4943 Clouds -4 1022 85 10000 1 0 21:37 09.01.2020
4944 Clouds -4 1022 85 10000 1 0 21:37 09.01.2020
4945 Clouds -4 1022 85 10000 1 0 21:18 09.01.2020
4946 Clouds -3 1022 79 10000 0.5 0 20:56 09.01.2020
4947 Clouds -3 1022 79 10000 0.5 0 20:38 09.01.2020
4948 Clear -3 1023 85 10000 1 0 20:19 09.01.2020
4949 Clouds -3 1022 73 10000 2.1 170 19:54 09.01.2020
4950 Clouds -3 1022 73 10000 2.1 170 19:36 09.01.2020
4951 Clear -2 1023 74 10000 1.5 310 19:18 09.01.2020
4952 Clouds -1 1022 68 10000 2.1 330 18:54 09.01.2020
4953 Clouds -1 1022 68 10000 2.1 330 18:36 09.01.2020
4954 Clouds 0 1022 68 10000 2.6 310 18:18 09.01.2020
4955 Clouds 0 1022 68 10000 2.6 310 18:18 09.01.2020
4956 Clouds 0 1021 68 10000 2.6 350 17:40 09.01.2020
4957 Clouds 0 1022 55 10000 3.6 20 17:18 09.01.2020
4958 Clouds 0 1022 55 10000 3.6 20 17:18 09.01.2020
4959 Clouds 0 1021 63 10000 3.1 30 16:47 09.01.2020
4960 Clouds 0 1021 55 10000 3.1 20 16:22 09.01.2020
4961 Clouds 1 1020 65 10000 5.1 40 15:44 09.01.2020
4962 Clouds 1 1021 51 10000 4.1 30 15:25 09.01.2020
4963 Clouds 2 1021 51 10000 4.1 30 14:59 09.01.2020
4964 Clouds 2 1020 55 10000 4.6 40 14:41 09.01.2020
4965 Clouds 2 1020 55 10000 4.6 40 14:21 09.01.2020
4966 Clouds 2 1020 47 10000 3.6 10 13:57 09.01.2020
4967 Clouds 2 1020 47 10000 3.6 10 13:39 09.01.2020
4968 Clouds 2 1020 55 10000 5.1 360 13:20 09.01.2020
4969 Clouds 2 1020 55 10000 4.1 10 12:58 09.01.2020
4970 Clouds 2 1020 55 10000 4.1 10 12:38 09.01.2020
4971 Clouds 1 1020 59 10000 1.5 0 12:19 09.01.2020
4972 Clouds 1 1020 55 10000 2.6 340 11:43 09.01.2020
4973 Clouds 1 1020 55 10000 3.6 20 11:25 09.01.2020
4974 Clouds 1 1020 55 10000 3.6 20 11:25 09.01.2020
4975 Clouds 1 1020 55 10000 4.6 50 10:59 09.01.2020
4976 Clouds 2 1020 55 10000 4.6 50 10:41 09.01.2020
4977 Clouds 1 1021 55 10000 3.1 20 10:22 09.01.2020
4978 Clouds 1 1021 57 10000 3.1 40 09:49 09.01.2020
4979 Clouds 0 1021 57 10000 3.1 30 09:26 09.01.2020
4980 Clouds 0 1021 57 10000 3.1 30 08:59 09.01.2020
4981 Clouds 0 1020 74 10000 2.6 30 08:40 09.01.2020
4982 Clouds -1 1021 69 10000 3.6 30 08:22 09.01.2020
4983 Clouds -1 1020 79 10000 2.6 10 07:57 09.01.2020
4984 Clouds -1 1020 79 10000 2.6 10 07:38 09.01.2020
4985 Clouds -2 1020 68 10000 2.1 20 07:19 09.01.2020
4986 Clouds -1 1019 79 10000 2.6 10 06:38 09.01.2020
4987 Clouds -1 1019 79 10000 3.1 20 06:18 09.01.2020
4988 Clouds -1 1019 79 10000 3.6 20 05:40 09.01.2020
4989 Clouds -1 1019 74 10000 3.6 360 04:42 09.01.2020
4990 Clouds -1 1018 68 10000 4.6 360 03:28 09.01.2020
4991 Clouds 0 1018 74 10000 4.1 10 02:47 09.01.2020
4992 Clouds 0 1018 74 10000 4.1 10 02:47 09.01.2020
4993 Clouds 0 1018 74 10000 6.2 20 01:56 09.01.2020
4994 Clouds 0 1018 74 10000 6.2 20 01:34 09.01.2020
4995 Clouds 0 1018 76 10000 5.7 10 00:40 09.01.2020
4996 Clouds 1 1018 76 10000 4.6 20 00:19 09.01.2020
4997 Clouds 0 1018 76 10000 3.6 40 23:41 08.01.2020
4998 Clouds 1 1018 69 10000 3.6 350 23:23 08.01.2020
4999 Clouds 1 1018 69 10000 3.1 40 22:56 08.01.2020
5000 Clouds 1 1018 69 10000 3.1 40 22:38 08.01.2020
5001 Clouds 1 1018 69 10000 3.6 360 22:19 08.01.2020
5002 Clouds 1 1018 74 10000 2.6 40 21:55 08.01.2020
5003 Clouds 1 1018 74 10000 2.6 40 21:37 08.01.2020
5004 Clouds 1 1018 69 10000 3.1 350 21:18 08.01.2020
5005 Clouds 2 1018 69 10000 3.1 350 20:56 08.01.2020
5006 Clouds 2 1018 83 10000 4.1 60 20:37 08.01.2020
5007 Clouds 2 1017 69 10000 5.7 30 20:19 08.01.2020
5008 Clouds 2 1017 80 10000 5.1 60 19:39 08.01.2020
5009 Clouds 2 1017 69 10000 4.1 40 19:20 08.01.2020
5010 Clouds 2 1017 69 10000 4.1 40 18:59 08.01.2020
5011 Clouds 2 1017 69 10000 4.1 40 18:40 08.01.2020
5012 Rain 2 1017 83 10000 1.5 240 18:19 08.01.2020
5013 Rain 2 1017 83 10000 1.5 240 18:19 08.01.2020
5014 Rain 2 1017 83 10000 1.5 240 18:19 08.01.2020
5015 Rain 2 1017 83 10000 1.5 240 17:59 08.01.2020
5016 Rain 2 1016 74 10000 3.1 20 17:40 08.01.2020
5017 Clouds 2 1017 75 10000 2.6 260 17:22 08.01.2020
5018 Snow 2 1016 86 7000 5.7 40 16:57 08.01.2020
5019 Snow 2 1016 86 7000 5.7 40 16:38 08.01.2020
5020 Rain 3 1016 86 4000 3.1 40 16:19 08.01.2020
5021 Rain 3 1016 80 6000 7.2 350 15:55 08.01.2020
5022 Rain 3 1016 80 6000 7.2 350 15:37 08.01.2020
5023 Rain 3 1015 74 10000 6.7 350 15:18 08.01.2020
5024 Rain 4 1015 69 10000 4.6 350 14:40 08.01.2020
5025 Rain 4 1015 69 10000 4.1 340 14:21 08.01.2020
5026 Rain 4 1014 69 10000 5.7 40 13:42 08.01.2020
5027 Rain 4 1015 76 10000 1.5 240 13:24 08.01.2020
5028 Rain 4 1015 76 10000 1.5 240 12:59 08.01.2020
5029 Rain 4 1014 76 10000 7.2 30 12:40 08.01.2020
5030 Rain 4 1014 80 10000 2.1 230 12:18 08.01.2020
5031 Rain 4 1014 76 10000 5.7 30 11:48 08.01.2020
5032 Rain 4 1014 80 10000 1.5 190 11:20 08.01.2020
5033 Rain 4 1014 94 10000 5.7 20 10:59 08.01.2020
5034 Rain 4 1014 94 10000 5.7 20 10:41 08.01.2020
5035 Rain 4 1014 75 10000 4.6 360 10:21 08.01.2020
5036 Rain 4 1014 75 10000 4.6 360 09:57 08.01.2020
5037 Rain 3 1014 94 10000 2.1 290 09:36 08.01.2020
5038 Rain 3 1015 93 10000 1 0 09:18 08.01.2020
5039 Rain 3 1014 93 10000 0.5 230 08:41 08.01.2020
5040 Rain 3 1014 93 10000 1.5 240 08:22 08.01.2020
5041 Rain 3 1014 93 10000 1.5 240 07:58 08.01.2020
5042 Rain 3 1013 93 7000 2.1 260 07:40 08.01.2020
5043 Rain 2 1014 93 7000 2.1 220 07:18 08.01.2020
5044 Rain 2 1013 93 10000 1 0 06:41 08.01.2020
5045 Rain 2 1013 100 10000 2.1 230 05:56 08.01.2020
5046 Rain 3 1012 86 10000 3.6 20 05:26 08.01.2020
5047 Rain 3 1012 86 10000 3.1 30 04:37 08.01.2020
5048 Rain 2 1012 93 10000 2.1 20 02:46 08.01.2020
5049 Rain 2 1012 93 10000 2.1 20 02:28 08.01.2020
5050 Rain 3 1012 86 10000 3.6 20 01:57 08.01.2020
5051 Rain 3 1012 86 10000 3.6 20 01:32 08.01.2020
5052 Rain 2 1012 86 10000 4.1 20 00:51 08.01.2020
5053 Rain 2 1012 100 6000 0.5 0 00:22 08.01.2020
5054 Rain 2 1011 86 10000 2.6 20 23:46 07.01.2020
5055 Rain 2 1012 86 10000 3.1 10 23:21 07.01.2020
5056 Rain 2 1012 86 10000 3.1 10 22:43 07.01.2020
5057 Rain 2 1012 100 7000 1.12 42 22:21 07.01.2020
5058 Rain 2 1012 100 7000 1.12 42 21:59 07.01.2020
5059 Rain 2 1012 86 10000 2.6 360 21:41 07.01.2020
5060 Rain 3 1012 86 10000 2.6 10 21:21 07.01.2020
5061 Rain 3 1012 86 10000 2.6 10 20:58 07.01.2020
5062 Rain 3 1013 93 10000 1 0 20:39 07.01.2020
5063 Rain 3 1012 86 10000 3.1 20 20:21 07.01.2020
5064 Rain 3 1012 86 10000 3.1 20 19:57 07.01.2020
5065 Rain 3 1011 86 10000 3.6 20 19:37 07.01.2020
5066 Rain 3 1012 86 10000 2.18 35 19:19 07.01.2020
5067 Rain 3 1011 98 10000 3.6 360 18:56 07.01.2020
5068 Rain 4 1011 98 10000 3.6 360 18:37 07.01.2020
5069 Rain 4 1011 98 10000 2.6 10 18:18 07.01.2020
5070 Clouds 4 1011 98 10000 3.6 50 17:42 07.01.2020
5071 Clouds 4 1011 97 10000 3.1 40 17:23 07.01.2020
5072 Clouds 4 1011 97 10000 3.1 40 17:23 07.01.2020
5073 Rain 4 1011 97 10000 3.1 20 16:58 07.01.2020
5074 Rain 4 1011 97 10000 3.1 20 16:39 07.01.2020
5075 Rain 5 1010 97 10000 4.6 30 16:20 07.01.2020
5076 Rain 5 1010 97 10000 4.6 30 15:59 07.01.2020
5077 Rain 4 1010 97 10000 4.6 20 15:41 07.01.2020
5078 Clouds 4 1010 70 10000 4.1 80 15:23 07.01.2020
5079 Clouds 5 1010 97 10000 4.1 360 14:57 07.01.2020
5080 Clouds 5 1010 97 10000 4.1 360 14:37 07.01.2020
5081 Clouds 5 1010 91 10000 4.1 360 14:19 07.01.2020
5082 Clouds 5 1010 91 10000 4.1 360 14:19 07.01.2020
5083 Clouds 5 1010 91 10000 4.1 10 13:40 07.01.2020
5084 Clouds 4 1009 93 10000 4.1 30 13:20 07.01.2020
5085 Clouds 5 1010 93 10000 2.6 40 12:54 07.01.2020
5086 Clouds 5 1010 93 10000 2.6 40 12:36 07.01.2020
5087 Clouds 5 1010 93 10000 0.5 0 12:18 07.01.2020
5088 Rain 4 1010 70 10000 2.6 90 11:41 07.01.2020
5089 Clouds 4 1010 85 10000 4.6 30 11:21 07.01.2020
5090 Clouds 4 1010 85 10000 4.6 40 10:43 07.01.2020
5091 Clouds 4 1010 85 10000 4.1 30 10:24 07.01.2020
5092 Clouds 4 1010 85 10000 4.1 20 09:59 07.01.2020
5093 Clouds 4 1010 85 10000 4.1 20 09:38 07.01.2020
5094 Clouds 4 1011 93 10000 1.5 180 09:20 07.01.2020
5095 Clouds 4 1010 85 10000 2.6 60 08:47 07.01.2020
5096 Clouds 3 1010 70 10000 4.1 100 08:27 07.01.2020
5097 Clouds 3 1010 80 10000 3.1 20 07:55 07.01.2020
5098 Clouds 3 1010 80 10000 3.1 20 07:34 07.01.2020
5099 Clouds 3 1010 93 10000 1 280 06:54 07.01.2020
5100 Clouds 3 1010 93 10000 1 280 06:35 07.01.2020
5101 Clouds 3 1009 86 10000 1.5 250 05:58 07.01.2020
5102 Clouds 3 1009 86 10000 1.5 250 05:38 07.01.2020
5103 Clouds 3 1010 80 8000 3.6 10 03:44 07.01.2020
5104 Clouds 3 1009 69 10000 2.6 20 02:25 07.01.2020
5105 Clouds 3 1009 69 10000 2.6 20 01:57 07.01.2020
5106 Clouds 3 1010 69 10000 2.6 80 01:34 07.01.2020
5107 Rain 2 1009 74 10000 3.1 360 00:40 07.01.2020
5108 Rain 2 1009 74 10000 4.1 50 00:20 07.01.2020
5109 Rain 2 1009 74 10000 4.1 30 23:55 06.01.2020
5110 Rain 2 1009 74 10000 4.1 30 23:36 06.01.2020
5111 Rain 2 1009 74 10000 5.1 40 23:18 06.01.2020
5112 Rain 2 1009 74 10000 5.1 40 23:18 06.01.2020
5113 Rain 2 1009 74 10000 5.1 30 22:43 06.01.2020
5114 Rain 2 1009 74 10000 3.1 90 22:23 06.01.2020
5115 Rain 2 1009 74 10000 3.1 90 21:58 06.01.2020
5116 Clouds 1 1009 80 10000 5.1 60 21:39 06.01.2020
5117 Clouds 1 1010 80 10000 6.2 60 21:20 06.01.2020
5118 Clouds 1 1010 80 10000 6.2 60 21:20 06.01.2020
5119 Clouds 1 1010 80 10000 6.2 50 20:57 06.01.2020
5120 Clouds 1 1010 80 10000 6.2 50 20:38 06.01.2020
5121 Snow 1 1010 100 4000 2.1 250 20:20 06.01.2020
5122 Snow 1 1010 80 8000 7.2 50 19:56 06.01.2020
5123 Snow 1 1010 80 8000 7.2 50 19:38 06.01.2020
5124 Clouds 1 1010 80 8000 7.2 50 19:20 06.01.2020
5125 Clouds 1 1010 80 6000 1.5 70 18:48 06.01.2020
5126 Snow 1 1010 88 9000 6.2 40 18:22 06.01.2020
5127 Snow 1 1010 88 4200 5.7 30 17:58 06.01.2020
5128 Snow 1 1010 88 4200 5.7 30 17:38 06.01.2020
5129 Snow 0 1010 85 1000 1 0 17:18 06.01.2020
5130 Snow 0 1010 85 1000 1 0 17:18 06.01.2020
5131 Snow 0 1010 85 4800 4.1 40 16:44 06.01.2020
5132 Snow 0 1010 85 4800 5.7 30 16:25 06.01.2020
5133 Snow 0 1010 85 4800 5.7 30 15:59 06.01.2020
5134 Snow 0 1010 85 4100 7.2 50 15:39 06.01.2020
5135 Snow 0 1010 92 4800 5.1 30 15:19 06.01.2020
5136 Snow 0 1010 92 2200 5.7 30 14:57 06.01.2020
5137 Snow 0 1010 92 2200 5.7 30 14:39 06.01.2020
5138 Snow 0 1010 92 1800 6.2 30 14:19 06.01.2020
5139 Snow 0 1010 92 1400 5.1 40 13:54 06.01.2020
5140 Snow 0 1010 92 1400 5.1 40 13:36 06.01.2020
5141 Snow 0 1010 80 1600 3.1 70 13:18 06.01.2020
5142 Snow 0 1011 80 1400 3.1 70 12:41 06.01.2020
5143 Snow 0 1010 80 2500 7.2 50 12:20 06.01.2020
5144 Snow 0 1010 80 2200 4.6 70 11:57 06.01.2020
5145 Snow 0 1010 80 2200 4.6 70 11:38 06.01.2020
5146 Snow 0 1010 80 2200 4.6 70 11:38 06.01.2020
5147 Snow 0 1010 81 1700 5.7 80 11:20 06.01.2020
5148 Snow 0 1010 81 1700 5.7 80 11:20 06.01.2020
5149 Snow 0 1011 92 2000 6.7 30 10:43 06.01.2020
5150 Snow 0 1011 81 1700 5.1 80 10:21 06.01.2020
5151 Snow 0 1012 81 2000 6.7 50 09:42 06.01.2020
5152 Snow 0 1012 92 900 6.7 50 09:24 06.01.2020
5153 Snow 0 1012 92 900 6.7 50 08:58 06.01.2020
5154 Snow 0 1012 81 1900 4.6 50 08:40 06.01.2020
5155 Snow 0 1012 73 600 5.1 90 08:21 06.01.2020
5156 Snow 0 1012 73 4500 6.2 40 07:48 06.01.2020
5157 Snow 1 1012 92 4800 4.6 30 07:21 06.01.2020
5158 Snow 1 1011 73 1800 5.1 50 06:44 06.01.2020
5159 Clouds 1 1011 73 10000 5.7 30 05:52 06.01.2020
5160 Clouds 1 1011 73 10000 5.7 30 05:33 06.01.2020
5161 Clouds 0 1011 86 10000 3.6 30 04:26 06.01.2020
5162 Clouds 0 1011 86 10000 5.1 20 03:53 06.01.2020
5163 Clouds 0 1012 86 10000 2.6 20 02:32 06.01.2020
5164 Clouds 0 1012 86 10000 5.1 20 01:56 06.01.2020
5165 Clouds 0 1012 86 10000 5.1 20 01:32 06.01.2020
5166 Clouds -1 1012 86 10000 3.6 10 00:57 06.01.2020
5167 Clouds -1 1013 92 10000 3.1 10 00:39 06.01.2020
5168 Clouds -1 1012 80 10000 1.5 10 00:18 06.01.2020
5169 Clouds -1 1012 86 10000 3.1 40 23:40 05.01.2020
5170 Clouds -1 1013 86 10000 1 230 23:21 05.01.2020
5171 Clouds -1 1013 86 10000 1.5 350 22:55 05.01.2020
5172 Clouds -1 1013 86 10000 1.5 350 22:37 05.01.2020
5173 Clouds -1 1013 86 10000 3.6 20 22:18 05.01.2020
5174 Clouds -1 1013 86 10000 3.1 20 21:41 05.01.2020
5175 Clouds -1 1013 86 10000 3.1 20 21:41 05.01.2020
5176 Clouds -1 1012 86 10000 3.1 30 21:21 05.01.2020
5177 Clouds -1 1012 86 10000 3.1 30 20:58 05.01.2020
5178 Clouds -1 1013 86 10000 1.5 10 20:39 05.01.2020
5179 Clouds -1 1012 86 10000 3.1 10 20:20 05.01.2020
5180 Clouds -1 1012 86 10000 3.1 10 19:59 05.01.2020
5181 Clouds -1 1012 80 10000 2.1 20 19:40 05.01.2020
5182 Clouds -1 1012 80 10000 1 0 19:21 05.01.2020
5183 Clouds -1 1012 81 10000 1.5 350 18:56 05.01.2020
5184 Clouds -1 1012 81 10000 1.5 350 18:38 05.01.2020
5185 Clouds 1 1012 69 10000 2.1 70 18:19 05.01.2020
5186 Clouds 2 1012 64 10000 2.1 60 17:59 05.01.2020
5187 Clouds 2 1012 64 10000 2.1 60 17:39 05.01.2020
5188 Clouds 2 1012 64 10000 2.1 60 17:39 05.01.2020
5189 Clouds 1 1013 69 10000 0.5 0 17:20 05.01.2020
5190 Clouds 2 1011 64 10000 3.1 50 16:57 05.01.2020
5191 Clouds 2 1011 64 10000 3.1 50 16:39 05.01.2020
5192 Clouds 2 1011 59 10000 2.1 360 16:20 05.01.2020
5193 Clouds 3 1011 55 10000 1 340 15:40 05.01.2020
5194 Clouds 3 1011 55 10000 1 0 15:21 05.01.2020
5195 Clouds 3 1011 55 10000 1 0 14:57 05.01.2020
5196 Clouds 3 1011 55 10000 1 0 14:38 05.01.2020
5197 Clouds 3 1011 55 10000 2.1 230 14:20 05.01.2020
5198 Clouds 3 1011 55 10000 2.1 230 13:57 05.01.2020
5199 Clouds 3 1011 55 10000 2.1 220 13:38 05.01.2020
5200 Clouds 3 1011 55 10000 2.1 220 13:38 05.01.2020
5201 Clouds 3 1011 55 10000 3.1 230 13:19 05.01.2020
5202 Clouds 3 1011 55 10000 3.1 230 12:56 05.01.2020
5203 Clouds 3 1011 59 10000 3.1 190 12:56 05.01.2020
5204 Clouds 3 1011 59 10000 3.1 190 12:37 05.01.2020
5205 Clouds 3 1011 51 10000 4.1 190 12:19 05.01.2020
5206 Clouds 3 1012 59 10000 1.5 0 11:44 05.01.2020
5207 Clouds 3 1013 64 10000 1.5 290 11:20 05.01.2020
5208 Clouds 3 1013 64 10000 1.5 290 11:00 05.01.2020
5209 Clouds 2 1013 64 10000 1.5 220 10:40 05.01.2020
5210 Clouds 2 1014 64 10000 1 0 10:19 05.01.2020
5211 Clouds 1 1013 69 10000 1 0 09:42 05.01.2020
5212 Clouds -1 1013 66 10000 1.5 220 09:22 05.01.2020
5213 Clouds -1 1013 86 10000 1.5 220 08:54 05.01.2020
5214 Clouds -1 1013 86 10000 1.5 220 08:35 05.01.2020
5215 Clouds -1 1015 86 10000 0.57 225 07:59 05.01.2020
5216 Clouds -4 1014 86 10000 1 160 07:39 05.01.2020
5217 Clouds -4 1013 79 10000 0.5 0 07:20 05.01.2020
5218 Clouds -4 1013 86 10000 1 0 06:44 05.01.2020
5219 Clouds -4 1013 79 10000 2.1 150 05:39 05.01.2020
5220 Clouds -3 1012 80 10000 2.1 150 04:55 05.01.2020
5221 Clouds -3 1012 86 10000 1 0 04:18 05.01.2020
5222 Clouds -3 1012 86 10000 1 0 04:18 05.01.2020
5223 Clouds -2 1013 86 10000 0.5 0 03:26 05.01.2020
5224 Clouds -2 1013 86 10000 0.5 0 02:32 05.01.2020
5225 Clouds -1 1013 86 10000 1.5 150 01:49 05.01.2020
5226 Clouds -1 1013 86 10000 1 10 01:20 05.01.2020
5227 Clouds 0 1013 86 10000 1.03 258 00:57 05.01.2020
5228 Clouds 0 1013 86 10000 1.03 258 00:57 05.01.2020
5229 Clouds 0 1013 86 10000 1.03 258 00:39 05.01.2020
5230 Clouds 0 1013 86 10000 1 0 00:19 05.01.2020
5231 Clouds 0 1013 86 10000 1 0 23:41 04.01.2020
5232 Clouds 0 1013 86 10000 1 0 23:41 04.01.2020
5233 Clouds 0 1013 86 10000 0.5 0 23:20 04.01.2020
5234 Clouds 0 1013 80 10000 1.5 130 22:55 04.01.2020
5235 Clouds 0 1013 80 10000 1.5 130 22:37 04.01.2020
5236 Clouds 0 1014 93 10000 0.45 247 22:19 04.01.2020
5237 Clouds 0 1013 80 10000 1 0 21:55 04.01.2020
5238 Clouds 0 1013 80 10000 1 0 21:36 04.01.2020
5239 Clouds 0 1014 93 10000 0.45 247 21:18 04.01.2020
5240 Clouds 0 1013 80 10000 2.1 160 20:41 04.01.2020
5241 Clouds 0 1013 80 10000 2.6 160 20:22 04.01.2020
5242 Clouds 0 1013 80 10000 2.6 160 19:57 04.01.2020
5243 Clouds 0 1013 80 10000 2.6 180 19:39 04.01.2020
5244 Clouds 0 1014 88 10000 1.29 259 19:20 04.01.2020
5245 Clouds 0 1013 80 10000 2.1 170 18:56 04.01.2020
5246 Clouds 0 1013 80 10000 2.1 170 18:38 04.01.2020
5247 Clouds 0 1013 80 10000 2.1 170 18:19 04.01.2020
5248 Clouds 0 1013 80 10000 2.1 180 17:42 04.01.2020
5249 Clouds 0 1012 80 10000 2.1 180 17:24 04.01.2020
5250 Clouds 0 1012 80 10000 2.1 180 16:59 04.01.2020
5251 Clouds 0 1012 80 10000 2.6 200 16:40 04.01.2020
5252 Clouds 1 1012 80 10000 2.1 200 16:22 04.01.2020
5253 Clouds 1 1012 80 10000 2.1 200 15:56 04.01.2020
5254 Clouds 1 1012 79 10000 3.6 190 15:38 04.01.2020
5255 Clouds 2 1012 69 10000 3.6 210 15:19 04.01.2020
5256 Clouds 2 1012 64 10000 4.6 220 14:54 04.01.2020
5257 Clouds 2 1012 64 10000 4.6 210 14:36 04.01.2020
5258 Clouds 2 1012 64 10000 4.6 210 14:18 04.01.2020
5259 Clouds 2 1012 64 10000 3.6 220 13:39 04.01.2020
5260 Clouds 2 1013 64 10000 2.6 260 13:20 04.01.2020
5261 Clouds 2 1013 64 10000 2.6 260 12:59 04.01.2020
5262 Clouds 2 1012 59 10000 2.6 190 12:40 04.01.2020
5263 Clouds 2 1013 69 10000 3.1 250 12:19 04.01.2020
5264 Clouds 2 1013 69 10000 3.1 250 11:57 04.01.2020
5265 Clouds 1 1013 69 10000 2.1 200 11:38 04.01.2020
5266 Clouds 1 1014 69 10000 3.1 260 11:18 04.01.2020
5267 Clouds 1 1013 69 10000 2.6 200 10:41 04.01.2020
5268 Clouds 0 1014 87 10000 3.1 220 10:22 04.01.2020
5269 Clouds 0 1014 87 10000 3.6 210 09:50 04.01.2020
5270 Clouds 0 1014 87 10000 3.6 210 09:26 04.01.2020
5271 Clouds 0 1014 80 10000 3.1 180 08:57 04.01.2020
5272 Clouds -1 1014 80 10000 3.1 180 08:37 04.01.2020
5273 Clouds -2 1014 80 10000 2.6 190 08:19 04.01.2020
5274 Clouds -2 1014 80 10000 2.1 180 07:42 04.01.2020
5275 Clouds -3 1014 86 10000 2.1 180 06:49 04.01.2020
5276 Clouds -3 1014 86 10000 1.5 190 05:59 04.01.2020
5277 Clouds -3 1014 86 10000 2.1 180 05:18 04.01.2020
5278 Clouds -3 1014 86 10000 1.5 180 04:32 04.01.2020
5279 Clouds -3 1014 86 10000 2.1 170 03:39 04.01.2020
5280 Clouds -3 1014 86 10000 1 160 03:18 04.01.2020
5281 Clouds -4 1016 92 10000 0.71 288 02:20 04.01.2020
5282 Clouds -4 1015 86 10000 1 300 01:53 04.01.2020
5283 Clouds -4 1015 86 10000 1 300 01:30 04.01.2020
5284 Clouds -4 1015 79 10000 1 160 00:30 04.01.2020
5285 Clouds -3 1016 86 10000 1 0 23:59 03.01.2020
5286 Clouds -3 1016 86 10000 0.5 0 23:38 03.01.2020
5287 Clouds -3 1016 86 10000 1 0 23:20 03.01.2020
5288 Clouds -3 1016 79 10000 0.5 0 22:41 03.01.2020
5289 Clouds -3 1016 86 10000 2.1 150 22:19 03.01.2020
5290 Clouds -3 1017 79 10000 0.51 68 21:58 03.01.2020
5291 Clouds -3 1017 79 10000 0.51 68 21:38 03.01.2020
5292 Clouds -3 1017 79 10000 0.51 68 21:38 03.01.2020
5293 Clouds -2 1017 86 10000 1 0 21:19 03.01.2020
5294 Clouds -2 1017 86 10000 1 0 21:19 03.01.2020
5295 Clouds -2 1017 86 10000 1 0 20:56 03.01.2020
5296 Clouds -2 1017 86 10000 1.5 40 20:38 03.01.2020
5297 Clear -2 1017 86 10000 2.1 10 20:18 03.01.2020
5298 Clear -2 1017 86 10000 2.6 350 19:55 03.01.2020
5299 Clear -2 1017 86 10000 2.6 350 19:37 03.01.2020
5300 Clear -2 1018 86 10000 0.5 0 19:18 03.01.2020
5301 Clear -1 1018 79 10000 2.6 360 18:40 03.01.2020
5302 Clear -1 1019 69 10000 3.1 60 18:21 03.01.2020
5303 Clear 0 1018 80 10000 3.1 20 17:55 03.01.2020
5304 Clear 0 1018 80 10000 3.1 20 17:36 03.01.2020
5305 Clear 0 1018 69 10000 1 0 17:18 03.01.2020
5306 Clouds 1 1017 75 10000 3.6 70 16:42 03.01.2020
5307 Clear 2 1019 64 10000 3.1 40 16:22 03.01.2020
5308 Clouds 3 1017 64 10000 5.1 80 15:43 03.01.2020
5309 Clouds 3 1018 64 10000 4.1 50 15:19 03.01.2020
5310 Clouds 3 1018 64 10000 4.1 50 14:57 03.01.2020
5311 Clouds 4 1018 64 10000 5.1 80 14:37 03.01.2020
5312 Clouds 4 1018 64 10000 5.7 50 14:19 03.01.2020
5313 Clouds 4 1018 64 10000 6.2 40 13:43 03.01.2020
5314 Clouds 4 1018 56 10000 4.6 20 13:23 03.01.2020
5315 Clouds 4 1018 56 10000 4.6 20 12:57 03.01.2020
5316 Clouds 4 1018 64 10000 6.7 50 12:38 03.01.2020
5317 Clouds 4 1018 59 10000 6.7 40 12:20 03.01.2020
5318 Clouds 4 1018 59 10000 7.2 70 11:44 03.01.2020
5319 Clouds 4 1019 55 10000 5.1 50 11:19 03.01.2020
5320 Clouds 4 1019 59 10000 7.2 60 10:44 03.01.2020
5321 Clouds 4 1020 55 10000 6.7 60 10:25 03.01.2020
5322 Clouds 3 1020 55 10000 8.7 50 09:57 03.01.2020
5323 Clouds 3 1020 55 10000 8.7 50 09:39 03.01.2020
5324 Clouds 3 1020 55 10000 8.2 50 09:21 03.01.2020
5325 Clouds 2 1020 59 10000 7.2 60 08:56 03.01.2020
5326 Clouds 2 1020 59 10000 7.2 60 08:36 03.01.2020
5327 Clouds 0 1020 59 10000 6.7 50 08:18 03.01.2020
5328 Clouds -1 1020 64 10000 7.7 50 07:39 03.01.2020
5329 Clear -1 1020 74 10000 2.62 59 07:18 03.01.2020
5330 Clouds -1 1020 64 10000 6.7 50 06:43 03.01.2020
5331 Clouds -2 1020 69 10000 5.7 60 06:24 03.01.2020
5332 Clear -2 1020 74 10000 1 0 05:28 03.01.2020
5333 Clouds -3 1020 86 10000 4.6 30 03:55 03.01.2020
5334 Clouds -2 1020 79 10000 4.1 40 02:55 03.01.2020
5335 Clouds -3 1021 79 10000 3.1 50 01:57 03.01.2020
5336 Clouds -3 1021 79 10000 4.1 30 01:38 03.01.2020
5337 Clouds -2 1021 80 10000 3.6 50 00:46 03.01.2020
5338 Clouds -2 1021 80 10000 3.6 50 00:26 03.01.2020
5339 Clouds -2 1021 80 10000 2.6 60 23:55 02.01.2020
5340 Clouds -2 1021 80 10000 2.6 60 23:37 02.01.2020
5341 Clouds -2 1021 80 10000 3.1 60 23:18 02.01.2020
5342 Clouds -2 1022 80 10000 3.6 30 22:44 02.01.2020
5343 Clouds -2 1022 76 10000 4.1 30 22:20 02.01.2020
5344 Clouds -1 1022 76 10000 3.6 30 21:57 02.01.2020
5345 Clouds -1 1022 76 10000 3.6 30 21:57 02.01.2020
5346 Clouds -1 1022 76 10000 3.6 30 21:38 02.01.2020
5347 Clouds -1 1022 76 10000 3.6 30 21:38 02.01.2020
5348 Clouds -1 1022 76 10000 4.1 50 21:20 02.01.2020
5349 Clouds -1 1022 76 10000 4.1 50 20:57 02.01.2020
5350 Clouds -1 1022 80 10000 3.1 40 20:38 02.01.2020
5351 Clouds 1 1022 74 10000 4.6 40 20:20 02.01.2020
5352 Clouds 1 1022 80 10000 3.6 20 19:55 02.01.2020
5353 Clouds 1 1022 80 10000 3.6 20 19:36 02.01.2020
5354 Clouds 1 1022 74 10000 5.1 30 19:18 02.01.2020
5355 Clouds 1 1022 86 10000 3.6 20 18:54 02.01.2020
5356 Clouds 1 1022 86 10000 3.6 20 18:36 02.01.2020
5357 Clouds 1 1021 69 10000 4.1 40 18:18 02.01.2020
5358 Clouds 1 1021 69 10000 4.1 40 17:55 02.01.2020
5359 Clouds 2 1021 69 10000 4.1 40 17:36 02.01.2020
5360 Clouds 1 1021 67 10000 3.6 30 17:18 02.01.2020
5361 Clouds 2 1021 67 10000 3.6 20 16:41 02.01.2020
5362 Clouds 3 1021 69 10000 4.6 70 16:21 02.01.2020
5363 Clouds 3 1021 69 10000 4.6 70 15:58 02.01.2020
5364 Clouds 3 1020 64 10000 5.7 70 15:40 02.01.2020
5365 Clouds 3 1020 64 10000 5.7 70 15:40 02.01.2020
5366 Clouds 3 1021 55 10000 6.2 70 15:22 02.01.2020
5367 Clouds 4 1020 59 10000 6.7 70 14:57 02.01.2020
5368 Clouds 4 1020 59 10000 6.7 70 14:37 02.01.2020
5369 Clouds 4 1021 52 10000 6.7 50 14:18 02.01.2020
5370 Clouds 4 1020 55 10000 7.7 50 13:51 02.01.2020
5371 Clouds 4 1020 55 10000 7.7 50 13:32 02.01.2020
5372 Clouds 4 1020 55 10000 7.2 50 12:47 02.01.2020
5373 Clouds 4 1020 55 10000 8.2 40 12:28 02.01.2020
5374 Clouds 4 1020 55 10000 8.2 40 11:59 02.01.2020
5375 Rain 4 1020 55 10000 8.2 40 11:41 02.01.2020
5376 Rain 4 1020 55 10000 5.1 60 11:20 02.01.2020
5377 Rain 4 1021 59 10000 6.7 50 10:45 02.01.2020
5378 Clouds 4 1021 59 10000 6.7 50 10:26 02.01.2020
5379 Clouds 3 1021 59 10000 6.7 40 09:52 02.01.2020
5380 Clouds 3 1021 59 10000 6.7 40 09:33 02.01.2020
5381 Clouds 2 1021 55 10000 5.1 50 08:48 02.01.2020
5382 Clouds 2 1021 58 10000 5.1 50 08:27 02.01.2020
5383 Clouds 1 1020 74 10000 5.1 40 07:54 02.01.2020
5384 Clouds 1 1020 74 10000 5.1 40 07:31 02.01.2020
5385 Clouds 0 1020 74 10000 4.1 50 06:55 02.01.2020
5386 Clouds 0 1020 74 10000 4.1 50 06:55 02.01.2020
5387 Clouds 0 1020 74 10000 4.1 50 06:36 02.01.2020
5388 Clouds 0 1020 74 10000 4.6 30 05:36 02.01.2020
5389 Clouds 0 1019 72 10000 4.1 60 04:33 02.01.2020
5390 Clouds 1 1019 72 10000 1 360 02:55 02.01.2020
5391 Clouds 1 1019 71 10000 1.5 340 02:20 02.01.2020
5392 Clouds 1 1019 71 10000 1.5 300 01:46 02.01.2020
5393 Clouds 1 1019 64 10000 1.5 20 01:19 02.01.2020
5394 Clouds 1 1018 68 10000 1 40 00:34 02.01.2020
5395 Clouds 1 1019 64 10000 1.5 20 23:58 01.01.2020
5396 Clouds 1 1018 68 10000 2.6 20 23:40 01.01.2020
5397 Clouds 1 1019 64 10000 0.5 0 23:19 01.01.2020
5398 Clouds 1 1018 73 10000 3.1 20 22:38 01.01.2020
5399 Clouds 1 1018 73 10000 3.1 20 22:38 01.01.2020
5400 Clouds 1 1018 73 10000 3.1 30 22:20 01.01.2020
5401 Clouds 1 1018 73 10000 3.1 30 22:20 01.01.2020
5402 Clouds 1 1018 73 10000 3.1 30 22:20 01.01.2020
5403 Clouds 1 1019 73 10000 2.6 10 21:56 01.01.2020
5404 Clouds 1 1019 73 10000 2.6 10 21:38 01.01.2020
5405 Clouds 1 1019 73 10000 1.5 320 21:19 01.01.2020
5406 Clouds 1 1018 73 10000 1 10 20:56 01.01.2020
5407 Clouds 1 1018 73 10000 1 10 20:56 01.01.2020
5408 Clouds 1 1018 73 10000 1 10 20:38 01.01.2020
5409 Clouds 1 1018 73 10000 1 10 20:38 01.01.2020
5410 Clouds 1 1018 80 10000 1.5 50 20:19 01.01.2020
5411 Clouds 1 1018 86 10000 2.1 120 19:55 01.01.2020
5412 Clouds 1 1018 86 10000 2.1 120 19:55 01.01.2020
5413 Clouds 1 1018 86 10000 2.1 120 19:37 01.01.2020
5414 Clouds 2 1018 86 10000 1.12 346 19:19 01.01.2020
5415 Clouds 2 1018 87 10000 1.5 210 18:55 01.01.2020
5416 Clouds 2 1018 87 10000 1.5 210 18:36 01.01.2020
5417 Clouds 2 1018 86 10000 1 0 18:18 01.01.2020
5418 Clouds 2 1018 86 10000 1 0 17:56 01.01.2020
5419 Clouds 2 1018 86 10000 2.1 90 17:38 01.01.2020
5420 Rain 2 1018 88 10000 1.5 70 17:18 01.01.2020
5421 Clouds 2 1017 74 10000 3.6 310 16:41 01.01.2020
5422 Clouds 2 1017 74 10000 4.1 300 16:22 01.01.2020
5423 Clouds 2 1017 74 10000 4.1 300 15:58 01.01.2020
5424 Clouds 2 1017 69 10000 4.1 290 15:40 01.01.2020
5425 Rain 3 1017 69 10000 4.1 290 15:21 01.01.2020
5426 Rain 3 1017 69 10000 4.1 290 14:58 01.01.2020
5427 Rain 3 1016 64 10000 4.1 290 14:40 01.01.2020
5428 Clouds 3 1016 69 10000 3.1 270 14:21 01.01.2020
5429 Clouds 4 1016 69 10000 3.1 270 13:56 01.01.2020
5430 Clouds 4 1016 69 10000 4.1 290 13:37 01.01.2020
5431 Clouds 4 1016 69 10000 4.1 290 13:37 01.01.2020
5432 Clouds 4 1016 69 10000 4.1 290 13:37 01.01.2020
5433 Clouds 4 1016 69 10000 4.1 290 13:37 01.01.2020
5434 Clouds 4 1016 69 10000 4.6 280 13:18 01.01.2020
5435 Clouds 4 1016 69 10000 4.6 280 12:56 01.01.2020
5436 Clouds 4 1016 64 10000 3.6 280 12:38 01.01.2020
5437 Rain 4 1016 64 10000 4.6 290 12:18 01.01.2020
5438 Clouds 4 1016 69 10000 5.1 270 11:43 01.01.2020
5439 Clouds 5 1017 81 10000 3.1 0 11:23 01.01.2020
5440 Clouds 5 1017 81 10000 3.1 0 10:59 01.01.2020
5441 Clouds 5 1016 56 10000 4.1 280 10:41 01.01.2020
5442 Clouds 5 1016 60 10000 3.6 270 10:20 01.01.2020
5443 Clouds 4 1017 60 10000 2.6 280 09:57 01.01.2020
5444 Clouds 4 1017 60 10000 2.6 280 09:37 01.01.2020
5445 Clouds 4 1017 64 10000 3.1 290 09:18 01.01.2020
5446 Clouds 4 1017 81 10000 1.5 280 08:55 01.01.2020
5447 Clouds 4 1017 81 10000 1.5 280 08:36 01.01.2020
5448 Clouds 3 1016 86 10000 2.1 220 08:18 01.01.2020
5449 Clouds 3 1016 95 10000 1.5 240 07:51 01.01.2020
5450 Clouds 3 1016 95 10000 1.5 240 07:32 01.01.2020
5451 Clouds 3 1016 93 10000 0.5 220 06:44 01.01.2020
5452 Clouds 3 1016 95 10000 2.1 220 06:20 01.01.2020
5453 Clouds 3 1016 93 10000 1.5 270 05:21 01.01.2020
5454 Clouds 3 1016 95 10000 2.6 220 03:43 01.01.2020
5455 Clouds 3 1016 95 10000 2.1 200 03:22 01.01.2020
5456 Clouds 3 1016 95 10000 2.1 200 02:56 01.01.2020
5457 Clouds 3 1017 95 10000 2.6 240 02:33 01.01.2020
5458 Clouds 3 1017 86 10000 2.6 240 01:55 01.01.2020
5459 Clouds 3 1017 86 10000 2.6 240 01:36 01.01.2020
5460 Clouds 3 1017 86 10000 2.1 260 01:18 01.01.2020
5461 Clouds 3 1017 96 10000 3.1 310 00:44 01.01.2020
5462 Clouds 3 1017 86 10000 2.1 230 00:24 01.01.2020
5463 Clouds 3 1017 93 10000 2.6 220 23:41 31.12.2019
5464 Clouds 3 1017 93 10000 3.1 200 23:21 31.12.2019
5465 Clouds 4 1018 93 10000 3.1 190 22:57 31.12.2019
5466 Clouds 4 1018 93 10000 3.1 190 22:38 31.12.2019
5467 Clouds 4 1018 80 10000 2.6 210 22:19 31.12.2019
5468 Clouds 4 1018 80 10000 2.1 210 21:57 31.12.2019
5469 Clouds 4 1018 80 10000 2.1 210 21:37 31.12.2019
5470 Clouds 4 1018 80 10000 3.1 270 21:19 31.12.2019
5471 Clouds 4 1018 80 10000 3.1 270 21:19 31.12.2019
5472 Clouds 4 1018 80 10000 3.1 260 20:54 31.12.2019
5473 Clouds 4 1018 80 10000 3.1 260 20:36 31.12.2019
5474 Clouds 4 1018 93 10000 1.5 180 20:18 31.12.2019
5475 Clouds 4 1018 86 10000 1.5 170 19:41 31.12.2019
5476 Clouds 4 1018 93 10000 1 170 19:22 31.12.2019
5477 Clouds 4 1018 93 10000 1 170 18:59 31.12.2019
5478 Clouds 4 1018 86 10000 0.5 170 18:40 31.12.2019
5479 Clouds 5 1019 86 10000 1 220 18:20 31.12.2019
5480 Clouds 5 1018 86 10000 0.5 0 17:56 31.12.2019
5481 Clouds 5 1018 86 10000 0.5 0 17:38 31.12.2019
5482 Clouds 5 1018 86 10000 1 260 17:19 31.12.2019
5483 Clouds 5 1018 86 10000 1 260 16:57 31.12.2019
5484 Clouds 5 1019 81 10000 1.23 269 16:38 31.12.2019
5485 Clouds 5 1018 86 10000 0.5 0 16:19 31.12.2019
5486 Clouds 5 1019 87 10000 1.5 130 15:56 31.12.2019
5487 Clouds 5 1019 87 10000 1.5 130 15:38 31.12.2019
5488 Rain 5 1018 80 10000 0.5 0 15:20 31.12.2019
5489 Rain 6 1018 80 10000 0.5 0 14:58 31.12.2019
5490 Rain 6 1018 80 10000 1 0 14:38 31.12.2019
5491 Rain 6 1018 80 10000 2.1 30 14:19 31.12.2019
5492 Rain 6 1018 80 10000 2.1 30 13:57 31.12.2019
5493 Rain 6 1018 81 10000 3.1 30 13:39 31.12.2019
5494 Rain 6 1018 86 10000 2.6 20 13:21 31.12.2019
5495 Rain 7 1018 86 10000 2.6 20 12:58 31.12.2019
5496 Rain 7 1018 86 10000 3.6 10 12:39 31.12.2019
5497 Rain 6 1018 86 10000 3.6 10 12:20 31.12.2019
5498 Rain 6 1018 86 10000 4.1 10 11:56 31.12.2019
5499 Rain 6 1018 86 10000 4.1 10 11:38 31.12.2019
5500 Clouds 6 1019 70 10000 1.5 220 11:20 31.12.2019
5501 Clouds 6 1019 70 10000 1.5 220 10:57 31.12.2019
5502 Clouds 6 1019 70 10000 1.5 220 10:57 31.12.2019
5503 Rain 6 1019 86 10000 5.1 20 10:38 31.12.2019
5504 Rain 6 1019 86 10000 5.1 20 10:38 31.12.2019
5505 Rain 6 1019 80 10000 5.1 20 10:20 31.12.2019
5506 Rain 6 1019 80 10000 4.1 30 09:58 31.12.2019
5507 Rain 6 1019 80 10000 4.1 30 09:39 31.12.2019
5508 Clouds 4 1019 80 10000 4.1 30 09:20 31.12.2019
5509 Clouds 4 1019 80 10000 4.1 30 09:20 31.12.2019
5510 Clouds 4 1019 80 10000 4.1 30 08:57 31.12.2019
5511 Clouds 4 1019 86 10000 5.1 10 08:37 31.12.2019
5512 Clouds 4 1019 86 10000 4.6 10 08:18 31.12.2019
5513 Clouds 3 1018 93 10000 4.1 10 07:41 31.12.2019
5514 Rain 4 1018 86 10000 4.1 30 07:19 31.12.2019
5515 Rain 4 1018 86 10000 5.1 20 06:49 31.12.2019
5516 Rain 4 1018 93 10000 3.6 30 05:55 31.12.2019
5517 Rain 3 1017 86 10000 5.1 40 04:27 31.12.2019
5518 Rain 4 1017 86 10000 4.1 20 03:27 31.12.2019
5519 Clouds 4 1017 80 10000 3.1 50 02:43 31.12.2019
5520 Clouds 4 1017 80 10000 4.1 40 01:55 31.12.2019
5521 Clouds 4 1017 80 10000 4.1 40 01:34 31.12.2019
5522 Clouds 4 1017 80 10000 1 0 00:58 31.12.2019
5523 Rain 4 1017 80 10000 4.6 40 00:39 31.12.2019
5524 Rain 4 1016 86 10000 4.6 40 00:21 31.12.2019
5525 Clouds 4 1016 86 10000 2.1 30 23:56 30.12.2019
5526 Clouds 4 1016 86 10000 2.1 30 23:37 30.12.2019
5527 Rain 4 1017 86 10000 2.29 67 23:19 30.12.2019
5528 Clouds 4 1017 93 10000 1 180 22:56 30.12.2019
5529 Clouds 4 1017 93 10000 1 180 22:56 30.12.2019
5530 Clouds 4 1017 93 10000 1 180 22:37 30.12.2019
5531 Rain 3 1017 86 10000 3.6 30 22:18 30.12.2019
5532 Rain 3 1017 86 10000 5.1 20 21:55 30.12.2019
5533 Rain 3 1017 86 10000 5.1 20 21:37 30.12.2019
5534 Rain 4 1017 86 10000 6.2 20 21:18 30.12.2019
5535 Rain 3 1016 93 10000 6.7 20 20:55 30.12.2019
5536 Rain 3 1016 93 10000 6.7 20 20:55 30.12.2019
5537 Rain 3 1016 93 10000 6.7 20 20:37 30.12.2019
5538 Rain 3 1016 86 10000 2.1 100 20:18 30.12.2019
5539 Rain 4 1016 80 10000 1 0 19:55 30.12.2019
5540 Rain 3 1016 80 10000 1 0 19:36 30.12.2019
5541 Rain 3 1016 93 10000 5.7 30 19:18 30.12.2019
5542 Clouds 3 1016 86 10000 2.1 60 18:42 30.12.2019
5543 Rain 4 1016 96 10000 7.2 20 18:21 30.12.2019
5544 Rain 4 1016 96 10000 7.2 20 17:59 30.12.2019
5545 Rain 4 1016 96 10000 7.2 20 17:59 30.12.2019
5546 Rain 3 1015 96 10000 6.7 20 17:41 30.12.2019
5547 Rain 3 1015 80 10000 4.1 80 17:20 30.12.2019
5548 Rain 3 1015 80 10000 4.1 80 17:00 30.12.2019
5549 Rain 3 1015 95 10000 6.7 30 16:40 30.12.2019
5550 Rain 3 1015 86 10000 3.6 60 16:20 30.12.2019
5551 Rain 3 1015 86 10000 3.6 60 15:57 30.12.2019
5552 Rain 3 1015 95 10000 6.7 20 15:39 30.12.2019
5553 Rain 3 1015 93 10000 6.7 30 15:19 30.12.2019
5554 Rain 3 1015 95 10000 7.2 30 14:55 30.12.2019
5555 Rain 3 1015 95 10000 7.2 30 14:37 30.12.2019
5556 Rain 3 1014 93 10000 7.2 30 14:18 30.12.2019
5557 Rain 3 1014 93 10000 7.2 20 13:42 30.12.2019
5558 Rain 3 1014 93 10000 7.2 30 13:24 30.12.2019
5559 Clouds 3 1014 93 10000 7.2 30 12:58 30.12.2019
5560 Clouds 3 1014 93 10000 7.2 40 12:40 30.12.2019
5561 Clouds 3 1014 93 10000 8.7 40 12:19 30.12.2019
5562 Clouds 3 1013 93 8000 8.7 30 11:56 30.12.2019
5563 Clouds 3 1013 93 8000 8.7 30 11:37 30.12.2019
5564 Clouds 3 1013 75 10000 8.2 70 11:18 30.12.2019
5565 Snow 3 1014 75 8000 8.7 30 10:43 30.12.2019
5566 Snow 3 1015 75 8000 8.7 40 10:20 30.12.2019
5567 Snow 3 1015 75 8000 9.3 40 09:55 30.12.2019
5568 Snow 3 1015 75 8000 9.3 40 09:37 30.12.2019
5569 Clouds 3 1015 75 10000 6.2 50 09:18 30.12.2019
5570 Snow 3 1015 86 7000 8.7 30 08:46 30.12.2019
5571 Snow 3 1015 86 4900 8.7 40 08:23 30.12.2019
5572 Clouds 3 1015 86 10000 7.7 40 07:53 30.12.2019
5573 Clouds 3 1015 86 10000 7.7 40 07:32 30.12.2019
5574 Clouds 3 1015 74 10000 8.2 30 06:39 30.12.2019
5575 Clouds 2 1015 80 10000 6.2 10 04:45 30.12.2019
5576 Clouds 2 1016 80 10000 6.7 30 03:52 30.12.2019
5577 Clouds 2 1016 80 10000 8.2 30 02:47 30.12.2019
5578 Clouds 2 1016 80 10000 8.2 30 02:29 30.12.2019
5579 Clouds 1 1016 92 10000 5.7 30 01:43 30.12.2019
5580 Clouds 1 1017 86 10000 5.1 20 01:19 30.12.2019
5581 Clouds 1 1017 86 10000 4.1 20 00:42 30.12.2019
5582 Clouds 1 1016 86 10000 3.6 20 23:58 29.12.2019
5583 Clouds 1 1017 91 10000 3.1 360 23:38 29.12.2019
5584 Clouds 1 1017 80 10000 2.28 66 23:19 29.12.2019
5585 Clouds 1 1017 86 10000 3.1 10 22:41 29.12.2019
5586 Clouds 1 1017 86 10000 3.1 10 22:41 29.12.2019
5587 Clouds 1 1017 86 10000 3.6 20 22:22 29.12.2019
5588 Clouds 1 1017 86 10000 4.6 30 21:56 29.12.2019
5589 Clouds 1 1017 86 10000 4.6 30 21:38 29.12.2019
5590 Clouds 1 1017 86 10000 3.6 20 21:20 29.12.2019
5591 Clouds 2 1017 86 10000 4.6 10 20:56 29.12.2019
5592 Clouds 2 1017 86 10000 4.6 10 20:38 29.12.2019
5593 Clouds 2 1017 74 10000 2.6 100 20:20 29.12.2019
5594 Clouds 2 1017 85 10000 3.6 360 19:58 29.12.2019
5595 Clouds 2 1017 85 10000 3.6 360 19:39 29.12.2019
5596 Clouds 2 1017 85 10000 3.6 30 19:20 29.12.2019
5597 Clouds 2 1016 80 10000 4.1 40 18:55 29.12.2019
5598 Clouds 2 1016 80 10000 4.1 40 18:37 29.12.2019
5599 Clouds 2 1016 80 10000 2.6 30 18:18 29.12.2019
5600 Clouds 2 1016 80 10000 3.1 360 17:56 29.12.2019
5601 Clouds 2 1016 80 10000 3.1 360 17:38 29.12.2019
5602 Clouds 3 1016 82 10000 2.1 360 17:19 29.12.2019
5603 Clouds 3 1015 74 10000 4.1 50 16:56 29.12.2019
5604 Clouds 3 1015 74 10000 4.1 50 16:36 29.12.2019
5605 Clouds 4 1015 69 10000 3.6 60 16:18 29.12.2019
5606 Clouds 4 1015 69 10000 3.6 60 15:56 29.12.2019
5607 Clouds 4 1015 74 10000 3.1 70 15:56 29.12.2019
5608 Clouds 4 1015 74 10000 3.1 70 15:56 29.12.2019
5609 Clouds 4 1015 74 10000 3.1 70 15:38 29.12.2019
5610 Clouds 4 1015 69 10000 3.1 70 15:18 29.12.2019
5611 Clouds 4 1014 64 10000 3.1 50 14:55 29.12.2019
5612 Clouds 4 1014 64 10000 3.1 50 14:37 29.12.2019
5613 Clouds 4 1014 64 10000 3.1 50 14:37 29.12.2019
5614 Rain 4 1014 64 10000 3.1 50 14:18 29.12.2019
5615 Rain 4 1014 69 10000 1.5 360 13:55 29.12.2019
5616 Rain 4 1014 69 10000 1.5 360 13:37 29.12.2019
5617 Clouds 4 1014 64 10000 2.1 350 13:18 29.12.2019
5618 Clouds 4 1014 74 10000 2.6 60 12:41 29.12.2019
5619 Rain 4 1014 69 10000 1.5 90 12:23 29.12.2019
5620 Rain 3 1014 74 10000 3.1 20 11:55 29.12.2019
5621 Rain 3 1014 74 10000 3.1 20 11:37 29.12.2019
5622 Rain 3 1014 74 10000 2.6 20 11:19 29.12.2019
5623 Rain 3 1015 80 10000 3.6 30 10:41 29.12.2019
5624 Rain 2 1015 80 10000 4.1 30 10:21 29.12.2019
5625 Rain 2 1015 80 10000 4.1 30 09:54 29.12.2019
5626 Clouds 2 1015 80 10000 4.1 30 09:36 29.12.2019
5627 Clouds 2 1015 86 10000 4.6 30 09:18 29.12.2019
5628 Clouds 1 1015 86 6000 2.6 30 08:46 29.12.2019
5629 Clouds 1 1015 85 8000 1.5 310 08:24 29.12.2019
5630 Clouds 1 1016 93 6000 1 310 07:54 29.12.2019
5631 Clouds 1 1016 93 6000 1 310 07:28 29.12.2019
5632 Snow 1 1014 84 6000 2.1 20 06:53 29.12.2019
5633 Mist 1 1014 84 4200 1.5 350 06:23 29.12.2019
5634 Mist 0 1014 100 3500 1 320 05:50 29.12.2019
5635 Snow 1 1014 88 2900 0.5 170 04:35 29.12.2019
5636 Clouds 0 1013 100 8000 1 0 03:43 29.12.2019
5637 Clouds 0 1013 92 7000 1 310 03:19 29.12.2019
5638 Clouds 0 1013 100 6000 1 0 02:20 29.12.2019
5639 Mist 0 1014 100 4800 1 0 01:31 29.12.2019
5640 Mist 0 1014 100 4800 1 0 01:31 29.12.2019
5641 Mist 0 1014 100 4800 1 0 01:31 29.12.2019
5642 Mist 1 1013 91 3700 2.6 20 00:55 29.12.2019
5643 Mist 1 1013 91 3700 2.6 20 00:36 29.12.2019
5644 Clouds 1 1015 91 10000 0.5 0 00:18 29.12.2019
5645 Clouds 1 1014 91 6000 2.1 20 23:41 28.12.2019
5646 Clouds 1 1014 88 10000 1.25 98 23:18 28.12.2019
5647 Mist 1 1014 88 4300 1 250 22:39 28.12.2019
5648 Clouds 1 1014 88 6000 1.5 210 22:20 28.12.2019
5649 Clouds 1 1013 86 6000 2.6 80 21:58 28.12.2019
5650 Clouds 1 1013 86 6000 2.6 80 21:39 28.12.2019
5651 Clouds 1 1013 80 10000 1 0 21:20 28.12.2019
5652 Clouds 2 1013 88 6000 1 0 20:56 28.12.2019
5653 Clouds 2 1013 88 6000 1 0 20:37 28.12.2019
5654 Clouds 2 1013 88 7000 1.5 290 20:18 28.12.2019
5655 Clouds 2 1013 86 6000 1.5 350 19:55 28.12.2019
5656 Clouds 2 1013 86 6000 1.5 350 19:36 28.12.2019
5657 Clouds 2 1013 88 10000 0.5 0 19:18 28.12.2019
5658 Clouds 2 1013 88 7000 1 0 18:55 28.12.2019
5659 Clouds 2 1013 88 7000 1 0 18:37 28.12.2019
5660 Clouds 2 1013 88 10000 2.6 90 18:18 28.12.2019
5661 Clouds 2 1012 88 10000 1.5 330 17:42 28.12.2019
5662 Clouds 2 1013 83 10000 3.1 80 17:21 28.12.2019
5663 Clouds 2 1012 83 8000 0.5 240 16:55 28.12.2019
5664 Clouds 2 1012 83 8000 0.5 240 16:37 28.12.2019
5665 Clouds 3 1012 83 8000 1 0 16:19 28.12.2019
5666 Clouds 3 1012 83 10000 1 0 15:43 28.12.2019
5667 Clouds 4 1012 80 10000 2.1 140 15:21 28.12.2019
5668 Clouds 4 1012 80 10000 2.6 100 14:48 28.12.2019
5669 Clouds 4 1012 80 10000 2.6 100 14:26 28.12.2019
5670 Clouds 4 1011 69 10000 1 0 13:58 28.12.2019
5671 Clouds 4 1011 69 10000 2.1 50 13:40 28.12.2019
5672 Clouds 4 1011 69 10000 2.1 360 13:20 28.12.2019
5673 Clouds 4 1011 69 10000 1 0 12:57 28.12.2019
5674 Clouds 4 1011 69 10000 1 0 12:39 28.12.2019
5675 Clouds 4 1011 69 10000 1.5 350 12:20 28.12.2019
5676 Clouds 4 1011 69 10000 2.1 360 11:40 28.12.2019
5677 Clouds 4 1012 69 10000 1.5 340 11:21 28.12.2019
5678 Clouds 4 1012 69 10000 1.5 340 11:21 28.12.2019
5679 Clouds 4 1012 69 10000 2.1 310 10:56 28.12.2019
5680 Clouds 3 1012 69 10000 2.1 310 10:37 28.12.2019
5681 Clouds 3 1012 74 10000 1 0 10:18 28.12.2019
5682 Clouds 3 1013 80 10000 2.1 290 09:45 28.12.2019
5683 Clouds 2 1013 74 10000 0.5 0 09:24 28.12.2019
5684 Clouds 2 1013 74 10000 0.5 0 08:58 28.12.2019
5685 Snow 3 1013 74 10000 1.5 20 08:40 28.12.2019
5686 Clouds 2 1013 91 10000 0.67 70 08:22 28.12.2019
5687 Clouds 1 1013 91 10000 1 300 07:43 28.12.2019
5688 Clouds 1 1013 80 10000 0.67 70 07:21 28.12.2019
5689 Clouds 1 1012 91 10000 1 330 05:45 28.12.2019
5690 Clouds 2 1013 80 10000 0.5 350 03:48 28.12.2019
5691 Clouds 2 1013 80 10000 0.5 50 02:50 28.12.2019
5692 Clouds 2 1013 80 10000 1 0 02:20 28.12.2019
5693 Clouds 1 1013 78 10000 2.1 300 01:54 28.12.2019
5694 Clouds 2 1013 80 10000 0.5 0 01:22 28.12.2019
5695 Clouds 2 1013 80 10000 2.1 70 00:44 28.12.2019
5696 Clouds 2 1013 80 10000 2.6 350 00:26 28.12.2019
5697 Clouds 2 1013 80 10000 2.6 350 23:57 27.12.2019
5698 Clouds 2 1013 80 10000 0.5 0 23:37 27.12.2019
5699 Clouds 2 1013 74 10000 0.5 0 23:18 27.12.2019
5700 Clouds 2 1014 69 10000 0.5 0 22:55 27.12.2019
5701 Clouds 2 1014 69 10000 0.5 0 22:37 27.12.2019
5702 Clouds 2 1014 69 10000 1 0 22:19 27.12.2019
5703 Clouds 3 1014 69 10000 1 170 21:41 27.12.2019
5704 Clouds 2 1014 74 10000 1 0 21:23 27.12.2019
5705 Clouds 3 1014 74 10000 1 0 20:44 27.12.2019
5706 Clouds 3 1014 74 10000 1 0 20:26 27.12.2019
5707 Clouds 3 1014 69 10000 1 280 19:58 27.12.2019
5708 Clouds 3 1014 69 10000 1 280 19:58 27.12.2019
5709 Clouds 3 1014 69 10000 1 280 19:40 27.12.2019
5710 Clouds 3 1014 64 10000 2.1 330 19:19 27.12.2019
5711 Clouds 3 1014 69 10000 1 0 18:55 27.12.2019
5712 Clouds 3 1014 69 10000 1 0 18:36 27.12.2019
5713 Clouds 3 1014 69 10000 1 0 18:18 27.12.2019
5714 Clouds 4 1013 64 10000 1.5 180 17:55 27.12.2019
5715 Clouds 4 1013 64 10000 1.5 180 17:36 27.12.2019
5716 Clouds 4 1014 56 10000 2.1 300 17:18 27.12.2019
5717 Clouds 4 1013 55 10000 1.5 290 16:41 27.12.2019
5718 Clouds 4 1013 59 10000 1.5 350 16:22 27.12.2019
5719 Clouds 4 1013 59 10000 1 0 15:57 27.12.2019
5720 Clouds 4 1013 59 10000 1 0 15:37 27.12.2019
5721 Clouds 4 1013 59 10000 1 0 15:37 27.12.2019
5722 Clouds 4 1013 60 10000 1.5 320 15:18 27.12.2019
5723 Clouds 5 1012 60 10000 4.1 320 14:55 27.12.2019
5724 Clouds 5 1012 60 10000 4.1 320 14:37 27.12.2019
5725 Clouds 5 1012 52 10000 5.1 290 14:19 27.12.2019
5726 Clouds 5 1012 56 10000 5.7 290 13:44 27.12.2019
5727 Clouds 5 1013 56 10000 1.5 10 13:22 27.12.2019
5728 Clouds 6 1012 52 10000 5.7 300 12:48 27.12.2019
5729 Clouds 5 1012 52 10000 5.7 300 12:29 27.12.2019
5730 Clouds 5 1011 48 10000 5.7 300 11:59 27.12.2019
5731 Clouds 5 1012 48 10000 5.7 290 11:41 27.12.2019
5732 Clouds 5 1013 65 10000 4.1 250 11:20 27.12.2019
5733 Clouds 5 1013 65 10000 4.1 250 11:20 27.12.2019
5734 Clouds 5 1013 65 10000 4.1 250 11:20 27.12.2019
5735 Clouds 5 1012 56 10000 4.1 300 10:46 27.12.2019
5736 Clouds 5 1013 56 10000 3.1 240 10:24 27.12.2019
5737 Clouds 5 1012 56 10000 5.1 290 09:55 27.12.2019
5738 Clouds 5 1012 56 10000 5.1 290 09:37 27.12.2019
5739 Clouds 5 1014 61 10000 3.1 260 09:19 27.12.2019
5740 Clouds 5 1014 61 10000 3.1 260 09:19 27.12.2019
5741 Clouds 4 1012 60 10000 4.1 280 08:43 27.12.2019
5742 Clouds 3 1012 64 10000 0.5 0 08:25 27.12.2019
5743 Clouds 3 1011 69 10000 1 0 07:38 27.12.2019
5744 Clouds 3 1012 74 10000 3.6 230 07:19 27.12.2019
5745 Clouds 3 1011 74 10000 3.1 230 06:25 27.12.2019
5746 Clouds 3 1009 74 10000 3.6 270 04:39 27.12.2019
5747 Clouds 3 1009 74 10000 4.1 280 02:29 27.12.2019
5748 Clouds 3 1008 80 10000 2.1 290 01:45 27.12.2019
5749 Clouds 4 1008 74 10000 2.1 280 01:23 27.12.2019
5750 Clouds 4 1008 86 10000 1.5 300 00:47 27.12.2019
5751 Clouds 4 1008 86 10000 1.5 300 00:27 27.12.2019
5752 Rain 4 1007 87 10000 2.27 329 23:56 26.12.2019
5753 Rain 4 1007 87 10000 2.27 329 23:38 26.12.2019
5754 Rain 4 1008 75 10000 3.1 230 23:19 26.12.2019
5755 Rain 4 1007 86 10000 1.91 331 22:40 26.12.2019
5756 Rain 4 1007 86 10000 1.91 331 22:18 26.12.2019
5757 Rain 4 1007 93 10000 1.91 331 21:40 26.12.2019
5758 Clouds 4 1007 86 10000 1.91 331 21:21 26.12.2019
5759 Clouds 4 1006 86 10000 1.91 331 20:58 26.12.2019
5760 Clouds 4 1006 86 10000 1.91 331 20:39 26.12.2019
5761 Clouds 4 1006 86 10000 1.91 331 20:39 26.12.2019
5762 Rain 4 1006 86 10000 3.13 341 20:21 26.12.2019
5763 Rain 4 1006 86 10000 3.13 341 19:56 26.12.2019
5764 Rain 4 1006 86 10000 3.13 341 19:38 26.12.2019
5765 Rain 4 1006 86 10000 3.13 341 19:19 26.12.2019
5766 Rain 4 1006 86 10000 3.13 341 18:57 26.12.2019
5767 Rain 4 1006 86 10000 3.13 341 18:36 26.12.2019
5768 Rain 4 1006 93 10000 3.13 341 18:18 26.12.2019
5769 Rain 4 1006 93 6000 0.5 0 17:41 26.12.2019
5770 Rain 4 1006 93 6000 0.5 0 17:41 26.12.2019
5771 Rain 4 1005 93 6000 0.5 0 17:21 26.12.2019
5772 Rain 5 1005 93 8000 0.5 0 16:50 26.12.2019
5773 Rain 4 1005 93 8000 0.5 0 16:27 26.12.2019
5774 Rain 5 1005 93 8000 3.69 341 15:58 26.12.2019
5775 Rain 5 1005 93 7000 3.69 341 15:39 26.12.2019
5776 Rain 4 1005 93 8000 3.69 341 15:19 26.12.2019
5777 Rain 4 1005 80 8000 0.5 0 14:42 26.12.2019
5778 Rain 4 1005 80 8000 0.5 0 14:23 26.12.2019
5779 Rain 5 1004 86 6000 0.5 0 13:57 26.12.2019
5780 Rain 6 1004 81 8000 1 0 13:39 26.12.2019
5781 Rain 6 1004 81 8000 1 0 13:39 26.12.2019
5782 Rain 5 1005 81 10000 0.5 0 13:18 26.12.2019
5783 Rain 5 1005 81 10000 0.5 0 12:45 26.12.2019
5784 Rain 5 1005 81 10000 0.5 0 12:26 26.12.2019
5785 Rain 5 1005 80 10000 6.04 3 11:59 26.12.2019
5786 Rain 5 1005 80 10000 0.5 0 11:40 26.12.2019
5787 Rain 5 1005 86 10000 1.5 190 11:22 26.12.2019
5788 Rain 4 1005 93 3900 4.18 8 10:50 26.12.2019
5789 Rain 4 1005 93 3900 4.18 8 10:27 26.12.2019
5790 Rain 3 1005 100 2900 0.5 0 09:59 26.12.2019
5791 Rain 3 1005 100 400 0.5 0 09:41 26.12.2019
5792 Rain 3 1006 86 10000 2.6 90 09:22 26.12.2019
5793 Rain 3 1005 100 2500 2.1 360 08:39 26.12.2019
5794 Rain 2 1005 81 2800 0.5 0 08:21 26.12.2019
5795 Rain 2 1005 100 1000 3.08 356 07:44 26.12.2019
5796 Rain 2 1005 81 6000 0.5 0 07:24 26.12.2019
5797 Rain 2 1005 100 1000 3.08 356 06:38 26.12.2019
5798 Rain 2 1005 81 8000 0.5 0 06:20 26.12.2019
5799 Rain 2 1005 81 8000 0.5 0 05:42 26.12.2019
5800 Rain 2 1004 90 4000 0.5 10 04:33 26.12.2019
5801 Rain 2 1004 90 6000 0.5 300 03:31 26.12.2019
5802 Rain 2 1004 90 8000 0.5 0 02:46 26.12.2019
5803 Rain 1 1004 90 7000 1.5 40 02:27 26.12.2019
5804 Rain 2 1005 93 10000 1.41 8 01:44 26.12.2019
5805 Rain 1 1004 88 6000 1.5 30 01:25 26.12.2019
5806 Rain 2 1005 93 10000 1 0 00:44 26.12.2019
5807 Rain 2 1005 100 7000 1 170 00:23 26.12.2019
5808 Rain 2 1005 100 7000 1 170 00:23 26.12.2019
5809 Rain 2 1005 93 10000 1.5 40 23:57 25.12.2019
5810 Rain 2 1005 93 10000 1.5 40 23:37 25.12.2019
5811 Rain 1 1005 93 10000 1.5 120 23:18 25.12.2019
5812 Snow 1 1004 88 6000 1 130 22:56 25.12.2019
5813 Snow 1 1004 88 6000 1 130 22:37 25.12.2019
5814 Snow 2 1004 88 6000 1 0 22:18 25.12.2019
5815 Snow 1 1004 88 4800 1 180 21:55 25.12.2019
5816 Snow 1 1004 88 4800 1 180 21:37 25.12.2019
5817 Snow 2 1004 88 3200 2.1 190 21:18 25.12.2019
5818 Snow 2 1004 88 2800 1.5 170 20:40 25.12.2019
5819 Snow 2 1004 95 3200 2.1 160 20:20 25.12.2019
5820 Snow 2 1004 95 3200 2.1 160 19:59 25.12.2019
5821 Snow 2 1004 95 2800 2.6 140 19:40 25.12.2019
5822 Rain 2 1005 93 10000 0.97 7 19:21 25.12.2019
5823 Rain 3 1004 95 10000 2.6 130 18:39 25.12.2019
5824 Rain 3 1005 93 7000 0.5 0 18:20 25.12.2019
5825 Rain 3 1005 93 7000 0.5 0 18:20 25.12.2019
5826 Rain 3 1004 86 10000 1.5 240 17:57 25.12.2019
5827 Rain 3 1004 86 10000 1.5 240 17:39 25.12.2019
5828 Rain 3 1004 80 10000 1.37 23 17:18 25.12.2019
5829 Rain 4 1003 86 10000 1 290 16:39 25.12.2019
5830 Rain 4 1003 86 10000 2.1 330 16:20 25.12.2019
5831 Rain 4 1003 86 10000 2.1 330 15:59 25.12.2019
5832 Rain 4 1003 80 10000 1.5 20 15:40 25.12.2019
5833 Rain 5 1003 80 10000 2.1 70 15:21 25.12.2019
5834 Rain 5 1003 80 10000 2.1 70 14:59 25.12.2019
5835 Rain 5 1003 86 10000 1.5 120 14:40 25.12.2019
5836 Rain 5 1003 86 10000 1.21 322 14:22 25.12.2019
5837 Rain 5 1003 86 10000 1.21 322 13:57 25.12.2019
5838 Rain 5 1003 86 10000 1.21 322 13:57 25.12.2019
5839 Rain 5 1003 86 10000 1.21 322 13:39 25.12.2019
5840 Rain 5 1002 81 10000 1.4 304 13:19 25.12.2019
5841 Rain 6 1003 81 10000 3.6 280 12:43 25.12.2019
5842 Clouds 5 1003 81 10000 3.6 290 12:21 25.12.2019
5843 Clouds 5 1003 81 10000 3.6 290 12:21 25.12.2019
5844 Clouds 5 1003 81 10000 3.6 290 11:57 25.12.2019
5845 Rain 6 1003 86 10000 1.4 304 11:39 25.12.2019
5846 Rain 6 1004 87 10000 3.1 300 11:19 25.12.2019
5847 Rain 5 1004 81 10000 4.1 310 10:39 25.12.2019
5848 Rain 5 1004 81 10000 2.1 260 10:21 25.12.2019
5849 Rain 5 1004 86 10000 2.6 290 09:51 25.12.2019
5850 Clouds 5 1004 86 10000 2.6 290 09:33 25.12.2019
5851 Clouds 5 1004 93 10000 1 290 08:51 25.12.2019
5852 Clouds 4 1004 93 10000 1 290 08:31 25.12.2019
5853 Clouds 4 1005 86 10000 1.5 290 07:59 25.12.2019
5854 Clouds 4 1005 86 10000 1.5 290 07:59 25.12.2019
5855 Rain 4 1004 93 10000 0.79 295 07:37 25.12.2019
5856 Rain 4 1003 93 10000 0.79 295 07:19 25.12.2019
5857 Rain 4 1003 93 7000 0.79 295 06:23 25.12.2019
5858 Rain 4 1003 93 7000 0.79 295 05:43 25.12.2019
5859 Rain 4 1003 93 10000 1.4 297 04:39 25.12.2019
5860 Rain 5 1003 93 9000 1.4 297 04:20 25.12.2019
5861 Rain 5 1003 93 7000 1.4 297 03:43 25.12.2019
5862 Rain 5 1003 86 10000 0.5 110 02:57 25.12.2019
5863 Rain 5 1003 93 10000 2.1 250 02:28 25.12.2019
5864 Rain 5 1003 100 10000 2.75 251 01:26 25.12.2019
5865 Rain 5 1002 100 10000 2.75 251 00:56 25.12.2019
5866 Rain 5 1002 100 10000 2.75 251 00:33 25.12.2019
5867 Rain 6 1002 93 9000 0.5 250 23:59 24.12.2019
5868 Rain 6 1002 93 6000 0.5 250 23:39 24.12.2019
5869 Rain 6 1003 100 10000 0.5 0 23:20 24.12.2019
5870 Rain 6 1002 100 6000 0.5 0 22:41 24.12.2019
5871 Rain 6 1002 100 2900 0.5 0 22:23 24.12.2019
5872 Rain 6 1002 93 3500 0.5 200 21:55 24.12.2019
5873 Rain 6 1002 93 3500 0.5 200 21:36 24.12.2019
5874 Rain 6 1001 93 6000 0.13 6 21:18 24.12.2019
5875 Rain 6 1001 100 6000 0.13 6 20:41 24.12.2019
5876 Rain 6 1001 93 6000 0.5 320 20:19 24.12.2019
5877 Rain 6 1000 93 7000 0.5 170 19:46 24.12.2019
5878 Rain 6 1000 93 8000 0.5 0 19:22 24.12.2019
5879 Rain 6 1000 93 8000 0.5 0 18:58 24.12.2019
5880 Rain 6 1000 93 8000 1.87 81 18:40 24.12.2019
5881 Rain 6 1000 87 9000 1.87 81 18:18 24.12.2019
5882 Rain 6 999 93 10000 1 10 17:42 24.12.2019
5883 Rain 6 999 87 10000 1 50 17:21 24.12.2019
5884 Rain 6 999 87 10000 1 50 16:58 24.12.2019
5885 Rain 6 999 87 10000 1 50 16:58 24.12.2019
5886 Rain 7 999 87 10000 0.5 120 16:39 24.12.2019
5887 Rain 7 999 87 10000 1 160 16:20 24.12.2019
5888 Rain 7 998 87 10000 2.1 200 15:57 24.12.2019
5889 Rain 7 998 87 10000 2.1 200 15:36 24.12.2019
5890 Rain 7 998 87 10000 2.6 200 15:18 24.12.2019
5891 Rain 7 998 87 10000 2.6 200 14:57 24.12.2019
5892 Rain 7 998 81 10000 4.1 200 14:39 24.12.2019
5893 Rain 8 998 75 10000 2.6 220 14:21 24.12.2019
5894 Rain 8 997 75 10000 4.6 180 13:55 24.12.2019
5895 Rain 8 997 75 10000 4.6 180 13:37 24.12.2019
5896 Clouds 9 997 70 10000 4.1 170 13:19 24.12.2019
5897 Clouds 9 997 70 10000 4.1 170 12:55 24.12.2019
5898 Clouds 9 997 70 10000 6.2 170 12:36 24.12.2019
5899 Clouds 9 998 70 10000 4.6 170 12:18 24.12.2019
5900 Clouds 9 998 75 10000 6.7 180 11:55 24.12.2019
5901 Clouds 9 998 75 10000 6.7 180 11:37 24.12.2019
5902 Clouds 9 998 75 10000 6.2 170 11:18 24.12.2019
5903 Clouds 9 998 75 10000 6.2 170 10:56 24.12.2019
5904 Clouds 9 998 75 10000 5.1 180 10:37 24.12.2019
5905 Rain 9 999 75 10000 1 140 10:19 24.12.2019
5906 Clouds 8 999 81 10000 1.5 130 09:55 24.12.2019
5907 Clouds 8 999 81 10000 1.5 130 09:37 24.12.2019
5908 Rain 8 999 81 10000 3.6 170 09:18 24.12.2019
5909 Rain 7 999 81 10000 5.7 140 08:44 24.12.2019
5910 Rain 7 998 87 10000 6.2 170 08:21 24.12.2019
5911 Rain 7 998 81 10000 4.1 160 07:46 24.12.2019
5912 Rain 7 997 75 10000 5.1 140 07:26 24.12.2019
5913 Rain 7 997 75 10000 5.1 140 06:58 24.12.2019
5914 Rain 7 997 81 10000 7.7 140 06:38 24.12.2019
5915 Rain 7 997 81 10000 8.2 150 06:19 24.12.2019
5916 Rain 7 998 81 10000 5.7 90 05:21 24.12.2019
5917 Rain 7 998 81 10000 5.7 90 04:59 24.12.2019
5918 Rain 7 998 75 10000 5.1 160 03:50 24.12.2019
5919 Rain 7 998 75 10000 6.7 160 03:22 24.12.2019
5920 Rain 7 999 81 10000 3.87 129 02:23 24.12.2019
5921 Rain 7 1000 81 10000 2.6 180 01:50 24.12.2019
5922 Rain 7 1000 81 10000 2.6 180 01:22 24.12.2019
5923 Rain 7 1000 75 10000 4.6 170 00:45 24.12.2019
5924 Rain 7 1000 81 10000 4.11 142 00:24 24.12.2019
5925 Rain 7 1000 81 10000 4.11 142 23:59 23.12.2019
5926 Rain 7 1001 75 10000 4.6 150 23:40 23.12.2019
5927 Rain 7 1001 75 10000 1.5 170 23:22 23.12.2019
5928 Clouds 7 1001 75 10000 4.4 181 22:56 23.12.2019
5929 Clouds 7 1001 75 10000 4.4 181 22:56 23.12.2019
5930 Clouds 7 1001 75 10000 4.4 181 22:37 23.12.2019
5931 Rain 7 1001 75 10000 1 0 22:18 23.12.2019
5932 Rain 7 1001 81 10000 3.1 180 21:55 23.12.2019
5933 Rain 7 1001 81 10000 3.1 180 21:36 23.12.2019
5934 Rain 7 1001 75 10000 5.7 180 21:18 23.12.2019
5935 Rain 7 1001 75 10000 5.7 180 20:57 23.12.2019
5936 Rain 7 1001 70 10000 5.1 170 20:39 23.12.2019
5937 Clouds 8 1001 65 10000 4.1 200 20:18 23.12.2019
5938 Clouds 8 1001 75 10000 8.2 200 19:55 23.12.2019
5939 Clouds 8 1001 75 10000 8.2 200 19:37 23.12.2019
5940 Rain 8 1000 70 10000 9.8 180 19:19 23.12.2019
5941 Rain 8 1000 70 10000 9.3 180 18:57 23.12.2019
5942 Rain 8 1000 70 10000 9.3 180 18:38 23.12.2019
5943 Rain 8 1000 70 10000 10.3 180 18:20 23.12.2019
5944 Rain 8 1001 75 10000 7.2 180 17:55 23.12.2019
5945 Rain 8 1001 75 10000 7.2 180 17:37 23.12.2019
5946 Rain 8 1001 81 10000 8.7 190 17:19 23.12.2019
5947 Rain 10 1000 57 10000 11.3 170 16:42 23.12.2019
5948 Rain 10 1000 53 10000 9.8 170 16:19 23.12.2019
5949 Rain 11 1000 53 10000 9.8 170 15:59 23.12.2019
5950 Rain 10 1001 53 10000 7.7 170 15:38 23.12.2019
5951 Rain 10 1001 53 10000 8.2 170 15:20 23.12.2019
5952 Rain 10 1001 53 10000 8.2 170 14:59 23.12.2019
5953 Clouds 11 1001 50 10000 7.7 160 14:41 23.12.2019
5954 Clouds 11 1001 50 10000 8.7 170 14:22 23.12.2019
5955 Clouds 11 1001 50 10000 8.7 170 13:58 23.12.2019
5956 Clouds 11 1001 52 10000 10.3 170 13:40 23.12.2019
5957 Clouds 11 1001 50 10000 12.3 170 13:22 23.12.2019
5958 Clouds 12 1002 53 10000 10.3 170 12:57 23.12.2019
5959 Clouds 12 1002 53 10000 10.3 170 12:39 23.12.2019
5960 Clouds 12 1002 53 10000 8.2 170 12:19 23.12.2019
5961 Clouds 12 1003 50 10000 9.8 160 11:44 23.12.2019
5962 Clouds 12 1003 50 10000 6.2 170 11:26 23.12.2019
5963 Clouds 12 1004 50 10000 9.8 170 10:57 23.12.2019
5964 Clouds 12 1004 50 10000 9.8 170 10:57 23.12.2019
5965 Clouds 12 1004 50 10000 9.8 170 10:39 23.12.2019
5966 Clouds 12 1005 50 10000 9.3 170 10:20 23.12.2019
5967 Clouds 11 1006 57 10000 8.7 180 09:59 23.12.2019
5968 Clouds 11 1006 57 10000 8.7 180 09:39 23.12.2019
5969 Clouds 11 1006 57 10000 5.7 160 09:21 23.12.2019
5970 Clouds 11 1006 57 10000 7.7 170 08:56 23.12.2019
5971 Clouds 11 1006 57 10000 7.7 170 08:38 23.12.2019
5972 Clouds 10 1006 57 10000 5.7 170 08:19 23.12.2019
5973 Clouds 10 1006 61 10000 6.2 160 07:43 23.12.2019
5974 Clouds 10 1007 57 10000 6.7 140 07:20 23.12.2019
5975 Clouds 10 1006 57 10000 5.7 170 06:53 23.12.2019
5976 Clouds 9 1007 65 10000 0.5 0 06:25 23.12.2019
5977 Clouds 8 1007 70 10000 10.54 175 05:50 23.12.2019
5978 Clouds 6 1007 61 10000 7.7 180 05:27 23.12.2019
5979 Clouds 8 1007 80 10000 0.5 0 04:31 23.12.2019
5980 Clouds 6 1009 80 10000 5.59 169 02:58 23.12.2019
5981 Clouds 6 1009 80 10000 1.5 60 02:40 23.12.2019
5982 Clouds 5 1010 81 10000 1 350 02:18 23.12.2019
5983 Clouds 5 1010 81 10000 1 350 02:18 23.12.2019
5984 Clouds 5 1011 86 10000 1 0 01:41 23.12.2019
5985 Clouds 5 1011 82 10000 0.5 0 01:19 23.12.2019
5986 Clouds 5 1011 86 10000 1.5 290 00:43 23.12.2019
5987 Clouds 5 1011 86 10000 3.34 112 00:21 23.12.2019
5988 Clouds 4 1012 86 10000 3.34 112 23:39 22.12.2019
5989 Clouds 4 1012 86 10000 2.04 135 23:21 22.12.2019
5990 Clouds 4 1012 86 10000 2.04 135 22:58 22.12.2019
5991 Clouds 4 1012 86 10000 2.04 135 22:39 22.12.2019
5992 Clouds 4 1013 79 10000 2.04 135 22:19 22.12.2019
5993 Clouds 4 1013 79 10000 2.04 135 21:57 22.12.2019
5994 Clouds 4 1013 80 10000 1.5 360 21:39 22.12.2019
5995 Clouds 5 1013 80 10000 2.04 135 21:20 22.12.2019
5996 Clouds 5 1013 80 10000 2.04 135 20:57 22.12.2019
5997 Clouds 5 1013 80 10000 2.04 135 20:38 22.12.2019
5998 Clouds 5 1013 80 10000 3.1 20 20:18 22.12.2019
5999 Clouds 5 1013 80 10000 3.1 20 19:55 22.12.2019
6000 Clouds 6 1013 74 10000 1.5 20 19:37 22.12.2019
6001 Clouds 6 1013 63 10000 2.6 50 19:18 22.12.2019
6002 Clouds 5 1014 63 10000 3.1 20 18:40 22.12.2019
6003 Clouds 5 1014 63 10000 2.6 10 18:22 22.12.2019
6004 Clouds 5 1014 63 10000 1 30 17:55 22.12.2019
6005 Clouds 5 1014 63 10000 1 30 17:37 22.12.2019
6006 Clouds 7 1013 52 10000 2.1 50 17:18 22.12.2019
6007 Clouds 7 1014 75 10000 1 0 16:56 22.12.2019
6008 Clouds 6 1014 75 10000 1 0 16:37 22.12.2019
6009 Clouds 8 1014 65 10000 0.5 0 16:19 22.12.2019
6010 Clouds 8 1014 61 10000 0.5 0 15:55 22.12.2019
6011 Clouds 8 1014 61 10000 0.5 0 15:36 22.12.2019
6012 Clouds 9 1013 61 10000 0.5 0 15:18 22.12.2019
6013 Clouds 9 1014 65 10000 1.57 187 14:54 22.12.2019
6014 Clouds 9 1014 65 10000 1.57 187 14:54 22.12.2019
6015 Clouds 9 1014 65 10000 1.57 187 14:36 22.12.2019
6016 Clouds 9 1013 32 10000 0.5 220 14:18 22.12.2019
6017 Clouds 9 1014 32 10000 2.6 210 13:54 22.12.2019
6018 Clouds 9 1014 32 10000 2.6 210 13:36 22.12.2019
6019 Clouds 8 1014 61 10000 2.1 200 13:18 22.12.2019
6020 Clouds 8 1014 65 10000 0.5 0 12:54 22.12.2019
6021 Clouds 8 1014 65 10000 0.5 0 12:36 22.12.2019
6022 Clouds 8 1015 33 10000 0.5 0 12:18 22.12.2019
6023 Clouds 7 1015 33 10000 0.5 0 11:39 22.12.2019
6024 Clouds 7 1017 65 6000 2.1 270 11:20 22.12.2019
6025 Clouds 6 1016 34 10000 0.5 0 10:58 22.12.2019
6026 Clouds 6 1016 34 10000 0.5 0 10:40 22.12.2019
6027 Clouds 5 1016 74 10000 0.5 0 10:21 22.12.2019
6028 Clouds 5 1016 74 10000 0.5 0 09:58 22.12.2019
6029 Clouds 4 1017 80 10000 0.5 0 09:40 22.12.2019
6030 Clouds 0 1017 86 10000 0.5 0 09:21 22.12.2019
6031 Clouds 0 1017 34 10000 0.5 0 08:55 22.12.2019
6032 Clouds 0 1017 34 10000 0.5 0 08:37 22.12.2019
6033 Clouds 0 1017 50 10000 0.5 0 08:18 22.12.2019
6034 Clouds 0 1017 86 10000 0.5 0 07:36 22.12.2019
6035 Clouds 0 1017 51 10000 0.5 0 07:18 22.12.2019
6036 Clouds 0 1017 92 7000 0.5 0 06:40 22.12.2019
6037 Clouds -1 1016 92 7000 0.5 0 05:49 22.12.2019
6038 Clouds -1 1017 100 7000 1.5 100 05:21 22.12.2019
6039 Clouds 2 1016 86 7000 0.5 10 04:27 22.12.2019
6040 Clouds 2 1016 92 7000 0.5 10 03:28 22.12.2019
6041 Clouds 1 1017 92 6000 0.5 330 02:35 22.12.2019
6042 Clouds 1 1017 51 7000 0.5 0 01:37 22.12.2019
6043 Clouds 1 1017 51 6000 1.76 189 01:18 22.12.2019
6044 Clouds 2 1017 51 7000 1.76 189 00:45 22.12.2019
6045 Clouds 2 1017 51 8000 0.5 280 00:21 22.12.2019
6046 Clouds 3 1017 74 8000 1.76 189 23:42 21.12.2019
6047 Clouds 4 1018 80 8000 1 20 23:24 21.12.2019
6048 Clouds 3 1018 80 7000 0.5 10 22:59 21.12.2019
6049 Clouds 3 1018 80 7000 0.5 10 22:40 21.12.2019
6050 Clouds 3 1018 80 10000 1.94 191 22:19 21.12.2019
6051 Clouds 3 1018 80 10000 0.5 0 21:56 21.12.2019
6052 Clouds 3 1018 80 10000 0.5 0 21:37 21.12.2019
6053 Clouds 3 1018 74 10000 1.94 191 21:19 21.12.2019
6054 Clouds 3 1018 74 10000 1 30 20:57 21.12.2019
6055 Clouds 3 1018 74 10000 1 30 20:39 21.12.2019
6056 Clouds 3 1018 80 10000 1 20 20:21 21.12.2019
6057 Clouds 3 1018 80 10000 1 20 19:57 21.12.2019
6058 Clouds 3 1018 74 10000 1 20 19:39 21.12.2019
6059 Clouds 4 1019 69 10000 0.5 40 19:19 21.12.2019
6060 Clouds 4 1019 69 10000 0.5 0 18:42 21.12.2019
6061 Clouds 4 1019 60 10000 2.04 181 18:24 21.12.2019
6062 Clouds 5 1019 48 10000 0.5 130 17:57 21.12.2019
6063 Clouds 5 1019 48 10000 0.5 130 17:39 21.12.2019
6064 Clear 5 1019 52 10000 1.38 248 17:21 21.12.2019
6065 Clear 5 1019 52 10000 1.38 248 16:58 21.12.2019
6066 Clear 5 1019 52 10000 1.38 248 16:39 21.12.2019
6067 Clouds 7 1019 48 10000 1.38 248 16:18 21.12.2019
6068 Clouds 7 1019 48 10000 1.38 248 15:56 21.12.2019
6069 Clouds 7 1019 45 10000 1.38 248 15:38 21.12.2019
6070 Clouds 9 1019 45 10000 1.38 248 15:19 21.12.2019
6071 Clouds 9 1019 42 10000 3.6 210 14:44 21.12.2019
6072 Clouds 10 1018 39 10000 3.6 180 14:25 21.12.2019
6073 Clouds 10 1018 39 10000 3.6 180 13:59 21.12.2019
6074 Clouds 10 1018 40 10000 5.1 180 13:40 21.12.2019
6075 Clouds 9 1019 34 10000 5.7 200 13:20 21.12.2019
6076 Clouds 9 1019 34 10000 5.7 200 12:58 21.12.2019
6077 Clouds 9 1019 40 8000 4.1 180 12:39 21.12.2019
6078 Clouds 9 1020 46 7000 2.1 240 12:21 21.12.2019
6079 Haze 8 1022 61 5000 1 0 11:57 21.12.2019
6080 Haze 8 1022 61 5000 1 0 11:39 21.12.2019
6081 Clouds 5 1021 49 10000 1.9 195 11:21 21.12.2019
6082 Clear 4 1021 56 10000 1.9 195 10:42 21.12.2019
6083 Mist 4 1023 100 2000 2.6 260 10:23 21.12.2019
6084 Mist 3 1023 100 2000 2.6 260 09:59 21.12.2019
6085 Mist 1 1022 69 5000 1.9 195 09:41 21.12.2019
6086 Mist 0 1022 80 4000 1.5 300 09:20 21.12.2019
6087 Mist -2 1022 36 3100 1.9 195 08:55 21.12.2019
6088 Mist -2 1022 36 3100 1.32 197 08:36 21.12.2019
6089 Mist -2 1022 86 3100 0.68 206 08:18 21.12.2019
6090 Mist -2 1022 86 3100 0.68 206 07:41 21.12.2019
6091 Fog -3 1023 92 200 0.5 170 07:21 21.12.2019
6092 Mist -3 1022 92 3100 1 300 06:42 21.12.2019
6093 Mist -3 1022 92 4600 0.68 206 06:24 21.12.2019
6094 Mist -2 1022 92 4800 1 300 05:45 21.12.2019
6095 Mist -2 1021 86 4800 1.5 300 04:56 21.12.2019
6096 Mist -2 1022 92 4800 0.5 290 03:56 21.12.2019
6097 Mist -1 1022 92 4900 0.5 300 02:39 21.12.2019
6098 Mist -2 1022 92 4900 0.42 198 01:53 21.12.2019
6099 Clouds 1 1022 92 6000 0.47 212 01:27 21.12.2019
6100 Clouds -2 1023 92 6000 0.5 0 00:50 21.12.2019
6101 Clouds -2 1023 92 6000 0.5 0 00:28 21.12.2019
6102 Clouds -1 1023 92 6000 0.5 0 23:55 20.12.2019
6103 Clouds -1 1023 92 6000 0.5 0 23:36 20.12.2019
6104 Fog -1 1024 92 200 1 0 23:18 20.12.2019
6105 Clouds -1 1024 86 6000 0.5 0 22:40 20.12.2019
6106 Clouds 0 1024 61 6000 0.66 184 22:20 20.12.2019
6107 Clouds 0 1024 86 6000 0.66 184 21:56 20.12.2019
6108 Clouds 0 1024 86 6000 0.66 184 21:38 20.12.2019
6109 Clouds 0 1024 61 6000 0.66 184 21:18 20.12.2019
6110 Clouds 1 1024 61 7000 0.66 184 20:39 20.12.2019
6111 Clouds 0 1024 61 7000 0.66 184 20:39 20.12.2019
6112 Clouds 0 1024 59 7000 0.76 150 20:19 20.12.2019
6113 Clouds 1 1024 80 8000 0.76 150 19:57 20.12.2019
6114 Clouds 1 1024 80 8000 0.76 150 19:38 20.12.2019
6115 Mist 1 1024 59 1600 1 0 19:19 20.12.2019
6116 Clouds 1 1024 80 8000 0.5 310 18:42 20.12.2019
6117 Mist 2 1024 59 2000 1.5 220 18:23 20.12.2019
6118 Mist 2 1024 59 2000 1.5 220 17:58 20.12.2019
6119 Mist 3 1024 93 3500 1.5 260 17:40 20.12.2019
6120 Mist 3 1024 93 3500 1.5 260 17:20 20.12.2019
6121 Clouds 4 1024 55 10000 0.5 0 16:57 20.12.2019
6122 Mist 5 1024 55 3500 1 120 16:38 20.12.2019
6123 Mist 5 1024 55 3500 1 120 16:19 20.12.2019
6124 Clouds 7 1024 55 10000 0.9 130 15:55 20.12.2019
6125 Haze 7 1024 65 2200 3.1 280 15:37 20.12.2019
6126 Haze 7 1024 65 2200 3.1 280 15:37 20.12.2019
6127 Haze 7 1024 65 2200 3.1 280 15:19 20.12.2019
6128 Clouds 9 1024 55 10000 0.5 280 14:42 20.12.2019
6129 Haze 10 1024 33 3100 1.5 290 14:24 20.12.2019
6130 Clouds 10 1024 40 10000 0.5 0 13:57 20.12.2019
6131 Smoke 10 1025 53 3100 0.54 175 13:38 20.12.2019
6132 Smoke 10 1025 53 3100 0.77 154 13:19 20.12.2019
6133 Clouds 9 1025 43 10000 0.77 154 12:56 20.12.2019
6134 Haze 8 1026 65 4300 1.5 260 12:36 20.12.2019
6135 Haze 8 1026 65 4300 1.5 260 12:18 20.12.2019
6136 Clouds 6 1026 45 10000 0.5 0 11:57 20.12.2019
6137 Mist 5 1027 75 2000 0.77 154 11:38 20.12.2019
6138 Mist 5 1027 75 2000 0.77 154 11:38 20.12.2019
6139 Mist 6 1027 75 2000 0.92 126 11:18 20.12.2019
6140 Mist 4 1027 100 3500 1 0 10:56 20.12.2019
6141 Mist 4 1028 93 1300 1 0 10:37 20.12.2019
6142 Mist 3 1028 93 1300 1 0 10:19 20.12.2019
6143 Mist 1 1028 33 1300 0.92 126 09:43 20.12.2019
6144 Fog 0 1028 33 600 0.92 126 09:21 20.12.2019
6145 Mist -2 1028 33 3200 0.5 0 08:55 20.12.2019
6146 Fog -2 1029 92 150 0.92 126 08:37 20.12.2019
6147 Fog 0 1029 92 150 0.91 112 08:19 20.12.2019
6148 Mist -2 1028 92 3500 0.5 80 07:55 20.12.2019
6149 Fog -3 1029 92 200 1 230 07:36 20.12.2019
6150 Fog -2 1029 92 200 1 230 07:18 20.12.2019
6151 Fog -2 1029 92 200 1 210 06:43 20.12.2019
6152 Fog -2 1029 92 200 1 210 06:25 20.12.2019
6153 Mist -2 1028 92 4800 0.5 10 05:47 20.12.2019
6154 Mist -2 1028 92 4600 0.5 0 04:57 20.12.2019
6155 Mist -1 1028 92 4400 0.5 0 03:48 20.12.2019
6156 Mist -1 1029 92 4500 0.5 0 02:46 20.12.2019
6157 Mist -1 1029 92 4500 0.5 0 01:59 20.12.2019
6158 Fog -1 1030 100 200 0.5 0 01:35 20.12.2019
6159 Mist -1 1029 92 4400 0.5 0 00:54 20.12.2019
6160 Fog -1 1030 100 200 1 0 00:35 20.12.2019
6161 Mist -1 1030 92 4200 0.93 104 23:57 19.12.2019
6162 Fog -1 1031 100 200 0.5 0 23:39 19.12.2019
6163 Fog -1 1031 100 200 0.5 0 23:19 19.12.2019
6164 Fog -1 1031 100 200 0.5 0 23:19 19.12.2019
6165 Fog -1 1031 100 200 1.5 200 22:39 19.12.2019
6166 Fog -1 1031 100 200 1.5 200 22:21 19.12.2019
6167 Mist 0 1030 92 4000 0.5 0 21:56 19.12.2019
6168 Fog 0 1031 100 200 0.5 0 21:38 19.12.2019
6169 Fog 0 1031 100 200 0.5 0 21:19 19.12.2019
6170 Mist 1 1031 80 4300 0.5 60 20:56 19.12.2019
6171 Fog 1 1031 100 200 1 0 20:37 19.12.2019
6172 Fog 1 1031 100 200 1 0 20:19 19.12.2019
6173 Mist 0 1031 44 4800 0.5 0 19:58 19.12.2019
6174 Fog 0 1031 44 200 1 0 19:39 19.12.2019
6175 Fog 0 1031 44 200 1 0 19:39 19.12.2019
6176 Fog 0 1031 44 200 1 0 19:19 19.12.2019
6177 Fog 0 1031 44 200 1 0 19:19 19.12.2019
6178 Mist 2 1031 74 4800 1.5 70 18:57 19.12.2019
6179 Fog 2 1032 100 400 1.5 260 18:39 19.12.2019
6180 Fog 2 1032 100 400 1.5 260 18:19 19.12.2019
6181 Fog 2 1031 44 600 0.5 30 17:55 19.12.2019
6182 Mist 3 1031 93 2200 1.5 230 17:37 19.12.2019
6183 Mist 3 1031 93 2200 1.5 230 17:37 19.12.2019
6184 Mist 3 1031 93 2200 1.5 230 17:18 19.12.2019
6185 Fog 4 1032 93 500 2.6 270 16:55 19.12.2019
6186 Mist 4 1031 86 2500 4.6 300 16:36 19.12.2019
6187 Mist 4 1031 86 2500 4.6 300 16:18 19.12.2019
6188 Mist 5 1030 47 4800 0.5 320 15:55 19.12.2019
6189 Mist 6 1031 80 3500 3.1 300 15:36 19.12.2019
6190 Mist 6 1031 80 3500 3.1 300 15:18 19.12.2019
6191 Mist 8 1031 50 4700 0.5 0 14:42 19.12.2019
6192 Smoke 8 1031 65 3500 3.1 310 14:20 19.12.2019
6193 Mist 8 1031 53 4600 0.84 274 13:58 19.12.2019
6194 Smoke 8 1032 65 2000 2.1 300 13:38 19.12.2019
6195 Smoke 8 1032 65 2000 2.1 300 13:19 19.12.2019
6196 Smoke 8 1032 65 2000 2.1 300 13:19 19.12.2019
6197 Mist 6 1032 100 4000 1 0 12:57 19.12.2019
6198 Mist 6 1032 75 2000 2.1 280 12:38 19.12.2019
6199 Mist 6 1032 75 2000 2.1 280 12:19 19.12.2019
6200 Mist 6 1032 75 2000 2.1 280 12:19 19.12.2019
6201 Mist 6 1032 75 2000 2.1 280 12:19 19.12.2019
6202 Mist 4 1033 93 2000 3.1 270 11:58 19.12.2019
6203 Fog 4 1033 80 1400 2.6 270 11:39 19.12.2019
6204 Fog 3 1033 80 1400 2.6 270 11:18 19.12.2019
6205 Fog 3 1033 80 1400 2.6 270 11:18 19.12.2019
6206 Mist 2 1033 29 2100 1 0 10:55 19.12.2019
6207 Fog 2 1034 100 1000 2.1 270 10:37 19.12.2019
6208 Fog 2 1034 100 1000 2.1 270 10:18 19.12.2019
6209 Fog -1 1034 29 1200 1 0 09:39 19.12.2019
6210 Fog -1 1034 29 1200 1 0 09:39 19.12.2019
6211 Fog -1 1034 29 1200 1 0 09:20 19.12.2019
6212 Fog -2 1034 100 250 0.41 199 08:58 19.12.2019
6213 Fog -2 1034 29 400 0.5 0 08:40 19.12.2019
6214 Fog -1 1034 92 200 0.15 143 08:19 19.12.2019
6215 Fog -1 1034 92 200 0.15 143 07:56 19.12.2019
6216 Fog -2 1034 49 400 1.5 50 07:38 19.12.2019
6217 Fog -1 1034 49 400 1.5 50 07:19 19.12.2019
6218 Fog -1 1033 92 250 0.15 143 06:49 19.12.2019
6219 Fog -1 1034 49 400 0.5 0 06:28 19.12.2019
6220 Clouds -1 1033 92 300 0.15 143 05:55 19.12.2019
6221 Fog -1 1033 49 450 2.1 100 05:33 19.12.2019
6222 Fog -1 1033 92 350 0.37 275 04:48 19.12.2019
6223 Fog -1 1033 100 300 0.37 275 02:49 19.12.2019
6224 Fog -1 1033 100 300 0.17 300 01:47 19.12.2019
6225 Fog -1 1033 69 200 0.5 0 01:22 19.12.2019
6226 Fog 0 1033 69 200 1 0 00:40 19.12.2019
6227 Fog 0 1033 69 200 1 0 00:21 19.12.2019
6228 Fog 0 1033 100 200 0.24 317 23:55 18.12.2019
6229 Fog 0 1033 69 200 1.5 160 23:36 18.12.2019
6230 Fog 0 1033 64 200 1.5 160 23:18 18.12.2019
6231 Fog 0 1033 100 200 0.31 230 22:55 18.12.2019
6232 Fog 0 1034 100 200 1 0 22:36 18.12.2019
6233 Fog 0 1034 100 200 1 0 22:18 18.12.2019
6234 Fog 0 1033 100 200 0.31 230 21:55 18.12.2019
6235 Rain 0 1033 100 250 1 0 21:36 18.12.2019
6236 Rain 0 1033 100 250 1 0 21:36 18.12.2019
6237 Rain 0 1033 100 250 1 0 21:18 18.12.2019
6238 Rain 0 1032 100 200 0.31 230 20:54 18.12.2019
6239 Fog 1 1033 100 300 0.5 0 20:36 18.12.2019
6240 Fog 1 1033 100 300 0.5 0 20:18 18.12.2019
6241 Fog 1 1032 100 200 0.15 161 19:54 18.12.2019
6242 Fog 1 1032 100 200 0.15 161 19:54 18.12.2019
6243 Fog 1 1033 100 400 1 0 19:36 18.12.2019
6244 Fog 1 1033 100 400 1 0 19:18 18.12.2019
6245 Fog 1 1033 93 550 0.5 0 18:43 18.12.2019
6246 Fog 1 1033 93 550 0.5 0 18:25 18.12.2019
6247 Fog 1 1032 100 150 0.5 0 17:56 18.12.2019
6248 Fog 2 1032 93 450 0.15 161 17:38 18.12.2019
6249 Fog 2 1032 93 450 0.31 262 17:19 18.12.2019
6250 Fog 2 1031 55 200 0.5 0 16:43 18.12.2019
6251 Fog 2 1031 55 200 0.5 0 16:43 18.12.2019
6252 Fog 2 1031 55 200 0.5 0 16:43 18.12.2019
6253 Fog 2 1032 100 750 1.5 160 16:24 18.12.2019
6254 Fog 2 1031 55 100 0.5 0 15:59 18.12.2019
6255 Fog 2 1031 55 100 0.5 0 15:40 18.12.2019
6256 Fog 2 1032 100 750 0.5 0 15:21 18.12.2019
6257 Fog 3 1031 100 1300 0.5 0 14:59 18.12.2019
6258 Fog 3 1031 100 1300 0.5 0 14:40 18.12.2019
6259 Fog 3 1032 100 1000 1.5 280 14:20 18.12.2019
6260 Mist 3 1031 93 3500 0.5 0 13:56 18.12.2019
6261 Mist 3 1031 93 3500 0.5 0 13:37 18.12.2019
6262 Mist 3 1032 100 1300 1 0 13:19 18.12.2019
6263 Mist 3 1032 100 1300 1 0 13:19 18.12.2019
6264 Mist 1 1031 100 3400 0.5 0 12:57 18.12.2019
6265 Mist 1 1031 100 3400 0.5 0 12:37 18.12.2019
6266 Mist 1 1032 93 1200 1.5 230 12:19 18.12.2019
6267 Mist 1 1031 35 2200 0.5 0 11:55 18.12.2019
6268 Mist 1 1031 35 2200 0.5 0 11:36 18.12.2019
6269 Fog 1 1032 100 600 1.5 200 11:18 18.12.2019
6270 Fog 1 1032 100 600 1 0 10:55 18.12.2019
6271 Fog 0 1032 100 600 1 0 10:37 18.12.2019
6272 Fog 0 1033 100 600 0.5 0 10:18 18.12.2019
6273 Fog -2 1032 100 300 0.5 0 09:21 18.12.2019
6274 Fog -2 1032 100 300 1.03 239 08:58 18.12.2019
6275 Fog -2 1032 100 300 1.03 239 08:39 18.12.2019
6276 Fog -1 1032 92 300 0.5 0 08:21 18.12.2019
6277 Fog -1 1032 92 300 0.5 320 07:43 18.12.2019
6278 Fog -1 1032 61 400 0.5 0 07:22 18.12.2019
6279 Fog -1 1032 100 300 0.5 320 06:53 18.12.2019
6280 Fog -1 1032 61 450 1 120 06:26 18.12.2019
6281 Fog -1 1031 100 500 0.5 320 05:43 18.12.2019
6282 Fog -1 1031 100 400 1 0 04:37 18.12.2019
6283 Fog -1 1031 100 400 1 0 02:50 18.12.2019
6284 Fog 0 1031 100 400 1 0 02:30 18.12.2019
6285 Fog 0 1031 100 400 1 0 01:57 18.12.2019
6286 Fog -1 1031 100 450 0.46 256 01:37 18.12.2019
6287 Fog 0 1031 100 400 0.27 272 01:19 18.12.2019
6288 Fog 0 1031 100 450 0.27 272 00:40 18.12.2019
6289 Fog 0 1031 100 300 0.5 0 00:21 18.12.2019
6290 Fog 1 1030 100 450 0.27 272 23:54 17.12.2019
6291 Fog 1 1030 100 450 0.27 272 23:36 17.12.2019
6292 Fog 1 1031 93 400 1.5 270 23:18 17.12.2019
6293 Fog 1 1030 100 300 0.14 204 22:54 17.12.2019
6294 Fog 1 1030 100 300 0.14 204 22:36 17.12.2019
6295 Fog 1 1031 100 300 1 0 22:18 17.12.2019
6296 Fog 1 1031 92 300 1 0 21:55 17.12.2019
6297 Fog 1 1031 92 300 1 0 21:36 17.12.2019
6298 Fog 1 1031 93 400 0.14 204 21:18 17.12.2019
6299 Fog 1 1030 100 300 0.5 320 20:55 17.12.2019
6300 Fog 1 1030 100 300 0.5 320 20:36 17.12.2019
6301 Fog 1 1031 93 600 0.18 253 20:18 17.12.2019
6302 Fog 2 1030 93 400 0.5 0 19:41 17.12.2019
6303 Fog 2 1030 93 400 0.5 0 19:41 17.12.2019
6304 Fog 2 1030 60 300 1 0 19:20 17.12.2019
6305 Fog 2 1030 60 300 0.5 320 18:58 17.12.2019
6306 Fog 2 1030 93 500 1.5 0 18:40 17.12.2019
6307 Fog 2 1030 93 500 1.5 0 18:21 17.12.2019
6308 Fog 2 1030 60 300 0.18 253 17:58 17.12.2019
6309 Fog 2 1030 60 300 0.18 253 17:39 17.12.2019
6310 Fog 2 1029 62 300 0.21 319 17:19 17.12.2019
6311 Mist 2 1029 93 2000 2.1 250 16:56 17.12.2019
6312 Mist 3 1029 93 2000 2.1 250 16:37 17.12.2019
6313 Mist 3 1029 93 3200 3.1 290 16:18 17.12.2019
6314 Fog 3 1029 62 300 0.21 319 15:54 17.12.2019
6315 Fog 3 1029 62 300 0.21 319 15:36 17.12.2019
6316 Mist 4 1030 93 2500 3.6 270 15:18 17.12.2019
6317 Mist 6 1028 75 3500 2.1 280 14:54 17.12.2019
6318 Mist 6 1028 75 3500 2.1 280 14:36 17.12.2019
6319 Mist 6 1028 75 3500 2.1 280 14:36 17.12.2019
6320 Mist 4 1029 80 4000 3.1 290 14:18 17.12.2019
6321 Fog 4 1028 41 400 1.3 258 13:54 17.12.2019
6322 Fog 4 1028 42 400 1.34 258 13:36 17.12.2019
6323 Fog 4 1028 42 300 1.34 258 13:18 17.12.2019
6324 Mist 3 1030 86 3300 1.5 0 12:39 17.12.2019
6325 Mist 2 1029 86 3100 1 0 12:19 17.12.2019
6326 Mist 1 1030 100 3000 1.5 210 11:59 17.12.2019
6327 Mist 1 1030 100 3000 1.5 210 11:37 17.12.2019
6328 Mist 1 1030 100 3000 1.5 210 11:37 17.12.2019
6329 Mist 2 1030 93 1400 1 0 11:19 17.12.2019
6330 Mist 2 1030 93 1400 1 0 11:19 17.12.2019
6331 Fog 1 1030 100 200 0.85 220 10:59 17.12.2019
6332 Fog 1 1030 100 200 0.85 220 10:40 17.12.2019
6333 Fog 1 1030 100 300 0.85 220 10:21 17.12.2019
6334 Fog 1 1030 100 300 0.85 220 09:59 17.12.2019
6335 Fog 1 1031 100 1300 1 0 09:40 17.12.2019
6336 Mist 0 1031 100 1200 1 220 09:19 17.12.2019
6337 Fog 0 1030 100 200 1 0 08:56 17.12.2019
6338 Fog 0 1030 100 200 1 0 08:38 17.12.2019
6339 Fog 1 1030 100 1200 1 0 08:19 17.12.2019
6340 Fog 0 1030 76 800 1.5 10 07:45 17.12.2019
6341 Fog 0 1030 93 800 1.5 270 07:26 17.12.2019
6342 Rain 0 1029 100 350 1 320 06:56 17.12.2019
6343 Rain 0 1029 100 350 1 320 06:34 17.12.2019
6344 Fog 1 1029 100 500 1 0 05:53 17.12.2019
6345 Fog 1 1029 100 500 1 0 05:34 17.12.2019
6346 Fog 1 1029 93 450 1 0 04:30 17.12.2019
6347 Fog 1 1028 100 300 0.45 223 02:33 17.12.2019
6348 Fog 2 1028 100 300 0.22 282 01:54 17.12.2019
6349 Fog 1 1028 100 200 0.05 224 00:58 17.12.2019
6350 Fog 1 1028 100 200 0.05 224 00:37 17.12.2019
6351 Fog 2 1029 100 450 1 0 00:18 17.12.2019
6352 Fog 2 1028 92 250 0.05 224 23:41 16.12.2019
6353 Fog 2 1028 92 1100 0.12 56 23:19 16.12.2019
6354 Fog 2 1028 92 1100 0.12 56 23:19 16.12.2019
6355 Mist 2 1028 92 3300 0.12 56 22:56 16.12.2019
6356 Mist 2 1028 92 3300 0.12 56 22:37 16.12.2019
6357 Mist 2 1029 93 1800 0.5 0 22:19 16.12.2019
6358 Mist 1 1028 87 3800 1 0 21:55 16.12.2019
6359 Mist 1 1028 87 3800 1 0 21:37 16.12.2019
6360 Mist 1 1028 87 3800 1 0 21:37 16.12.2019
6361 Mist 1 1029 100 2800 1 0 21:18 16.12.2019
6362 Mist 1 1029 87 3200 1 0 20:56 16.12.2019
6363 Mist 1 1029 87 3200 1 0 20:56 16.12.2019
6364 Mist 1 1029 87 3200 1 0 20:37 16.12.2019
6365 Fog 1 1029 100 1000 0.61 271 20:19 16.12.2019
6366 Mist 1 1028 86 4000 0.61 271 19:55 16.12.2019
6367 Mist 1 1028 86 4000 0.61 271 19:36 16.12.2019
6368 Clouds 2 1028 93 7000 2.1 240 19:18 16.12.2019
6369 Clouds 2 1028 85 6000 0.61 271 18:55 16.12.2019
6370 Clouds 2 1028 85 6000 0.61 271 18:37 16.12.2019
6371 Clouds 2 1028 93 10000 1.5 250 18:19 16.12.2019
6372 Clouds 3 1027 85 6000 1 0 17:57 16.12.2019
6373 Clouds 3 1027 85 6000 1 0 17:37 16.12.2019
6374 Clouds 3 1028 86 10000 2.6 250 17:19 16.12.2019
6375 Clouds 4 1027 76 8000 1 0 16:55 16.12.2019
6376 Clouds 5 1027 76 8000 1 0 16:37 16.12.2019
6377 Clouds 5 1028 86 10000 2.6 250 16:18 16.12.2019
6378 Clouds 6 1027 75 8000 0.5 350 15:55 16.12.2019
6379 Clouds 6 1027 75 8000 0.5 350 15:37 16.12.2019
6380 Clouds 8 1027 76 8000 1 0 15:19 16.12.2019
6381 Clouds 8 1027 76 8000 1 0 14:54 16.12.2019
6382 Clouds 8 1027 76 8000 1 0 14:36 16.12.2019
6383 Clouds 8 1027 61 8000 1 0 14:18 16.12.2019
6384 Clouds 8 1027 61 8000 1 0 14:18 16.12.2019
6385 Clouds 8 1027 70 7000 1 0 13:55 16.12.2019
6386 Clouds 8 1027 70 7000 1 0 13:36 16.12.2019
6387 Clouds 8 1027 66 6000 1.5 0 13:18 16.12.2019
6388 Clouds 8 1027 66 6000 1.5 0 13:18 16.12.2019
6389 Mist 8 1027 86 4400 1.5 300 12:54 16.12.2019
6390 Mist 8 1027 86 4400 1.5 300 12:36 16.12.2019
6391 Clouds 8 1027 70 7000 2.6 270 12:18 16.12.2019
6392 Mist 7 1027 93 4500 0.5 0 11:55 16.12.2019
6393 Mist 7 1027 93 4500 0.5 0 11:37 16.12.2019
6394 -273 0 0 0 0 0 11:19 16.12.2019
6395 Fog 6 1028 100 1200 0.5 0 10:40 16.12.2019
6396 Mist 5 1028 81 4800 1 0 10:21 16.12.2019
6397 Fog 5 1028 100 500 0.5 0 09:56 16.12.2019
6398 Fog 5 1028 100 500 0.5 0 09:37 16.12.2019
6399 Mist 4 1029 93 3700 0.5 0 09:19 16.12.2019
6400 Mist 3 1028 67 4500 0.5 0 08:39 16.12.2019
6401 Mist 2 1028 93 5000 1 0 08:19 16.12.2019
6402 Fog 1 1028 92 1600 0.5 0 07:51 16.12.2019
6403 Fog 1 1028 92 1600 0.5 0 07:31 16.12.2019
6404 Fog 0 1027 100 2200 0.5 0 06:49 16.12.2019
6405 Mist 0 1027 94 4000 0.5 0 06:27 16.12.2019
6406 Fog 0 1026 92 1100 0.06 192 05:59 16.12.2019
6407 Fog 0 1026 92 1100 0.06 192 05:40 16.12.2019
6408 Mist 0 1026 94 3300 0.5 300 05:22 16.12.2019
6409 Clear 1 1025 100 6000 0.65 298 02:59 16.12.2019
6410 Clear 3 1024 92 10000 1 0 01:46 16.12.2019
6411 Clouds 2 1024 93 10000 1 0 00:57 16.12.2019
6412 Clouds 2 1024 93 10000 1 0 00:38 16.12.2019
6413 Clouds 2 1024 93 10000 1.5 210 00:19 16.12.2019
6414 Clouds 2 1023 93 10000 1 0 23:43 15.12.2019
6415 Clouds 3 1024 93 10000 0.8 280 23:25 15.12.2019
6416 Clouds 2 1023 93 10000 1 0 22:57 15.12.2019
6417 Clouds 3 1023 93 10000 1 0 22:38 15.12.2019
6418 Clear 3 1023 91 10000 1 210 22:19 15.12.2019
6419 Clouds 4 1023 86 10000 0.5 0 21:58 15.12.2019
6420 Clouds 4 1023 86 10000 0.5 0 21:38 15.12.2019
6421 Clear 4 1023 100 10000 0.74 265 21:20 15.12.2019
6422 Clouds 5 1022 86 10000 1 0 20:58 15.12.2019
6423 Clouds 5 1022 86 10000 1 0 20:40 15.12.2019
6424 Clouds 5 1022 86 10000 0.8 253 20:21 15.12.2019
6425 Clouds 5 1022 86 10000 0.82 256 20:21 15.12.2019
6426 Clouds 5 1022 86 10000 0.8 253 19:58 15.12.2019
6427 Clouds 6 1022 81 10000 2.1 120 19:40 15.12.2019
6428 Clouds 6 1022 81 10000 0.82 256 19:20 15.12.2019
6429 Clouds 6 1022 81 10000 0.82 256 18:58 15.12.2019
6430 Clouds 6 1021 75 10000 1 0 18:39 15.12.2019
6431 Clouds 6 1021 87 10000 0.5 0 18:19 15.12.2019
6432 Clouds 7 1021 70 10000 1 0 17:56 15.12.2019
6433 Clouds 7 1021 70 10000 1 0 17:56 15.12.2019
6434 Clouds 7 1021 70 10000 1 0 17:38 15.12.2019
6435 Clouds 7 1021 81 10000 2.1 270 17:19 15.12.2019
6436 Clouds 9 1020 70 10000 1.5 240 16:57 15.12.2019
6437 Clouds 9 1020 70 10000 1.5 240 16:39 15.12.2019
6438 Clouds 10 1019 66 10000 1 0 16:20 15.12.2019
6439 Clouds 11 1019 66 10000 1 0 15:55 15.12.2019
6440 Clouds 11 1019 66 10000 1 0 15:37 15.12.2019
6441 Clouds 11 1019 57 10000 1.5 280 15:18 15.12.2019
6442 Clouds 11 1019 61 10000 2.6 270 14:55 15.12.2019
6443 Clouds 11 1019 61 10000 2.6 270 14:37 15.12.2019
6444 Clouds 11 1019 61 10000 2.6 270 14:37 15.12.2019
6445 Clouds 12 1019 62 10000 2.6 260 14:18 15.12.2019
6446 Clouds 12 1018 57 10000 1 0 13:58 15.12.2019
6447 Clouds 12 1018 57 10000 1 0 13:37 15.12.2019
6448 Clouds 12 1018 57 10000 1 0 13:37 15.12.2019
6449 Clouds 11 1019 54 10000 3.1 270 13:19 15.12.2019
6450 Clouds 11 1018 61 10000 2.94 276 12:56 15.12.2019
6451 Clouds 11 1018 61 10000 2.94 276 12:38 15.12.2019
6452 Clouds 11 1018 57 10000 1 310 12:20 15.12.2019
6453 Clouds 10 1017 61 10000 0.5 0 11:55 15.12.2019
6454 Clouds 10 1017 61 10000 0.5 0 11:36 15.12.2019
6455 Clouds 10 1017 61 10000 0.5 0 11:18 15.12.2019
6456 Clouds 9 1018 70 10000 0.5 0 10:55 15.12.2019
6457 Clouds 9 1018 70 10000 0.5 0 10:36 15.12.2019
6458 Clouds 8 1018 66 10000 2.6 300 10:18 15.12.2019
6459 Clouds 7 1018 86 10000 0.5 0 09:39 15.12.2019
6460 Clouds 6 1018 75 10000 1 0 09:20 15.12.2019
6461 Clouds 6 1018 75 10000 1 0 09:20 15.12.2019
6462 Clouds 5 1017 86 8000 0.5 0 08:57 15.12.2019
6463 Clouds 5 1017 86 8000 0.5 0 08:39 15.12.2019
6464 Clear 4 1018 93 10000 1 0 08:20 15.12.2019
6465 Mist 2 1017 93 4200 0.5 70 07:55 15.12.2019
6466 Mist 2 1017 93 4200 0.5 70 07:34 15.12.2019
6467 Fog 1 1016 90 3700 0.5 0 06:39 15.12.2019
6468 Fog 0 1016 90 4200 0.92 119 06:19 15.12.2019
6469 Clear 0 1015 91 10000 0.5 0 05:25 15.12.2019
6470 Clear 1 1014 91 8000 1.48 110 04:24 15.12.2019
6471 Clear 2 1014 86 10000 1.48 110 03:22 15.12.2019
6472 Clear 2 1013 91 10000 1.48 110 02:33 15.12.2019
6473 Clouds 3 1013 86 10000 1.71 101 01:44 15.12.2019
6474 Clouds 3 1013 86 10000 1 0 01:25 15.12.2019
6475 Clouds 3 1013 92 10000 1.67 92 00:54 15.12.2019
6476 Clouds 3 1013 92 10000 1.67 92 00:35 15.12.2019
6477 Clouds 4 1012 93 8000 1.67 92 23:58 14.12.2019
6478 Clouds 4 1012 93 8000 1.67 92 23:38 14.12.2019
6479 Clouds 4 1012 86 6000 2.03 83 23:18 14.12.2019
6480 Clouds 5 1012 86 10000 2.03 83 22:56 14.12.2019
6481 Clouds 5 1012 86 10000 2.03 83 22:37 14.12.2019
6482 Clouds 5 1012 93 10000 1 0 22:19 14.12.2019
6483 Clouds 6 1011 75 10000 2.03 83 21:55 14.12.2019
6484 Clouds 6 1011 75 10000 2.03 83 21:37 14.12.2019
6485 Clouds 6 1011 87 10000 2.1 320 21:18 14.12.2019
6486 Clouds 6 1011 87 10000 2.1 320 21:18 14.12.2019
6487 Clouds 7 1010 86 10000 2.03 83 20:42 14.12.2019
6488 Clouds 7 1010 70 10000 1 0 20:21 14.12.2019
6489 Clouds 8 1010 70 10000 0.5 0 19:59 14.12.2019
6490 Clouds 8 1010 70 10000 0.5 0 19:39 14.12.2019
6491 Clouds 8 1010 66 10000 1.5 240 19:21 14.12.2019
6492 Clouds 9 1010 75 10000 2.31 122 18:57 14.12.2019
6493 Clouds 9 1010 75 10000 2.31 122 18:39 14.12.2019
6494 Clouds 9 1009 71 10000 1.5 180 18:21 14.12.2019
6495 Clouds 9 1009 87 10000 0.5 0 17:57 14.12.2019
6496 Clouds 9 1009 87 10000 0.5 0 17:38 14.12.2019
6497 Clouds 9 1008 66 10000 2.1 180 17:20 14.12.2019
6498 Clouds 10 1008 70 10000 0.5 0 16:41 14.12.2019
6499 Clouds 10 1008 66 10000 2.6 100 16:19 14.12.2019
6500 Clouds 11 1008 66 10000 3.1 140 15:55 14.12.2019
6501 Clouds 11 1008 66 10000 3.1 140 15:36 14.12.2019
6502 Clouds 11 1008 62 10000 4.6 150 15:18 14.12.2019
6503 Clouds 12 1008 62 10000 4.6 170 14:40 14.12.2019
6504 Clouds 12 1007 58 10000 2.6 160 14:22 14.12.2019
6505 Clouds 12 1007 58 10000 2.6 160 13:59 14.12.2019
6506 Clouds 12 1007 62 10000 5.7 180 13:41 14.12.2019
6507 Clouds 12 1007 62 10000 5.7 180 13:41 14.12.2019
6508 Clouds 12 1007 62 10000 5.1 170 13:19 14.12.2019
6509 Clouds 11 1007 62 10000 4.6 170 12:57 14.12.2019
6510 Clouds 11 1007 62 10000 4.6 170 12:38 14.12.2019
6511 Clouds 12 1007 62 10000 2.1 190 12:20 14.12.2019
6512 Clouds 12 1007 62 10000 2.1 190 12:20 14.12.2019
6513 Clouds 12 1007 62 10000 1 0 11:56 14.12.2019
6514 Clouds 12 1007 62 10000 1 0 11:38 14.12.2019
6515 Clouds 11 1008 62 10000 3.6 180 11:19 14.12.2019
6516 Clouds 10 1008 70 10000 0.5 0 10:56 14.12.2019
6517 Clouds 11 1008 70 10000 0.5 0 10:38 14.12.2019
6518 Clouds 10 1008 62 10000 3.6 200 10:19 14.12.2019
6519 Clouds 9 1009 76 10000 0.5 0 09:43 14.12.2019
6520 Clouds 8 1008 70 10000 0.5 0 09:23 14.12.2019
6521 Clouds 8 1008 70 10000 0.5 0 08:57 14.12.2019
6522 Clouds 7 1008 81 10000 0.5 0 08:38 14.12.2019
6523 Clouds 7 1009 75 10000 1.5 90 08:19 14.12.2019
6524 Clouds 5 1008 80 10000 2.28 126 07:40 14.12.2019
6525 Clouds 5 1008 81 10000 3.6 330 07:21 14.12.2019
6526 Clouds 5 1008 81 10000 3.6 330 07:21 14.12.2019
6527 Clouds 5 1008 86 10000 0.5 0 06:48 14.12.2019
6528 Clouds 5 1007 75 10000 3.6 190 06:30 14.12.2019
6529 Clouds 6 1007 75 10000 1 150 05:43 14.12.2019
6530 Clouds 7 1007 86 10000 1 0 03:44 14.12.2019
6531 Rain 7 1007 81 10000 1.88 124 02:24 14.12.2019
6532 Rain 7 1007 86 4800 1.88 124 01:44 14.12.2019
6533 Rain 7 1007 75 10000 1 0 01:20 14.12.2019
6534 Mist 7 1007 86 7000 1.81 141 00:41 14.12.2019
6535 Clouds 7 1007 76 10000 1 0 00:20 14.12.2019
6536 Clouds 7 1007 93 6000 1.81 141 23:41 13.12.2019
6537 Clouds 7 1007 76 10000 3.1 190 23:19 13.12.2019
6538 Rain 7 1007 93 6000 2.45 154 22:57 13.12.2019
6539 Rain 7 1007 93 6000 2.45 154 22:38 13.12.2019
6540 Clouds 7 1007 81 10000 3.1 160 22:18 13.12.2019
6541 Rain 7 1007 93 7000 1 0 21:44 13.12.2019
6542 Rain 7 1007 93 8000 1 0 21:22 13.12.2019
6543 Rain 7 1007 93 8000 1 0 20:59 13.12.2019
6544 Rain 7 1008 76 10000 0.5 0 20:40 13.12.2019
6545 Clouds 7 1007 93 10000 0.5 0 20:20 13.12.2019
6546 Clouds 7 1007 93 10000 0.5 0 19:57 13.12.2019
6547 Clouds 7 1007 75 9000 2.1 170 19:39 13.12.2019
6548 Clouds 7 1007 75 9000 2.1 170 19:20 13.12.2019
6549 Rain 7 1007 87 10000 2.1 360 18:55 13.12.2019
6550 Clouds 7 1007 81 10000 1.5 170 18:36 13.12.2019
6551 Clouds 7 1007 81 10000 1.5 170 18:18 13.12.2019
6552 Clouds 7 1007 87 10000 2.1 70 17:40 13.12.2019
6553 Clouds 7 1007 87 10000 2.1 70 17:19 13.12.2019
6554 Clouds 8 1007 81 10000 2.41 168 16:57 13.12.2019
6555 Clouds 8 1007 81 10000 2.41 168 16:57 13.12.2019
6556 Clouds 8 1006 87 10000 2.1 40 16:38 13.12.2019
6557 Clouds 7 1006 87 10000 2.1 40 16:20 13.12.2019
6558 Clouds 9 1006 76 10000 0.5 0 15:43 13.12.2019
6559 Rain 10 1007 57 10000 4.6 210 15:22 13.12.2019
6560 Rain 10 1007 57 10000 4.6 210 14:57 13.12.2019
6561 Rain 10 1006 57 10000 3.1 230 14:39 13.12.2019
6562 Rain 10 1006 57 10000 3.1 230 14:19 13.12.2019
6563 Clouds 11 1006 66 10000 1.5 180 13:44 13.12.2019
6564 Clouds 11 1006 62 10000 3.1 230 13:26 13.12.2019
6565 Clouds 11 1007 61 10000 4.16 190 12:59 13.12.2019
6566 Clouds 11 1007 54 10000 4.1 220 12:40 13.12.2019
6567 Clouds 10 1007 70 10000 3.1 230 12:19 13.12.2019
6568 Clouds 11 1007 54 10000 4.1 220 12:19 13.12.2019
6569 Clouds 10 1007 70 10000 3.1 230 11:45 13.12.2019
6570 Clouds 10 1007 70 10000 3.1 230 11:45 13.12.2019
6571 Clouds 10 1007 62 10000 3.6 230 11:26 13.12.2019
6572 Clouds 9 1007 75 10000 2.6 240 10:58 13.12.2019
6573 Clouds 9 1008 70 10000 2.1 280 10:40 13.12.2019
6574 Clouds 9 1008 70 10000 2.1 280 10:21 13.12.2019
6575 Clouds 8 1008 81 10000 3.6 210 09:43 13.12.2019
6576 Clouds 7 1008 81 10000 2.1 250 09:22 13.12.2019
6577 Rain 7 1008 93 8000 2.1 270 08:55 13.12.2019
6578 Rain 7 1008 93 8000 2.1 270 08:55 13.12.2019
6579 Clouds 7 1008 81 10000 0.5 0 08:36 13.12.2019
6580 Clouds 7 1008 81 10000 0.5 0 08:18 13.12.2019
6581 Rain 6 1008 93 10000 1.5 250 07:42 13.12.2019
6582 Clouds 6 1007 81 10000 1.73 129 07:19 13.12.2019
6583 Clouds 6 1007 87 10000 1.5 330 06:45 13.12.2019
6584 Clouds 6 1007 87 10000 1.5 330 06:25 13.12.2019
6585 Clouds 6 1007 100 10000 0.5 0 05:38 13.12.2019
6586 Clouds 6 1007 100 10000 0.5 0 05:20 13.12.2019
6587 Mist 5 1006 93 3100 1.85 142 04:28 13.12.2019
6588 Clouds 6 1006 93 6000 1.85 142 02:56 13.12.2019
6589 Rain 6 1006 87 10000 1 0 02:30 13.12.2019
6590 Clouds 6 1006 81 10000 0.5 0 01:34 13.12.2019
6591 Clouds 6 1006 100 7000 1.49 131 00:50 13.12.2019
6592 Clouds 6 1006 81 10000 1 0 00:28 13.12.2019
6593 Clouds 6 1006 93 6000 1.49 131 23:43 12.12.2019
6594 Clouds 6 1006 81 10000 1 0 23:25 12.12.2019
6595 Clouds 6 1007 86 6000 1.5 30 22:57 12.12.2019
6596 Clouds 6 1007 87 10000 0.5 0 22:39 12.12.2019
6597 Clouds 5 1007 87 10000 0.5 0 22:21 12.12.2019
6598 Clouds 5 1007 93 10000 0.5 0 21:56 12.12.2019
6599 Clouds 5 1007 87 10000 2.1 100 21:37 12.12.2019
6600 Clouds 5 1007 87 10000 2.1 100 21:19 12.12.2019
6601 Clouds 6 1007 93 10000 0.5 360 20:59 12.12.2019
6602 Clouds 6 1007 81 10000 2.1 90 20:40 12.12.2019
6603 Clouds 6 1007 81 10000 2.1 90 20:21 12.12.2019
6604 Clouds 5 1007 86 10000 3.1 30 19:56 12.12.2019
6605 Clouds 5 1007 87 10000 3.1 90 19:37 12.12.2019
6606 Clouds 5 1007 87 10000 3.1 90 19:18 12.12.2019
6607 Rain 5 1007 86 10000 3.1 20 18:56 12.12.2019
6608 Clouds 5 1007 81 10000 2.6 100 18:37 12.12.2019
6609 Clouds 5 1007 81 10000 2.6 100 18:37 12.12.2019
6610 Clouds 5 1007 81 10000 2.6 100 18:19 12.12.2019
6611 Clouds 5 1007 86 10000 4.1 20 17:56 12.12.2019
6612 Clouds 5 1008 87 10000 2.1 80 17:38 12.12.2019
6613 Clouds 5 1008 87 10000 2.1 80 17:19 12.12.2019
6614 Clouds 5 1008 93 9000 2.6 80 16:54 12.12.2019
6615 Rain 6 1007 81 10000 3.6 80 16:36 12.12.2019
6616 Rain 6 1007 81 10000 3.6 80 16:18 12.12.2019
6617 Rain 6 1007 93 4000 4.6 20 15:42 12.12.2019
6618 Rain 6 1007 81 10000 3.6 70 15:20 12.12.2019
6619 Rain 6 1008 86 6000 4.1 20 14:57 12.12.2019
6620 Rain 6 1008 93 4900 1.5 20 14:37 12.12.2019
6621 Rain 6 1008 93 4900 1.5 20 14:19 12.12.2019
6622 Rain 6 1008 86 4500 2.1 20 13:55 12.12.2019
6623 Rain 6 1008 87 7000 4.1 70 13:37 12.12.2019
6624 Rain 6 1008 87 7000 4.1 70 13:19 12.12.2019
6625 Rain 6 1008 86 4700 3.6 20 12:55 12.12.2019
6626 Rain 6 1008 81 10000 4.1 80 12:37 12.12.2019
6627 Rain 6 1008 81 10000 4.1 80 12:18 12.12.2019
6628 Rain 6 1008 86 6000 3.1 20 11:43 12.12.2019
6629 Rain 6 1009 86 4000 3.6 30 11:22 12.12.2019
6630 Rain 6 1009 86 8000 5.1 30 10:59 12.12.2019
6631 Rain 6 1009 81 6000 3.1 80 10:41 12.12.2019
6632 Rain 6 1009 81 6000 3.1 80 10:23 12.12.2019
6633 Rain 6 1010 86 4800 3.6 30 09:58 12.12.2019
6634 Clouds 6 1010 87 6000 2.6 90 09:40 12.12.2019
6635 Clouds 6 1010 87 6000 2.6 90 09:21 12.12.2019
6636 Rain 5 1011 93 4100 1.5 200 08:54 12.12.2019
6637 Rain 5 1011 93 4100 2.18 77 08:36 12.12.2019
6638 Rain 5 1011 93 4100 2.26 89 08:18 12.12.2019
6639 Rain 5 1010 93 4800 3.1 90 07:41 12.12.2019
6640 Rain 5 1010 93 4800 3.1 90 07:21 12.12.2019
6641 Rain 4 1010 93 4000 2.1 110 06:43 12.12.2019
6642 Rain 4 1010 93 4000 2.1 110 06:23 12.12.2019
6643 Rain 4 1011 93 6000 2.1 120 05:35 12.12.2019
6644 Rain 4 1011 86 4000 0.5 0 04:49 12.12.2019
6645 Clouds 4 1012 86 9000 2.59 85 02:44 12.12.2019
6646 Clouds 4 1012 93 6000 2.59 85 02:26 12.12.2019
6647 Clouds 4 1014 100 6000 1 0 01:59 12.12.2019
6648 Clouds 4 1013 93 7000 2.53 79 01:36 12.12.2019
6649 Clouds 4 1013 86 6000 0.5 0 00:58 12.12.2019
6650 Clouds 4 1014 86 8000 0.5 0 00:38 12.12.2019
6651 Clouds 4 1014 86 8000 0.5 0 00:18 12.12.2019
6652 Clouds 4 1014 86 8000 0.5 0 23:40 11.12.2019
6653 Clouds 4 1014 86 8000 0.5 0 23:19 11.12.2019
6654 Rain 4 1015 93 6000 1 290 22:57 11.12.2019
6655 Rain 4 1015 80 8000 1 0 22:38 11.12.2019
6656 Rain 4 1015 80 8000 1 0 22:38 11.12.2019
6657 Rain 4 1015 80 8000 1 0 22:19 11.12.2019
6658 Clouds 4 1016 93 8000 1 0 21:55 11.12.2019
6659 Clouds 4 1016 93 8000 1 0 21:55 11.12.2019
6660 Clouds 3 1015 87 7000 0.5 0 21:37 11.12.2019
6661 Clouds 3 1015 87 7000 0.5 0 21:19 11.12.2019
6662 Rain 3 1015 87 8000 0.5 0 20:55 11.12.2019
6663 Rain 3 1015 86 10000 2.6 90 20:37 11.12.2019
6664 Rain 3 1015 86 10000 2.6 90 20:18 11.12.2019
6665 Rain 4 1015 75 10000 1.5 90 19:43 11.12.2019
6666 Rain 4 1015 75 10000 1.5 90 19:23 11.12.2019
6667 Rain 4 1016 80 8000 2.1 100 18:59 11.12.2019
6668 Clouds 4 1015 75 10000 2.1 110 18:40 11.12.2019
6669 Clouds 4 1015 75 10000 2.1 110 18:21 11.12.2019
6670 Clouds 4 1015 81 8000 3.6 20 17:57 11.12.2019
6671 Clouds 4 1015 75 10000 2.6 70 17:38 11.12.2019
6672 Clouds 4 1015 77 8000 5.1 20 17:18 11.12.2019
6673 Clouds 4 1015 77 8000 5.1 20 16:56 11.12.2019
6674 Clouds 4 1015 70 10000 3.1 80 16:37 11.12.2019
6675 Clouds 4 1015 70 10000 3.1 80 16:19 11.12.2019
6676 Clouds 5 1015 80 6000 4.1 20 15:57 11.12.2019
6677 Clouds 6 1015 70 8000 3.1 80 15:37 11.12.2019
6678 Clouds 6 1015 70 8000 3.1 80 15:19 11.12.2019
6679 Clouds 6 1015 77 7000 4.6 20 14:55 11.12.2019
6680 Clouds 6 1015 65 8000 3.6 90 14:37 11.12.2019
6681 Clouds 7 1015 65 8000 3.6 90 14:18 11.12.2019
6682 Clouds 6 1015 75 8000 5.1 20 13:44 11.12.2019
6683 Clouds 7 1015 65 8000 3.1 90 13:24 11.12.2019
6684 Clouds 6 1016 75 8000 4.6 30 12:59 11.12.2019
6685 Clouds 6 1016 70 8000 4.1 80 12:40 11.12.2019
6686 Clouds 6 1016 70 8000 4.1 80 12:22 11.12.2019
6687 Clouds 5 1016 66 8000 3.6 10 11:58 11.12.2019
6688 Clouds 5 1016 66 8000 4.1 90 11:39 11.12.2019
6689 Clouds 5 1016 68 8000 4.1 90 11:19 11.12.2019
6690 Clouds 4 1016 68 8000 4.1 40 10:59 11.12.2019
6691 Clouds 4 1017 68 7000 1.5 90 10:40 11.12.2019
6692 Clouds 4 1017 68 7000 1.5 90 10:21 11.12.2019
6693 Clouds 4 1017 68 7000 1.5 90 10:21 11.12.2019
6694 Mist 2 1018 68 5000 1 0 09:57 11.12.2019
6695 Clouds 1 1017 80 6000 3.27 112 09:38 11.12.2019
6696 Clouds 2 1017 80 6000 3.27 112 09:19 11.12.2019
6697 Mist -1 1017 68 3100 0.5 0 08:55 11.12.2019
6698 Mist -1 1017 92 3700 3.27 112 08:36 11.12.2019
6699 Mist 0 1017 92 3700 2.77 89 08:18 11.12.2019
6700 Mist -3 1017 100 4500 2.77 89 07:43 11.12.2019
6701 Mist -3 1017 100 4500 2.77 89 07:24 11.12.2019
6702 Mist -3 1017 100 4500 2.77 89 07:24 11.12.2019
6703 Mist -4 1017 92 3400 2.77 89 06:46 11.12.2019
6704 Mist -4 1017 100 3200 2.77 89 06:25 11.12.2019
6705 Clouds -2 1017 92 6000 2.77 89 05:55 11.12.2019
6706 Clouds -2 1017 92 6000 2.77 89 05:35 11.12.2019
6707 Clouds -4 1017 92 6000 2.57 87 04:51 11.12.2019
6708 Mist -4 1017 92 4000 2.57 87 03:29 11.12.2019
6709 Clouds -3 1017 92 6000 2.57 87 02:35 11.12.2019
6710 Clouds -2 1017 92 8000 0.5 0 01:22 11.12.2019
6711 Clouds -2 1017 92 8000 1.81 98 00:38 11.12.2019
6712 Clouds -2 1017 92 8000 1.81 98 00:19 11.12.2019
6713 Clouds -1 1017 86 8000 1.81 98 23:45 10.12.2019
6714 Clouds -1 1017 86 7000 1 220 23:26 10.12.2019
6715 Clouds -2 1017 86 7000 2.11 91 22:56 10.12.2019
6716 Clouds -2 1017 92 8000 2.11 91 22:38 10.12.2019
6717 Clouds -2 1017 92 8000 2.11 91 22:20 10.12.2019
6718 Clouds -1 1017 79 10000 2.11 91 21:54 10.12.2019
6719 Clouds -1 1017 92 8000 1.5 220 21:36 10.12.2019
6720 Clouds -1 1017 92 8000 1.5 220 21:18 10.12.2019
6721 Clouds -1 1017 86 10000 2.11 91 20:55 10.12.2019
6722 Clouds -1 1017 92 10000 2.11 91 20:36 10.12.2019
6723 Clouds -1 1017 92 10000 2.05 88 20:18 10.12.2019
6724 Clouds 0 1017 80 10000 0.5 0 19:44 10.12.2019
6725 Clouds 1 1017 76 10000 1 30 19:25 10.12.2019
6726 Clouds 1 1016 74 10000 2.16 89 18:57 10.12.2019
6727 Clouds 1 1017 80 10000 2.16 89 18:39 10.12.2019
6728 Clouds 1 1017 80 10000 2.16 89 18:19 10.12.2019
6729 Clouds 2 1016 74 10000 0.5 0 17:54 10.12.2019
6730 Clouds 2 1016 80 10000 1 0 17:36 10.12.2019
6731 Clouds 2 1016 80 10000 1 0 17:18 10.12.2019
6732 Clouds 2 1015 74 10000 1 0 16:42 10.12.2019
6733 Clouds 2 1016 80 10000 2.1 260 16:20 10.12.2019